# Wetter Temperatur Luftdruck Luftfeuchtigkeit Sichtweite Windgeschwindigkeit Windrichtung Zeit
1 Clouds 29 1005 74 10000 2.57 0 10:50 14.08.2022
2 Clear 26 1006 78 10000 2.57 200 08:52 14.08.2022
3 Clouds 20 1006 89 10000 2.06 240 06:22 14.08.2022
4 Clear 19 1007 100 8000 1.54 310 02:57 14.08.2022
5 Clear 20 1007 92 10000 1.03 0 00:19 14.08.2022
6 Clear 22 1008 89 10000 0 0 22:56 13.08.2022
7 Clear 22 1008 89 10000 1.03 0 21:19 13.08.2022
8 Clear 23 1008 92 10000 3.09 290 20:43 13.08.2022
9 Clouds 24 1008 86 10000 3.09 120 19:44 13.08.2022
10 Clouds 27 1008 79 10000 4.63 130 17:59 13.08.2022
11 Clouds 28 1008 76 10000 6.69 110 15:40 13.08.2022
12 Clouds 29 1008 72 10000 6.69 110 14:28 13.08.2022
13 Clouds 30 1008 70 10000 4.12 140 13:41 13.08.2022
14 Clouds 30 1009 69 10000 4.12 20 11:53 13.08.2022
15 Clouds 28 1010 74 10000 4.12 340 10:31 13.08.2022
16 Clear 26 1010 76 10000 5.14 350 09:18 13.08.2022
17 Clear 20 1011 83 10000 2.06 300 05:34 13.08.2022
18 Clear 20 1012 96 10000 1.54 260 00:29 13.08.2022
19 Clear 20 1012 92 10000 2.06 350 22:20 12.08.2022
20 Clear 22 1013 89 10000 1.03 0 20:54 12.08.2022
21 Clear 23 1012 86 10000 2.57 130 19:42 12.08.2022
22 Clear 25 1012 81 10000 3.6 120 18:48 12.08.2022
23 Clouds 27 1012 79 10000 4.63 120 17:25 12.08.2022
24 Clouds 28 1012 79 10000 7.72 130 15:52 12.08.2022
25 Clouds 28 1012 75 10000 7.2 120 14:44 12.08.2022
26 Clouds 31 1013 62 10000 4.12 360 12:55 12.08.2022
27 Clouds 28 1014 70 10000 4.12 10 11:19 12.08.2022
28 Clear 23 1014 78 10000 3.09 290 08:31 12.08.2022
29 Clear 20 1014 80 10000 2.57 270 06:56 12.08.2022
30 Clear 20 1014 78 10000 2.06 0 03:20 12.08.2022
31 Clouds 23 1014 72 10000 6.17 360 00:27 12.08.2022
32 Clouds 23 1014 72 10000 6.17 360 23:35 11.08.2022
33 Clouds 24 1014 69 10000 6.17 360 22:27 11.08.2022
34 Clouds 25 1013 69 10000 4.12 360 21:43 11.08.2022
35 Clouds 25 1013 66 10000 5.14 360 20:51 11.08.2022
36 Clouds 26 1013 44 10000 5.14 360 20:19 11.08.2022
37 Clouds 26 1013 63 10000 5.66 360 19:32 11.08.2022
38 Clouds 29 1013 58 10000 6.17 350 17:48 11.08.2022
39 Clouds 29 1013 58 10000 5.66 360 16:37 11.08.2022
40 Clouds 30 1013 53 10000 6.69 360 15:24 11.08.2022
41 Clouds 30 1013 56 10000 8.23 350 13:37 11.08.2022
42 Clear 26 1014 69 10000 4.63 300 10:27 11.08.2022
43 Clouds 20 1014 83 10000 5.66 270 07:47 11.08.2022
44 Clear 18 1014 83 10000 4.63 270 03:54 11.08.2022
45 Clear 18 1014 83 10000 10.29 340 00:50 11.08.2022
46 Clear 21 1014 76 10000 8.75 350 22:32 10.08.2022
47 Clear 22 1015 73 10000 7.2 330 21:25 10.08.2022
48 Clear 23 1015 73 10000 6.17 320 20:55 10.08.2022
49 Clear 26 1014 68 10000 5.14 350 19:31 10.08.2022
50 Clear 27 1013 67 10000 3.6 20 18:22 10.08.2022
51 Clear 28 1014 66 10000 6.17 340 16:36 10.08.2022
52 Clouds 30 1014 64 10000 5.14 330 13:36 10.08.2022
53 Clouds 30 1014 65 10000 5.14 350 12:41 10.08.2022
54 Clear 27 1013 70 10000 11.32 10 09:25 10.08.2022
55 Clear 26 1012 70 10000 10.8 20 08:33 10.08.2022
56 Clear 24 1013 73 10000 8.75 20 07:18 10.08.2022
57 Clouds 23 1012 78 10000 8.75 20 03:25 10.08.2022
58 Clear 26 1013 41 10000 6.69 10 23:34 09.08.2022
59 Clear 26 1013 41 10000 5.14 10 22:56 09.08.2022
60 Clear 27 1013 29 10000 4.63 10 21:35 09.08.2022
61 Clear 26 1013 44 10000 3.6 40 20:26 09.08.2022
62 Clouds 32 1012 20 10000 5.66 70 18:44 09.08.2022
63 Clouds 34 1012 36 10000 7.2 60 17:28 09.08.2022
64 Clouds 34 1012 36 10000 7.2 60 17:28 09.08.2022
65 Rain 34 1012 36 10000 9.26 70 16:40 09.08.2022
66 Clouds 34 1012 34 10000 8.23 70 15:58 09.08.2022
67 Clouds 35 1013 33 10000 8.75 50 12:51 09.08.2022
68 Clear 29 1014 67 10000 5.66 20 09:36 09.08.2022
69 Clear 28 1014 47 10000 6.17 20 08:50 09.08.2022
70 Clear 24 1013 64 10000 7.2 20 07:52 09.08.2022
71 Clear 22 1013 78 10000 6.69 360 04:22 09.08.2022
72 Clear 25 1014 64 10000 1.54 0 23:27 08.08.2022
73 Clear 26 1014 44 10000 3.6 30 22:54 08.08.2022
74 Rain 26 1014 64 10000 4.12 30 21:58 08.08.2022
75 Clear 26 1014 63 10000 5.14 30 20:59 08.08.2022
76 Clear 28 1014 64 10000 4.63 40 19:50 08.08.2022
77 Clear 30 1013 55 10000 7.72 80 18:38 08.08.2022
78 Clouds 34 1013 41 10000 7.2 80 16:37 08.08.2022
79 Clouds 33 1014 41 10000 7.2 70 15:39 08.08.2022
80 Clouds 33 1014 47 10000 7.72 50 12:51 08.08.2022
81 Clear 33 1015 53 10000 6.17 60 11:53 08.08.2022
82 Clear 28 1015 70 10000 6.17 20 09:36 08.08.2022
83 Clear 23 1013 80 10000 7.2 20 05:37 08.08.2022
84 Clear 24 1013 72 10000 6.17 10 02:27 08.08.2022
85 Clear 26 1012 65 10000 5.66 30 22:25 07.08.2022
86 Rain 26 1012 64 10000 6.17 30 21:38 07.08.2022
87 Clear 27 1012 64 10000 4.63 40 20:25 07.08.2022
88 Clear 28 1011 59 10000 5.14 50 19:54 07.08.2022
89 Clear 28 1011 62 10000 5.66 60 19:33 07.08.2022
90 Clear 30 1010 58 10000 8.23 70 18:22 07.08.2022
91 Clear 32 1010 55 10000 8.23 70 16:54 07.08.2022
92 Clouds 33 1010 54 10000 8.23 60 16:28 07.08.2022
93 Clouds 33 1011 54 10000 8.75 50 15:19 07.08.2022
94 Clouds 31 1011 65 10000 7.72 80 13:22 07.08.2022
95 Clouds 30 1011 72 10000 7.2 40 10:59 07.08.2022
96 Clouds 30 1011 72 10000 7.2 40 10:33 07.08.2022
97 Clear 20 1010 100 10000 0 0 05:48 07.08.2022
98 Clear 21 1010 89 10000 1.03 0 03:19 07.08.2022
99 Clear 22 1011 89 10000 2.57 30 23:37 06.08.2022
100 Clear 23 1011 86 10000 0 0 22:20 06.08.2022
101 Clouds 24 1011 89 10000 1.54 360 20:24 06.08.2022
102 Clouds 25 1011 86 10000 1.03 0 19:38 06.08.2022
103 Clouds 26 1011 83 10000 3.09 140 18:22 06.08.2022
104 Clouds 28 1011 81 10000 5.66 130 16:40 06.08.2022
105 Clouds 28 1011 74 10000 5.66 140 14:31 06.08.2022
106 Clouds 29 1011 72 10000 6.69 130 13:39 06.08.2022
107 Clouds 28 1011 76 10000 6.69 130 11:24 06.08.2022
108 Clear 30 1011 70 10000 2.57 0 09:50 06.08.2022
109 Clear 25 1011 83 10000 2.06 250 07:51 06.08.2022
110 Clear 20 1011 96 10000 0 0 03:24 06.08.2022
111 Clear 21 1012 100 10000 2.06 330 23:27 05.08.2022
112 Clear 22 1013 92 10000 2.06 20 21:51 05.08.2022
113 Clouds 25 1012 86 10000 3.09 130 19:29 05.08.2022
114 Clouds 26 1012 83 10000 4.12 130 18:44 05.08.2022
115 Clear 28 1012 79 10000 5.14 130 17:26 05.08.2022
116 Clouds 28 1012 79 10000 5.14 120 16:48 05.08.2022
117 Clouds 29 1013 76 10000 6.17 130 15:21 05.08.2022
118 Clouds 30 1013 70 10000 6.69 120 13:53 05.08.2022
119 Clouds 30 1013 70 10000 6.17 120 13:22 05.08.2022
120 Clouds 30 1013 66 10000 4.12 360 12:24 05.08.2022
121 Clouds 30 1014 67 10000 5.66 10 10:35 05.08.2022
122 Clear 25 1014 79 10000 3.6 340 07:58 05.08.2022
123 Clear 20 1014 88 10000 1.54 320 05:30 05.08.2022
124 Clouds 21 1015 94 10000 1.54 330 23:51 04.08.2022
125 Clouds 22 1015 88 10000 2.06 360 22:25 04.08.2022
126 Clouds 22 1015 88 10000 1.54 350 21:25 04.08.2022
127 Clouds 23 1015 83 10000 1.03 0 20:42 04.08.2022
128 Clouds 25 1014 73 10000 2.57 140 19:23 04.08.2022
129 Clouds 26 1014 69 10000 6.17 120 18:35 04.08.2022
130 Clouds 27 1014 65 10000 6.17 120 17:31 04.08.2022
131 Clouds 27 1014 65 10000 7.2 120 13:44 04.08.2022
132 Clouds 31 1014 37 10000 5.14 40 12:43 04.08.2022
133 Clouds 28 1015 47 10000 3.6 330 10:50 04.08.2022
134 Clear 24 1015 57 10000 5.66 360 07:52 04.08.2022
135 Clear 18 1015 96 10000 2.06 260 04:30 04.08.2022
136 Clear 19 1015 96 10000 0 0 02:20 04.08.2022
137 Clouds 20 1015 92 10000 2.06 310 23:43 03.08.2022
138 Clouds 20 1015 86 10000 2.06 20 21:50 03.08.2022
139 Clouds 21 1015 83 10000 2.57 10 20:37 03.08.2022
140 Clear 25 1014 76 10000 3.09 120 19:29 03.08.2022
141 Clear 27 1014 67 10000 4.63 120 17:58 03.08.2022
142 Clouds 28 1014 70 10000 6.69 130 16:24 03.08.2022
143 Clouds 29 1014 61 10000 5.14 120 14:43 03.08.2022
144 Clear 29 1015 57 10000 6.69 340 11:53 03.08.2022
145 Clear 25 1015 72 10000 4.12 30 08:20 03.08.2022
146 Clear 19 1014 92 10000 0.51 0 04:46 03.08.2022
147 Clear 20 1014 86 10000 1.03 0 03:27 03.08.2022
148 Clear 20 1014 100 10000 1.54 280 01:18 03.08.2022
149 Clear 20 1014 100 10000 1.54 280 01:18 03.08.2022
150 Clear 21 1014 92 10000 2.06 330 22:59 02.08.2022
151 Clear 22 1014 89 10000 2.06 30 21:53 02.08.2022
152 Clear 22 1013 89 10000 1.03 0 20:58 02.08.2022
153 Clouds 29 1012 61 10000 4.63 20 18:48 02.08.2022
154 Clouds 29 1012 63 10000 6.17 340 16:21 02.08.2022
155 Clouds 28 1012 68 10000 6.17 360 11:45 02.08.2022
156 Clouds 24 1012 75 10000 5.66 350 09:18 02.08.2022
157 Clear 22 1011 80 10000 6.69 360 07:53 02.08.2022
158 Clear 21 1012 83 10000 4.63 360 06:43 02.08.2022
159 Clear 20 1011 83 10000 3.09 330 04:54 02.08.2022
160 Clear 21 1011 86 10000 0 0 23:38 01.08.2022
161 Clear 22 1011 80 10000 2.06 40 22:24 01.08.2022
162 Clear 23 1010 78 10000 2.06 330 20:52 01.08.2022
163 Clouds 26 1009 69 10000 6.17 360 19:25 01.08.2022
164 Clouds 27 1008 71 10000 5.66 360 18:31 01.08.2022
165 Clouds 29 1008 55 10000 4.12 330 16:53 01.08.2022
166 Clouds 30 1008 51 10000 4.12 280 15:52 01.08.2022
167 Clouds 30 1008 53 10000 4.12 290 15:30 01.08.2022
168 Clouds 29 1008 56 10000 5.66 310 14:20 01.08.2022
169 Clouds 29 1009 56 10000 5.14 300 11:59 01.08.2022
170 Clear 25 1009 69 10000 8.23 290 09:40 01.08.2022
171 Clear 23 1009 73 10000 8.23 280 08:25 01.08.2022
172 Clear 19 1009 83 10000 3.6 310 04:48 01.08.2022
173 Clear 18 1009 100 10000 0 0 03:49 01.08.2022
174 Clouds 19 1010 100 10000 1.03 340 00:23 01.08.2022
175 Clouds 20 1010 100 10000 0 0 22:39 31.07.2022
176 Clouds 21 1010 100 10000 1.03 0 21:27 31.07.2022
177 Clouds 24 1009 96 10000 2.06 30 19:41 31.07.2022
178 Rain 24 1009 78 8000 3.09 270 17:48 31.07.2022
179 Clouds 32 1009 63 10000 2.06 10 15:37 31.07.2022
180 Clouds 30 1010 67 10000 5.14 340 13:42 31.07.2022
181 Clouds 30 1010 70 10000 6.17 310 11:58 31.07.2022
182 Clear 29 1010 70 10000 3.09 310 09:43 31.07.2022
183 Clear 23 1011 88 10000 1.03 0 07:38 31.07.2022
184 Clouds 21 1011 96 10000 2.06 280 02:58 31.07.2022
185 Clear 23 1012 100 10000 0 0 23:36 30.07.2022
186 Clear 24 1012 92 10000 2.57 100 22:19 30.07.2022
187 Clear 24 1012 92 10000 2.57 100 22:19 30.07.2022
188 Clear 24 1012 92 10000 3.09 90 21:48 30.07.2022
189 Clear 24 1012 89 10000 3.09 90 20:56 30.07.2022
190 Clear 25 1012 83 10000 2.57 130 19:58 30.07.2022
191 Clear 27 1011 86 10000 4.12 140 18:53 30.07.2022
192 Clouds 29 1011 81 10000 5.66 120 17:42 30.07.2022
193 Clouds 30 1012 82 10000 7.72 120 15:49 30.07.2022
194 Clouds 30 1012 81 10000 6.69 130 15:21 30.07.2022
195 Clouds 33 1013 70 10000 5.66 120 12:55 30.07.2022
196 Clouds 32 1013 72 10000 5.14 130 11:55 30.07.2022
197 Clear 31 1013 72 10000 2.06 160 10:28 30.07.2022
198 Clear 30 1014 74 10000 3.09 190 09:46 30.07.2022
199 Clear 24 1014 92 10000 2.57 240 07:54 30.07.2022
200 Clear 22 1015 100 10000 1.03 30 02:36 30.07.2022
201 Clear 22 1015 100 10000 0.51 0 01:46 30.07.2022
202 Clear 24 1015 86 10000 1.03 0 22:25 29.07.2022
203 Clear 23 1015 86 10000 1.54 340 21:23 29.07.2022
204 Clear 26 1015 80 10000 4.63 120 19:57 29.07.2022
205 Clear 29 1014 65 10000 6.17 130 17:53 29.07.2022
206 Clear 31 1014 56 10000 7.2 140 15:21 29.07.2022
207 Clear 32 1015 56 10000 6.69 140 12:59 29.07.2022
208 Clear 31 1016 60 10000 3.6 140 10:35 29.07.2022
209 Clear 28 1016 65 10000 2.06 50 08:49 29.07.2022
210 Clear 23 1016 73 10000 1.54 230 07:40 29.07.2022
211 Clear 19 1016 92 10000 1.54 250 01:47 29.07.2022
212 Clear 21 1016 89 10000 2.06 60 22:41 28.07.2022
213 Clear 23 1016 83 10000 2.06 70 20:59 28.07.2022
214 Clear 23 1016 83 10000 2.57 100 20:30 28.07.2022
215 Clear 24 1015 78 10000 3.6 100 19:42 28.07.2022
216 Clear 27 1015 74 10000 4.63 110 18:48 28.07.2022
217 Clear 28 1015 69 10000 5.14 140 17:43 28.07.2022
218 Clear 29 1014 62 10000 6.17 130 16:42 28.07.2022
219 Clear 30 1015 65 10000 5.66 130 15:24 28.07.2022
220 Clear 30 1015 67 10000 6.17 130 12:51 28.07.2022
221 Clouds 28 1014 76 10000 4.63 120 09:45 28.07.2022
222 Clear 22 1013 100 10000 0 0 06:25 28.07.2022
223 Clear 21 1013 100 10000 1.03 50 05:27 28.07.2022
224 Clouds 23 1012 96 10000 2.06 120 00:45 28.07.2022
225 Clouds 24 1011 92 10000 2.06 120 22:34 27.07.2022
226 Clouds 24 1010 86 10000 3.09 120 20:56 27.07.2022
227 Clouds 25 1010 83 10000 4.63 110 19:37 27.07.2022
228 Clear 29 1009 70 10000 5.14 120 17:38 27.07.2022
229 Clear 31 1009 65 10000 6.69 130 15:52 27.07.2022
230 Clear 32 1009 63 10000 7.2 120 14:55 27.07.2022
231 Clear 32 1009 64 10000 7.2 120 14:33 27.07.2022
232 Clear 32 1010 57 10000 7.72 100 12:49 27.07.2022
233 Clear 26 1009 66 10000 1.03 0 07:53 27.07.2022
234 Clear 26 1009 66 10000 1.03 0 07:53 27.07.2022
235 Clear 21 1009 80 10000 1.03 0 06:18 27.07.2022
236 Clear 21 1010 80 10000 2.06 80 00:46 27.07.2022
237 Clear 22 1010 80 10000 2.57 100 22:25 26.07.2022
238 Clear 24 1010 78 10000 2.06 90 21:20 26.07.2022
239 Clear 24 1010 78 10000 2.06 90 21:20 26.07.2022
240 Clear 26 1009 57 10000 3.6 110 19:59 26.07.2022
241 Clear 29 1009 62 10000 4.12 130 18:41 26.07.2022
242 Clear 29 1009 62 10000 5.14 130 17:57 26.07.2022
243 Clouds 31 1009 57 10000 6.17 130 15:50 26.07.2022
244 Clouds 32 1009 58 10000 6.69 120 14:49 26.07.2022
245 Clouds 32 1010 43 10000 6.69 110 12:59 26.07.2022
246 Clear 30 1011 62 10000 2.57 240 10:58 26.07.2022
247 Clear 25 1011 69 10000 1.03 0 08:43 26.07.2022
248 Mist 18 1012 100 4300 0 0 05:30 26.07.2022
249 Clear 19 1013 96 10000 1.54 330 00:27 26.07.2022
250 Clear 20 1013 92 10000 1.54 30 22:51 25.07.2022
251 Clear 20 1013 96 10000 1.54 30 22:22 25.07.2022
252 Clear 21 1013 96 10000 2.06 20 21:38 25.07.2022
253 Clear 22 1013 100 10000 1.54 10 20:40 25.07.2022
254 Clouds 24 1012 86 10000 3.09 130 19:27 25.07.2022
255 Clouds 26 1012 83 10000 3.6 140 18:18 25.07.2022
256 Clouds 26 1012 86 10000 2.57 140 17:26 25.07.2022
257 Clouds 27 1013 65 10000 6.69 130 14:23 25.07.2022
258 Clouds 26 1014 65 10000 4.12 20 11:39 25.07.2022
259 Clouds 23 1014 86 10000 1.03 0 08:22 25.07.2022
260 Clouds 21 1013 100 10000 1.54 80 01:49 25.07.2022
261 Rain 23 1013 92 10000 2.06 110 23:49 24.07.2022
262 Clouds 24 1013 89 10000 4.12 120 22:54 24.07.2022
263 Clouds 24 1012 86 10000 3.6 120 22:24 24.07.2022
264 Clear 24 1012 86 10000 3.6 130 21:18 24.07.2022
265 Clear 24 1012 78 10000 4.12 120 20:46 24.07.2022
266 Clouds 25 1011 81 10000 5.14 120 19:38 24.07.2022
267 Clouds 26 1012 79 10000 4.63 120 18:30 24.07.2022
268 Clear 30 1012 70 10000 6.69 120 15:57 24.07.2022
269 Clear 30 1012 70 10000 6.69 120 15:33 24.07.2022
270 Clear 31 1013 63 10000 8.75 110 13:51 24.07.2022
271 Clear 32 1013 55 10000 7.72 120 12:52 24.07.2022
272 Clear 32 1013 52 10000 6.69 120 11:37 24.07.2022
273 Clear 32 1013 49 10000 5.66 140 10:48 24.07.2022
274 Clear 26 1014 74 10000 2.06 140 08:30 24.07.2022
275 Clear 25 1014 73 10000 2.06 110 07:46 24.07.2022
276 Clear 19 1015 100 10000 0 0 03:57 24.07.2022
277 Clear 21 1016 80 10000 2.06 20 23:48 23.07.2022
278 Clear 23 1015 92 10000 2.06 130 20:51 23.07.2022
279 Clear 25 1015 73 10000 2.57 140 19:31 23.07.2022
280 Clear 27 1015 71 10000 4.63 120 18:49 23.07.2022
281 Clear 29 1015 56 10000 6.17 140 17:28 23.07.2022
282 Clear 31 1015 50 10000 6.17 120 16:30 23.07.2022
283 Clear 30 1015 42 10000 6.69 120 15:22 23.07.2022
284 Clear 31 1015 51 10000 7.72 120 14:55 23.07.2022
285 Clear 30 1015 42 10000 7.2 130 14:24 23.07.2022
286 Clear 33 1016 29 10000 6.17 140 12:22 23.07.2022
287 Clear 34 1015 43 10000 4.63 60 10:44 23.07.2022
288 Clear 33 1016 50 10000 2.06 240 09:53 23.07.2022
289 Clear 26 1016 68 10000 1.54 250 08:24 23.07.2022
290 Clear 19 1015 83 10000 0.51 0 03:38 23.07.2022
291 Clear 20 1015 77 10000 1.54 320 00:39 23.07.2022
292 Clear 21 1015 78 10000 2.57 10 21:41 22.07.2022
293 Clear 23 1015 76 10000 1.54 50 20:33 22.07.2022
294 Clear 26 1015 63 10000 5.14 120 18:57 22.07.2022
295 Clear 28 1014 60 10000 6.69 120 17:52 22.07.2022
296 Clear 30 1014 58 10000 8.23 110 16:31 22.07.2022
297 Clear 34 1014 38 10000 3.09 0 14:20 22.07.2022
298 Clear 31 1015 45 10000 5.14 340 10:41 22.07.2022
299 Clear 28 1015 55 10000 3.6 360 09:25 22.07.2022
300 Clear 26 1015 64 10000 3.09 360 08:26 22.07.2022
301 Clear 17 1015 100 10000 1.54 290 04:48 22.07.2022
302 Clear 19 1015 96 10000 2.57 30 23:45 21.07.2022
303 Clear 20 1015 89 10000 1.54 20 22:25 21.07.2022
304 Clear 22 1015 86 10000 1.54 140 20:48 21.07.2022
305 Clouds 24 1015 81 10000 5.14 140 18:54 21.07.2022
306 Clouds 26 1014 77 10000 6.69 130 17:29 21.07.2022
307 Clear 26 1014 57 10000 7.2 120 16:53 21.07.2022
308 Clouds 27 1014 74 10000 7.72 120 14:52 21.07.2022
309 Clouds 27 1014 71 10000 6.69 130 14:22 21.07.2022
310 Clouds 31 1014 33 10000 4.12 20 12:27 21.07.2022
311 Clear 30 1013 52 10000 7.2 20 10:39 21.07.2022
312 Clear 28 1013 59 10000 7.72 20 08:54 21.07.2022
313 Clear 28 1013 60 10000 7.72 20 08:35 21.07.2022
314 Clear 25 1013 64 10000 5.66 340 07:23 21.07.2022
315 Clear 16 1014 67 10000 1.54 310 03:48 21.07.2022
316 Clear 20 1016 71 10000 0 0 23:23 20.07.2022
317 Clear 20 1016 73 10000 2.57 20 22:20 20.07.2022
318 Clear 22 1016 49 10000 1.03 0 20:49 20.07.2022
319 Clear 25 1016 55 10000 2.06 130 19:48 20.07.2022
320 Clear 26 1016 54 10000 3.09 150 19:19 20.07.2022
321 Clear 27 1016 48 10000 4.12 120 18:33 20.07.2022
322 Clouds 28 1017 30 10000 4.12 120 17:42 20.07.2022
323 Clouds 28 1018 30 10000 5.14 110 15:59 20.07.2022
324 Clouds 28 1018 32 10000 6.17 120 14:54 20.07.2022
325 Clouds 29 1019 32 10000 6.17 110 13:44 20.07.2022
326 Clear 29 1020 52 10000 4.63 130 11:31 20.07.2022
327 Clear 20 1021 80 10000 1.54 290 07:36 20.07.2022
328 Clear 17 1020 89 10000 1.03 260 01:58 20.07.2022
329 Clear 17 1020 89 10000 1.54 280 00:43 20.07.2022
330 Clear 18 1021 89 10000 2.06 340 22:39 19.07.2022
331 Clear 18 1021 89 10000 1.03 360 22:21 19.07.2022
332 Clear 20 1021 68 10000 1.54 40 20:50 19.07.2022
333 Clear 23 1021 74 10000 4.12 120 19:38 19.07.2022
334 Clear 25 1020 66 10000 4.63 130 18:43 19.07.2022
335 Clear 25 1020 65 10000 5.66 120 17:56 19.07.2022
336 Clear 26 1020 67 10000 7.2 140 16:25 19.07.2022
337 Clouds 25 1021 47 10000 6.69 140 14:20 19.07.2022
338 Clouds 27 1022 52 10000 5.66 130 11:35 19.07.2022
339 Clear 26 1022 57 10000 3.09 120 09:58 19.07.2022
340 Clear 25 1022 66 10000 2.06 0 08:48 19.07.2022
341 Clear 22 1022 73 10000 1.03 0 08:21 19.07.2022
342 Clear 19 1022 83 10000 1.54 250 07:18 19.07.2022
343 Clear 13 1022 94 10000 1.54 260 05:23 19.07.2022
344 Clear 13 1021 94 10000 1.54 280 04:40 19.07.2022
345 Clear 16 1022 89 10000 2.06 360 00:31 19.07.2022
346 Clear 17 1022 89 10000 1.54 360 23:21 18.07.2022
347 Clear 17 1022 89 10000 2.06 360 22:55 18.07.2022
348 Clear 17 1022 86 10000 2.57 10 21:50 18.07.2022
349 Clear 19 1022 68 10000 1.54 360 20:50 18.07.2022
350 Clear 22 1022 72 10000 3.6 140 19:24 18.07.2022
351 Clear 25 1022 67 10000 7.2 120 16:50 18.07.2022
352 Clear 24 1022 50 10000 6.17 130 15:41 18.07.2022
353 Clouds 24 1023 43 10000 2.57 0 13:41 18.07.2022
354 Clouds 25 1023 62 10000 4.12 40 12:29 18.07.2022
355 Clouds 23 1023 64 10000 4.12 70 10:24 18.07.2022
356 Clouds 21 1023 71 10000 2.06 0 08:21 18.07.2022
357 Clouds 20 1022 73 10000 7.2 40 06:48 18.07.2022
358 Clouds 21 1020 89 10000 1.54 320 23:30 17.07.2022
359 Clouds 21 1019 89 10000 2.06 20 22:32 17.07.2022
360 Clouds 22 1019 86 10000 1.03 0 21:43 17.07.2022
361 Clouds 23 1019 83 10000 2.06 130 20:46 17.07.2022
362 Clouds 23 1018 83 10000 3.09 130 20:18 17.07.2022
363 Clouds 25 1018 79 10000 3.6 130 19:26 17.07.2022
364 Clouds 27 1018 71 10000 5.14 130 18:22 17.07.2022
365 Clouds 28 1018 70 10000 5.66 140 17:37 17.07.2022
366 Clouds 28 1018 69 10000 6.69 140 16:49 17.07.2022
367 Clouds 28 1018 69 10000 6.17 130 16:24 17.07.2022
368 Clouds 32 1018 45 10000 3.6 40 13:58 17.07.2022
369 Clouds 32 1018 45 10000 4.63 20 13:24 17.07.2022
370 Clouds 30 1017 51 10000 6.17 30 10:34 17.07.2022
371 Clear 27 1017 66 10000 6.17 10 08:38 17.07.2022
372 Clear 20 1016 92 10000 1.54 250 02:43 17.07.2022
373 Clear 20 1016 92 10000 1.54 360 00:41 17.07.2022
374 Clear 21 1016 89 10000 1.54 10 23:18 16.07.2022
375 Clouds 23 1015 83 10000 5.14 100 20:59 16.07.2022
376 Clouds 27 1014 67 10000 3.09 140 18:59 16.07.2022
377 Clouds 28 1014 63 10000 4.12 130 17:48 16.07.2022
378 Clouds 29 1014 58 10000 5.14 120 16:23 16.07.2022
379 Clear 30 1014 45 10000 6.69 100 13:47 16.07.2022
380 Clear 28 1014 66 10000 4.12 120 10:35 16.07.2022
381 Clear 28 1014 68 10000 2.06 130 09:29 16.07.2022
382 Clear 26 1014 70 10000 1.03 0 08:42 16.07.2022
383 Clear 22 1014 80 10000 2.06 290 07:41 16.07.2022
384 Clear 18 1013 89 10000 1.54 330 03:39 16.07.2022
385 Clear 19 1013 86 10000 1.54 60 01:39 16.07.2022
386 Clear 21 1014 78 10000 3.09 110 23:21 15.07.2022
387 Clear 22 1014 78 10000 2.06 130 22:37 15.07.2022
388 Clouds 23 1013 80 10000 3.09 130 20:47 15.07.2022
389 Clouds 24 1013 77 10000 3.6 130 19:49 15.07.2022
390 Clouds 27 1013 65 10000 4.63 130 18:30 15.07.2022
391 Clear 29 1012 61 10000 5.14 130 17:19 15.07.2022
392 Clouds 30 1012 56 10000 8.23 100 14:24 15.07.2022
393 Clear 30 1013 35 10000 4.63 130 12:38 15.07.2022
394 Clear 31 1013 53 10000 2.06 0 10:52 15.07.2022
395 Clear 22 1014 73 10000 1.54 260 07:55 15.07.2022
396 Clear 17 1014 85 10000 1.03 270 05:54 15.07.2022
397 Clear 19 1015 75 10000 1.03 0 00:47 15.07.2022
398 Clear 19 1016 72 10000 2.57 10 23:25 14.07.2022
399 Clear 20 1016 73 10000 3.09 10 22:32 14.07.2022
400 Clear 22 1016 66 10000 1.54 50 21:40 14.07.2022
401 Clear 22 1016 66 10000 1.54 50 21:21 14.07.2022
402 Clear 23 1016 46 10000 2.57 120 20:43 14.07.2022
403 Clear 24 1016 41 10000 2.57 140 20:18 14.07.2022
404 Clear 27 1016 54 10000 3.6 140 18:38 14.07.2022
405 Clouds 29 1016 47 10000 7.2 120 16:20 14.07.2022
406 Clouds 31 1016 45 10000 7.72 110 15:26 14.07.2022
407 Clouds 31 1016 46 10000 3.6 90 13:51 14.07.2022
408 Clouds 32 1017 42 10000 2.57 0 12:36 14.07.2022
409 Clear 30 1017 46 10000 3.09 20 11:28 14.07.2022
410 Clear 30 1018 47 10000 3.6 350 10:52 14.07.2022
411 Clear 25 1018 61 10000 3.6 260 08:58 14.07.2022
412 Clear 18 1018 72 10000 1.54 240 04:45 14.07.2022
413 Clouds 20 1017 68 10000 1.03 0 01:21 14.07.2022
414 Clouds 21 1017 63 10000 0.51 0 00:51 14.07.2022
415 Clouds 22 1017 58 10000 5.14 40 22:31 13.07.2022
416 Clouds 23 1017 54 10000 4.12 20 21:47 13.07.2022
417 Clouds 23 1016 53 10000 3.6 10 20:41 13.07.2022
418 Clouds 27 1015 47 10000 5.14 310 18:40 13.07.2022
419 Clouds 28 1015 45 10000 4.12 310 17:31 13.07.2022
420 Clouds 28 1015 45 10000 4.12 310 17:31 13.07.2022
421 Clouds 29 1015 45 10000 5.14 290 16:19 13.07.2022
422 Clouds 28 1016 44 10000 4.63 300 14:46 13.07.2022
423 Clouds 27 1017 54 10000 6.17 290 11:54 13.07.2022
424 Clear 26 1017 61 10000 6.69 300 10:45 13.07.2022
425 Clear 24 1017 61 10000 4.63 330 09:54 13.07.2022
426 Clear 23 1017 65 10000 5.14 330 09:20 13.07.2022
427 Clear 15 1016 83 10000 1.54 290 05:22 13.07.2022
428 Clouds 17 1017 89 10000 0 0 01:21 13.07.2022
429 Clouds 19 1017 83 10000 3.09 260 23:21 12.07.2022
430 Clouds 20 1017 73 10000 3.6 330 21:49 12.07.2022
431 Clouds 21 1017 64 10000 2.06 170 20:54 12.07.2022
432 Clouds 21 1017 64 10000 2.06 170 20:36 12.07.2022
433 Clouds 24 1016 66 10000 4.63 30 18:53 12.07.2022
434 Clouds 27 1016 57 10000 5.66 280 17:29 12.07.2022
435 Clouds 25 1016 58 10000 5.14 300 15:35 12.07.2022
436 Clouds 27 1016 59 10000 6.17 290 13:44 12.07.2022
437 Clouds 26 1017 53 10000 4.63 290 11:59 12.07.2022
438 Clear 25 1017 59 10000 5.14 300 10:46 12.07.2022
439 Clear 22 1017 63 10000 6.69 270 09:18 12.07.2022
440 Clear 19 1017 71 10000 4.12 280 07:55 12.07.2022
441 Clear 17 1017 75 10000 1.54 250 05:53 12.07.2022
442 Clear 17 1017 75 10000 1.54 250 05:34 12.07.2022
443 Clouds 17 1017 74 10000 1.03 0 01:36 12.07.2022
444 Clouds 19 1016 67 10000 3.09 220 22:50 11.07.2022
445 Clouds 20 1016 61 10000 2.06 240 21:37 11.07.2022
446 Clouds 21 1015 58 10000 2.06 270 20:33 11.07.2022
447 Clouds 25 1014 52 10000 6.17 280 19:28 11.07.2022
448 Clouds 26 1014 52 10000 5.66 300 18:30 11.07.2022
449 Clouds 27 1014 59 10000 6.69 300 16:34 11.07.2022
450 Clouds 27 1013 59 10000 4.63 270 15:34 11.07.2022
451 Clouds 26 1013 38 10000 6.17 280 13:37 11.07.2022
452 Clouds 26 1013 70 10000 5.66 300 11:33 11.07.2022
453 Clouds 24 1014 73 10000 6.69 280 10:18 11.07.2022
454 Clouds 23 1014 73 10000 4.12 300 09:40 11.07.2022
455 Clouds 21 1013 76 10000 3.09 270 08:33 11.07.2022
456 Clouds 16 1011 89 10000 4.12 310 02:59 11.07.2022
457 Clouds 17 1010 92 10000 3.09 280 00:18 11.07.2022
458 Clouds 19 1010 83 10000 4.12 290 22:52 10.07.2022
459 Clouds 19 1010 92 10000 2.06 230 21:20 10.07.2022
460 Clouds 20 1010 83 10000 3.09 0 20:37 10.07.2022
461 Rain 20 1010 83 10000 8.23 280 19:40 10.07.2022
462 Clouds 25 1008 65 10000 6.69 340 18:43 10.07.2022
463 Clouds 27 1008 39 10000 4.12 360 17:35 10.07.2022
464 Clouds 28 1008 55 10000 5.14 330 16:24 10.07.2022
465 Clouds 29 1008 54 10000 4.63 350 15:20 10.07.2022
466 Clouds 29 1008 55 10000 4.63 350 13:40 10.07.2022
467 Clouds 28 1008 60 10000 5.66 360 12:26 10.07.2022
468 Rain 25 1009 64 10000 5.14 360 09:47 10.07.2022
469 Rain 23 1009 72 10000 4.12 350 08:44 10.07.2022
470 Clear 22 1009 73 10000 4.12 350 07:29 10.07.2022
471 Clouds 23 1008 70 10000 6.69 360 01:23 10.07.2022
472 Clouds 23 1009 72 10000 3.09 340 22:27 09.07.2022
473 Clouds 23 1009 70 10000 4.63 350 21:56 09.07.2022
474 Clouds 25 1008 70 10000 5.14 20 20:23 09.07.2022
475 Clouds 26 1008 69 10000 5.66 20 18:32 09.07.2022
476 Rain 26 1008 67 10000 8.23 30 17:32 09.07.2022
477 Rain 26 1008 70 10000 9.26 40 16:40 09.07.2022
478 Rain 29 1008 37 10000 5.66 350 15:39 09.07.2022
479 Clouds 29 1009 39 10000 6.69 10 14:24 09.07.2022
480 Clouds 29 1009 60 10000 6.69 20 13:48 09.07.2022
481 Clouds 28 1009 61 10000 6.69 20 12:29 09.07.2022
482 Clouds 26 1009 47 10000 7.72 10 10:42 09.07.2022
483 Clouds 26 1009 47 10000 10.29 10 10:21 09.07.2022
484 Clouds 24 1009 70 10000 8.23 10 07:45 09.07.2022
485 Clouds 21 1010 60 10000 7.2 10 04:53 09.07.2022
486 Clouds 23 1010 56 10000 4.63 10 00:43 09.07.2022
487 Clouds 22 1011 64 10000 2.57 320 22:42 08.07.2022
488 Clouds 23 1012 68 10000 2.57 360 21:31 08.07.2022
489 Clouds 23 1012 83 10000 1.54 360 20:40 08.07.2022
490 Clouds 25 1011 76 10000 2.06 120 19:48 08.07.2022
491 Clouds 27 1011 68 10000 2.06 220 17:57 08.07.2022
492 Clouds 28 1011 70 10000 3.09 150 16:39 08.07.2022
493 Clouds 27 1012 50 10000 3.6 360 14:51 08.07.2022
494 Clouds 28 1013 69 10000 4.12 20 13:24 08.07.2022
495 Clouds 28 1013 69 10000 4.12 20 13:24 08.07.2022
496 Clouds 27 1014 74 10000 4.63 340 11:25 08.07.2022
497 Clouds 25 1014 73 10000 4.12 320 10:26 08.07.2022
498 Clouds 21 1014 80 10000 4.63 280 08:24 08.07.2022
499 Clouds 20 1014 80 10000 5.14 280 06:47 08.07.2022
500 Clouds 19 1014 83 10000 3.6 0 01:19 08.07.2022
501 Clouds 21 1014 78 10000 5.14 270 22:57 07.07.2022
502 Clouds 21 1014 78 10000 5.14 270 22:57 07.07.2022
503 Clear 21 1014 76 10000 6.17 340 22:27 07.07.2022
504 Clouds 23 1013 76 10000 5.66 340 19:53 07.07.2022
505 Clouds 25 1013 57 10000 5.66 340 18:18 07.07.2022
506 Clouds 28 1012 51 10000 5.66 350 16:43 07.07.2022
507 Clouds 29 1012 70 10000 5.66 320 14:32 07.07.2022
508 Clouds 28 1013 74 10000 4.12 330 12:46 07.07.2022
509 Clouds 28 1013 74 10000 3.09 340 12:23 07.07.2022
510 Clouds 28 1013 74 10000 3.09 340 11:34 07.07.2022
511 Clouds 27 1013 74 10000 2.06 10 10:46 07.07.2022
512 Clouds 27 1013 76 10000 3.09 330 10:28 07.07.2022
513 Clouds 25 1013 79 10000 3.6 350 09:32 07.07.2022
514 Clouds 21 1012 86 10000 3.6 0 06:31 07.07.2022
515 Clouds 22 1012 99 10000 2.45 302 00:28 07.07.2022
516 Clouds 23 1012 99 10000 2.45 302 23:36 06.07.2022
517 Clouds 23 1012 80 10000 2.06 0 23:18 06.07.2022
518 Clouds 23 1012 80 10000 2.06 0 22:52 06.07.2022
519 Clouds 24 1012 78 10000 3.09 310 22:33 06.07.2022
520 Clear 25 1011 61 10000 2.06 130 20:23 06.07.2022
521 Clear 26 1011 69 10000 2.57 130 19:22 06.07.2022
522 Clouds 28 1011 68 10000 4.12 120 17:21 06.07.2022
523 Clouds 30 1011 61 10000 6.17 130 15:55 06.07.2022
524 Clouds 30 1012 37 10000 5.66 130 12:44 06.07.2022
525 Clouds 31 1012 58 10000 4.63 130 11:52 06.07.2022
526 Clouds 30 1013 60 10000 2.57 160 10:49 06.07.2022
527 Clear 27 1012 70 10000 1.03 0 09:21 06.07.2022
528 Clear 21 1013 80 10000 2.06 290 07:44 06.07.2022
529 Clear 17 1013 92 10000 2.06 270 06:43 06.07.2022
530 Clear 19 1013 77 10000 0 0 23:42 05.07.2022
531 Clear 19 1014 80 10000 1.54 340 22:42 05.07.2022
532 Clear 24 1014 57 10000 2.57 140 20:48 05.07.2022
533 Clear 25 1014 68 10000 3.09 140 19:55 05.07.2022
534 Clear 25 1014 69 10000 3.09 150 19:36 05.07.2022
535 Clear 27 1014 44 10000 4.63 140 17:50 05.07.2022
536 Clear 28 1015 63 10000 5.14 130 17:19 05.07.2022
537 Clear 29 1015 60 10000 5.14 130 16:18 05.07.2022
538 Clear 29 1015 58 10000 6.17 120 14:54 05.07.2022
539 Clear 29 1016 37 10000 5.66 120 12:59 05.07.2022
540 Clear 30 1016 61 10000 4.12 120 12:22 05.07.2022
541 Clear 28 1016 65 10000 2.57 120 10:45 05.07.2022
542 Clear 27 1016 67 10000 1.03 0 09:44 05.07.2022
543 Clear 25 1016 68 10000 0 0 08:20 05.07.2022
544 Clear 17 1016 88 10000 1.03 0 06:47 05.07.2022
545 Clear 17 1015 92 10000 0 0 04:30 05.07.2022
546 Clear 18 1016 89 10000 1.54 330 00:47 05.07.2022
547 Clear 18 1016 86 10000 2.06 340 23:37 04.07.2022
548 Clear 19 1016 86 10000 1.03 10 22:54 04.07.2022
549 Clear 20 1016 80 10000 1.54 30 21:56 04.07.2022
550 Clear 22 1016 76 10000 1.54 190 20:54 04.07.2022
551 Clear 23 1016 73 10000 1.54 160 20:35 04.07.2022
552 Clear 23 1016 56 10000 2.06 140 19:56 04.07.2022
553 Clear 24 1016 53 10000 2.57 140 19:36 04.07.2022
554 Clear 26 1016 65 10000 4.12 130 18:34 04.07.2022
555 Clear 28 1016 59 10000 4.63 120 16:36 04.07.2022
556 Clear 28 1016 59 10000 5.66 120 15:34 04.07.2022
557 Clear 28 1017 32 10000 4.63 130 13:35 04.07.2022
558 Clear 28 1017 32 10000 4.12 120 12:36 04.07.2022
559 Clear 27 1017 73 10000 4.63 150 10:35 04.07.2022
560 Clear 26 1017 76 10000 4.63 130 09:53 04.07.2022
561 Clear 24 1017 76 10000 1.03 0 08:31 04.07.2022
562 Clear 14 1017 96 10000 1.54 260 05:18 04.07.2022
563 Clear 17 1017 92 10000 1.54 290 00:42 04.07.2022
564 Clear 18 1017 89 10000 1.03 0 22:59 03.07.2022
565 Clear 20 1018 64 10000 2.06 40 20:59 03.07.2022
566 Clear 24 1018 53 10000 1.54 160 20:41 03.07.2022
567 Clear 24 1018 53 10000 2.06 140 19:41 03.07.2022
568 Clear 25 1018 65 10000 2.57 130 19:23 03.07.2022
569 Clear 27 1018 34 10000 4.12 140 17:45 03.07.2022
570 Clear 28 1018 53 10000 6.17 140 15:55 03.07.2022
571 Clear 29 1018 48 10000 6.17 140 14:59 03.07.2022
572 Clear 29 1018 48 10000 6.17 130 14:20 03.07.2022
573 Clear 29 1019 52 10000 6.17 150 13:48 03.07.2022
574 Clear 27 1019 44 10000 6.17 130 12:35 03.07.2022
575 Clear 28 1019 70 10000 5.66 140 11:29 03.07.2022
576 Clouds 27 1019 70 10000 5.66 130 10:39 03.07.2022
577 Clouds 27 1019 74 10000 4.63 140 09:55 03.07.2022
578 Clouds 21 1018 83 10000 1.54 260 07:35 03.07.2022
579 Clear 17 1018 72 10000 1.54 330 04:22 03.07.2022
580 Clear 19 1019 80 10000 1.54 340 00:22 03.07.2022
581 Clear 20 1019 80 10000 2.06 290 22:34 02.07.2022
582 Clear 21 1018 80 10000 2.57 10 21:28 02.07.2022
583 Clear 24 1018 73 10000 2.57 140 19:52 02.07.2022
584 Clear 26 1018 74 10000 3.09 140 19:20 02.07.2022
585 Clear 28 1017 73 10000 5.14 130 17:42 02.07.2022
586 Clear 29 1018 70 10000 5.14 130 16:53 02.07.2022
587 Clouds 29 1018 76 10000 6.69 140 14:40 02.07.2022
588 Clouds 30 1018 67 10000 6.69 140 12:21 02.07.2022
589 Clouds 29 1018 74 10000 4.12 140 11:26 02.07.2022
590 Clouds 28 1017 79 10000 2.57 150 10:39 02.07.2022
591 Clouds 26 1017 81 10000 1.54 0 09:18 02.07.2022
592 Clouds 23 1017 92 10000 2.06 270 08:20 02.07.2022
593 Clouds 23 1017 100 9000 1.54 250 07:48 02.07.2022
594 Clear 19 1015 100 10000 0 0 02:50 02.07.2022
595 Clear 20 1016 92 10000 0 0 23:59 01.07.2022
596 Clear 21 1015 92 10000 2.06 40 22:41 01.07.2022
597 Clear 22 1015 86 10000 1.54 80 21:48 01.07.2022
598 Clear 22 1015 89 10000 1.54 30 21:28 01.07.2022
599 Clear 23 1014 89 10000 3.09 130 20:40 01.07.2022
600 Clouds 24 1014 78 10000 3.09 130 19:46 01.07.2022
601 Clear 27 1014 76 10000 4.12 120 17:53 01.07.2022
602 Clouds 28 1014 79 10000 5.14 130 15:54 01.07.2022
603 Clouds 28 1014 61 10000 5.66 140 13:54 01.07.2022
604 Clear 29 1015 75 10000 5.66 150 12:41 01.07.2022
605 Clear 29 1014 66 10000 1.54 0 10:20 01.07.2022
606 Clear 29 1014 66 10000 1.54 0 10:20 01.07.2022
607 Clear 29 1014 66 10000 1.54 0 10:20 01.07.2022
608 Clear 28 1014 70 10000 0.51 0 09:43 01.07.2022
609 Clouds 18 1014 96 10000 0 0 04:49 01.07.2022
610 Clear 19 1014 86 10000 2.06 340 00:26 01.07.2022
611 Clear 20 1014 86 10000 1.54 320 22:59 30.06.2022
612 Clear 20 1014 86 10000 1.54 320 22:41 30.06.2022
613 Clear 21 1014 80 10000 1.54 360 22:22 30.06.2022
614 Clear 21 1014 68 10000 1.03 0 21:41 30.06.2022
615 Clear 24 1013 69 10000 2.06 150 20:30 30.06.2022
616 Clear 25 1013 61 10000 2.57 150 19:54 30.06.2022
617 Clear 26 1013 70 10000 2.57 150 19:24 30.06.2022
618 Clear 27 1013 47 10000 3.09 130 18:42 30.06.2022
619 Clear 29 1013 65 10000 3.6 130 17:43 30.06.2022
620 Clear 29 1013 66 10000 4.12 130 16:48 30.06.2022
621 Clear 30 1013 65 10000 4.63 120 15:38 30.06.2022
622 Clear 29 1014 45 10000 5.14 130 13:34 30.06.2022
623 Clear 30 1014 66 10000 5.14 130 12:35 30.06.2022
624 Clear 29 1014 72 10000 3.09 150 11:37 30.06.2022
625 Clear 28 1014 72 10000 2.06 160 09:55 30.06.2022
626 Clear 27 1014 72 10000 2.06 150 09:34 30.06.2022
627 Clear 24 1014 74 10000 1.03 0 08:18 30.06.2022
628 Clear 22 1014 86 10000 0 0 07:18 30.06.2022
629 Clear 19 1014 96 10000 0 0 01:42 30.06.2022
630 Clear 20 1014 96 10000 1.54 340 23:34 29.06.2022
631 Clear 20 1013 100 10000 0 0 22:40 29.06.2022
632 Clear 22 1013 94 10000 1.03 0 21:39 29.06.2022
633 Clear 23 1013 78 10000 2.57 120 20:34 29.06.2022
634 Clear 24 1013 73 10000 2.06 140 19:37 29.06.2022
635 Clear 26 1013 65 10000 4.63 130 17:45 29.06.2022
636 Clear 28 1013 57 10000 5.14 140 16:43 29.06.2022
637 Clouds 32 1013 57 10000 4.63 40 15:26 29.06.2022
638 Clouds 31 1014 64 10000 4.63 60 12:47 29.06.2022
639 Clear 29 1015 66 10000 4.12 20 11:32 29.06.2022
640 Clear 27 1015 70 10000 4.12 20 09:33 29.06.2022
641 Clear 25 1015 70 10000 4.12 10 08:26 29.06.2022
642 Clouds 20 1014 78 10000 4.63 340 04:57 29.06.2022
643 Clouds 20 1015 83 10000 2.06 290 01:41 29.06.2022
644 Clouds 21 1015 89 10000 2.57 330 00:36 29.06.2022
645 Clouds 21 1016 89 10000 1.54 30 22:55 28.06.2022
646 Clouds 22 1015 86 10000 4.12 340 22:34 28.06.2022
647 Clouds 21 1015 89 10000 1.03 0 21:55 28.06.2022
648 Clouds 22 1015 86 10000 1.54 90 21:33 28.06.2022
649 Clouds 21 1015 89 10000 2.06 180 20:44 28.06.2022
650 Clouds 23 1014 73 10000 3.6 20 19:34 28.06.2022
651 Clouds 23 1014 73 10000 3.6 20 19:34 28.06.2022
652 Clouds 23 1014 73 10000 4.12 20 18:53 28.06.2022
653 Clouds 23 1014 78 10000 5.14 350 17:40 28.06.2022
654 Rain 21 1014 94 10000 5.14 350 15:59 28.06.2022
655 Rain 20 1014 100 10000 3.6 340 15:38 28.06.2022
656 Clouds 29 1013 69 10000 6.17 340 14:21 28.06.2022
657 Clouds 29 1013 69 10000 6.17 340 14:21 28.06.2022
658 Clouds 28 1013 70 10000 6.17 330 13:52 28.06.2022
659 Clouds 28 1014 70 10000 5.66 350 12:57 28.06.2022
660 Clouds 29 1014 68 10000 4.12 20 11:18 28.06.2022
661 Clouds 26 1015 76 10000 5.14 30 09:30 28.06.2022
662 Clear 25 1015 76 10000 5.14 20 08:44 28.06.2022
663 Clouds 24 1015 78 10000 5.66 10 07:42 28.06.2022
664 Clouds 22 1014 83 10000 4.12 30 06:56 28.06.2022
665 Clouds 21 1014 92 10000 3.6 340 00:58 28.06.2022
666 Clouds 21 1015 92 10000 2.57 260 23:37 27.06.2022
667 Clouds 21 1015 96 10000 2.06 290 22:52 27.06.2022
668 Rain 21 1015 96 10000 0.51 0 21:38 27.06.2022
669 Clouds 21 1015 96 10000 0 0 20:52 27.06.2022
670 Rain 22 1015 92 10000 2.57 290 19:33 27.06.2022
671 Rain 22 1016 86 10000 0 0 18:25 27.06.2022
672 Rain 24 1015 81 10000 4.63 70 16:20 27.06.2022
673 Clouds 24 1015 81 10000 3.6 50 15:22 27.06.2022
674 Clouds 29 1015 68 10000 6.69 320 13:36 27.06.2022
675 Clouds 29 1015 70 10000 6.17 360 12:56 27.06.2022
676 Clouds 27 1016 76 10000 5.14 340 10:34 27.06.2022
677 Clouds 25 1016 79 10000 3.6 360 09:18 27.06.2022
678 Clear 22 1016 83 10000 2.06 270 08:19 27.06.2022
679 Clouds 19 1016 89 10000 3.09 330 06:38 27.06.2022
680 Clouds 19 1015 86 10000 4.63 270 03:24 27.06.2022
681 Clouds 20 1015 89 10000 1.54 290 23:55 26.06.2022
682 Clouds 22 1015 78 10000 2.57 310 21:59 26.06.2022
683 Clouds 21 1015 86 10000 2.57 20 20:44 26.06.2022
684 Clouds 23 1015 76 10000 2.06 120 19:32 26.06.2022
685 Clouds 24 1015 74 10000 1.54 160 18:30 26.06.2022
686 Clouds 27 1014 68 10000 4.63 130 16:33 26.06.2022
687 Clouds 27 1014 44 10000 6.69 120 14:42 26.06.2022
688 Clouds 26 1014 41 10000 7.2 120 13:38 26.06.2022
689 Clouds 26 1014 41 10000 7.2 120 13:18 26.06.2022
690 Clouds 28 1014 64 10000 2.57 30 11:26 26.06.2022
691 Clear 27 1014 66 10000 2.57 40 10:26 26.06.2022
692 Clear 25 1014 67 10000 1.03 0 09:19 26.06.2022
693 Clear 21 1014 83 10000 1.54 250 07:41 26.06.2022
694 Clouds 17 1013 100 10000 0 0 01:53 26.06.2022
695 Clouds 17 1013 100 10000 0.51 0 00:20 26.06.2022
696 Clouds 18 1013 96 10000 1.03 290 23:41 25.06.2022
697 Rain 18 1013 96 10000 0 0 22:55 25.06.2022
698 Clouds 18 1014 100 10000 1.54 300 22:27 25.06.2022
699 Clouds 19 1013 89 10000 2.06 80 21:37 25.06.2022
700 Clouds 19 1013 89 10000 2.06 80 21:18 25.06.2022
701 Clouds 20 1013 89 10000 1.54 140 20:25 25.06.2022
702 Clouds 22 1013 83 10000 2.06 160 19:20 25.06.2022
703 Clear 23 1013 80 10000 6.17 120 17:53 25.06.2022
704 Clear 24 1013 80 10000 5.66 130 17:19 25.06.2022
705 Clouds 24 1012 81 10000 6.17 120 14:59 25.06.2022
706 Clouds 27 1012 67 10000 4.63 360 12:57 25.06.2022
707 Clouds 28 1012 68 10000 4.63 10 12:37 25.06.2022
708 Clear 27 1012 70 10000 4.63 350 10:32 25.06.2022
709 Clear 25 1012 53 10000 3.09 350 08:57 25.06.2022
710 Clear 24 1012 60 10000 2.57 260 08:29 25.06.2022
711 Clear 23 1012 75 10000 2.06 270 07:45 25.06.2022
712 Clouds 20 1011 78 10000 4.12 10 03:30 25.06.2022
713 Clouds 20 1011 80 10000 1.54 270 00:33 25.06.2022
714 Clouds 21 1012 76 10000 4.63 360 22:51 24.06.2022
715 Clouds 21 1012 76 10000 3.6 10 21:31 24.06.2022
716 Clouds 22 1011 78 10000 2.06 350 20:25 24.06.2022
717 Clouds 23 1012 73 10000 2.06 360 19:52 24.06.2022
718 Clouds 24 1011 71 10000 3.09 310 19:19 24.06.2022
719 Clouds 26 1011 68 10000 3.6 360 18:47 24.06.2022
720 Clouds 26 1011 65 10000 4.63 360 18:29 24.06.2022
721 Clouds 27 1011 66 10000 6.69 330 16:52 24.06.2022
722 Clouds 27 1011 44 10000 7.72 360 15:27 24.06.2022
723 Clouds 27 1011 65 10000 7.2 340 14:25 24.06.2022
724 Clouds 26 1011 44 10000 7.72 340 13:46 24.06.2022
725 Clouds 25 1012 70 10000 7.2 330 11:42 24.06.2022
726 Clouds 24 1012 73 10000 6.69 310 10:42 24.06.2022
727 Clouds 24 1013 73 10000 4.63 300 09:42 24.06.2022
728 Clear 23 1013 73 10000 4.63 340 08:54 24.06.2022
729 Clear 22 1012 73 10000 4.12 340 08:32 24.06.2022
730 Clouds 20 1012 78 10000 3.6 290 06:44 24.06.2022
731 Clouds 19 1012 80 10000 3.6 280 06:25 24.06.2022
732 Clouds 18 1012 63 10000 0 0 04:50 24.06.2022
733 Clouds 18 1012 63 10000 0 0 04:50 24.06.2022
734 Clouds 17 1012 72 10000 1.54 360 23:43 23.06.2022
735 Clouds 19 1012 59 10000 3.09 300 22:43 23.06.2022
736 Clouds 19 1012 68 10000 3.6 360 21:22 23.06.2022
737 Clouds 22 1011 64 10000 1.54 330 20:37 23.06.2022
738 Clouds 23 1011 60 10000 2.06 330 19:53 23.06.2022
739 Clouds 24 1011 53 10000 5.14 270 18:27 23.06.2022
740 Clear 25 1010 47 10000 5.14 280 17:34 23.06.2022
741 Rain 26 1010 41 10000 5.66 270 16:29 23.06.2022
742 Clouds 25 1011 47 10000 3.6 250 15:26 23.06.2022
743 Clouds 25 1011 44 10000 3.09 220 14:34 23.06.2022
744 Clear 27 1011 61 10000 3.6 250 11:41 23.06.2022
745 Clear 26 1011 61 10000 1.03 0 10:40 23.06.2022
746 Clear 24 1011 61 10000 2.57 50 09:19 23.06.2022
747 Clouds 16 1010 83 10000 1.54 0 04:43 23.06.2022
748 Clouds 17 1010 89 10000 1.54 340 00:27 23.06.2022
749 Clouds 16 1010 100 10000 1.54 310 23:49 22.06.2022
750 Clear 18 1010 89 10000 2.57 10 22:53 22.06.2022
751 Clear 20 1009 89 10000 1.03 0 21:28 22.06.2022
752 Clear 21 1009 83 10000 1.54 60 20:48 22.06.2022
753 Clear 22 1009 92 10000 3.6 90 20:18 22.06.2022
754 Clear 25 1008 80 10000 4.12 110 18:57 22.06.2022
755 Clear 26 1007 73 10000 2.06 0 17:31 22.06.2022
756 Clear 27 1007 73 10000 5.14 130 16:40 22.06.2022
757 Clouds 27 1007 71 10000 4.12 120 15:28 22.06.2022
758 Clouds 28 1008 68 10000 4.63 120 14:40 22.06.2022
759 Clouds 27 1008 72 10000 5.14 130 13:45 22.06.2022
760 Clouds 27 1008 72 10000 5.66 120 13:23 22.06.2022
761 Clear 26 1008 70 10000 2.57 0 11:50 22.06.2022
762 Clear 26 1009 68 10000 2.57 240 10:58 22.06.2022
763 Clear 25 1009 70 10000 2.06 230 10:26 22.06.2022
764 Clear 24 1009 72 10000 1.54 0 08:48 22.06.2022
765 Clear 19 1009 82 10000 2.57 280 06:21 22.06.2022
766 Clear 23 1005 53 10000 5.14 320 01:50 22.06.2022
767 Clear 25 1005 44 10000 6.17 320 00:56 22.06.2022
768 Clouds 27 1004 68 10000 3.6 310 22:40 21.06.2022
769 Clouds 26 1004 79 10000 2.06 300 20:40 21.06.2022
770 Clear 30 1004 67 10000 3.6 280 18:53 21.06.2022
771 Clear 32 1004 65 10000 6.69 280 17:42 21.06.2022
772 Clear 32 1005 61 10000 7.2 290 16:34 21.06.2022
773 Clear 29 1007 68 10000 3.09 210 11:56 21.06.2022
774 Clear 26 1007 72 10000 3.6 250 10:27 21.06.2022
775 Clear 23 1007 78 10000 2.57 270 08:51 21.06.2022
776 Clear 18 1008 92 10000 1.54 250 07:35 21.06.2022
777 Clouds 15 1008 100 10000 1.54 230 03:21 21.06.2022
778 Clear 16 1011 89 10000 2.06 350 23:27 20.06.2022
779 Clear 18 1011 86 10000 2.06 10 21:59 20.06.2022
780 Clear 18 1011 86 10000 2.06 360 21:32 20.06.2022
781 Clear 21 1011 73 10000 2.06 150 19:57 20.06.2022
782 Clear 22 1011 68 10000 4.12 130 18:54 20.06.2022
783 Clear 24 1011 80 10000 4.63 130 18:24 20.06.2022
784 Clear 23 1011 68 10000 4.63 130 17:41 20.06.2022
785 Clear 24 1012 60 10000 6.17 140 16:21 20.06.2022
786 Clouds 24 1013 57 10000 5.66 140 14:29 20.06.2022
787 Clouds 25 1014 74 10000 4.12 130 11:46 20.06.2022
788 Clouds 24 1014 83 10000 2.57 100 09:48 20.06.2022
789 Clouds 22 1015 83 10000 2.06 0 08:45 20.06.2022
790 Clear 17 1015 100 9000 2.06 280 06:59 20.06.2022
791 Clear 15 1015 100 7000 0 0 03:51 20.06.2022
792 Clear 16 1016 100 10000 1.54 350 00:52 20.06.2022
793 Clear 16 1017 100 10000 1.54 10 23:29 19.06.2022
794 Clear 17 1017 100 10000 1.54 20 22:19 19.06.2022
795 Clear 17 1017 100 10000 1.54 20 22:19 19.06.2022
796 Clear 18 1017 96 10000 1.54 10 21:41 19.06.2022
797 Clear 18 1017 88 10000 1.03 360 20:46 19.06.2022
798 Clear 21 1017 78 10000 2.06 150 19:48 19.06.2022
799 Clear 21 1017 83 10000 2.57 130 19:24 19.06.2022
800 Clear 23 1017 77 10000 4.63 130 18:31 19.06.2022
801 Clouds 24 1017 75 10000 4.63 130 17:39 19.06.2022
802 Clouds 23 1018 60 10000 5.14 130 16:39 19.06.2022
803 Rain 24 1018 60 10000 5.66 130 15:44 19.06.2022
804 Clouds 25 1018 57 10000 5.66 140 15:26 19.06.2022
805 Clouds 25 1018 53 10000 6.17 140 14:35 19.06.2022
806 Clouds 25 1018 57 10000 6.69 130 13:44 19.06.2022
807 Rain 26 1018 68 10000 4.12 30 11:53 19.06.2022
808 Clouds 25 1019 68 10000 4.12 30 10:52 19.06.2022
809 Clear 23 1019 70 10000 4.63 10 08:55 19.06.2022
810 Clear 22 1019 75 10000 5.14 10 08:30 19.06.2022
811 Rain 18 1018 80 10000 2.57 240 06:48 19.06.2022
812 Mist 15 1018 100 5000 1.54 290 03:37 19.06.2022
813 Clear 16 1018 100 10000 1.54 270 00:28 19.06.2022
814 Clear 16 1018 100 10000 2.57 330 23:52 18.06.2022
815 Clear 16 1018 96 10000 1.54 350 23:34 18.06.2022
816 Clear 17 1018 92 10000 2.57 10 21:54 18.06.2022
817 Clear 18 1018 96 10000 2.06 360 20:50 18.06.2022
818 Clouds 19 1018 86 10000 0 0 20:18 18.06.2022
819 Clouds 21 1017 83 10000 2.06 150 18:55 18.06.2022
820 Clouds 21 1017 86 10000 3.09 130 18:30 18.06.2022
821 Rain 21 1017 89 10000 1.54 230 17:29 18.06.2022
822 Rain 21 1018 89 10000 1.54 220 15:46 18.06.2022
823 Rain 21 1018 83 10000 3.09 170 14:50 18.06.2022
824 Rain 21 1018 78 10000 3.6 20 13:58 18.06.2022
825 Clouds 22 1018 80 10000 5.66 40 12:28 18.06.2022
826 Clouds 22 1018 80 10000 3.09 40 10:59 18.06.2022
827 Rain 21 1017 80 10000 1.54 360 09:31 18.06.2022
828 Clouds 21 1017 78 10000 2.06 0 08:40 18.06.2022
829 Clear 21 1016 78 10000 2.06 0 07:34 18.06.2022
830 Rain 18 1016 80 10000 1.54 0 05:20 18.06.2022
831 Clouds 17 1016 96 10000 1.03 0 01:47 18.06.2022
832 Clouds 18 1016 89 10000 2.57 120 01:21 18.06.2022
833 Clear 17 1016 89 10000 1.54 50 00:23 18.06.2022
834 Clear 17 1016 89 10000 1.03 80 23:36 17.06.2022
835 Rain 17 1016 92 10000 2.06 20 22:27 17.06.2022
836 Clear 20 1016 78 10000 2.57 150 20:29 17.06.2022
837 Clear 22 1016 69 10000 3.09 140 19:20 17.06.2022
838 Clear 24 1016 65 10000 4.63 130 17:47 17.06.2022
839 Clear 25 1016 64 10000 5.66 120 16:44 17.06.2022
840 Clear 25 1016 66 10000 5.66 120 16:21 17.06.2022
841 Clear 25 1016 62 10000 5.66 120 15:37 17.06.2022
842 Clear 26 1017 66 10000 5.66 120 14:23 17.06.2022
843 Clear 25 1017 53 10000 6.17 120 13:58 17.06.2022
844 Clear 26 1017 47 10000 4.63 120 13:38 17.06.2022
845 Clear 25 1017 44 10000 4.63 110 12:24 17.06.2022
846 Clear 26 1017 66 10000 4.12 120 11:50 17.06.2022
847 Clear 25 1017 41 10000 2.57 0 11:32 17.06.2022
848 Clear 22 1018 66 10000 0.51 0 08:56 17.06.2022
849 Clear 20 1018 72 10000 1.54 260 08:25 17.06.2022
850 Clear 16 1018 89 10000 1.03 0 06:42 17.06.2022
851 Clear 13 1018 96 10000 1.54 290 03:42 17.06.2022
852 Clear 15 1019 86 10000 0 0 01:55 17.06.2022
853 Clear 16 1019 83 10000 2.06 40 23:35 16.06.2022
854 Clear 16 1019 83 10000 2.06 70 22:41 16.06.2022
855 Clear 18 1019 75 10000 2.57 120 21:21 16.06.2022
856 Clear 20 1019 67 10000 3.09 120 20:51 16.06.2022
857 Clouds 19 1019 71 10000 3.09 120 20:27 16.06.2022
858 Clouds 22 1018 68 10000 4.12 150 19:31 16.06.2022
859 Clear 24 1018 43 10000 3.09 160 17:54 16.06.2022
860 Clear 25 1019 41 10000 3.09 120 17:27 16.06.2022
861 Clear 25 1019 41 10000 3.6 150 16:24 16.06.2022
862 Clouds 25 1019 38 10000 4.12 140 15:21 16.06.2022
863 Clouds 26 1020 41 10000 4.63 120 14:27 16.06.2022
864 Clouds 25 1020 41 10000 3.6 130 12:56 16.06.2022
865 Clouds 25 1020 38 10000 3.09 130 12:34 16.06.2022
866 Rain 26 1020 64 10000 2.57 150 11:48 16.06.2022
867 Rain 25 1020 60 10000 1.54 0 10:42 16.06.2022
868 Clear 24 1020 59 10000 1.54 260 09:43 16.06.2022
869 Clear 23 1020 64 10000 1.54 0 09:19 16.06.2022
870 Clear 19 1020 85 10000 0 0 07:57 16.06.2022
871 Fog 15 1020 100 7000 0 0 06:49 16.06.2022
872 Clear 14 1020 100 10000 1.54 320 04:27 16.06.2022
873 Clouds 15 1020 100 10000 0 0 01:53 16.06.2022
874 Clouds 15 1020 100 10000 1.03 20 01:32 16.06.2022
875 Clouds 15 1020 96 10000 2.06 10 00:31 16.06.2022
876 Clouds 16 1020 89 10000 2.06 40 22:59 15.06.2022
877 Clouds 17 1020 92 10000 0 0 21:55 15.06.2022
878 Clouds 18 1020 89 10000 1.54 20 21:20 15.06.2022
879 Rain 19 1019 86 10000 3.09 120 20:37 15.06.2022
880 Clouds 19 1019 86 10000 3.09 120 20:18 15.06.2022
881 Rain 22 1019 77 10000 4.63 130 18:47 15.06.2022
882 Clouds 22 1019 64 10000 5.14 140 17:53 15.06.2022
883 Clouds 24 1019 73 10000 5.66 130 16:34 15.06.2022
884 Clouds 24 1019 76 10000 3.09 110 15:22 15.06.2022
885 Clouds 23 1020 76 10000 3.6 50 13:29 15.06.2022
886 Clouds 22 1020 76 10000 1.54 0 12:47 15.06.2022
887 Clouds 23 1019 76 10000 2.57 140 11:28 15.06.2022
888 Clouds 22 1019 64 10000 2.06 50 10:22 15.06.2022
889 Clear 22 1019 60 10000 2.06 0 09:34 15.06.2022
890 Rain 20 1018 75 10000 2.57 0 07:43 15.06.2022
891 Clouds 18 1017 89 10000 2.57 240 05:57 15.06.2022
892 Clouds 18 1017 92 10000 3.6 0 02:55 15.06.2022
893 Rain 19 1017 92 10000 3.6 350 01:36 15.06.2022
894 Rain 19 1016 89 10000 1.54 0 00:36 15.06.2022
895 Rain 19 1016 96 10000 7.2 360 23:38 14.06.2022
896 Rain 19 1016 96 10000 5.66 360 22:48 14.06.2022
897 Thunderstorm 20 1016 89 10000 4.12 310 21:43 14.06.2022
898 Rain 20 1016 92 10000 5.66 260 21:21 14.06.2022
899 Rain 20 1015 96 10000 2.57 250 20:40 14.06.2022
900 Rain 20 1014 88 10000 0 0 19:58 14.06.2022
901 Rain 20 1013 94 10000 2.06 210 18:40 14.06.2022
902 Thunderstorm 22 1013 68 6000 11.32 230 17:19 14.06.2022
903 Thunderstorm 24 1012 64 10000 5.14 150 16:42 14.06.2022
904 Rain 29 1011 54 10000 4.63 20 15:43 14.06.2022
905 Clouds 29 1012 51 10000 4.63 360 14:53 14.06.2022
906 Clouds 29 1012 54 10000 5.14 360 13:59 14.06.2022
907 Clouds 29 1012 72 10000 5.66 320 12:59 14.06.2022
908 Clear 29 1013 76 10000 4.63 330 11:56 14.06.2022
909 Clear 28 1012 74 10000 6.17 320 10:52 14.06.2022
910 Clear 28 1012 74 10000 6.69 320 10:28 14.06.2022
911 Clouds 26 1012 78 10000 2.06 280 09:18 14.06.2022
912 Clear 25 1012 79 10000 2.06 240 08:37 14.06.2022
913 Clouds 21 1011 82 10000 2.06 280 06:20 14.06.2022
914 Clouds 21 1011 73 10000 0 0 03:52 14.06.2022
915 Clouds 21 1011 73 10000 3.6 300 01:37 14.06.2022
916 Clouds 20 1011 86 10000 0 0 00:21 14.06.2022
917 Clouds 22 1011 80 10000 1.54 0 22:45 13.06.2022
918 Clouds 21 1011 86 10000 1.03 0 22:22 13.06.2022
919 Clouds 22 1011 80 10000 2.06 10 21:26 13.06.2022
920 Clouds 23 1010 68 10000 4.12 360 19:59 13.06.2022
921 Clouds 24 1010 73 10000 2.57 360 18:54 13.06.2022
922 Clear 23 1010 73 10000 2.57 290 17:55 13.06.2022
923 Clouds 23 1010 73 10000 2.06 200 17:23 13.06.2022
924 Thunderstorm 22 1010 64 10000 3.6 340 16:30 13.06.2022
925 Clouds 29 1010 54 10000 4.63 340 14:49 13.06.2022
926 Clouds 29 1011 54 10000 5.14 340 14:23 13.06.2022
927 Clouds 29 1011 76 10000 4.12 350 13:28 13.06.2022
928 Clear 28 1011 76 10000 4.12 320 12:22 13.06.2022
929 Clear 25 1011 81 10000 4.12 300 10:36 13.06.2022
930 Clear 24 1011 78 10000 4.12 310 09:43 13.06.2022
931 Clouds 23 1011 80 10000 3.6 0 08:34 13.06.2022
932 Clear 20 1009 86 10000 8.75 360 06:35 13.06.2022
933 Clouds 20 1008 85 10000 9.77 360 04:35 13.06.2022
934 Rain 20 1009 86 10000 8.23 360 01:44 13.06.2022
935 Clouds 20 1009 86 10000 7.72 360 01:18 13.06.2022
936 Clouds 20 1009 83 10000 6.69 360 23:41 12.06.2022
937 Clouds 21 1009 83 10000 7.72 360 22:34 12.06.2022
938 Clouds 21 1009 83 10000 8.23 360 21:45 12.06.2022
939 Clouds 22 1009 80 10000 7.72 360 20:49 12.06.2022
940 Clouds 22 1009 83 10000 7.72 360 19:49 12.06.2022
941 Clouds 24 1008 76 10000 5.14 10 18:53 12.06.2022
942 Clouds 26 1007 68 10000 7.2 10 17:20 12.06.2022
943 Clouds 26 1007 72 10000 7.72 30 15:34 12.06.2022
944 Clouds 27 1007 70 10000 8.75 30 14:48 12.06.2022
945 Clouds 25 1007 69 10000 6.17 10 14:18 12.06.2022
946 Clouds 25 1007 69 10000 5.66 360 13:43 12.06.2022
947 Rain 23 1008 78 10000 6.17 360 12:22 12.06.2022
948 Rain 21 1008 92 10000 6.69 350 10:46 12.06.2022
949 Clouds 20 1007 96 10000 7.72 350 09:36 12.06.2022
950 Clouds 20 1007 96 10000 7.2 350 08:50 12.06.2022
951 Rain 19 1007 96 10000 6.69 360 07:51 12.06.2022
952 Rain 19 1007 100 10000 4.63 360 06:27 12.06.2022
953 Rain 19 1007 96 10000 6.17 20 03:44 12.06.2022
954 Rain 19 1008 92 10000 5.66 10 01:49 12.06.2022
955 Rain 19 1008 92 10000 5.66 20 01:29 12.06.2022
956 Clouds 19 1008 92 10000 5.66 10 00:43 12.06.2022
957 Clouds 18 1009 96 10000 5.66 10 00:18 12.06.2022
958 Rain 19 1009 92 10000 5.66 30 22:58 11.06.2022
959 Rain 19 1009 92 10000 4.12 30 22:31 11.06.2022
960 Clouds 19 1009 96 10000 5.66 30 21:18 11.06.2022
961 Clouds 20 1009 96 10000 4.63 20 20:26 11.06.2022
962 Clouds 20 1009 96 10000 0 0 19:33 11.06.2022
963 Rain 20 1009 100 10000 3.09 80 18:37 11.06.2022
964 Rain 20 1009 100 10000 3.09 80 18:37 11.06.2022
965 Rain 20 1009 96 8000 5.14 80 17:58 11.06.2022
966 Rain 21 1009 92 10000 5.14 60 17:38 11.06.2022
967 Clouds 21 1009 92 10000 5.14 60 17:19 11.06.2022
968 Clouds 21 1009 92 10000 5.66 50 16:38 11.06.2022
969 Clouds 21 1009 96 10000 3.6 60 15:46 11.06.2022
970 Clouds 21 1010 92 10000 1.03 0 13:54 11.06.2022
971 Clouds 21 1010 96 10000 1.54 40 13:36 11.06.2022
972 Rain 21 1011 96 10000 1.03 0 11:36 11.06.2022
973 Rain 20 1012 100 10000 2.57 100 10:29 11.06.2022
974 Rain 20 1011 96 10000 4.12 100 09:40 11.06.2022
975 Clouds 20 1011 96 10000 2.57 70 07:58 11.06.2022
976 Clouds 19 1010 96 10000 0 0 06:31 11.06.2022
977 Clouds 18 1010 100 10000 2.57 70 05:22 11.06.2022
978 Clouds 19 1010 100 10000 2.57 90 01:53 11.06.2022
979 Clouds 18 1011 100 10000 1.54 40 01:34 11.06.2022
980 Clouds 18 1011 100 10000 1.03 0 00:34 11.06.2022
981 Clouds 18 1011 100 10000 2.06 50 22:35 10.06.2022
982 Clouds 19 1011 100 10000 1.54 20 21:54 10.06.2022
983 Clouds 19 1011 100 10000 1.54 110 20:43 10.06.2022
984 Clouds 19 1010 96 10000 3.09 100 20:23 10.06.2022
985 Clouds 20 1010 92 10000 0 0 19:48 10.06.2022
986 Clouds 20 1010 88 10000 3.09 90 19:18 10.06.2022
987 Clouds 20 1010 92 10000 3.6 100 18:19 10.06.2022
988 Clouds 20 1010 92 10000 2.06 120 17:36 10.06.2022
989 Clouds 20 1010 92 10000 2.57 140 16:56 10.06.2022
990 Clouds 21 1010 86 10000 4.63 100 15:48 10.06.2022
991 Rain 21 1010 86 10000 4.12 130 15:19 10.06.2022
992 Clouds 22 1010 89 10000 5.14 90 13:44 10.06.2022
993 Clouds 20 1010 92 6000 5.66 120 12:35 10.06.2022
994 Rain 21 1010 89 10000 6.69 120 11:40 10.06.2022
995 Clouds 20 1010 89 10000 4.63 110 10:40 10.06.2022
996 Clouds 20 1009 89 10000 5.14 100 09:43 10.06.2022
997 Clouds 21 1009 86 10000 4.63 130 08:23 10.06.2022
998 Clouds 20 1008 92 10000 3.09 90 06:52 10.06.2022
999 Clouds 20 1008 92 10000 2.06 80 06:32 10.06.2022
1000 Clouds 18 1008 100 10000 1.03 0 05:48 10.06.2022
1001 Clouds 19 1008 100 10000 2.57 110 03:41 10.06.2022
1002 Clouds 19 1008 100 10000 4.12 110 01:38 10.06.2022
1003 Rain 19 1008 96 10000 4.63 120 00:25 10.06.2022
1004 Clouds 18 1008 100 10000 1.03 0 23:25 09.06.2022
1005 Clear 18 1007 100 10000 2.57 100 21:47 09.06.2022
1006 Clouds 18 1007 96 10000 2.06 60 21:29 09.06.2022
1007 Clouds 18 1007 100 10000 1.54 130 20:47 09.06.2022
1008 Clouds 20 1007 83 10000 2.57 120 19:55 09.06.2022
1009 Clouds 20 1007 77 10000 4.12 100 18:47 09.06.2022
1010 Clouds 22 1007 68 10000 4.63 100 17:56 09.06.2022
1011 Clouds 23 1007 83 10000 5.14 90 16:44 09.06.2022
1012 Clouds 23 1007 80 10000 5.14 90 15:44 09.06.2022
1013 Clouds 23 1007 80 10000 4.63 130 14:34 09.06.2022
1014 Clouds 23 1007 80 10000 5.66 110 13:46 09.06.2022
1015 Clouds 22 1007 68 10000 3.6 130 13:26 09.06.2022
1016 Clouds 23 1008 60 10000 2.57 0 11:53 09.06.2022
1017 Clouds 22 1008 80 10000 2.57 30 10:40 09.06.2022
1018 Clouds 22 1008 78 10000 1.03 0 09:41 09.06.2022
1019 Clouds 21 1008 86 10000 1.54 0 09:23 09.06.2022
1020 Fog 17 1008 96 6000 2.06 270 07:34 09.06.2022
1021 Clouds 14 1008 100 6000 2.57 40 05:27 09.06.2022
1022 Clouds 14 1009 100 10000 0 0 01:44 09.06.2022
1023 Clouds 16 1010 100 10000 0 0 23:24 08.06.2022
1024 Clouds 16 1010 100 10000 0 0 22:50 08.06.2022
1025 Clouds 17 1010 96 10000 1.54 30 22:25 08.06.2022
1026 Clouds 17 1010 96 10000 0 0 21:48 08.06.2022
1027 Clouds 18 1010 89 10000 2.57 120 20:33 08.06.2022
1028 Clouds 19 1010 77 10000 2.06 120 19:47 08.06.2022
1029 Rain 20 1010 68 10000 2.57 120 18:56 08.06.2022
1030 Clouds 20 1010 77 10000 3.09 140 18:22 08.06.2022
1031 Clouds 21 1010 83 10000 3.09 190 16:30 08.06.2022
1032 Clouds 20 1011 92 10000 1.54 280 14:49 08.06.2022
1033 Rain 18 1011 100 10000 2.06 150 12:55 08.06.2022
1034 Rain 19 1011 96 10000 2.57 130 11:50 08.06.2022
1035 Rain 18 1011 100 10000 4.12 90 11:22 08.06.2022
1036 Clouds 20 1011 86 10000 2.57 90 09:46 08.06.2022
1037 Clouds 21 1011 80 10000 4.63 90 09:19 08.06.2022
1038 Clouds 18 1011 96 10000 0.51 0 07:30 08.06.2022
1039 Clouds 16 1011 100 10000 2.57 10 04:51 08.06.2022
1040 Clouds 17 1011 100 10000 2.06 100 02:28 08.06.2022
1041 Clouds 17 1011 100 10000 0 0 23:41 07.06.2022
1042 Clouds 17 1012 100 10000 0 0 23:22 07.06.2022
1043 Clouds 17 1012 100 10000 1.03 0 22:38 07.06.2022
1044 Clouds 17 1012 100 6000 0 0 21:45 07.06.2022
1045 Clouds 17 1012 100 6000 0 0 21:24 07.06.2022
1046 Clouds 17 1012 100 8000 0 0 20:43 07.06.2022
1047 Clouds 17 1012 100 10000 1.03 330 19:59 07.06.2022
1048 Clouds 18 1012 100 10000 2.57 300 18:42 07.06.2022
1049 Clouds 18 1012 100 10000 2.06 0 17:51 07.06.2022
1050 Clouds 18 1012 100 9000 2.06 250 16:49 07.06.2022
1051 Clouds 18 1012 94 10000 3.6 250 16:31 07.06.2022
1052 Clouds 19 1012 96 10000 2.06 230 15:38 07.06.2022
1053 Clouds 20 1012 92 10000 2.06 200 15:19 07.06.2022
1054 Clouds 21 1012 86 10000 1.03 0 14:44 07.06.2022
1055 Clouds 20 1013 86 10000 2.57 20 13:42 07.06.2022
1056 Clouds 20 1013 86 10000 2.57 20 13:42 07.06.2022
1057 Clouds 21 1013 80 10000 3.09 20 13:23 07.06.2022
1058 Clouds 20 1014 83 10000 4.63 30 11:56 07.06.2022
1059 Clouds 20 1014 80 10000 3.6 30 10:57 07.06.2022
1060 Clouds 20 1014 80 10000 4.12 300 09:26 07.06.2022
1061 Clouds 19 1014 85 10000 4.12 300 08:28 07.06.2022
1062 Clouds 17 1014 88 10000 3.6 280 07:19 07.06.2022
1063 Clouds 16 1014 92 10000 1.54 280 04:52 07.06.2022
1064 Clouds 16 1014 92 10000 1.54 250 01:43 07.06.2022
1065 Clouds 16 1015 100 10000 2.57 290 23:59 06.06.2022
1066 Clouds 17 1015 89 10000 0 0 22:59 06.06.2022
1067 Clear 17 1015 92 10000 2.06 350 22:30 06.06.2022
1068 Clear 18 1015 89 10000 2.06 10 21:28 06.06.2022
1069 Clouds 20 1015 83 10000 4.12 30 19:29 06.06.2022
1070 Clouds 20 1015 89 10000 3.6 90 18:59 06.06.2022
1071 Clouds 21 1014 86 10000 3.6 110 18:32 06.06.2022
1072 Clouds 21 1014 89 10000 3.09 140 17:27 06.06.2022
1073 Clouds 21 1014 89 10000 4.12 150 16:21 06.06.2022
1074 Clouds 21 1014 83 10000 6.17 140 15:33 06.06.2022
1075 Clouds 21 1014 83 10000 6.17 140 15:33 06.06.2022
1076 Clouds 21 1014 83 10000 3.6 110 14:36 06.06.2022
1077 Clouds 24 1014 64 10000 3.6 10 13:26 06.06.2022
1078 Clouds 24 1014 64 10000 2.06 350 12:36 06.06.2022
1079 Clouds 23 1014 68 10000 2.06 350 11:53 06.06.2022
1080 Clouds 22 1014 68 10000 4.12 40 10:41 06.06.2022
1081 Clouds 20 1014 89 10000 3.09 30 09:39 06.06.2022
1082 Clouds 19 1014 86 10000 3.6 90 08:32 06.06.2022
1083 Clouds 17 1013 88 10000 7.2 90 07:28 06.06.2022
1084 Clouds 20 1012 92 10000 4.12 110 05:27 06.06.2022
1085 Clouds 20 1012 92 10000 1.54 0 02:55 06.06.2022
1086 Clouds 18 1013 100 10000 0 0 01:23 06.06.2022
1087 Clouds 18 1012 100 10000 0 0 00:38 06.06.2022
1088 Clouds 19 1013 100 10000 1.03 0 23:40 05.06.2022
1089 Clouds 19 1012 100 8000 1.54 90 22:45 05.06.2022
1090 Clouds 20 1012 100 10000 1.54 120 20:47 05.06.2022
1091 Clouds 21 1011 100 10000 1.03 0 19:41 05.06.2022
1092 Clouds 23 1013 78 10000 1.54 70 18:30 05.06.2022
1093 Clouds 25 1012 57 10000 5.14 60 17:54 05.06.2022
1094 Clouds 25 1012 68 10000 1.54 130 17:25 05.06.2022
1095 Clouds 25 1012 66 10000 2.06 90 16:51 05.06.2022
1096 Clouds 25 1012 74 10000 2.57 80 16:32 05.06.2022
1097 Clouds 25 1013 83 10000 4.12 130 14:25 05.06.2022
1098 Clouds 29 1013 42 10000 4.63 130 12:49 05.06.2022
1099 Clouds 31 1013 61 10000 2.57 140 11:45 05.06.2022
1100 Clear 29 1014 63 10000 1.03 0 10:33 05.06.2022
1101 Clear 28 1014 60 10000 1.03 0 09:59 05.06.2022
1102 Clear 22 1014 77 8000 1.03 0 08:28 05.06.2022
1103 Clear 21 1014 83 10000 1.54 280 07:41 05.06.2022
1104 Clear 15 1015 85 10000 0.51 30 05:21 05.06.2022
1105 Clear 14 1015 77 10000 0 0 03:46 05.06.2022
1106 Clear 17 1016 80 10000 2.57 10 01:32 05.06.2022
1107 Clear 17 1016 75 10000 2.06 360 00:29 05.06.2022
1108 Clear 19 1017 75 10000 1.54 360 22:22 04.06.2022
1109 Clear 22 1016 53 10000 2.06 90 20:31 04.06.2022
1110 Clouds 25 1016 81 10000 4.63 150 18:19 04.06.2022
1111 Clear 26 1016 65 10000 5.66 140 16:44 04.06.2022
1112 Clear 27 1016 79 10000 6.69 130 16:18 04.06.2022
1113 Clouds 26 1017 69 10000 7.2 140 14:53 04.06.2022
1114 Clouds 29 1018 76 10000 3.6 150 12:35 04.06.2022
1115 Clouds 28 1018 54 10000 3.6 10 11:18 04.06.2022
1116 Clouds 28 1018 72 10000 4.63 20 10:43 04.06.2022
1117 Clouds 27 1018 74 10000 4.63 30 09:42 04.06.2022
1118 Clear 26 1019 76 10000 3.6 40 08:41 04.06.2022
1119 Clear 23 1018 80 10000 2.06 50 07:40 04.06.2022
1120 Clear 22 1018 73 10000 3.09 80 04:57 04.06.2022
1121 Clear 22 1018 83 10000 3.6 20 01:27 04.06.2022
1122 Clear 22 1018 83 10000 1.03 0 23:59 03.06.2022
1123 Clear 24 1018 64 10000 3.09 10 22:40 03.06.2022
1124 Clear 24 1018 64 10000 3.09 20 21:24 03.06.2022
1125 Clear 24 1017 73 10000 1.54 340 20:33 03.06.2022
1126 Clear 27 1017 74 10000 4.63 70 18:23 03.06.2022
1127 Clouds 30 1017 48 10000 7.72 60 16:47 03.06.2022
1128 Clouds 28 1017 79 10000 4.63 150 15:23 03.06.2022
1129 Clouds 30 1017 51 10000 6.69 10 13:22 03.06.2022
1130 Clear 30 1017 69 10000 6.17 60 11:40 03.06.2022
1131 Clear 27 1016 74 10000 6.17 10 09:38 03.06.2022
1132 Clear 26 1016 76 10000 5.14 20 08:58 03.06.2022
1133 Clear 22 1016 83 10000 5.14 350 07:26 03.06.2022
1134 Clear 22 1016 83 10000 5.14 350 07:26 03.06.2022
1135 Clear 20 1016 86 10000 1.54 290 06:34 03.06.2022
1136 Clouds 17 1016 100 10000 1.03 320 05:36 03.06.2022
1137 Clear 18 1015 96 10000 0 0 00:30 03.06.2022
1138 Clear 19 1015 100 10000 0 0 22:45 02.06.2022
1139 Clear 20 1015 94 10000 0 0 21:40 02.06.2022
1140 Clear 21 1014 83 10000 2.57 120 20:22 02.06.2022
1141 Clear 22 1014 78 10000 2.57 130 19:50 02.06.2022
1142 Clear 23 1014 73 10000 3.09 130 19:31 02.06.2022
1143 Clear 25 1014 69 10000 4.12 140 17:32 02.06.2022
1144 Clear 26 1014 65 10000 5.66 130 16:27 02.06.2022
1145 Clouds 27 1015 61 10000 7.2 130 14:20 02.06.2022
1146 Rain 27 1015 61 10000 6.17 140 13:29 02.06.2022
1147 Clouds 29 1015 72 10000 3.6 20 11:36 02.06.2022
1148 Clouds 28 1015 72 10000 1.03 0 10:20 02.06.2022
1149 Clear 26 1015 75 10000 1.54 210 09:28 02.06.2022
1150 Clear 24 1015 80 10000 0.51 0 08:27 02.06.2022
1151 Clear 20 1015 92 10000 1.54 220 07:25 02.06.2022
1152 Mist 17 1014 100 4700 1.54 160 04:52 02.06.2022
1153 Mist 18 1014 100 5000 2.06 290 02:38 02.06.2022
1154 Clouds 18 1015 100 7000 0 0 23:47 01.06.2022
1155 Clear 20 1015 96 10000 0 0 22:32 01.06.2022
1156 Clear 21 1015 92 10000 0 0 21:35 01.06.2022
1157 Clear 21 1015 92 10000 1.54 50 20:58 01.06.2022
1158 Clear 22 1015 89 10000 0 0 20:37 01.06.2022
1159 Clouds 24 1014 83 10000 0 0 19:25 01.06.2022
1160 Clouds 25 1015 79 10000 0 0 17:44 01.06.2022
1161 Clouds 25 1014 83 10000 2.06 110 16:34 01.06.2022
1162 Clouds 26 1014 78 10000 6.17 120 14:54 01.06.2022
1163 Clouds 28 1014 54 10000 5.66 120 13:51 01.06.2022
1164 Clouds 29 1015 72 10000 1.03 0 12:26 01.06.2022
1165 Clouds 27 1015 75 10000 2.06 10 09:41 01.06.2022
1166 Clear 25 1015 81 10000 1.54 270 08:40 01.06.2022
1167 Rain 21 1015 86 10000 1.03 0 07:22 01.06.2022
1168 Rain 18 1014 96 10000 3.09 290 05:23 01.06.2022
1169 Clouds 18 1015 92 10000 1.54 10 00:40 01.06.2022
1170 Clouds 18 1015 96 10000 2.06 20 23:28 31.05.2022
1171 Clouds 19 1015 92 7000 1.03 0 22:36 31.05.2022
1172 Clear 20 1015 94 7000 0 0 21:45 31.05.2022
1173 Clear 21 1014 78 10000 2.06 30 20:45 31.05.2022
1174 Rain 22 1014 83 10000 2.06 120 20:18 31.05.2022
1175 Clouds 22 1014 83 10000 4.12 100 18:52 31.05.2022
1176 Rain 24 1014 77 10000 4.63 110 17:50 31.05.2022
1177 Clouds 25 1013 61 10000 5.66 100 16:56 31.05.2022
1178 Clouds 28 1013 54 10000 5.14 100 15:40 31.05.2022
1179 Clouds 27 1014 50 10000 1.54 0 13:52 31.05.2022
1180 Clouds 27 1015 50 10000 3.6 330 12:20 31.05.2022
1181 Clouds 28 1015 70 10000 2.57 310 10:55 31.05.2022
1182 Clouds 25 1015 78 10000 1.03 0 09:29 31.05.2022
1183 Mist 19 1015 92 5000 1.54 240 07:24 31.05.2022
1184 Clear 16 1014 96 10000 0.51 0 05:19 31.05.2022
1185 Clear 17 1013 96 10000 2.06 290 00:36 31.05.2022
1186 Clear 18 1013 89 10000 0 0 23:26 30.05.2022
1187 Clear 19 1013 86 10000 0 0 22:56 30.05.2022
1188 Clear 20 1012 83 10000 2.06 340 21:52 30.05.2022
1189 Clear 20 1012 77 10000 1.54 330 21:32 30.05.2022
1190 Clouds 21 1011 86 10000 2.06 350 20:20 30.05.2022
1191 Clouds 25 1011 57 10000 5.14 310 18:40 30.05.2022
1192 Clouds 26 1010 67 10000 4.63 310 17:35 30.05.2022
1193 Clouds 26 1010 50 10000 5.14 290 16:41 30.05.2022
1194 Clouds 26 1010 72 10000 5.14 300 14:35 30.05.2022
1195 Rain 25 1010 76 10000 5.14 280 12:24 30.05.2022
1196 Clouds 24 1009 81 10000 6.17 270 10:41 30.05.2022
1197 Clear 22 1009 86 10000 4.63 250 09:19 30.05.2022
1198 Clouds 17 1007 100 10000 1.03 0 06:40 30.05.2022
1199 Clouds 16 1007 100 10000 1.03 0 05:48 30.05.2022
1200 Clouds 16 1007 100 10000 1.54 320 01:42 30.05.2022
1201 Clouds 19 1008 83 10000 4.63 110 22:57 29.05.2022
1202 Clouds 19 1009 83 10000 6.69 100 22:36 29.05.2022
1203 Clouds 18 1008 83 10000 4.12 90 20:54 29.05.2022
1204 Clouds 20 1008 78 10000 5.14 90 19:32 29.05.2022
1205 Clouds 21 1008 76 10000 4.63 80 18:44 29.05.2022
1206 Clear 21 1010 71 10000 6.17 100 17:31 29.05.2022
1207 Clear 23 1009 69 10000 7.72 100 15:48 29.05.2022
1208 Clear 24 1010 74 10000 5.66 100 14:57 29.05.2022
1209 Clear 23 1010 80 10000 6.69 130 13:52 29.05.2022
1210 Rain 23 1011 83 10000 5.66 120 11:41 29.05.2022
1211 Rain 24 1009 78 10000 7.72 100 10:38 29.05.2022
1212 Clouds 22 1012 80 10000 3.09 340 08:47 29.05.2022
1213 Clouds 17 1010 100 10000 2.06 0 05:48 29.05.2022
1214 Clouds 17 1010 96 10000 1.03 0 04:43 29.05.2022
1215 Clouds 18 1010 89 10000 3.6 320 03:41 29.05.2022
1216 Rain 19 1010 83 10000 3.6 100 23:49 28.05.2022
1217 Clouds 19 1010 82 10000 3.6 100 23:26 28.05.2022
1218 Clouds 17 1010 89 10000 3.09 110 22:33 28.05.2022
1219 Clouds 19 1010 82 10000 3.09 90 21:34 28.05.2022
1220 Clouds 19 1010 77 10000 3.09 90 19:24 28.05.2022
1221 Clouds 20 1010 73 10000 3.09 90 18:47 28.05.2022
1222 Clear 22 1009 80 10000 4.63 100 17:36 28.05.2022
1223 Clear 22 1010 64 10000 4.12 120 16:37 28.05.2022
1224 Clouds 22 1010 73 10000 6.69 110 15:39 28.05.2022
1225 Clear 24 1010 64 10000 5.66 120 14:18 28.05.2022
1226 Clear 23 1011 73 10000 5.66 110 12:44 28.05.2022
1227 Clear 24 1011 69 10000 4.63 130 11:57 28.05.2022
1228 Clear 25 1011 65 10000 1.03 0 10:49 28.05.2022
1229 Clear 23 1012 68 10000 1.54 0 09:56 28.05.2022
1230 Clouds 18 1012 100 8000 0 0 08:43 28.05.2022
1231 Fog 15 1012 100 300 1.03 0 07:23 28.05.2022
1232 Fog 15 1012 100 700 0 0 05:24 28.05.2022
1233 Clouds 15 1013 100 8000 1.54 30 02:38 28.05.2022
1234 Clouds 16 1014 100 10000 0.51 0 00:31 28.05.2022
1235 Clouds 17 1015 100 10000 2.57 110 22:50 27.05.2022
1236 Clouds 18 1015 94 10000 3.6 110 21:37 27.05.2022
1237 Clouds 18 1015 94 10000 3.6 110 20:48 27.05.2022
1238 Clouds 18 1015 94 10000 3.09 110 20:21 27.05.2022
1239 Clouds 18 1015 94 10000 3.6 100 19:41 27.05.2022
1240 Clouds 19 1015 82 10000 4.12 100 19:21 27.05.2022
1241 Clear 21 1016 73 10000 5.66 100 17:34 27.05.2022
1242 Clouds 22 1016 68 10000 6.17 110 16:36 27.05.2022
1243 Clouds 22 1017 68 10000 7.2 120 15:20 27.05.2022
1244 Clouds 23 1018 64 10000 6.69 120 13:41 27.05.2022
1245 Clouds 24 1018 60 10000 5.66 120 12:28 27.05.2022
1246 Clouds 24 1018 60 10000 3.6 130 11:31 27.05.2022
1247 Clouds 25 1019 74 10000 3.09 160 10:47 27.05.2022
1248 Clear 24 1019 77 10000 2.06 170 09:59 27.05.2022
1249 Clear 23 1019 80 10000 1.54 0 09:31 27.05.2022
1250 Clear 19 1019 89 10000 0 0 07:40 27.05.2022
1251 Clouds 15 1019 96 10000 2.06 360 05:25 27.05.2022
1252 Clouds 16 1018 94 10000 1.03 90 01:44 27.05.2022
1253 Clouds 17 1019 100 10000 2.06 40 23:31 26.05.2022
1254 Clouds 17 1018 100 10000 0.51 0 22:28 26.05.2022
1255 Clouds 18 1018 100 10000 0.51 0 21:32 26.05.2022
1256 Clouds 20 1016 88 10000 5.14 130 19:39 26.05.2022
1257 Clouds 22 1016 78 10000 6.69 120 18:52 26.05.2022
1258 Clouds 28 1015 51 10000 4.63 300 17:36 26.05.2022
1259 Clouds 29 1016 45 10000 6.17 300 16:31 26.05.2022
1260 Clouds 29 1016 45 10000 6.69 300 15:32 26.05.2022
1261 Clouds 29 1016 45 10000 6.69 320 14:20 26.05.2022
1262 Clear 27 1016 76 10000 4.12 220 12:18 26.05.2022
1263 Clouds 25 1017 77 10000 3.09 250 11:21 26.05.2022
1264 Clouds 20 1016 83 10000 2.06 190 09:39 26.05.2022
1265 Clouds 20 1016 89 10000 1.03 0 08:48 26.05.2022
1266 Clouds 16 1017 100 10000 1.54 0 06:47 26.05.2022
1267 Clouds 13 1016 100 10000 2.57 100 02:51 26.05.2022
1268 Rain 14 1017 100 10000 3.6 100 00:19 26.05.2022
1269 Clouds 15 1018 100 10000 2.57 120 22:58 25.05.2022
1270 Clouds 15 1018 100 10000 2.57 120 21:44 25.05.2022
1271 Clouds 15 1018 96 10000 4.12 110 20:50 25.05.2022
1272 Clouds 16 1017 92 10000 4.63 120 19:56 25.05.2022
1273 Clear 18 1017 85 10000 4.63 120 18:48 25.05.2022
1274 Rain 19 1018 83 10000 5.66 120 17:26 25.05.2022
1275 Clear 20 1018 74 10000 6.69 120 16:34 25.05.2022
1276 Rain 20 1018 68 10000 6.17 120 15:36 25.05.2022
1277 Clear 21 1018 78 10000 6.69 110 14:50 25.05.2022
1278 Clear 21 1018 78 10000 6.69 110 14:32 25.05.2022
1279 Clouds 19 1018 68 10000 7.2 110 13:23 25.05.2022
1280 Clouds 19 1018 68 10000 7.2 110 13:23 25.05.2022
1281 Clouds 22 1019 99 10000 5.28 139 11:50 25.05.2022
1282 Clear 20 1018 83 10000 5.14 120 10:41 25.05.2022
1283 Clouds 19 1018 86 10000 5.14 120 09:38 25.05.2022
1284 Clouds 17 1018 99 10000 2.39 143 07:42 25.05.2022
1285 Rain 12 1016 100 10000 1.54 70 05:41 25.05.2022
1286 Clouds 14 1017 99 10000 1.56 168 02:41 25.05.2022
1287 Clouds 14 1015 100 10000 2.57 110 23:50 24.05.2022
1288 Rain 15 1015 100 10000 2.57 100 22:59 24.05.2022
1289 Rain 15 1015 100 10000 2.57 100 22:59 24.05.2022
1290 Rain 15 1015 100 10000 0 0 21:57 24.05.2022
1291 Rain 15 1014 100 10000 2.06 130 21:37 24.05.2022
1292 Clouds 15 1014 100 10000 2.06 130 21:18 24.05.2022
1293 Rain 16 1014 77 10000 3.09 140 19:23 24.05.2022
1294 Rain 16 1013 72 10000 4.12 130 18:29 24.05.2022
1295 Rain 17 1013 72 10000 7.2 110 16:39 24.05.2022
1296 Rain 17 1013 72 10000 7.2 110 16:39 24.05.2022
1297 Rain 17 1013 72 10000 7.2 120 15:45 24.05.2022
1298 Clear 20 1013 80 10000 7.2 120 14:38 24.05.2022
1299 Clear 20 1013 80 10000 7.2 120 13:46 24.05.2022
1300 Clear 20 1013 80 10000 7.2 110 12:24 24.05.2022
1301 Clear 19 1013 59 10000 3.6 120 09:52 24.05.2022
1302 Clouds 17 1013 88 10000 1.54 170 08:52 24.05.2022
1303 Mist 15 1013 100 4200 0.51 0 07:56 24.05.2022
1304 Mist 13 1012 100 3800 1.03 330 06:39 24.05.2022
1305 Clouds 12 1012 100 10000 0 0 03:38 24.05.2022
1306 Clouds 11 1012 100 10000 0 0 01:46 24.05.2022
1307 Clouds 11 1012 100 10000 1.03 60 00:30 24.05.2022
1308 Clouds 12 1012 100 10000 1.03 30 22:24 23.05.2022
1309 Clouds 13 1012 92 10000 2.57 30 21:50 23.05.2022
1310 Rain 13 1011 89 10000 1.54 40 20:49 23.05.2022
1311 Rain 15 1011 83 10000 1.54 170 19:55 23.05.2022
1312 Clouds 15 1011 83 10000 2.06 170 19:24 23.05.2022
1313 Clouds 16 1010 79 10000 3.09 160 18:41 23.05.2022
1314 Clouds 17 1010 77 10000 3.6 120 17:56 23.05.2022
1315 Clouds 18 1010 82 10000 5.66 120 16:29 23.05.2022
1316 Clouds 18 1009 85 10000 6.69 130 14:18 23.05.2022
1317 Clouds 18 1009 72 10000 6.17 120 11:53 23.05.2022
1318 Clouds 19 1009 63 10000 5.14 140 10:49 23.05.2022
1319 Clouds 20 1009 73 10000 3.09 40 09:48 23.05.2022
1320 Clear 17 1009 80 10000 1.54 0 08:46 23.05.2022
1321 Clouds 15 1009 83 10000 2.06 230 07:31 23.05.2022
1322 Clouds 14 1008 86 10000 3.09 340 06:40 23.05.2022
1323 Clouds 12 1008 95 10000 0 0 03:41 23.05.2022
1324 Clouds 14 1008 89 10000 0 0 02:18 23.05.2022
1325 Clouds 15 1008 83 10000 0 0 01:32 23.05.2022
1326 Clouds 15 1008 80 10000 2.57 90 23:18 22.05.2022
1327 Clouds 15 1008 67 10000 4.12 90 22:27 22.05.2022
1328 Clouds 14 1008 72 10000 2.57 50 21:52 22.05.2022
1329 Clouds 15 1008 67 10000 2.06 90 20:46 22.05.2022
1330 Clouds 16 1008 63 10000 2.57 90 20:22 22.05.2022
1331 Clouds 17 1007 59 10000 3.09 120 19:34 22.05.2022
1332 Clouds 18 1007 55 10000 4.12 130 18:50 22.05.2022
1333 Clouds 18 1007 55 10000 4.12 130 18:21 22.05.2022
1334 Clear 20 1007 52 10000 5.66 110 16:57 22.05.2022
1335 Clear 22 1007 69 10000 5.66 130 15:34 22.05.2022
1336 Clouds 22 1007 70 10000 6.17 130 14:47 22.05.2022
1337 Clouds 22 1007 70 10000 6.17 130 14:47 22.05.2022
1338 Clear 23 1008 72 10000 6.69 130 13:21 22.05.2022
1339 Clouds 23 1008 70 10000 6.17 140 12:45 22.05.2022
1340 Clouds 24 1008 73 10000 3.09 30 10:55 22.05.2022
1341 Clouds 23 1009 73 10000 2.57 0 09:38 22.05.2022
1342 Clear 21 1008 76 10000 3.6 340 07:52 22.05.2022
1343 Clear 20 1008 76 10000 3.09 0 07:20 22.05.2022
1344 Clouds 14 1007 82 10000 1.54 290 04:49 22.05.2022
1345 Clouds 16 1009 92 10000 1.54 350 01:20 22.05.2022
1346 Clouds 16 1010 82 10000 0 0 23:57 21.05.2022
1347 Clouds 15 1010 82 10000 0 0 23:32 21.05.2022
1348 Clear 16 1010 82 10000 0 0 22:22 21.05.2022
1349 Clear 17 1010 82 10000 1.54 40 21:39 21.05.2022
1350 Clear 17 1010 82 10000 0 0 20:48 21.05.2022
1351 Clouds 18 1010 72 10000 0 0 20:19 21.05.2022
1352 Clouds 20 1011 64 10000 3.09 130 19:24 21.05.2022
1353 Clear 25 1012 50 10000 3.6 100 17:35 21.05.2022
1354 Clear 27 1013 41 10000 4.12 140 15:37 21.05.2022
1355 Clear 27 1014 36 10000 2.57 160 14:36 21.05.2022
1356 Clear 27 1014 34 10000 3.6 240 13:36 21.05.2022
1357 Clear 27 1015 32 10000 4.12 250 12:40 21.05.2022
1358 Clear 26 1015 36 10000 3.09 240 11:52 21.05.2022
1359 Clear 23 1016 53 10000 1.54 220 10:22 21.05.2022
1360 Clear 22 1017 75 10000 2.06 250 09:20 21.05.2022
1361 Clear 20 1017 74 10000 2.57 250 08:47 21.05.2022
1362 Clouds 16 1018 99 10000 2.15 241 06:22 21.05.2022
1363 Clouds 12 1019 95 10000 0 0 02:23 21.05.2022
1364 Rain 13 1020 92 10000 0 0 23:42 20.05.2022
1365 Clear 14 1020 89 10000 0 0 22:41 20.05.2022
1366 Rain 14 1020 89 10000 0 0 22:18 20.05.2022
1367 Clear 16 1021 83 10000 2.06 150 21:19 20.05.2022
1368 Clear 16 1020 72 10000 2.06 10 20:51 20.05.2022
1369 Clouds 18 1020 59 10000 2.57 130 19:54 20.05.2022
1370 Clouds 20 1020 56 10000 4.12 100 18:58 20.05.2022
1371 Clouds 21 1021 52 10000 4.63 100 18:23 20.05.2022
1372 Clear 26 1022 25 10000 3.09 290 16:28 20.05.2022
1373 Clear 26 1022 29 10000 4.63 290 15:54 20.05.2022
1374 Clear 26 1022 29 10000 4.63 290 15:32 20.05.2022
1375 Clear 25 1023 33 10000 5.66 290 14:27 20.05.2022
1376 Clear 24 1024 43 10000 3.09 250 12:45 20.05.2022
1377 Clear 22 1025 46 10000 5.66 250 10:48 20.05.2022
1378 Clear 21 1025 69 10000 4.63 240 09:32 20.05.2022
1379 Clear 17 1025 67 10000 2.57 240 08:37 20.05.2022
1380 Mist 12 1025 92 3500 0 0 06:44 20.05.2022
1381 Clear 10 1025 100 6000 0 0 05:52 20.05.2022
1382 Clouds 10 1025 95 10000 1.54 260 02:52 20.05.2022
1383 Clouds 9 1026 92 10000 1.03 0 23:47 19.05.2022
1384 Clouds 10 1026 88 10000 2.06 50 22:37 19.05.2022
1385 Clouds 11 1026 92 10000 2.06 30 21:51 19.05.2022
1386 Clouds 11 1026 89 10000 1.54 40 21:24 19.05.2022
1387 Clouds 12 1026 89 10000 1.03 0 20:52 19.05.2022
1388 Clouds 13 1026 76 10000 1.03 140 19:54 19.05.2022
1389 Clouds 14 1025 83 10000 3.6 120 19:18 19.05.2022
1390 Clouds 16 1025 63 10000 7.72 100 17:46 19.05.2022
1391 Clouds 20 1025 40 10000 5.14 340 15:58 19.05.2022
1392 Clouds 20 1025 66 10000 4.63 340 14:49 19.05.2022
1393 Clouds 19 1025 65 10000 6.17 360 14:20 19.05.2022
1394 Clouds 18 1026 69 10000 6.69 10 11:55 19.05.2022
1395 Clouds 16 1026 73 10000 6.17 330 10:31 19.05.2022
1396 Clear 15 1026 73 10000 5.14 320 08:44 19.05.2022
1397 Clear 12 1026 82 10000 4.12 310 07:18 19.05.2022
1398 Clear 9 1025 88 10000 4.12 350 03:52 19.05.2022
1399 Clouds 8 1025 88 10000 2.57 360 00:58 19.05.2022
1400 Clouds 8 1024 85 10000 2.57 10 23:40 18.05.2022
1401 Clouds 8 1024 88 10000 2.06 350 22:43 18.05.2022
1402 Clouds 10 1024 77 10000 1.03 230 21:43 18.05.2022
1403 Clouds 11 1023 74 10000 2.57 30 21:23 18.05.2022
1404 Clouds 12 1022 72 10000 2.57 10 20:19 18.05.2022
1405 Clouds 14 1021 67 10000 3.6 10 18:53 18.05.2022
1406 Clear 15 1020 64 10000 5.66 20 17:42 18.05.2022
1407 Clear 15 1020 68 10000 3.6 350 17:24 18.05.2022
1408 Clear 14 1019 74 10000 1.54 310 16:53 18.05.2022
1409 Clear 14 1019 77 10000 2.57 340 15:45 18.05.2022
1410 Clear 13 1019 76 10000 2.57 250 15:20 18.05.2022
1411 Clouds 12 1019 82 10000 1.03 0 13:59 18.05.2022
1412 Rain 11 1018 92 10000 2.57 0 12:54 18.05.2022
1413 Rain 11 1016 89 10000 8.75 20 11:48 18.05.2022
1414 Rain 11 1016 89 10000 9.26 20 11:30 18.05.2022
1415 Rain 12 1016 92 10000 7.2 10 10:43 18.05.2022
1416 Clouds 16 1011 96 10000 4.63 360 07:59 18.05.2022
1417 Clouds 17 1011 92 10000 1.54 340 06:54 18.05.2022
1418 Clouds 18 1011 86 10000 7.2 320 03:34 18.05.2022
1419 Rain 16 1010 96 10000 0 0 00:42 18.05.2022
1420 Clouds 17 1011 92 10000 0.51 0 23:21 17.05.2022
1421 Clouds 19 1012 83 10000 2.06 50 21:21 17.05.2022
1422 Clouds 19 1012 83 10000 2.06 80 20:38 17.05.2022
1423 Clouds 19 1012 68 10000 4.63 100 19:30 17.05.2022
1424 Clouds 20 1012 64 10000 5.14 100 18:43 17.05.2022
1425 Clear 23 1012 56 10000 5.66 100 17:31 17.05.2022
1426 Clouds 24 1013 57 10000 5.66 100 16:53 17.05.2022
1427 Clouds 24 1013 60 10000 5.66 100 15:45 17.05.2022
1428 Clouds 25 1014 57 10000 5.66 120 14:48 17.05.2022
1429 Clouds 25 1014 57 10000 5.66 120 14:23 17.05.2022
1430 Clouds 27 1015 36 10000 2.06 230 12:36 17.05.2022
1431 Clear 24 1016 77 10000 1.54 0 10:23 17.05.2022
1432 Clouds 20 1016 85 8000 0.51 0 08:45 17.05.2022
1433 Mist 17 1016 92 4100 1.54 240 07:41 17.05.2022
1434 Clear 11 1016 100 10000 1.03 300 04:33 17.05.2022
1435 Clouds 14 1017 100 10000 1.54 20 00:47 17.05.2022
1436 Clouds 14 1018 100 10000 1.03 140 22:51 16.05.2022
1437 Clouds 15 1017 96 10000 2.06 20 22:30 16.05.2022
1438 Clouds 16 1017 92 10000 2.06 360 20:56 16.05.2022
1439 Clouds 17 1017 92 10000 2.06 10 20:24 16.05.2022
1440 Clouds 20 1017 68 10000 0.51 0 18:39 16.05.2022
1441 Rain 19 1017 85 10000 3.09 80 16:37 16.05.2022
1442 Thunderstorm 20 1017 86 6000 8.23 90 14:46 16.05.2022
1443 Rain 24 1018 75 10000 5.66 100 13:26 16.05.2022
1444 Clouds 25 1019 76 10000 2.06 0 11:42 16.05.2022
1445 Clouds 22 1019 68 10000 2.06 250 10:30 16.05.2022
1446 Mist 14 1019 100 1100 2.06 280 07:45 16.05.2022
1447 Fog 13 1019 100 100 1.54 320 05:40 16.05.2022
1448 Clouds 15 1019 100 10000 0 0 23:59 15.05.2022
1449 Clouds 16 1018 96 10000 1.54 20 22:39 15.05.2022
1450 Clouds 16 1018 96 10000 1.03 0 21:48 15.05.2022
1451 Clouds 16 1018 96 10000 0 0 21:21 15.05.2022
1452 Clouds 17 1018 88 10000 0 0 20:34 15.05.2022
1453 Rain 19 1017 89 10000 2.06 140 17:56 15.05.2022
1454 Clouds 20 1017 83 10000 4.12 130 16:36 15.05.2022
1455 Clouds 19 1017 77 10000 4.63 130 14:18 15.05.2022
1456 Clouds 21 1017 68 10000 4.12 120 13:27 15.05.2022
1457 Clouds 21 1017 73 10000 4.63 140 11:55 15.05.2022
1458 Clouds 21 1017 68 10000 5.14 130 10:35 15.05.2022
1459 Clouds 21 1017 73 10000 1.54 0 08:52 15.05.2022
1460 Clouds 17 1016 96 10000 1.03 0 06:59 15.05.2022
1461 Rain 17 1016 96 10000 1.03 0 06:38 15.05.2022
1462 Rain 17 1015 100 3800 2.57 320 01:43 15.05.2022
1463 Clouds 16 1014 100 10000 1.03 0 23:52 14.05.2022
1464 Clouds 16 1014 100 10000 1.03 0 23:33 14.05.2022
1465 Clouds 16 1014 100 10000 1.03 360 21:43 14.05.2022
1466 Clouds 17 1014 100 8000 1.54 290 21:18 14.05.2022
1467 Clouds 18 1014 100 10000 2.06 250 19:40 14.05.2022
1468 Clouds 18 1014 100 10000 2.06 250 19:40 14.05.2022
1469 Clouds 18 1014 100 10000 2.06 250 19:40 14.05.2022
1470 Clouds 18 1013 94 10000 1.54 350 19:20 14.05.2022
1471 Clouds 19 1013 100 10000 3.09 100 18:47 14.05.2022
1472 Thunderstorm 19 1013 88 8000 6.17 260 17:28 14.05.2022
1473 Rain 25 1012 50 10000 6.69 100 15:34 14.05.2022
1474 Clouds 28 1012 36 10000 1.54 130 14:34 14.05.2022
1475 Clear 27 1013 41 10000 2.57 0 12:49 14.05.2022
1476 Rain 25 1013 47 10000 2.57 360 11:37 14.05.2022
1477 Clouds 25 1013 50 10000 2.57 270 10:22 14.05.2022
1478 Clouds 24 1012 50 10000 1.54 240 09:54 14.05.2022
1479 Clouds 21 1013 52 9000 2.06 280 08:56 14.05.2022
1480 Clear 14 1012 85 10000 0 0 06:52 14.05.2022
1481 Clouds 13 1013 82 10000 0 0 03:27 14.05.2022
1482 Clouds 15 1015 74 10000 2.57 110 23:45 13.05.2022
1483 Clouds 16 1015 73 10000 2.06 80 23:18 13.05.2022
1484 Clouds 16 1015 71 10000 2.06 80 22:43 13.05.2022
1485 Clouds 15 1015 71 10000 3.6 110 22:18 13.05.2022
1486 Clouds 18 1015 45 10000 2.57 100 20:46 13.05.2022
1487 Clouds 20 1015 37 10000 2.57 130 20:27 13.05.2022
1488 Clouds 20 1015 40 10000 2.57 120 19:34 13.05.2022
1489 Clear 24 1015 33 10000 4.12 140 17:53 13.05.2022
1490 Clear 23 1015 43 10000 5.66 100 17:29 13.05.2022
1491 Clear 25 1015 38 10000 7.2 100 16:20 13.05.2022
1492 Clear 26 1015 36 10000 6.69 90 15:29 13.05.2022
1493 Clear 27 1016 39 10000 4.63 110 13:48 13.05.2022
1494 Clear 27 1017 34 10000 3.6 140 12:32 13.05.2022
1495 Clear 26 1018 36 10000 3.09 200 11:22 13.05.2022
1496 Clear 25 1018 66 10000 1.54 0 09:34 13.05.2022
1497 Clear 23 1018 68 10000 0 0 08:44 13.05.2022
1498 Clear 19 1018 74 10000 0.51 0 07:48 13.05.2022
1499 Clear 17 1018 80 10000 0 0 06:33 13.05.2022
1500 Clear 17 1018 80 10000 0 0 06:33 13.05.2022
1501 Clear 17 1018 80 10000 0 0 06:33 13.05.2022
1502 Clear 13 1018 92 10000 2.06 320 03:29 13.05.2022
1503 Clear 16 1018 83 10000 1.03 0 00:24 13.05.2022
1504 Clear 17 1018 77 10000 2.06 40 22:45 12.05.2022
1505 Clear 19 1019 71 10000 1.03 0 21:56 12.05.2022
1506 Clouds 21 1018 46 10000 2.06 110 20:29 12.05.2022
1507 Clouds 24 1018 43 10000 2.06 170 18:51 12.05.2022
1508 Clear 25 1017 41 10000 6.17 100 17:23 12.05.2022
1509 Clear 27 1018 29 10000 4.12 240 15:55 12.05.2022
1510 Clouds 28 1018 28 10000 3.6 220 14:40 12.05.2022
1511 Clouds 27 1019 32 10000 4.63 230 13:38 12.05.2022
1512 Clear 25 1020 44 10000 4.63 270 10:45 12.05.2022
1513 Clear 21 1020 60 10000 1.54 230 09:28 12.05.2022
1514 Clear 20 1020 76 10000 1.03 0 08:50 12.05.2022
1515 Clear 17 1020 83 10000 0.51 0 07:40 12.05.2022
1516 Clouds 11 1019 95 10000 0 0 05:46 12.05.2022
1517 Clouds 10 1019 88 10000 1.03 300 02:49 12.05.2022
1518 Clouds 11 1019 85 10000 1.54 10 00:35 12.05.2022
1519 Clouds 12 1019 85 10000 0 0 22:34 11.05.2022
1520 Clouds 14 1019 80 10000 1.03 0 21:38 11.05.2022
1521 Clouds 14 1019 77 10000 2.06 80 20:55 11.05.2022
1522 Clouds 18 1017 72 10000 5.14 100 18:27 11.05.2022
1523 Clouds 19 1017 48 10000 5.66 100 16:51 11.05.2022
1524 Clouds 19 1017 48 10000 5.66 100 16:51 11.05.2022
1525 Clouds 20 1018 62 10000 6.17 110 14:51 11.05.2022
1526 Clouds 21 1018 62 10000 6.69 110 14:26 11.05.2022
1527 Clouds 21 1018 43 10000 5.66 120 13:51 11.05.2022
1528 Clouds 21 1019 52 10000 1.54 150 11:51 11.05.2022
1529 Clear 20 1019 69 10000 1.54 0 10:27 11.05.2022
1530 Clouds 16 1019 77 9000 1.54 250 08:37 11.05.2022
1531 Rain 8 1018 95 10000 1.03 260 05:19 11.05.2022
1532 Clouds 9 1019 92 10000 1.54 340 00:42 11.05.2022
1533 Clear 10 1019 79 10000 1.54 40 22:30 10.05.2022
1534 Clouds 11 1019 77 10000 2.06 30 21:55 10.05.2022
1535 Clouds 12 1019 78 10000 0.51 50 20:54 10.05.2022
1536 Clouds 13 1019 76 10000 3.09 100 19:26 10.05.2022
1537 Clear 17 1019 63 10000 4.12 90 17:49 10.05.2022
1538 Clear 17 1019 39 10000 4.63 100 16:49 10.05.2022
1539 Clear 20 1020 26 10000 6.69 120 14:33 10.05.2022
1540 Clear 19 1021 37 10000 4.63 130 12:37 10.05.2022
1541 Clear 18 1022 39 10000 3.6 130 11:49 10.05.2022
1542 Clear 18 1022 39 10000 3.09 160 11:18 10.05.2022
1543 Clear 18 1022 39 10000 3.09 160 11:18 10.05.2022
1544 Clear 18 1022 65 10000 2.06 200 09:57 10.05.2022
1545 Clear 16 1022 72 10000 1.03 0 09:18 10.05.2022
1546 Mist 8 1021 95 3600 0 0 06:44 10.05.2022
1547 Clear 7 1021 100 10000 1.03 0 02:59 10.05.2022
1548 Clear 7 1022 100 10000 1.54 360 00:24 10.05.2022
1549 Clear 8 1022 95 10000 1.54 320 22:43 09.05.2022
1550 Clear 9 1022 92 10000 1.54 30 21:48 09.05.2022
1551 Clear 11 1022 88 10000 2.57 110 20:23 09.05.2022
1552 Clear 14 1021 62 10000 3.6 120 18:43 09.05.2022
1553 Clear 15 1021 73 10000 5.14 120 17:39 09.05.2022
1554 Clear 17 1022 73 10000 5.66 130 16:28 09.05.2022
1555 Clear 16 1022 51 10000 5.66 130 15:48 09.05.2022
1556 Clear 17 1023 55 10000 5.66 120 14:46 09.05.2022
1557 Clear 18 1023 65 10000 5.66 130 14:22 09.05.2022
1558 Clear 17 1023 51 10000 5.14 140 13:32 09.05.2022
1559 Clear 18 1023 70 10000 4.63 120 11:54 09.05.2022
1560 Clouds 16 1023 51 10000 3.6 100 10:50 09.05.2022
1561 Clouds 16 1023 77 10000 2.57 140 10:29 09.05.2022
1562 Fog 10 1023 100 250 1.54 260 08:23 09.05.2022
1563 Fog 9 1022 100 250 1.54 310 07:43 09.05.2022
1564 Clouds 7 1022 100 10000 0 0 02:44 09.05.2022
1565 Clouds 9 1022 100 10000 0 0 23:29 08.05.2022
1566 Clouds 9 1022 100 10000 0 0 22:47 08.05.2022
1567 Clouds 10 1022 100 10000 0 0 21:47 08.05.2022
1568 Clouds 10 1022 95 10000 2.06 120 20:31 08.05.2022
1569 Clouds 12 1022 95 10000 2.57 120 19:37 08.05.2022
1570 Clouds 13 1022 76 10000 4.63 120 18:49 08.05.2022
1571 Clear 14 1022 77 10000 6.17 120 17:52 08.05.2022
1572 Clear 15 1022 80 10000 5.66 120 16:30 08.05.2022
1573 Clear 16 1022 80 10000 6.17 120 15:25 08.05.2022
1574 Clear 16 1023 77 10000 5.66 120 14:23 08.05.2022
1575 Clear 15 1023 63 10000 4.63 120 11:53 08.05.2022
1576 Clear 15 1023 79 10000 4.12 120 10:27 08.05.2022
1577 Clear 14 1023 82 10000 3.6 120 09:54 08.05.2022
1578 Clouds 11 1023 92 10000 0 0 08:23 08.05.2022
1579 Clouds 5 1023 100 10000 1.54 250 06:21 08.05.2022
1580 Clouds 5 1023 100 10000 0 0 03:23 08.05.2022
1581 Clouds 7 1023 92 10000 2.06 30 01:19 08.05.2022
1582 Clouds 8 1023 88 10000 1.03 70 23:57 07.05.2022
1583 Clouds 8 1023 88 10000 1.03 70 23:34 07.05.2022
1584 Clouds 8 1023 92 10000 0 0 22:46 07.05.2022
1585 Clouds 9 1023 85 10000 2.57 60 21:56 07.05.2022
1586 Clouds 9 1023 88 10000 2.57 70 21:28 07.05.2022
1587 Clouds 10 1023 85 10000 1.54 70 20:25 07.05.2022
1588 Clouds 13 1022 67 10000 3.6 120 18:52 07.05.2022
1589 Clear 15 1022 69 10000 6.17 130 16:50 07.05.2022
1590 Clear 15 1023 55 10000 6.17 140 14:54 07.05.2022
1591 Clear 18 1024 56 10000 6.17 140 11:28 07.05.2022
1592 Clear 16 1023 44 10000 4.63 110 09:55 07.05.2022
1593 Clear 13 1023 82 10000 1.54 260 08:33 07.05.2022
1594 Clear 9 1023 85 10000 1.54 130 07:25 07.05.2022
1595 Rain 7 1023 88 10000 0 0 06:42 07.05.2022
1596 Rain 4 1023 92 10000 1.54 290 04:18 07.05.2022
1597 Clear 7 1024 82 10000 1.54 310 23:51 06.05.2022
1598 Clear 8 1024 79 10000 2.06 10 22:40 06.05.2022
1599 Clear 9 1023 57 10000 0 0 21:54 06.05.2022
1600 Clear 10 1023 77 10000 0 0 21:29 06.05.2022
1601 Clear 12 1023 76 10000 1.54 30 19:48 06.05.2022
1602 Rain 12 1022 82 10000 3.09 120 19:24 06.05.2022
1603 Clear 15 1023 77 10000 4.63 120 18:31 06.05.2022
1604 Rain 15 1023 63 10000 5.14 120 17:36 06.05.2022
1605 Clear 17 1023 55 10000 5.66 120 15:53 06.05.2022
1606 Clear 17 1023 55 10000 6.17 130 15:28 06.05.2022
1607 Clear 18 1024 45 10000 6.69 130 13:49 06.05.2022
1608 Clear 19 1024 34 10000 7.2 130 12:50 06.05.2022
1609 Clear 20 1024 32 10000 6.17 130 11:58 06.05.2022
1610 Clear 19 1024 27 10000 4.12 80 10:41 06.05.2022
1611 Rain 18 1024 29 10000 3.6 70 09:47 06.05.2022
1612 Clear 18 1024 34 10000 2.06 110 09:18 06.05.2022
1613 Clear 10 1024 66 10000 2.06 260 07:49 06.05.2022
1614 Clear 5 1023 75 10000 0 0 06:26 06.05.2022
1615 Clear 6 1023 88 10000 1.03 0 02:58 06.05.2022
1616 Clear 7 1023 85 10000 0 0 01:58 06.05.2022
1617 Clear 9 1023 74 10000 2.06 350 22:50 05.05.2022
1618 Clear 9 1023 76 10000 2.06 20 21:46 05.05.2022
1619 Clear 10 1023 74 10000 1.54 360 20:34 05.05.2022
1620 Clouds 14 1022 54 10000 3.6 130 18:54 05.05.2022
1621 Clear 17 1021 67 10000 5.66 130 16:40 05.05.2022
1622 Clouds 17 1021 55 10000 4.63 140 14:59 05.05.2022
1623 Clouds 18 1021 69 10000 3.6 110 13:29 05.05.2022
1624 Clouds 19 1021 56 10000 5.14 10 12:55 05.05.2022
1625 Clear 18 1020 36 10000 7.72 20 10:59 05.05.2022
1626 Clouds 17 1020 62 10000 2.57 0 09:40 05.05.2022
1627 Clouds 15 1020 74 10000 1.54 280 08:30 05.05.2022
1628 Clouds 10 1019 88 10000 1.54 0 05:44 05.05.2022
1629 Clouds 9 1018 85 10000 2.06 280 02:20 05.05.2022
1630 Clouds 9 1018 88 10000 1.03 270 01:35 05.05.2022
1631 Clouds 10 1018 82 10000 2.06 330 23:55 04.05.2022
1632 Clouds 10 1018 85 10000 2.06 340 22:54 04.05.2022
1633 Clouds 10 1018 82 10000 2.06 10 21:59 04.05.2022
1634 Clouds 10 1018 82 10000 2.57 360 21:29 04.05.2022
1635 Clouds 11 1018 79 10000 2.06 20 20:42 04.05.2022
1636 Clouds 13 1017 58 10000 1.54 100 19:56 04.05.2022
1637 Clouds 12 1017 66 10000 3.6 100 19:31 04.05.2022
1638 Clouds 15 1016 73 10000 4.63 100 18:22 04.05.2022
1639 Clear 16 1016 51 10000 4.12 110 17:59 04.05.2022
1640 Clouds 17 1016 48 10000 5.66 120 15:57 04.05.2022
1641 Clouds 17 1016 51 10000 4.63 130 15:30 04.05.2022
1642 Clouds 18 1016 66 10000 6.17 110 14:22 04.05.2022
1643 Clouds 16 1016 44 10000 6.17 110 13:50 04.05.2022
1644 Clouds 17 1017 51 10000 4.12 130 12:34 04.05.2022
1645 Clouds 16 1017 73 10000 2.06 150 10:57 04.05.2022
1646 Clouds 16 1016 69 10000 4.63 80 09:46 04.05.2022
1647 Clear 14 1016 80 10000 2.57 210 08:49 04.05.2022
1648 Clear 12 1016 85 10000 2.06 230 07:33 04.05.2022
1649 Clouds 10 1015 81 10000 3.6 350 02:59 04.05.2022
1650 Clouds 10 1015 76 10000 0 0 01:24 04.05.2022
1651 Clouds 11 1015 78 10000 0 0 22:54 03.05.2022
1652 Clouds 11 1015 79 10000 0 0 21:47 03.05.2022
1653 Clouds 10 1015 85 10000 2.06 110 21:20 03.05.2022
1654 Clouds 10 1015 100 10000 2.06 260 20:31 03.05.2022
1655 Rain 12 1015 92 10000 1.54 270 18:54 03.05.2022
1656 Rain 12 1015 92 10000 1.54 270 18:34 03.05.2022
1657 Rain 12 1015 89 10000 3.09 110 17:19 03.05.2022
1658 Clouds 13 1014 82 10000 4.12 130 15:43 03.05.2022
1659 Clouds 14 1014 77 10000 5.14 130 13:32 03.05.2022
1660 Rain 14 1015 74 10000 4.12 60 12:30 03.05.2022
1661 Rain 14 1015 77 10000 4.12 80 10:58 03.05.2022
1662 Rain 14 1015 80 10000 4.12 70 09:58 03.05.2022
1663 Rain 11 1015 92 10000 3.09 50 07:59 03.05.2022
1664 Rain 11 1014 89 10000 3.09 60 06:45 03.05.2022
1665 Clouds 11 1015 85 10000 2.57 70 01:53 03.05.2022
1666 Clouds 11 1016 85 10000 2.06 70 22:45 02.05.2022
1667 Clouds 11 1016 85 10000 2.57 70 22:25 02.05.2022
1668 Clouds 11 1016 85 10000 2.57 110 21:24 02.05.2022
1669 Clouds 14 1015 67 10000 3.6 130 18:57 02.05.2022
1670 Clouds 14 1015 62 10000 4.63 100 18:25 02.05.2022
1671 Clear 15 1015 77 10000 5.14 130 17:37 02.05.2022
1672 Clear 16 1016 77 10000 7.72 130 16:24 02.05.2022
1673 Clear 18 1016 69 10000 7.2 120 15:40 02.05.2022
1674 Clouds 18 1016 48 10000 6.17 120 14:19 02.05.2022
1675 Clouds 18 1016 59 10000 6.17 100 12:45 02.05.2022
1676 Clouds 17 1018 51 10000 6.69 110 11:20 02.05.2022
1677 Clear 14 1018 58 10000 1.54 190 09:32 02.05.2022
1678 Clear 10 1018 88 10000 2.06 260 07:57 02.05.2022
1679 Clear 5 1018 95 10000 1.54 280 05:37 02.05.2022
1680 Clouds 9 1019 76 10000 1.03 0 00:26 02.05.2022
1681 Clouds 7 1020 85 10000 2.06 20 23:52 01.05.2022
1682 Clouds 7 1020 88 10000 2.06 250 22:45 01.05.2022
1683 Clouds 8 1020 88 10000 0.51 0 21:41 01.05.2022
1684 Clouds 11 1020 76 10000 1.54 110 20:23 01.05.2022
1685 Clear 12 1019 54 10000 2.57 110 19:18 01.05.2022
1686 Clear 13 1019 79 10000 3.6 150 18:50 01.05.2022
1687 Clear 15 1019 72 10000 5.14 100 17:47 01.05.2022
1688 Clear 16 1019 80 10000 4.63 140 16:24 01.05.2022
1689 Clear 16 1019 80 10000 5.14 140 15:43 01.05.2022
1690 Clouds 14 1020 67 10000 1.54 100 14:22 01.05.2022
1691 Clouds 16 1020 80 10000 5.66 150 11:41 01.05.2022
1692 Clouds 17 1021 75 10000 4.12 50 09:33 01.05.2022
1693 Clear 16 1020 77 10000 3.6 40 08:49 01.05.2022
1694 Clear 9 1020 92 10000 0 0 05:31 01.05.2022
1695 Clouds 8 1020 93 10000 1.03 280 00:43 01.05.2022
1696 Rain 11 1021 92 10000 1.54 50 21:52 30.04.2022
1697 Clear 12 1020 92 10000 1.03 0 21:30 30.04.2022
1698 Clouds 13 1020 76 10000 2.57 80 19:47 30.04.2022
1699 Clouds 15 1019 67 10000 3.6 80 18:45 30.04.2022
1700 Rain 17 1019 73 10000 4.63 50 17:20 30.04.2022
1701 Clouds 17 1019 73 10000 3.6 50 15:50 30.04.2022
1702 Clouds 16 1019 77 10000 4.12 60 14:54 30.04.2022
1703 Clouds 17 1020 77 10000 5.14 30 13:30 30.04.2022
1704 Clouds 16 1020 77 10000 6.69 30 11:34 30.04.2022
1705 Clear 17 1020 77 10000 5.66 20 10:55 30.04.2022
1706 Clouds 15 1020 80 10000 6.17 20 09:50 30.04.2022
1707 Clouds 12 1020 85 10000 3.09 360 07:31 30.04.2022
1708 Clouds 12 1020 89 10000 2.57 350 03:34 30.04.2022
1709 Clouds 13 1021 89 10000 2.57 70 23:53 29.04.2022
1710 Clouds 14 1021 86 10000 2.57 60 22:35 29.04.2022
1711 Clouds 14 1021 86 10000 1.54 0 21:54 29.04.2022
1712 Clouds 14 1021 88 10000 1.03 0 20:51 29.04.2022
1713 Clouds 14 1020 92 10000 2.06 150 19:47 29.04.2022
1714 Clouds 15 1019 92 10000 1.54 120 18:47 29.04.2022
1715 Clouds 16 1019 89 10000 1.54 170 17:26 29.04.2022
1716 Rain 16 1020 86 10000 5.66 130 15:52 29.04.2022
1717 Clouds 20 1020 69 10000 4.63 360 14:23 29.04.2022
1718 Clouds 20 1020 71 10000 4.12 10 13:27 29.04.2022
1719 Clear 20 1020 73 10000 5.66 360 11:51 29.04.2022
1720 Clouds 18 1021 77 10000 6.69 350 09:23 29.04.2022
1721 Clouds 14 1020 89 10000 3.09 290 07:28 29.04.2022
1722 Clear 14 1020 86 10000 2.57 250 06:46 29.04.2022
1723 Clouds 14 1020 89 10000 1.54 0 05:44 29.04.2022
1724 Clouds 14 1020 92 10000 3.09 350 00:46 29.04.2022
1725 Clouds 14 1021 89 10000 1.54 300 23:34 28.04.2022
1726 Clouds 13 1020 88 10000 2.06 260 22:44 28.04.2022
1727 Clouds 13 1020 82 10000 1.54 330 21:47 28.04.2022
1728 Clouds 13 1020 85 10000 1.03 0 21:21 28.04.2022
1729 Clouds 13 1020 71 10000 1.03 0 20:35 28.04.2022
1730 Clouds 14 1019 67 10000 1.03 310 19:45 28.04.2022
1731 Clouds 14 1019 67 10000 1.03 310 19:45 28.04.2022
1732 Clouds 15 1019 80 10000 2.06 150 19:22 28.04.2022
1733 Clouds 17 1018 74 10000 3.09 150 18:36 28.04.2022
1734 Clear 19 1018 68 10000 5.14 120 17:24 28.04.2022
1735 Clear 19 1018 45 10000 5.14 110 16:40 28.04.2022
1736 Clear 20 1018 64 10000 5.14 130 16:18 28.04.2022
1737 Clear 20 1018 64 10000 5.14 130 15:28 28.04.2022
1738 Clear 20 1018 68 10000 5.66 120 14:19 28.04.2022
1739 Clouds 20 1018 49 10000 6.17 100 12:44 28.04.2022
1740 Clear 20 1018 52 10000 4.12 120 11:58 28.04.2022
1741 Clear 20 1018 49 10000 4.12 120 10:46 28.04.2022
1742 Clear 18 1018 52 10000 4.12 120 09:56 28.04.2022
1743 Clear 15 1018 77 10000 0 0 08:31 28.04.2022
1744 Clear 13 1017 92 10000 0 0 07:19 28.04.2022
1745 Clear 9 1017 100 10000 0 0 05:56 28.04.2022
1746 Clear 9 1017 100 10000 0 0 05:38 28.04.2022
1747 Clear 9 1017 95 10000 1.03 0 04:39 28.04.2022
1748 Clear 11 1017 92 10000 0 0 00:30 28.04.2022
1749 Clear 12 1017 89 10000 0 0 22:39 27.04.2022
1750 Clear 12 1017 82 10000 1.03 0 21:54 27.04.2022
1751 Clear 13 1017 85 10000 2.57 130 20:59 27.04.2022
1752 Clear 13 1017 76 10000 2.57 130 20:37 27.04.2022
1753 Clouds 14 1017 72 10000 2.57 110 19:37 27.04.2022
1754 Clouds 16 1016 63 10000 2.57 120 18:56 27.04.2022
1755 Clouds 17 1016 59 10000 3.6 140 18:22 27.04.2022
1756 Clear 19 1017 71 10000 4.63 110 16:29 27.04.2022
1757 Clouds 20 1017 68 10000 5.66 130 14:31 27.04.2022
1758 Clouds 20 1018 72 10000 5.66 130 12:23 27.04.2022
1759 Clouds 20 1017 73 10000 4.12 140 11:20 27.04.2022
1760 Clear 20 1016 67 10000 2.57 130 09:19 27.04.2022
1761 Clear 14 1016 89 10000 0 0 07:18 27.04.2022
1762 Clouds 12 1015 92 10000 2.06 110 04:21 27.04.2022
1763 Clouds 11 1015 95 10000 1.03 0 01:32 27.04.2022
1764 Rain 13 1015 89 10000 1.54 310 00:36 27.04.2022
1765 Clouds 12 1015 92 10000 1.54 270 23:25 26.04.2022
1766 Clouds 13 1015 89 10000 1.54 30 22:58 26.04.2022
1767 Clouds 13 1015 85 10000 1.03 20 22:39 26.04.2022
1768 Rain 13 1015 89 10000 1.54 20 21:26 26.04.2022
1769 Rain 13 1015 89 10000 1.54 20 21:26 26.04.2022
1770 Rain 13 1015 89 10000 1.54 20 21:26 26.04.2022
1771 Rain 13 1014 85 10000 1.54 310 20:41 26.04.2022
1772 Clouds 15 1014 80 10000 1.03 160 19:49 26.04.2022
1773 Clouds 15 1014 80 10000 1.54 130 19:30 26.04.2022
1774 Rain 16 1013 77 10000 3.09 110 18:44 26.04.2022
1775 Clear 18 1013 72 10000 4.63 120 17:54 26.04.2022
1776 Clear 20 1013 67 10000 5.66 130 16:28 26.04.2022
1777 Rain 20 1013 72 10000 4.12 130 13:59 26.04.2022
1778 Rain 21 1013 71 10000 4.12 140 13:31 26.04.2022
1779 Clouds 19 1013 77 10000 2.06 190 11:48 26.04.2022
1780 Clouds 19 1013 73 10000 2.57 200 10:31 26.04.2022
1781 Rain 13 1013 82 10000 3.6 260 08:47 26.04.2022
1782 Clear 14 1011 89 10000 0 0 06:57 26.04.2022
1783 Clouds 11 1010 92 10000 0.51 0 04:23 26.04.2022
1784 Clouds 11 1010 92 10000 0.51 0 04:23 26.04.2022
1785 Clouds 11 1010 95 10000 0.51 0 00:57 26.04.2022
1786 Clouds 12 1010 92 10000 0.51 0 00:20 26.04.2022
1787 Clouds 12 1010 95 10000 0 0 22:21 25.04.2022
1788 Clouds 13 1010 89 10000 0.51 0 21:33 25.04.2022
1789 Clear 13 1009 89 10000 1.03 140 20:34 25.04.2022
1790 Clear 15 1008 79 10000 4.12 100 18:54 25.04.2022
1791 Clear 17 1007 77 10000 5.66 120 17:41 25.04.2022
1792 Clear 18 1008 77 10000 4.63 100 16:51 25.04.2022
1793 Clear 19 1007 77 10000 5.66 110 15:23 25.04.2022
1794 Clear 19 1008 75 10000 7.2 120 14:34 25.04.2022
1795 Clear 19 1008 74 10000 7.2 110 13:29 25.04.2022
1796 Clear 19 1008 72 10000 6.17 110 10:58 25.04.2022
1797 Clear 18 1009 77 10000 5.66 110 09:55 25.04.2022
1798 Clear 16 1009 79 10000 3.6 120 08:23 25.04.2022
1799 Clouds 9 1009 100 10000 1.54 20 06:18 25.04.2022
1800 Rain 11 1011 81 10000 1.24 136 01:49 25.04.2022
1801 Clouds 12 1011 85 10000 3.09 80 23:57 24.04.2022
1802 Clouds 12 1011 85 10000 2.57 80 23:28 24.04.2022
1803 Clouds 12 1011 85 10000 2.06 110 22:39 24.04.2022
1804 Clouds 14 1011 83 10000 4.12 100 21:58 24.04.2022
1805 Clouds 13 1011 85 10000 4.12 100 21:22 24.04.2022
1806 Clouds 14 1011 85 10000 4.63 100 20:47 24.04.2022
1807 Clouds 14 1011 83 10000 4.63 100 20:21 24.04.2022
1808 Clouds 17 1010 59 10000 5.14 100 18:54 24.04.2022
1809 Clear 20 1010 49 10000 5.14 110 17:54 24.04.2022
1810 Clear 20 1010 49 10000 5.14 110 17:54 24.04.2022
1811 Clear 21 1010 43 10000 5.66 110 17:21 24.04.2022
1812 Clear 21 1010 46 10000 6.17 110 16:55 24.04.2022
1813 Clear 22 1010 43 10000 5.66 110 16:29 24.04.2022
1814 Clear 22 1010 43 10000 6.69 120 15:52 24.04.2022
1815 Clear 23 1011 61 10000 6.69 110 14:36 24.04.2022
1816 Clear 22 1011 46 10000 6.17 100 13:27 24.04.2022
1817 Clear 22 1011 46 10000 6.17 100 13:27 24.04.2022
1818 Clear 22 1011 46 10000 5.66 110 12:56 24.04.2022
1819 Clear 22 1011 43 10000 2.57 240 11:50 24.04.2022
1820 Clear 21 1012 52 10000 1.54 0 10:48 24.04.2022
1821 Clear 20 1012 52 10000 1.03 0 09:47 24.04.2022
1822 Clouds 14 1012 77 10000 0 0 07:55 24.04.2022
1823 Clear 11 1011 95 10000 0 0 05:45 24.04.2022
1824 Clear 12 1010 85 10000 2.06 110 02:30 24.04.2022
1825 Clear 13 1010 71 10000 1.54 270 00:45 24.04.2022
1826 Clear 14 1010 67 10000 2.06 330 23:52 23.04.2022
1827 Clear 14 1009 67 10000 1.03 0 23:25 23.04.2022
1828 Rain 16 1009 63 10000 1.54 350 21:59 23.04.2022
1829 Clear 16 1009 63 10000 1.54 350 21:38 23.04.2022
1830 Clear 16 1008 77 10000 2.57 330 20:59 23.04.2022
1831 Clouds 18 1008 55 10000 3.09 340 19:56 23.04.2022
1832 Clouds 19 1007 52 10000 4.63 290 19:20 23.04.2022
1833 Clouds 21 1007 43 10000 5.14 300 18:53 23.04.2022
1834 Clouds 21 1007 43 10000 5.14 300 18:31 23.04.2022
1835 Clouds 22 1006 66 10000 7.2 270 17:44 23.04.2022
1836 Clouds 23 1006 43 10000 6.17 270 16:45 23.04.2022
1837 Clouds 23 1006 43 10000 6.17 300 15:36 23.04.2022
1838 Clouds 23 1006 43 10000 5.14 280 12:59 23.04.2022
1839 Clear 21 1006 52 10000 3.6 230 11:24 23.04.2022
1840 Clear 17 1006 59 10000 1.03 0 09:39 23.04.2022
1841 Clear 12 1006 89 10000 1.03 0 07:52 23.04.2022
1842 Clouds 12 1007 82 10000 5.14 100 03:56 23.04.2022
1843 Clouds 11 1009 85 10000 2.06 90 01:59 23.04.2022
1844 Clouds 11 1010 85 10000 3.09 100 23:34 22.04.2022
1845 Rain 12 1011 85 10000 5.14 120 22:32 22.04.2022
1846 Rain 11 1011 89 10000 4.12 110 21:44 22.04.2022
1847 Rain 11 1012 89 10000 4.12 100 21:20 22.04.2022
1848 Clouds 11 1012 92 10000 3.6 90 20:28 22.04.2022
1849 Clouds 11 1012 92 9000 2.57 100 19:23 22.04.2022
1850 Rain 11 1012 89 10000 4.12 110 18:52 22.04.2022
1851 Clouds 12 1012 85 10000 4.63 110 17:54 22.04.2022
1852 Clouds 13 1012 85 10000 6.17 110 16:52 22.04.2022
1853 Clouds 14 1013 83 10000 6.69 120 15:56 22.04.2022
1854 Clouds 15 1013 80 10000 5.14 110 15:22 22.04.2022
1855 Clouds 14 1014 92 7000 3.09 120 13:54 22.04.2022
1856 Clouds 14 1014 96 6000 2.57 140 13:27 22.04.2022
1857 Clouds 13 1014 96 8000 2.06 80 12:29 22.04.2022
1858 Mist 11 1016 100 3800 1.03 0 11:22 22.04.2022
1859 Rain 11 1016 100 3600 1.54 360 10:52 22.04.2022
1860 Rain 11 1016 100 3600 1.54 360 10:31 22.04.2022
1861 Rain 11 1015 100 5000 1.54 170 09:53 22.04.2022
1862 Mist 10 1015 100 4700 1.03 0 08:56 22.04.2022
1863 Mist 10 1015 100 4800 0.51 0 08:24 22.04.2022
1864 Clouds 7 1015 100 8000 0 0 05:20 22.04.2022
1865 Clouds 7 1015 95 8000 0.51 80 00:53 22.04.2022
1866 Clouds 7 1015 100 10000 3.09 110 23:28 21.04.2022
1867 Clouds 7 1015 95 10000 3.09 90 22:29 21.04.2022
1868 Clouds 8 1016 88 10000 3.6 90 20:46 21.04.2022
1869 Clouds 9 1016 82 10000 3.09 120 20:26 21.04.2022
1870 Clouds 11 1015 85 10000 5.14 100 18:47 21.04.2022
1871 Clouds 12 1015 82 10000 4.63 120 18:19 21.04.2022
1872 Clear 14 1015 74 10000 6.69 120 16:47 21.04.2022
1873 Clouds 15 1015 73 10000 6.17 120 15:22 21.04.2022
1874 Clouds 15 1015 70 10000 6.69 150 14:50 21.04.2022
1875 Clear 15 1015 44 10000 3.09 170 13:24 21.04.2022
1876 Clear 15 1015 51 10000 3.09 220 12:59 21.04.2022
1877 Clear 13 1015 58 10000 3.6 250 11:19 21.04.2022
1878 Clouds 10 1015 85 10000 5.14 270 08:57 21.04.2022
1879 Clouds 8 1015 92 10000 6.69 290 07:49 21.04.2022
1880 Clouds 5 1015 95 10000 6.17 270 05:44 21.04.2022
1881 Clouds 5 1015 100 10000 4.63 260 03:33 21.04.2022
1882 Clouds 6 1014 95 10000 4.12 260 02:48 21.04.2022
1883 Clouds 6 1014 95 10000 4.12 260 02:48 21.04.2022
1884 Clouds 6 1013 95 10000 4.63 270 01:41 21.04.2022
1885 Rain 7 1013 95 7000 4.12 320 23:51 20.04.2022
1886 Rain 7 1012 95 8000 4.63 330 23:23 20.04.2022
1887 Rain 8 1012 100 6000 2.57 360 22:51 20.04.2022
1888 Rain 8 1012 100 6000 2.57 360 22:32 20.04.2022
1889 Rain 8 1012 100 4300 2.06 300 21:33 20.04.2022
1890 Rain 8 1012 100 5000 2.57 110 20:41 20.04.2022
1891 Rain 8 1012 100 6000 4.12 100 19:53 20.04.2022
1892 Rain 8 1012 100 5000 4.63 100 19:22 20.04.2022
1893 Rain 8 1012 100 4000 3.6 110 18:23 20.04.2022
1894 Clouds 10 1013 85 10000 4.63 160 16:56 20.04.2022
1895 Rain 11 1012 82 10000 5.14 100 16:37 20.04.2022
1896 Clouds 12 1013 82 10000 6.17 100 14:26 20.04.2022
1897 Clouds 11 1014 66 10000 4.12 110 11:55 20.04.2022
1898 Clouds 11 1014 66 10000 1.03 0 11:25 20.04.2022
1899 Clouds 8 1015 87 7000 1.54 0 10:24 20.04.2022
1900 Mist 4 1015 100 2400 1.03 0 09:25 20.04.2022
1901 Fog 2 1016 100 200 1.54 310 08:22 20.04.2022
1902 Fog 2 1016 100 200 1.54 310 08:22 20.04.2022
1903 Fog 3 1015 100 200 0 0 07:37 20.04.2022
1904 Mist 2 1014 100 2300 2.06 300 03:54 20.04.2022
1905 Mist 3 1015 100 4500 2.06 290 00:24 20.04.2022
1906 Mist 2 1015 100 3700 1.54 340 23:59 19.04.2022
1907 Clouds 2 1015 100 6000 2.06 340 22:28 19.04.2022
1908 Mist 3 1015 100 5000 1.54 360 21:57 19.04.2022
1909 Clouds 4 1015 95 7000 1.54 360 21:33 19.04.2022
1910 Clouds 4 1015 95 9000 1.54 360 20:48 19.04.2022
1911 Clouds 4 1015 100 10000 1.54 330 20:26 19.04.2022
1912 Clouds 5 1014 95 10000 3.09 280 19:19 19.04.2022
1913 Clouds 5 1014 95 10000 3.09 280 19:19 19.04.2022
1914 Clouds 6 1014 92 10000 4.12 260 17:51 19.04.2022
1915 Rain 7 1013 92 10000 2.57 240 16:43 19.04.2022
1916 Rain 7 1013 92 10000 2.57 210 16:24 19.04.2022
1917 Clouds 7 1013 82 10000 1.03 0 14:51 19.04.2022
1918 Clouds 8 1013 76 10000 1.54 0 14:27 19.04.2022
1919 Clouds 9 1013 69 10000 3.6 110 12:51 19.04.2022
1920 Clouds 9 1013 67 10000 1.54 350 12:26 19.04.2022
1921 Clouds 8 1013 79 10000 4.63 350 10:50 19.04.2022
1922 Clouds 7 1013 82 10000 1.54 250 09:23 19.04.2022
1923 Clouds 5 1012 82 10000 2.57 300 06:30 19.04.2022
1924 Clouds 4 1011 88 10000 0 0 03:59 19.04.2022
1925 Clouds 3 1012 92 10000 1.03 0 00:56 19.04.2022
1926 Clouds 4 1013 85 10000 1.54 290 23:36 18.04.2022
1927 Clouds 4 1013 95 10000 2.06 350 21:37 18.04.2022
1928 Clouds 4 1013 95 10000 2.06 350 21:18 18.04.2022
1929 Clouds 5 1013 88 10000 1.54 340 20:35 18.04.2022
1930 Clouds 6 1013 79 10000 1.03 0 19:54 18.04.2022
1931 Clouds 6 1013 82 10000 3.09 20 18:57 18.04.2022
1932 Clouds 7 1012 85 10000 1.54 30 17:58 18.04.2022
1933 Clouds 7 1012 85 10000 1.54 30 17:34 18.04.2022
1934 Clouds 7 1012 82 10000 3.09 10 16:59 18.04.2022
1935 Clouds 7 1012 85 10000 3.6 360 16:32 18.04.2022
1936 Clouds 6 1012 92 10000 3.6 330 14:59 18.04.2022
1937 Rain 6 1012 88 10000 3.09 320 13:39 18.04.2022
1938 Clouds 6 1012 88 10000 1.54 0 12:32 18.04.2022
1939 Clouds 5 1011 92 10000 6.17 360 11:35 18.04.2022
1940 Clouds 5 1011 92 10000 6.17 350 10:32 18.04.2022
1941 Clouds 5 1011 92 10000 3.09 330 09:31 18.04.2022
1942 Clouds 5 1010 92 10000 3.6 0 07:54 18.04.2022
1943 Clouds 4 1009 92 10000 7.72 10 05:45 18.04.2022
1944 Rain 5 1011 92 10000 6.17 10 00:49 18.04.2022
1945 Clouds 4 1013 95 10000 2.06 0 22:42 17.04.2022
1946 Clouds 4 1014 92 10000 2.57 0 21:49 17.04.2022
1947 Clouds 4 1014 92 10000 2.57 330 21:26 17.04.2022
1948 Clouds 4 1014 92 9000 3.6 10 20:41 17.04.2022
1949 Rain 4 1013 92 9000 4.63 20 19:38 17.04.2022
1950 Clouds 5 1013 92 10000 8.23 10 17:48 17.04.2022
1951 Clouds 6 1015 92 10000 6.69 20 15:40 17.04.2022
1952 Clouds 6 1015 92 10000 5.66 30 14:55 17.04.2022
1953 Clouds 6 1015 92 10000 7.72 30 14:19 17.04.2022
1954 Rain 7 1015 88 10000 8.75 20 12:59 17.04.2022
1955 Rain 7 1015 92 10000 7.2 10 12:27 17.04.2022
1956 Clouds 7 1017 87 9000 2.06 0 10:46 17.04.2022
1957 Rain 7 1017 87 8000 2.57 0 10:28 17.04.2022
1958 Rain 7 1016 92 8000 5.66 20 09:34 17.04.2022
1959 Rain 8 1015 92 9000 8.75 10 08:51 17.04.2022
1960 Rain 9 1015 92 10000 8.23 20 07:30 17.04.2022
1961 Clouds 12 1013 89 10000 8.75 10 04:29 17.04.2022
1962 Clouds 14 1013 80 10000 5.14 360 00:55 17.04.2022
1963 Clouds 12 1013 88 10000 2.57 100 23:52 16.04.2022
1964 Clouds 13 1013 88 10000 1.54 270 22:35 16.04.2022
1965 Clouds 14 1013 84 10000 0 0 21:38 16.04.2022
1966 Clouds 13 1013 84 10000 0 0 20:32 16.04.2022
1967 Clouds 14 1012 67 10000 2.57 130 18:59 16.04.2022
1968 Clear 20 1012 62 10000 3.09 110 17:46 16.04.2022
1969 Clear 20 1012 56 10000 5.14 110 16:39 16.04.2022
1970 Clear 20 1012 45 10000 5.66 110 15:45 16.04.2022
1971 Clear 20 1012 49 10000 4.63 120 14:56 16.04.2022
1972 Clear 20 1012 49 10000 4.63 130 13:58 16.04.2022
1973 Clear 20 1013 49 10000 3.6 130 13:32 16.04.2022
1974 Clear 19 1013 52 10000 3.09 130 12:22 16.04.2022
1975 Clear 19 1013 48 10000 1.03 0 10:49 16.04.2022
1976 Clear 16 1014 59 10000 1.54 0 09:56 16.04.2022
1977 Clear 14 1014 62 10000 0 0 08:57 16.04.2022
1978 Clear 12 1014 85 10000 1.54 260 07:52 16.04.2022
1979 Clear 10 1014 88 10000 0 0 06:58 16.04.2022
1980 Clouds 8 1014 85 10000 1.03 350 02:46 16.04.2022
1981 Clear 10 1016 79 10000 3.09 100 00:30 16.04.2022
1982 Clouds 12 1017 74 10000 4.12 80 22:58 15.04.2022
1983 Clouds 11 1017 76 10000 3.6 90 22:32 15.04.2022
1984 Clouds 12 1017 75 10000 3.6 90 21:50 15.04.2022
1985 Clouds 12 1017 72 10000 4.12 90 21:18 15.04.2022
1986 Clear 13 1017 72 10000 4.63 90 20:21 15.04.2022
1987 Clear 13 1017 54 10000 6.17 100 19:39 15.04.2022
1988 Clear 14 1016 54 10000 6.69 90 18:53 15.04.2022
1989 Clear 15 1016 51 10000 6.69 90 18:25 15.04.2022
1990 Clear 17 1017 45 10000 7.2 110 17:34 15.04.2022
1991 Clear 18 1017 39 10000 8.23 100 16:37 15.04.2022
1992 Clear 18 1017 39 10000 8.23 100 16:18 15.04.2022
1993 Clear 19 1018 42 10000 7.72 110 14:44 15.04.2022
1994 Clear 20 1018 37 10000 7.2 120 13:34 15.04.2022
1995 Clear 19 1019 37 10000 6.69 110 12:40 15.04.2022
1996 Clear 20 1019 37 10000 5.14 120 11:55 15.04.2022
1997 Clear 19 1020 39 10000 1.54 0 10:58 15.04.2022
1998 Clear 19 1020 39 10000 1.03 0 10:40 15.04.2022
1999 Clear 18 1021 39 10000 1.54 0 09:44 15.04.2022
2000 Clear 16 1020 48 10000 1.03 0 09:19 15.04.2022
2001 Clear 8 1020 76 10000 0 0 07:28 15.04.2022
2002 Clear 8 1020 88 10000 1.03 300 06:28 15.04.2022
2003 Clear 9 1021 82 10000 0 0 02:39 15.04.2022
2004 Clear 10 1022 76 10000 2.57 30 23:31 14.04.2022
2005 Clear 11 1022 77 10000 1.54 10 22:49 14.04.2022
2006 Clear 12 1021 74 10000 1.54 10 22:29 14.04.2022
2007 Clear 11 1021 76 10000 1.54 30 21:59 14.04.2022
2008 Clear 14 1021 64 10000 1.54 100 20:37 14.04.2022
2009 Clouds 14 1020 61 10000 3.6 100 19:23 14.04.2022
2010 Clouds 17 1020 39 10000 3.09 120 18:19 14.04.2022
2011 Clear 19 1020 32 10000 2.57 350 17:38 14.04.2022
2012 Clear 19 1020 32 10000 2.57 280 16:36 14.04.2022
2013 Clear 19 1020 30 10000 5.14 310 14:58 14.04.2022
2014 Clear 19 1021 32 10000 5.66 310 13:45 14.04.2022
2015 Clear 18 1021 32 10000 5.66 300 12:52 14.04.2022
2016 Clear 17 1021 34 10000 5.66 300 12:31 14.04.2022
2017 Clear 16 1021 33 10000 6.69 320 11:29 14.04.2022
2018 Clear 16 1021 33 10000 6.69 330 10:52 14.04.2022
2019 Clear 15 1021 38 10000 2.57 220 10:26 14.04.2022
2020 Clear 10 1021 75 10000 0 0 08:54 14.04.2022
2021 Clear 6 1021 85 10000 1.54 270 06:53 14.04.2022
2022 Clouds 6 1020 82 10000 1.54 250 03:28 14.04.2022
2023 Clouds 6 1020 79 10000 1.54 360 23:25 13.04.2022
2024 Clouds 7 1020 76 10000 0 0 22:19 13.04.2022
2025 Clouds 9 1020 72 10000 1.03 0 21:34 13.04.2022
2026 Clouds 10 1020 68 10000 1.54 160 20:22 13.04.2022
2027 Clouds 11 1019 60 10000 2.57 350 19:32 13.04.2022
2028 Clouds 14 1019 33 10000 4.63 320 18:20 13.04.2022
2029 Clear 15 1018 47 10000 5.66 310 17:24 13.04.2022
2030 Clear 15 1018 47 10000 5.66 330 16:34 13.04.2022
2031 Clear 15 1019 48 10000 6.17 300 15:38 13.04.2022
2032 Clouds 14 1019 51 10000 6.17 320 14:50 13.04.2022
2033 Clouds 14 1019 52 10000 8.23 310 14:26 13.04.2022
2034 Clouds 14 1020 50 10000 5.66 320 13:28 13.04.2022
2035 Clouds 13 1020 33 10000 6.17 320 12:25 13.04.2022
2036 Clouds 13 1020 33 10000 6.17 320 12:25 13.04.2022
2037 Clear 13 1021 38 10000 4.63 320 10:49 13.04.2022
2038 Clear 11 1021 40 10000 5.66 360 09:41 13.04.2022
2039 Clear 10 1021 67 10000 3.6 10 08:42 13.04.2022
2040 Clear 5 1020 88 10000 1.54 0 06:51 13.04.2022
2041 Clouds 4 1020 88 10000 0.51 0 06:25 13.04.2022
2042 Clouds 2 1020 100 10000 1.54 310 05:36 13.04.2022
2043 Clouds 5 1020 88 10000 1.54 340 00:22 13.04.2022
2044 Clouds 4 1020 92 10000 2.06 20 23:45 12.04.2022
2045 Clouds 5 1020 88 10000 2.57 30 22:19 12.04.2022
2046 Clear 6 1020 82 10000 1.54 50 21:18 12.04.2022
2047 Clear 6 1021 82 10000 1.54 30 20:41 12.04.2022
2048 Clouds 6 1020 88 10000 3.09 100 19:49 12.04.2022
2049 Clouds 7 1020 82 10000 5.14 110 19:30 12.04.2022
2050 Clouds 11 1019 64 10000 3.09 280 18:26 12.04.2022
2051 Clouds 11 1019 66 10000 6.17 310 17:28 12.04.2022
2052 Clouds 12 1019 62 10000 6.17 310 16:22 12.04.2022
2053 Clouds 12 1019 74 10000 5.14 220 15:33 12.04.2022
2054 Clouds 9 1020 69 10000 6.69 340 14:26 12.04.2022
2055 Clouds 10 1020 74 10000 2.57 0 13:36 12.04.2022
2056 Clouds 10 1020 74 10000 6.17 270 12:52 12.04.2022
2057 Clouds 12 1020 66 10000 5.66 300 11:46 12.04.2022
2058 Clouds 11 1020 46 10000 3.09 270 10:35 12.04.2022
2059 Clear 9 1020 57 10000 2.57 0 09:18 12.04.2022
2060 Clear 7 1020 76 10000 1.54 260 07:55 12.04.2022
2061 Clear 4 1019 92 10000 2.06 240 05:50 12.04.2022
2062 Clear 4 1019 95 10000 2.06 290 04:55 12.04.2022
2063 Clouds 5 1018 88 10000 3.6 290 23:59 11.04.2022
2064 Clouds 7 1018 82 10000 3.09 290 22:44 11.04.2022
2065 Clouds 7 1017 82 10000 2.06 290 21:37 11.04.2022
2066 Clouds 9 1017 76 10000 3.09 290 20:56 11.04.2022
2067 Clouds 8 1017 79 10000 2.57 320 20:29 11.04.2022
2068 Clouds 9 1016 74 10000 3.09 280 19:54 11.04.2022
2069 Clouds 10 1015 72 10000 3.09 330 19:18 11.04.2022
2070 Clouds 10 1015 70 10000 3.6 310 18:47 11.04.2022
2071 Clouds 11 1014 67 10000 5.14 330 17:56 11.04.2022
2072 Clouds 12 1014 70 10000 6.69 320 16:54 11.04.2022
2073 Clouds 11 1013 66 10000 9.77 340 15:54 11.04.2022
2074 Clouds 10 1013 70 10000 10.8 340 13:59 11.04.2022
2075 Clouds 10 1012 72 10000 11.32 340 12:52 11.04.2022
2076 Clouds 10 1012 72 10000 11.32 340 12:31 11.04.2022
2077 Clouds 9 1013 79 10000 9.77 320 11:31 11.04.2022
2078 Rain 7 1012 88 10000 7.2 310 10:24 11.04.2022
2079 Clouds 6 1009 92 9000 10.29 340 08:56 11.04.2022
2080 Clouds 5 1007 92 10000 11.32 360 06:21 11.04.2022
2081 Clouds 5 1008 92 10000 4.63 330 01:23 11.04.2022
2082 Clouds 6 1007 88 10000 3.6 340 22:34 10.04.2022
2083 Clouds 7 1007 88 10000 3.6 280 21:55 10.04.2022
2084 Clouds 7 1007 88 10000 5.66 300 21:26 10.04.2022
2085 Clouds 7 1006 88 10000 7.2 280 20:30 10.04.2022
2086 Clouds 8 1006 88 10000 4.63 310 19:41 10.04.2022
2087 Clouds 9 1006 88 10000 5.66 310 19:18 10.04.2022
2088 Clouds 10 1005 88 10000 5.66 330 18:38 10.04.2022
2089 Clouds 12 1004 79 10000 4.63 320 17:51 10.04.2022
2090 Clouds 12 1004 79 10000 5.14 330 17:31 10.04.2022
2091 Clouds 15 1004 77 10000 6.69 330 15:53 10.04.2022
2092 Clouds 16 1004 75 10000 7.2 320 14:49 10.04.2022
2093 Clouds 17 1003 75 10000 5.66 300 13:49 10.04.2022
2094 Clouds 20 1003 69 10000 5.14 290 12:33 10.04.2022
2095 Clear 21 1003 46 10000 3.6 280 11:45 10.04.2022
2096 Clouds 20 1003 49 10000 4.63 290 11:24 10.04.2022
2097 Clear 20 1003 49 10000 4.12 280 10:38 10.04.2022
2098 Clouds 19 1002 52 10000 2.06 160 09:46 10.04.2022
2099 Clouds 17 1003 63 10000 2.06 220 08:40 10.04.2022
2100 Clouds 15 1003 72 10000 1.54 300 08:18 10.04.2022
2101 Clear 13 1003 89 10000 1.54 30 06:59 10.04.2022
2102 Clouds 12 1002 89 10000 1.54 360 04:36 10.04.2022
2103 Clear 12 1002 76 10000 2.06 320 02:19 10.04.2022
2104 Clouds 13 1003 85 10000 1.03 0 23:54 09.04.2022
2105 Clouds 13 1003 82 10000 2.06 10 22:56 09.04.2022
2106 Clouds 13 1003 82 10000 2.06 10 22:38 09.04.2022
2107 Clouds 13 1003 85 10000 1.03 0 21:23 09.04.2022
2108 Clouds 16 1003 74 10000 2.06 90 20:30 09.04.2022
2109 Clouds 16 1002 74 10000 1.03 0 19:57 09.04.2022
2110 Clouds 16 1002 74 10000 1.03 0 19:39 09.04.2022
2111 Clouds 19 1001 62 10000 5.14 90 18:23 09.04.2022
2112 Clear 18 1001 52 10000 6.69 100 17:49 09.04.2022
2113 Clear 21 1001 43 10000 5.66 110 16:57 09.04.2022
2114 Clear 22 1001 40 10000 5.66 110 16:38 09.04.2022
2115 Clear 22 1001 40 10000 5.66 110 16:38 09.04.2022
2116 Clear 22 1001 40 10000 5.66 110 16:38 09.04.2022
2117 Clear 22 1001 40 10000 5.66 110 16:38 09.04.2022
2118 Clear 22 1001 40 10000 5.66 110 16:38 09.04.2022
2119 Clear 24 1001 35 10000 5.14 120 15:50 09.04.2022
2120 Clear 24 1002 35 10000 4.12 150 15:25 09.04.2022
2121 Clear 25 1002 29 10000 3.6 200 14:25 09.04.2022
2122 Clear 24 1003 31 10000 4.12 250 13:26 09.04.2022
2123 Clear 24 1003 31 10000 3.09 230 12:54 09.04.2022
2124 Clear 23 1004 33 10000 6.69 270 11:45 09.04.2022
2125 Clear 22 1004 37 10000 4.12 250 10:51 09.04.2022
2126 Clear 20 1004 42 10000 4.63 240 10:18 09.04.2022
2127 Clear 17 1005 48 10000 1.54 0 09:22 09.04.2022
2128 Clear 16 1005 51 10000 0 0 08:18 09.04.2022
2129 Clouds 9 1005 85 10000 1.03 0 04:37 09.04.2022
2130 Clouds 13 1007 77 10000 1.54 10 00:34 09.04.2022
2131 Clouds 13 1008 77 10000 2.57 10 23:22 08.04.2022
2132 Clouds 15 1007 73 10000 2.57 80 21:44 08.04.2022
2133 Clouds 17 1007 65 10000 1.03 0 20:43 08.04.2022
2134 Clouds 19 1006 39 10000 2.57 320 19:47 08.04.2022
2135 Clouds 20 1006 37 10000 5.14 290 18:46 08.04.2022
2136 Clouds 21 1006 49 10000 7.2 280 18:20 08.04.2022
2137 Clear 22 1005 45 10000 9.77 280 17:28 08.04.2022
2138 Clear 23 1005 31 10000 8.75 280 16:55 08.04.2022
2139 Clear 23 1005 31 10000 9.77 270 16:27 08.04.2022
2140 Clear 24 1004 29 10000 7.2 300 15:33 08.04.2022
2141 Clear 23 1004 28 10000 8.75 290 14:45 08.04.2022
2142 Clear 23 1004 33 10000 9.26 310 13:59 08.04.2022
2143 Clear 23 1005 33 10000 9.26 310 13:31 08.04.2022
2144 Clear 21 1003 40 10000 10.29 280 12:49 08.04.2022
2145 Clear 19 1003 45 10000 12.35 270 11:26 08.04.2022
2146 Clear 16 1002 59 10000 8.75 280 09:57 08.04.2022
2147 Clear 15 1001 80 10000 6.69 280 08:59 08.04.2022
2148 Clear 12 1001 85 10000 4.63 280 07:43 08.04.2022
2149 Clouds 11 1000 89 10000 6.17 270 06:45 08.04.2022
2150 Clouds 10 998 92 10000 6.17 290 02:53 08.04.2022
2151 Clouds 8 999 100 6000 3.09 290 00:30 08.04.2022
2152 Mist 7 999 100 4500 0 0 23:43 07.04.2022
2153 Mist 8 999 100 5000 1.03 0 22:44 07.04.2022
2154 Mist 7 998 100 5000 1.54 280 22:23 07.04.2022
2155 Clouds 7 999 100 6000 0 0 21:59 07.04.2022
2156 Clouds 7 999 100 7000 1.03 0 21:30 07.04.2022
2157 Clouds 8 999 100 8000 0 0 20:46 07.04.2022
2158 Clouds 8 999 100 9000 0 0 20:20 07.04.2022
2159 Clouds 9 999 100 9000 1.54 160 17:43 07.04.2022
2160 Clouds 8 999 100 9000 3.6 130 17:22 07.04.2022
2161 Clouds 9 1000 92 10000 3.09 140 16:34 07.04.2022
2162 Clouds 9 1000 92 10000 3.09 110 15:47 07.04.2022
2163 Rain 7 1001 100 8000 6.69 100 13:54 07.04.2022
2164 Rain 8 1002 93 10000 5.66 120 13:24 07.04.2022
2165 Rain 9 1004 88 10000 7.72 110 11:53 07.04.2022
2166 Clouds 9 1005 92 10000 7.72 120 10:54 07.04.2022
2167 Clouds 9 1006 92 10000 7.2 120 09:19 07.04.2022
2168 Clouds 6 1007 100 6000 5.66 110 06:59 07.04.2022
2169 Clouds 5 1009 100 7000 0 0 05:28 07.04.2022
2170 Clear 6 1011 88 10000 4.12 100 02:37 07.04.2022
2171 Clear 7 1012 82 10000 4.63 100 00:43 07.04.2022
2172 Clear 7 1013 85 10000 4.63 110 23:36 06.04.2022
2173 Clear 7 1013 82 10000 4.12 110 22:44 06.04.2022
2174 Clear 7 1013 79 10000 4.12 110 22:20 06.04.2022
2175 Clear 8 1013 76 10000 3.6 100 20:47 06.04.2022
2176 Clear 8 1013 79 10000 4.63 100 20:00 06.04.2022
2177 Clear 9 1013 79 10000 4.12 100 19:24 06.04.2022
2178 Clear 10 1012 78 10000 4.63 100 18:48 06.04.2022
2179 Clouds 13 1012 76 10000 5.66 110 17:36 06.04.2022
2180 Clouds 14 1012 54 10000 6.17 100 16:56 06.04.2022
2181 Clouds 15 1012 59 10000 6.17 100 16:32 06.04.2022
2182 Clear 16 1012 50 10000 6.69 100 15:43 06.04.2022
2183 Clear 17 1013 48 10000 7.2 110 13:34 06.04.2022
2184 Clear 19 1013 34 10000 3.6 160 12:30 06.04.2022
2185 Clear 17 1014 31 10000 1.54 0 10:57 06.04.2022
2186 Clear 17 1014 31 10000 1.54 0 10:33 06.04.2022
2187 Clear 13 1014 62 10000 2.06 280 09:46 06.04.2022
2188 Clear 9 1013 81 8000 2.57 260 08:51 06.04.2022
2189 Mist 5 1013 93 4500 1.54 270 07:58 06.04.2022
2190 Clear 3 1012 100 10000 1.03 340 05:23 06.04.2022
2191 Clear 5 1011 92 10000 1.03 10 00:20 06.04.2022
2192 Clear 5 1011 95 10000 1.54 110 23:47 05.04.2022
2193 Clear 7 1011 88 10000 2.06 70 21:48 05.04.2022
2194 Clear 7 1011 92 10000 3.09 80 20:58 05.04.2022
2195 Clear 7 1011 92 10000 4.12 90 20:23 05.04.2022
2196 Clear 10 1010 82 10000 5.14 100 18:28 05.04.2022
2197 Clear 13 1010 76 10000 5.66 100 17:20 05.04.2022
2198 Clouds 14 1010 71 10000 5.66 110 16:42 05.04.2022
2199 Clouds 13 1010 77 10000 6.17 100 15:51 05.04.2022
2200 Clouds 14 1010 73 10000 6.69 110 15:30 05.04.2022
2201 Clouds 13 1011 54 10000 6.17 120 13:46 05.04.2022
2202 Clouds 14 1013 35 10000 1.54 0 12:29 05.04.2022
2203 Clouds 13 1013 47 10000 1.54 0 11:43 05.04.2022
2204 Clouds 12 1013 50 10000 1.03 0 11:24 05.04.2022
2205 Clear 9 1014 82 10000 1.03 0 09:31 05.04.2022
2206 Clear 7 1015 88 10000 1.03 260 08:27 05.04.2022
2207 Clouds 5 1015 85 10000 1.03 0 03:38 05.04.2022
2208 Clouds 6 1017 82 10000 2.06 100 23:38 04.04.2022
2209 Clouds 6 1017 82 10000 1.54 120 22:37 04.04.2022
2210 Clouds 6 1017 82 10000 2.57 110 21:46 04.04.2022
2211 Clouds 6 1017 82 10000 2.06 130 21:18 04.04.2022
2212 Clouds 6 1017 82 10000 2.57 130 20:47 04.04.2022
2213 Clouds 7 1017 79 10000 3.6 120 19:28 04.04.2022
2214 Clouds 7 1017 79 10000 3.6 120 18:40 04.04.2022
2215 Clear 8 1018 76 10000 5.66 110 17:19 04.04.2022
2216 Clear 9 1018 76 10000 6.17 110 16:28 04.04.2022
2217 Clear 10 1018 73 10000 6.17 110 15:33 04.04.2022
2218 Clouds 10 1019 73 10000 6.17 110 14:46 04.04.2022
2219 Clouds 9 1019 57 10000 6.69 110 14:27 04.04.2022
2220 Clouds 11 1020 37 10000 5.14 260 12:58 04.04.2022
2221 Clouds 9 1021 46 10000 5.66 250 11:29 04.04.2022
2222 Clouds 8 1021 53 10000 5.66 290 10:29 04.04.2022
2223 Clouds 3 1018 85 10000 4.63 290 05:34 04.04.2022
2224 Clouds 5 1017 76 10000 7.2 270 02:59 04.04.2022
2225 Clouds 7 1015 74 10000 5.66 280 23:19 03.04.2022
2226 Clouds 9 1013 69 10000 8.23 280 22:00 03.04.2022
2227 Clouds 9 1013 72 10000 4.63 280 21:27 03.04.2022
2228 Clouds 10 1012 70 10000 5.14 270 20:30 03.04.2022
2229 Clouds 12 1010 66 10000 7.2 290 18:47 03.04.2022
2230 Clear 13 1009 57 10000 9.26 290 17:56 03.04.2022
2231 Clear 14 1009 52 10000 8.75 280 17:36 03.04.2022
2232 Clear 15 1008 49 10000 10.8 280 16:50 03.04.2022
2233 Clear 16 1007 52 10000 12.86 280 15:56 03.04.2022
2234 Clear 16 1006 58 10000 12.86 290 14:25 03.04.2022
2235 Clear 15 1006 66 10000 10.8 280 13:28 03.04.2022
2236 Clouds 14 1006 70 10000 9.77 280 11:50 03.04.2022
2237 Clear 13 1005 47 10000 6.69 280 09:57 03.04.2022
2238 Clear 11 1005 82 10000 6.17 270 08:57 03.04.2022
2239 Clouds 9 1004 88 7000 2.57 270 06:28 03.04.2022
2240 Clouds 9 1004 100 10000 2.06 290 02:55 03.04.2022
2241 Rain 10 1005 100 10000 3.09 250 23:48 02.04.2022
2242 Clouds 11 1004 92 10000 2.06 210 22:45 02.04.2022
2243 Clouds 12 1004 89 10000 4.12 270 21:56 02.04.2022
2244 Clouds 12 1003 89 10000 4.63 290 21:20 02.04.2022
2245 Rain 13 1003 82 10000 3.09 240 20:36 02.04.2022
2246 Rain 13 1001 85 10000 6.17 300 18:47 02.04.2022
2247 Clouds 15 1001 74 10000 3.6 320 18:19 02.04.2022
2248 Rain 15 1001 58 10000 7.72 250 17:23 02.04.2022
2249 Rain 21 999 45 10000 7.2 230 15:55 02.04.2022
2250 Clouds 23 999 25 10000 9.26 230 15:20 02.04.2022
2251 Rain 23 999 21 10000 9.26 230 14:31 02.04.2022
2252 Clouds 23 1000 28 10000 6.69 250 13:34 02.04.2022
2253 Clouds 21 1000 37 10000 5.66 250 12:21 02.04.2022
2254 Clouds 20 1000 37 10000 9.26 270 10:31 02.04.2022
2255 Clouds 16 1000 63 10000 5.66 240 08:26 02.04.2022
2256 Clouds 13 999 85 10000 1.03 0 05:24 02.04.2022
2257 Clouds 15 998 80 10000 2.06 140 02:56 02.04.2022
2258 Clouds 16 999 77 10000 2.06 0 23:54 01.04.2022
2259 Clouds 16 999 77 10000 0 0 22:51 01.04.2022
2260 Clouds 18 999 71 10000 6.69 270 21:24 01.04.2022
2261 Clouds 19 999 69 10000 5.66 240 20:48 01.04.2022
2262 Clouds 19 998 45 10000 4.12 230 19:46 01.04.2022
2263 Clear 20 998 40 10000 3.6 220 19:26 01.04.2022
2264 Clouds 21 998 55 10000 3.6 220 18:38 01.04.2022
2265 Clear 22 997 49 10000 10.8 220 17:39 01.04.2022
2266 Clear 24 998 42 10000 11.83 210 16:24 01.04.2022
2267 Clouds 24 998 25 10000 12.86 210 14:56 01.04.2022
2268 Clear 24 1000 29 10000 6.69 230 13:56 01.04.2022
2269 Clouds 22 1000 30 10000 7.2 220 13:31 01.04.2022
2270 Clear 22 1001 51 10000 8.23 220 12:26 01.04.2022
2271 Clouds 21 1001 57 10000 8.23 220 10:52 01.04.2022
2272 Clouds 19 1002 61 10000 9.26 220 09:41 01.04.2022
2273 Clouds 15 1002 72 10000 0.51 0 07:41 01.04.2022
2274 Clouds 16 1002 73 10000 2.06 230 05:38 01.04.2022
2275 Clouds 15 1002 74 10000 3.09 220 04:41 01.04.2022
2276 Clouds 16 1003 70 10000 2.57 240 03:18 01.04.2022
2277 Clouds 16 1003 73 10000 3.6 200 01:34 01.04.2022
2278 Clouds 17 1003 70 10000 8.75 210 22:31 31.03.2022
2279 Clouds 17 1005 70 10000 5.66 230 21:40 31.03.2022
2280 Clouds 17 1005 73 10000 4.12 250 20:51 31.03.2022
2281 Rain 16 1004 75 10000 4.12 220 20:28 31.03.2022
2282 Clouds 16 1004 75 10000 3.09 220 19:29 31.03.2022
2283 Clouds 17 1004 75 10000 4.12 190 18:33 31.03.2022
2284 Rain 19 1004 69 10000 5.66 230 16:47 31.03.2022
2285 Clouds 21 1003 69 10000 6.17 230 15:55 31.03.2022
2286 Clouds 21 1004 69 10000 6.69 220 15:26 31.03.2022
2287 Clouds 21 1004 69 10000 6.17 240 14:45 31.03.2022
2288 Clouds 20 1004 71 10000 7.2 230 13:28 31.03.2022
2289 Clear 20 1006 73 10000 6.17 230 11:31 31.03.2022
2290 Clear 17 1006 75 10000 6.17 220 10:26 31.03.2022
2291 Clear 16 1006 77 10000 6.17 230 09:39 31.03.2022
2292 Clear 14 1006 80 10000 1.54 0 07:48 31.03.2022
2293 Clear 14 1008 74 10000 1.54 220 01:37 31.03.2022
2294 Clear 14 1007 74 10000 1.03 0 23:24 30.03.2022
2295 Clear 16 1007 73 10000 3.09 220 21:55 30.03.2022
2296 Clear 16 1007 73 10000 3.09 220 21:30 30.03.2022
2297 Clear 16 1007 73 10000 1.54 200 20:37 30.03.2022
2298 Clear 17 1007 65 10000 3.09 130 19:47 30.03.2022
2299 Clear 18 1007 56 10000 3.6 100 18:41 30.03.2022
2300 Clear 18 1007 56 10000 3.6 100 18:41 30.03.2022
2301 Clear 21 1007 30 10000 3.6 220 17:50 30.03.2022
2302 Clear 22 1007 39 10000 5.14 210 16:59 30.03.2022
2303 Clear 22 1007 38 10000 5.14 210 16:39 30.03.2022
2304 Clear 22 1007 26 10000 6.69 230 15:47 30.03.2022
2305 Clear 23 1007 27 10000 3.09 210 14:22 30.03.2022
2306 Clear 23 1008 25 10000 4.12 210 13:20 30.03.2022
2307 Clear 21 1009 35 10000 4.12 250 11:55 30.03.2022
2308 Clear 18 1009 42 10000 4.12 240 10:38 30.03.2022
2309 Clear 15 1010 51 10000 4.12 250 09:30 30.03.2022
2310 Clear 12 1009 62 10000 2.57 320 07:59 30.03.2022
2311 Clouds 9 1009 79 10000 3.09 330 05:41 30.03.2022
2312 Clouds 7 1009 70 10000 3.09 330 05:23 30.03.2022
2313 Clouds 13 1010 68 10000 2.06 290 00:43 30.03.2022
2314 Clouds 14 1010 41 10000 1.54 290 22:35 29.03.2022
2315 Clouds 14 1010 60 10000 0 0 21:46 29.03.2022
2316 Clear 12 1010 70 10000 3.6 110 20:55 29.03.2022
2317 Clouds 15 1010 51 10000 0.51 0 20:24 29.03.2022
2318 Clouds 17 1010 47 10000 3.6 250 18:57 29.03.2022
2319 Clouds 17 1010 34 10000 3.6 250 18:36 29.03.2022
2320 Clear 20 1010 43 10000 4.12 220 17:39 29.03.2022
2321 Clear 19 1010 51 10000 1.54 110 16:58 29.03.2022
2322 Clear 19 1010 51 10000 1.54 110 16:58 29.03.2022
2323 Clear 20 1010 37 10000 2.06 130 15:58 29.03.2022
2324 Clear 20 1011 32 10000 2.57 210 14:53 29.03.2022
2325 Clear 20 1011 34 10000 4.12 0 14:22 29.03.2022
2326 Clear 18 1013 42 10000 2.57 200 12:55 29.03.2022
2327 Clear 17 1013 42 10000 3.6 240 11:44 29.03.2022
2328 Clear 15 1014 47 10000 5.66 250 10:55 29.03.2022
2329 Clear 14 1015 47 10000 1.54 320 09:49 29.03.2022
2330 Clear 8 1016 95 10000 0 0 07:57 29.03.2022
2331 Clouds 5 1016 95 10000 1.54 340 04:47 29.03.2022
2332 Clouds 5 1020 92 10000 2.06 20 00:36 29.03.2022
2333 Clouds 5 1021 88 10000 1.54 40 23:24 28.03.2022
2334 Clouds 5 1021 88 10000 1.54 60 22:53 28.03.2022
2335 Clouds 6 1022 82 10000 1.54 30 22:26 28.03.2022
2336 Clouds 6 1022 82 10000 2.57 90 20:58 28.03.2022
2337 Clouds 6 1023 82 10000 3.09 100 20:23 28.03.2022
2338 Clouds 6 1023 79 10000 3.09 100 19:44 28.03.2022
2339 Clear 6 1023 78 10000 3.09 110 19:25 28.03.2022
2340 Clear 7 1023 76 10000 3.6 110 18:37 28.03.2022
2341 Clear 9 1024 66 10000 4.63 110 17:39 28.03.2022
2342 Clear 11 1024 51 10000 6.17 110 16:20 28.03.2022
2343 Clear 14 1026 42 10000 7.2 110 14:29 28.03.2022
2344 Clear 14 1027 44 10000 7.2 120 13:58 28.03.2022
2345 Clear 13 1028 43 10000 6.69 120 12:20 28.03.2022
2346 Clear 12 1029 35 10000 5.66 120 11:24 28.03.2022
2347 Clear 10 1030 46 10000 4.12 110 09:43 28.03.2022
2348 Clear 9 1029 53 10000 3.09 120 09:19 28.03.2022
2349 Clear 8 1029 76 10000 0 0 08:22 28.03.2022
2350 Clear 4 1029 78 10000 0 0 07:28 28.03.2022
2351 Clear 2 1029 60 10000 0 0 03:43 28.03.2022
2352 Clear 5 1028 75 10000 2.06 20 23:28 27.03.2022
2353 Clear 5 1028 88 10000 2.57 40 22:24 27.03.2022
2354 Clear 6 1028 85 10000 1.03 60 21:41 27.03.2022
2355 Clear 6 1027 88 10000 2.57 90 20:54 27.03.2022
2356 Clouds 7 1026 85 10000 2.57 90 19:47 27.03.2022
2357 Clouds 8 1025 79 10000 4.12 120 18:55 27.03.2022
2358 Clouds 9 1025 76 10000 5.66 120 18:27 27.03.2022
2359 Clear 10 1025 71 10000 5.66 120 17:38 27.03.2022
2360 Clear 13 1024 56 10000 8.23 110 15:59 27.03.2022
2361 Clear 14 1023 41 10000 8.75 110 14:55 27.03.2022
2362 Clear 14 1023 61 10000 9.26 140 13:54 27.03.2022
2363 Clear 14 1023 61 10000 9.26 140 13:54 27.03.2022
2364 Clear 21 1022 23 10000 5.66 340 12:20 27.03.2022
2365 Clear 19 1022 27 10000 5.14 240 10:47 27.03.2022
2366 Clear 11 1022 43 10000 2.57 280 08:37 27.03.2022
2367 Clouds 6 1022 49 10000 2.57 250 05:45 27.03.2022
2368 Clear 5 1022 82 10000 1.54 350 00:47 27.03.2022
2369 Clear 5 1023 79 10000 1.54 320 23:30 26.03.2022
2370 Clear 4 1023 82 10000 2.06 350 22:35 26.03.2022
2371 Clear 5 1023 78 10000 2.06 20 21:33 26.03.2022
2372 Clear 6 1024 70 10000 1.54 130 20:20 26.03.2022
2373 Clear 8 1024 69 10000 2.06 80 18:59 26.03.2022
2374 Clear 10 1023 62 10000 2.57 120 17:46 26.03.2022
2375 Clear 13 1023 51 10000 3.6 250 17:28 26.03.2022
2376 Clear 15 1024 43 10000 5.66 250 16:24 26.03.2022
2377 Clear 15 1024 45 10000 5.66 240 14:50 26.03.2022
2378 Clear 15 1025 48 10000 4.12 260 13:52 26.03.2022
2379 Clear 14 1026 35 10000 5.14 270 12:41 26.03.2022
2380 Clear 13 1027 41 10000 5.66 290 11:28 26.03.2022
2381 Clear 10 1028 50 10000 8.23 310 09:23 26.03.2022
2382 Clear 8 1028 79 10000 5.66 310 08:27 26.03.2022
2383 Clear 3 1027 85 10000 7.72 330 05:53 26.03.2022
2384 Clear 3 1026 85 10000 3.09 330 03:32 26.03.2022
2385 Clouds 4 1025 85 10000 4.12 360 23:21 25.03.2022
2386 Clouds 4 1024 88 10000 2.57 300 20:59 25.03.2022
2387 Clouds 4 1024 88 10000 2.57 300 20:38 25.03.2022
2388 Clouds 5 1024 92 10000 5.66 270 19:27 25.03.2022
2389 Clouds 5 1023 92 10000 4.12 260 18:37 25.03.2022
2390 Clouds 7 1022 76 10000 8.23 360 17:34 25.03.2022
2391 Clouds 8 1021 57 10000 5.66 10 16:39 25.03.2022
2392 Clouds 10 1021 46 10000 7.72 40 15:46 25.03.2022
2393 Clouds 14 1018 26 10000 7.72 330 13:40 25.03.2022
2394 Clear 14 1018 30 10000 6.69 320 11:49 25.03.2022
2395 Clear 12 1019 32 10000 5.66 330 09:46 25.03.2022
2396 Clear 11 1019 35 10000 3.6 0 08:59 25.03.2022
2397 Clear 9 1019 49 10000 2.57 260 07:47 25.03.2022
2398 Clear 8 1019 50 10000 2.06 300 07:20 25.03.2022
2399 Clouds 6 1017 49 10000 2.57 220 03:58 25.03.2022
2400 Clouds 4 1017 52 10000 1.03 0 23:54 24.03.2022
2401 Clouds 6 1016 60 10000 1.54 290 22:24 24.03.2022
2402 Clear 5 1017 62 10000 0 0 21:24 24.03.2022
2403 Clear 6 1017 54 10000 1.54 360 19:50 24.03.2022
2404 Clear 8 1017 49 10000 2.57 100 18:45 24.03.2022
2405 Clear 11 1017 42 10000 4.63 100 17:36 24.03.2022
2406 Clear 13 1017 26 10000 5.66 100 16:39 24.03.2022
2407 Clear 15 1017 37 10000 7.2 100 14:53 24.03.2022
2408 Clear 15 1017 37 10000 7.2 100 14:32 24.03.2022
2409 Clear 16 1018 35 10000 6.69 110 13:36 24.03.2022
2410 Clear 15 1019 26 10000 6.17 110 12:29 24.03.2022
2411 Clear 16 1019 29 10000 2.57 140 11:27 24.03.2022
2412 Clear 11 1020 30 10000 2.06 170 09:28 24.03.2022
2413 Clear 9 1020 27 10000 3.09 230 08:38 24.03.2022
2414 Clear -1 1022 40 10000 2.06 270 05:36 24.03.2022
2415 Clear 3 1024 36 10000 2.57 10 00:38 24.03.2022
2416 Clear 2 1025 40 10000 0 0 22:21 23.03.2022
2417 Clear 3 1025 41 10000 1.54 270 21:24 23.03.2022
2418 Clear 3 1025 40 10000 1.54 280 20:36 23.03.2022
2419 Clear 5 1026 36 10000 0.51 0 19:28 23.03.2022
2420 Clear 7 1026 28 10000 6.69 50 17:52 23.03.2022
2421 Clear 9 1025 24 10000 5.66 40 17:24 23.03.2022
2422 Clear 11 1025 25 10000 6.17 40 15:43 23.03.2022
2423 Clear 12 1025 21 10000 8.75 30 14:47 23.03.2022
2424 Clear 12 1026 24 10000 10.8 50 13:31 23.03.2022
2425 Clear 11 1026 19 10000 9.77 30 11:24 23.03.2022
2426 Clear 6 1027 49 10000 5.66 10 08:29 23.03.2022
2427 Clear 2 1027 88 10000 4.63 10 05:50 23.03.2022
2428 Clouds 4 1028 85 10000 5.14 20 02:28 23.03.2022
2429 Clear 4 1028 85 10000 5.14 30 00:26 23.03.2022
2430 Clear 4 1028 85 10000 5.14 30 00:26 23.03.2022
2431 Clear 5 1028 85 10000 6.17 30 21:40 22.03.2022
2432 Clear 6 1028 82 10000 7.2 40 20:59 22.03.2022
2433 Clear 6 1028 85 10000 8.75 40 20:18 22.03.2022
2434 Clear 6 1028 88 10000 8.23 40 19:26 22.03.2022
2435 Clear 6 1028 85 10000 7.72 40 18:46 22.03.2022
2436 Clouds 6 1028 85 10000 9.26 40 17:43 22.03.2022
2437 Clouds 7 1027 82 10000 11.83 40 16:39 22.03.2022
2438 Clouds 7 1027 82 10000 10.8 40 15:41 22.03.2022
2439 Clouds 8 1027 79 10000 10.8 50 15:19 22.03.2022
2440 Clouds 8 1027 78 10000 10.8 50 14:42 22.03.2022
2441 Clouds 10 1026 72 10000 10.29 40 13:42 22.03.2022
2442 Clouds 12 1026 64 10000 10.29 40 11:53 22.03.2022
2443 Clouds 12 1026 43 10000 9.77 40 10:54 22.03.2022
2444 Clear 11 1026 50 10000 6.17 10 09:21 22.03.2022
2445 Clear 7 1026 57 10000 7.2 10 07:30 22.03.2022
2446 Clear 5 1027 42 10000 6.69 360 03:57 22.03.2022
2447 Clear 6 1029 39 10000 2.57 340 00:46 22.03.2022
2448 Clear 5 1030 45 10000 1.03 0 22:46 21.03.2022
2449 Clear 3 1031 65 10000 1.03 0 21:30 21.03.2022
2450 Clear 4 1031 56 10000 0 0 20:43 21.03.2022
2451 Clear 4 1031 60 10000 0 0 20:23 21.03.2022
2452 Clear 4 1031 72 10000 0 0 19:35 21.03.2022
2453 Clear 4 1031 72 10000 0 0 19:35 21.03.2022
2454 Clear 5 1031 70 10000 1.54 140 18:47 21.03.2022
2455 Clear 8 1031 46 10000 2.57 60 17:35 21.03.2022
2456 Clear 9 1031 40 10000 4.63 50 16:59 21.03.2022
2457 Clear 9 1031 40 10000 6.69 70 16:26 21.03.2022
2458 Clear 8 1032 49 10000 2.57 160 15:43 21.03.2022
2459 Clear 11 1032 33 10000 5.66 70 14:36 21.03.2022
2460 Clear 10 1032 22 10000 6.69 40 13:20 21.03.2022
2461 Clear 10 1033 22 10000 6.17 20 11:58 21.03.2022
2462 Clear 9 1034 21 10000 6.17 20 11:20 21.03.2022
2463 Clear 8 1034 23 10000 6.69 40 09:42 21.03.2022
2464 Clear 4 1034 38 10000 6.17 10 07:33 21.03.2022
2465 Clear 1 1034 70 10000 6.17 10 05:56 21.03.2022
2466 Clear 0 1035 70 10000 4.63 10 01:39 21.03.2022
2467 Clear 1 1036 68 10000 4.63 30 22:57 20.03.2022
2468 Clear 1 1036 68 10000 4.12 20 22:23 20.03.2022
2469 Clear 1 1036 70 10000 3.6 20 21:31 20.03.2022
2470 Clear 2 1036 69 10000 3.6 10 20:54 20.03.2022
2471 Clear 2 1036 69 10000 3.6 20 20:27 20.03.2022
2472 Clear 2 1036 70 10000 3.6 20 19:48 20.03.2022
2473 Clear 2 1036 69 10000 3.09 40 19:19 20.03.2022
2474 Clear 4 1036 41 10000 4.12 60 17:43 20.03.2022
2475 Clear 5 1036 63 10000 5.66 70 17:24 20.03.2022
2476 Clear 7 1036 40 10000 6.17 20 15:58 20.03.2022
2477 Clear 7 1036 40 10000 7.72 40 14:38 20.03.2022
2478 Clear 7 1037 41 10000 6.69 20 13:38 20.03.2022
2479 Clear 8 1038 19 10000 7.72 60 11:58 20.03.2022
2480 Clear 6 1038 36 10000 8.23 30 09:59 20.03.2022
2481 Clear 2 1039 44 10000 5.66 20 08:19 20.03.2022
2482 Clear -1 1038 73 10000 5.14 10 05:49 20.03.2022
2483 Clear -1 1038 73 10000 5.66 360 03:18 20.03.2022
2484 Clear 0 1038 75 10000 4.12 10 00:53 20.03.2022
2485 Clear 0 1039 78 10000 4.63 350 23:37 19.03.2022
2486 Clear -1 1039 69 10000 2.57 350 21:58 19.03.2022
2487 Clear -1 1039 69 10000 3.6 360 21:25 19.03.2022
2488 Clear 1 1039 69 10000 4.12 10 19:22 19.03.2022
2489 Clear 1 1039 67 10000 2.57 30 18:38 19.03.2022
2490 Clear 2 1038 61 10000 3.09 20 17:48 19.03.2022
2491 Clear 3 1038 57 10000 6.17 30 16:46 19.03.2022
2492 Clouds 4 1038 56 10000 6.17 360 15:26 19.03.2022
2493 Clouds 4 1038 54 10000 6.17 30 13:45 19.03.2022
2494 Clouds 4 1039 57 10000 6.17 20 12:42 19.03.2022
2495 Clouds 3 1039 57 10000 6.17 360 12:20 19.03.2022
2496 Clouds 4 1040 59 10000 7.2 10 11:42 19.03.2022
2497 Clear 1 1040 47 10000 6.69 10 09:22 19.03.2022
2498 Clear -3 1039 84 10000 4.12 360 04:42 19.03.2022
2499 Clear -4 1039 84 10000 4.63 310 02:33 19.03.2022
2500 Clear -3 1040 84 10000 2.06 260 23:51 18.03.2022
2501 Clear -3 1040 80 10000 3.09 260 22:48 18.03.2022
2502 Clear -3 1040 84 10000 2.06 290 22:21 18.03.2022
2503 Clear -2 1040 78 10000 3.09 20 20:25 18.03.2022
2504 Clear -2 1040 78 10000 3.09 20 20:25 18.03.2022
2505 Clear -2 1040 78 10000 3.09 20 20:25 18.03.2022
2506 Clear -1 1040 78 10000 4.12 40 19:24 18.03.2022
2507 Clear -1 1040 75 10000 4.12 50 18:35 18.03.2022
2508 Clouds 2 1039 69 10000 7.2 30 16:53 18.03.2022
2509 Clouds 2 1038 70 10000 6.69 30 16:23 18.03.2022
2510 Clouds 3 1038 41 10000 7.2 20 14:26 18.03.2022
2511 Clouds 4 1038 38 10000 8.75 10 13:36 18.03.2022
2512 Clouds 4 1038 57 10000 8.75 10 11:29 18.03.2022
2513 Clouds 3 1038 62 10000 11.32 10 09:52 18.03.2022
2514 Clear 2 1038 70 10000 8.23 360 08:45 18.03.2022
2515 Clear -1 1038 75 10000 4.63 10 06:45 18.03.2022
2516 Clear -1 1038 75 10000 4.63 10 06:45 18.03.2022
2517 Clear -2 1037 80 10000 4.12 350 04:39 18.03.2022
2518 Clear -2 1036 84 10000 3.6 360 00:55 18.03.2022
2519 Clear -3 1036 84 10000 3.09 360 23:52 17.03.2022
2520 Clear -3 1036 84 10000 3.09 360 23:52 17.03.2022
2521 Clear -3 1036 88 10000 1.03 0 22:44 17.03.2022
2522 Clear -3 1036 88 10000 0 0 22:18 17.03.2022
2523 Clear -2 1036 81 10000 1.54 30 21:27 17.03.2022
2524 Clear -2 1035 81 10000 3.6 40 20:52 17.03.2022
2525 Clear -1 1035 81 10000 3.09 50 20:18 17.03.2022
2526 Clear -1 1035 78 10000 2.06 60 19:37 17.03.2022
2527 Clear 0 1035 75 10000 3.09 50 18:51 17.03.2022
2528 Clear 2 1033 70 10000 5.66 70 17:27 17.03.2022
2529 Clouds 3 1033 71 10000 5.66 70 16:19 17.03.2022
2530 Clouds 3 1033 71 10000 5.66 70 16:19 17.03.2022
2531 Clouds 4 1032 69 10000 5.66 50 15:42 17.03.2022
2532 Clouds 4 1032 69 10000 4.63 60 14:58 17.03.2022
2533 Clouds 5 1032 69 10000 7.2 60 13:28 17.03.2022
2534 Clouds 4 1032 69 10000 7.72 40 12:38 17.03.2022
2535 Clouds 5 1032 71 10000 7.2 60 11:31 17.03.2022
2536 Clouds 4 1032 76 10000 6.69 60 10:38 17.03.2022
2537 Clouds 3 1030 85 10000 8.75 50 08:42 17.03.2022
2538 Clouds 3 1028 92 8000 11.32 50 07:57 17.03.2022
2539 Clouds 4 1026 92 10000 10.29 40 05:48 17.03.2022
2540 Clouds 4 1025 95 10000 4.12 30 03:45 17.03.2022
2541 Clouds 5 1024 92 7000 1.54 0 00:21 17.03.2022
2542 Clouds 5 1023 92 9000 1.03 0 22:52 16.03.2022
2543 Clouds 5 1023 92 9000 1.03 0 22:33 16.03.2022
2544 Clouds 5 1023 92 9000 2.57 80 21:52 16.03.2022
2545 Clouds 5 1023 92 10000 0 0 20:32 16.03.2022
2546 Rain 4 1023 88 10000 0.51 0 19:22 16.03.2022
2547 Clear 5 1023 85 10000 1.03 0 18:40 16.03.2022
2548 Clear 5 1022 85 10000 2.57 120 17:44 16.03.2022
2549 Clear 5 1022 85 10000 2.57 120 17:26 16.03.2022
2550 Clear 7 1022 82 10000 4.63 110 15:56 16.03.2022
2551 Clear 7 1022 82 10000 4.12 110 14:31 16.03.2022
2552 Clear 8 1022 79 10000 4.63 120 13:32 16.03.2022
2553 Clear 9 1023 74 10000 4.12 120 11:58 16.03.2022
2554 Clear 8 1024 76 10000 2.57 120 11:21 16.03.2022
2555 Clouds 7 1024 79 7000 2.06 100 10:27 16.03.2022
2556 Clouds 6 1024 82 7000 2.06 120 09:42 16.03.2022
2557 Clouds 0 1025 91 8000 0 0 06:27 16.03.2022
2558 Clear 0 1027 88 10000 0 0 02:29 16.03.2022
2559 Clear 1 1029 84 10000 1.54 350 22:51 15.03.2022
2560 Clear 1 1029 84 10000 1.54 350 22:32 15.03.2022
2561 Clear 3 1030 78 10000 1.54 10 20:36 15.03.2022
2562 Clear 5 1030 74 10000 1.03 0 18:58 15.03.2022
2563 Clear 10 1030 51 10000 2.06 320 17:24 15.03.2022
2564 Clear 11 1030 46 10000 3.6 310 16:32 15.03.2022
2565 Clear 12 1031 32 10000 5.66 310 15:21 15.03.2022
2566 Clear 12 1031 32 10000 5.66 330 14:46 15.03.2022
2567 Clear 12 1031 35 10000 5.14 290 13:55 15.03.2022
2568 Clear 12 1032 32 10000 5.14 310 12:29 15.03.2022
2569 Clear 12 1033 35 10000 6.69 310 11:31 15.03.2022
2570 Clear 8 1034 46 10000 4.12 230 09:46 15.03.2022
2571 Clear 4 1035 60 10000 2.06 260 08:42 15.03.2022
2572 Clear 2 1035 84 10000 1.03 0 07:52 15.03.2022
2573 Clear 2 1035 85 10000 1.03 0 07:32 15.03.2022
2574 Clear -2 1035 95 10000 1.03 260 03:41 15.03.2022
2575 Clear -1 1036 88 10000 1.54 360 23:44 14.03.2022
2576 Clear -1 1036 91 10000 1.03 350 23:23 14.03.2022
2577 Clear -1 1036 91 10000 2.06 360 22:26 14.03.2022
2578 Clear -1 1036 91 9000 2.57 20 21:30 14.03.2022
2579 Clear 0 1036 88 8000 2.57 10 20:48 14.03.2022
2580 Clear 0 1036 88 8000 2.57 10 20:20 14.03.2022
2581 Clear 3 1036 79 10000 1.54 120 18:55 14.03.2022
2582 Clear 4 1035 76 10000 2.06 140 17:54 14.03.2022
2583 Clear 4 1035 60 10000 2.57 140 16:58 14.03.2022
2584 Clouds 5 1035 76 10000 3.09 120 15:43 14.03.2022
2585 Clouds 6 1035 76 10000 4.12 130 14:40 14.03.2022
2586 Clouds 7 1035 60 10000 4.63 360 12:22 14.03.2022
2587 Clouds 7 1035 61 10000 3.6 10 10:54 14.03.2022
2588 Clouds 5 1035 64 10000 3.6 10 09:44 14.03.2022
2589 Clouds 5 1035 48 10000 4.63 20 09:21 14.03.2022
2590 Clear 5 1034 71 10000 5.66 20 08:55 14.03.2022
2591 Clear 3 1034 65 10000 5.14 360 07:32 14.03.2022
2592 Clear 1 1033 81 10000 2.06 350 05:45 14.03.2022
2593 Clear 1 1031 85 10000 2.06 350 01:55 14.03.2022
2594 Clear 1 1031 85 10000 2.06 350 01:24 14.03.2022
2595 Clear 1 1031 88 10000 2.06 20 22:43 13.03.2022
2596 Clear 1 1031 85 10000 0 0 21:29 13.03.2022
2597 Clear 2 1030 81 10000 0 0 20:55 13.03.2022
2598 Clear 2 1030 81 10000 1.54 100 20:30 13.03.2022
2599 Clear 2 1030 69 10000 3.09 90 19:49 13.03.2022
2600 Clear 2 1030 76 10000 1.54 40 19:27 13.03.2022
2601 Clear 3 1029 73 10000 0 0 18:59 13.03.2022
2602 Clear 3 1029 73 10000 0 0 18:31 13.03.2022
2603 Clouds 3 1029 73 10000 1.54 0 17:41 13.03.2022
2604 Clouds 4 1028 73 10000 4.12 100 16:57 13.03.2022
2605 Clouds 4 1028 69 10000 3.6 110 16:29 13.03.2022
2606 Clouds 4 1027 69 10000 3.09 110 15:44 13.03.2022
2607 Clouds 4 1027 69 10000 2.57 120 14:51 13.03.2022
2608 Clouds 5 1027 62 10000 3.6 130 13:43 13.03.2022
2609 Clouds 6 1026 33 10000 3.09 330 12:38 13.03.2022
2610 Clouds 6 1027 36 10000 3.09 280 11:51 13.03.2022
2611 Clouds 6 1027 36 10000 3.6 0 11:31 13.03.2022
2612 Clouds 6 1027 36 10000 3.6 0 11:31 13.03.2022
2613 Clouds 5 1027 38 10000 3.09 330 10:46 13.03.2022
2614 Clear 6 1027 36 10000 2.57 330 09:59 13.03.2022
2615 Clear 6 1027 36 10000 2.57 330 09:40 13.03.2022
2616 Clear 3 1027 48 10000 2.57 270 08:45 13.03.2022
2617 Clear 1 1027 75 10000 3.09 270 07:40 13.03.2022
2618 Clear -3 1027 84 10000 3.6 290 05:40 13.03.2022
2619 Clear -2 1027 78 10000 4.63 320 02:27 13.03.2022
2620 Clear -3 1028 68 10000 5.14 300 23:31 12.03.2022
2621 Clear -2 1028 84 10000 2.57 300 21:49 12.03.2022
2622 Clear -1 1028 81 10000 0 0 20:29 12.03.2022
2623 Clear 0 1028 81 10000 1.54 300 19:47 12.03.2022
2624 Clear 0 1028 78 10000 2.06 270 18:47 12.03.2022
2625 Clear 0 1028 81 10000 2.57 330 18:20 12.03.2022
2626 Clouds 0 1027 78 10000 4.12 350 16:32 12.03.2022
2627 Clouds 1 1027 75 10000 7.2 350 15:55 12.03.2022
2628 Clouds 1 1027 75 10000 7.2 340 15:22 12.03.2022
2629 Clouds 1 1027 75 10000 7.2 340 15:22 12.03.2022
2630 Clouds 1 1028 75 10000 8.23 330 13:54 12.03.2022
2631 Clouds 0 1027 75 10000 8.23 320 12:33 12.03.2022
2632 Clouds 0 1028 78 10000 9.26 320 11:55 12.03.2022
2633 Clouds -1 1028 78 10000 9.26 320 11:34 12.03.2022
2634 Clouds -1 1027 81 10000 8.75 350 10:32 12.03.2022
2635 Clouds -2 1027 81 10000 8.75 350 09:44 12.03.2022
2636 Clouds -2 1027 84 10000 7.2 320 08:24 12.03.2022
2637 Clouds -4 1027 88 10000 5.14 290 06:44 12.03.2022
2638 Clear -5 1027 88 10000 3.6 320 00:55 12.03.2022
2639 Clear -5 1027 88 10000 2.57 280 23:43 11.03.2022
2640 Clear -5 1027 88 10000 2.57 280 23:43 11.03.2022
2641 Clouds -4 1027 88 10000 3.6 320 22:32 11.03.2022
2642 Clouds -4 1027 88 10000 2.57 290 21:24 11.03.2022
2643 Clouds -4 1027 88 10000 1.54 0 20:46 11.03.2022
2644 Clouds -4 1027 88 10000 2.57 330 20:26 11.03.2022
2645 Clouds -3 1027 88 10000 3.6 320 19:33 11.03.2022
2646 Clouds -3 1027 91 10000 4.12 330 18:30 11.03.2022
2647 Clouds -2 1027 80 10000 5.14 340 17:24 11.03.2022
2648 Clouds 0 1026 73 10000 8.23 330 15:59 11.03.2022
2649 Clouds 0 1026 73 10000 8.23 330 15:36 11.03.2022
2650 Clouds 0 1025 62 10000 6.69 330 13:42 11.03.2022
2651 Clouds 0 1025 64 10000 6.69 340 12:39 11.03.2022
2652 Clouds 0 1025 64 10000 7.2 340 12:19 11.03.2022
2653 Clouds -2 1025 46 10000 7.2 350 10:44 11.03.2022
2654 Clouds -1 1025 51 10000 9.77 350 09:34 11.03.2022
2655 Clear -3 1026 59 10000 5.66 330 08:28 11.03.2022
2656 Clear -3 1026 77 10000 4.63 340 07:48 11.03.2022
2657 Clouds -5 1026 80 10000 2.57 290 06:26 11.03.2022
2658 Clear -5 1025 84 10000 3.6 330 04:37 11.03.2022
2659 Clear -4 1025 80 10000 4.63 340 01:20 11.03.2022
2660 Clouds -2 1025 84 10000 3.09 350 22:32 10.03.2022
2661 Clear -2 1025 84 10000 1.54 0 21:53 10.03.2022
2662 Clear -2 1025 81 10000 3.6 10 21:24 10.03.2022
2663 Clear -2 1025 81 10000 3.6 10 21:24 10.03.2022
2664 Clear -2 1025 81 10000 3.6 10 20:18 10.03.2022
2665 Clear -2 1024 84 10000 3.09 10 19:20 10.03.2022
2666 Clouds -1 1024 88 10000 6.69 10 17:50 10.03.2022
2667 Clouds 0 1023 81 10000 6.17 10 16:52 10.03.2022
2668 Clouds 0 1022 84 10000 8.23 30 15:27 10.03.2022
2669 Clouds 2 1021 70 10000 7.72 10 13:41 10.03.2022
2670 Clouds 3 1021 69 10000 8.23 10 12:35 10.03.2022
2671 Clouds 3 1021 72 10000 9.77 10 11:26 10.03.2022
2672 Clouds 1 1020 60 10000 7.2 10 09:28 10.03.2022
2673 Clear -1 1020 69 10000 6.17 10 07:46 10.03.2022
2674 Clouds -4 1019 93 10000 3.6 270 04:59 10.03.2022
2675 Clear -3 1019 86 10000 2.57 250 01:56 10.03.2022
2676 Clear -2 1019 80 10000 2.06 280 23:30 09.03.2022
2677 Clear -1 1019 74 10000 6.17 10 21:56 09.03.2022
2678 Clear -1 1019 74 10000 6.17 10 21:36 09.03.2022
2679 Clear -1 1019 80 10000 5.14 10 19:56 09.03.2022
2680 Clouds 0 1019 74 10000 4.12 10 18:34 09.03.2022
2681 Clouds 2 1018 51 10000 3.09 340 17:27 09.03.2022
2682 Clouds 2 1017 48 10000 5.14 330 16:34 09.03.2022
2683 Clouds 2 1017 51 10000 5.14 340 15:31 09.03.2022
2684 Clouds 4 1017 45 10000 5.66 360 13:54 09.03.2022
2685 Clouds 4 1017 48 10000 5.14 0 12:48 09.03.2022
2686 Clouds 3 1017 60 10000 6.17 350 11:54 09.03.2022
2687 Clouds 3 1017 60 10000 6.17 350 11:35 09.03.2022
2688 Clouds 3 1017 60 10000 5.66 350 10:34 09.03.2022
2689 Clouds 2 1017 69 10000 5.14 350 08:57 09.03.2022
2690 Clouds 1 1017 75 10000 4.63 360 08:23 09.03.2022
2691 Clouds -1 1016 96 9000 6.17 310 02:59 09.03.2022
2692 Clear 0 1017 96 10000 6.17 330 00:46 09.03.2022
2693 Clear 0 1017 92 10000 2.57 270 22:48 08.03.2022
2694 Clear -1 1017 92 10000 2.57 270 22:27 08.03.2022
2695 Clear 0 1017 92 10000 1.54 260 21:23 08.03.2022
2696 Clear 0 1017 92 10000 1.03 0 20:42 08.03.2022
2697 Clear 0 1017 88 10000 1.54 280 19:42 08.03.2022
2698 Clear 0 1017 88 10000 1.54 280 19:42 08.03.2022
2699 Clear 1 1017 86 10000 2.06 290 18:44 08.03.2022
2700 Clear 2 1016 79 10000 1.54 310 17:32 08.03.2022
2701 Clouds 3 1016 80 10000 5.66 350 15:56 08.03.2022
2702 Clouds 4 1016 80 10000 5.66 340 14:19 08.03.2022
2703 Clouds 4 1016 65 10000 5.14 330 12:43 08.03.2022
2704 Clouds 4 1016 56 10000 2.57 350 11:45 08.03.2022
2705 Clouds 4 1016 75 10000 2.57 310 10:48 08.03.2022
2706 Clouds 4 1016 78 10000 3.6 10 09:51 08.03.2022
2707 Clouds 1 1016 92 10000 2.57 360 06:59 08.03.2022
2708 Clouds 0 1016 92 10000 2.06 240 04:52 08.03.2022
2709 Clear 1 1016 92 10000 1.54 290 23:50 07.03.2022
2710 Clouds 1 1015 96 10000 2.57 310 21:54 07.03.2022
2711 Clouds 1 1015 92 10000 2.06 290 21:31 07.03.2022
2712 Clouds 2 1015 88 10000 2.57 300 20:44 07.03.2022
2713 Clouds 2 1015 88 10000 2.06 350 19:55 07.03.2022
2714 Clouds 2 1015 88 10000 2.57 350 19:31 07.03.2022
2715 Clouds 2 1015 88 10000 2.57 340 18:42 07.03.2022
2716 Clouds 2 1014 88 10000 3.09 350 17:47 07.03.2022
2717 Clouds 3 1014 86 10000 2.57 350 16:55 07.03.2022
2718 Clouds 3 1014 89 10000 3.09 300 15:32 07.03.2022
2719 Clouds 3 1014 89 10000 3.6 330 12:54 07.03.2022
2720 Clouds 3 1014 92 10000 3.6 310 12:21 07.03.2022
2721 Clouds 3 1015 88 10000 4.12 20 10:36 07.03.2022
2722 Clouds 2 1015 92 10000 3.09 340 08:39 07.03.2022
2723 Clouds 1 1015 92 10000 5.14 10 03:41 07.03.2022
2724 Rain 2 1016 92 10000 3.6 60 00:22 07.03.2022
2725 Clouds 2 1016 96 10000 2.57 60 23:31 06.03.2022
2726 Clouds 2 1017 96 10000 4.12 50 22:37 06.03.2022
2727 Rain 2 1017 96 10000 3.09 50 21:45 06.03.2022
2728 Rain 3 1017 92 10000 4.63 70 20:30 06.03.2022
2729 Clouds 3 1017 92 10000 4.63 70 19:50 06.03.2022
2730 Clouds 4 1017 86 10000 6.17 60 18:51 06.03.2022
2731 Clouds 4 1017 86 10000 5.66 60 17:54 06.03.2022
2732 Clouds 4 1017 86 10000 5.14 60 17:20 06.03.2022
2733 Clouds 4 1017 86 10000 6.17 70 16:40 06.03.2022
2734 Clouds 5 1017 80 10000 7.2 60 15:37 06.03.2022
2735 Clouds 6 1018 80 10000 6.69 60 14:49 06.03.2022
2736 Clouds 5 1017 83 10000 7.72 60 14:28 06.03.2022
2737 Clouds 6 1018 78 10000 7.2 50 12:44 06.03.2022
2738 Clouds 6 1019 75 10000 6.69 80 11:56 06.03.2022
2739 Clouds 5 1019 80 10000 7.2 70 10:45 06.03.2022
2740 Clouds 5 1019 77 10000 6.17 60 09:34 06.03.2022
2741 Clouds 3 1019 83 10000 5.66 50 08:28 06.03.2022
2742 Clouds 2 1019 85 10000 3.09 60 07:33 06.03.2022
2743 Clouds 1 1019 86 10000 5.66 40 03:58 06.03.2022
2744 Clear 2 1020 88 10000 5.14 60 00:42 06.03.2022
2745 Clouds 2 1020 88 10000 3.6 50 00:23 06.03.2022
2746 Clear 2 1020 88 10000 3.6 110 23:19 05.03.2022
2747 Clear 2 1020 86 10000 3.09 100 22:38 05.03.2022
2748 Clouds 2 1020 88 10000 2.57 120 21:31 05.03.2022
2749 Clouds 3 1019 89 10000 3.6 120 20:57 05.03.2022
2750 Clouds 3 1019 92 10000 2.06 110 19:23 05.03.2022
2751 Clouds 3 1019 92 10000 4.12 60 18:50 05.03.2022
2752 Clouds 4 1018 89 9000 4.63 70 17:39 05.03.2022
2753 Clouds 6 1018 86 10000 4.63 80 16:19 05.03.2022
2754 Clouds 6 1018 86 10000 4.63 100 15:30 05.03.2022
2755 Clouds 7 1018 89 10000 4.63 120 14:36 05.03.2022
2756 Clouds 8 1017 66 10000 6.69 130 13:46 05.03.2022
2757 Clouds 8 1017 66 10000 6.17 140 12:46 05.03.2022
2758 Clouds 7 1018 82 10000 4.63 110 11:21 05.03.2022
2759 Clouds 7 1018 82 10000 4.63 120 10:53 05.03.2022
2760 Clouds 6 1018 88 9000 2.57 130 09:37 05.03.2022
2761 Clouds 6 1017 89 10000 1.54 0 08:31 05.03.2022
2762 Mist 2 1017 100 5000 1.03 10 07:23 05.03.2022
2763 Mist 0 1016 100 2200 1.54 260 05:39 05.03.2022
2764 Clear 2 1015 96 10000 0 0 00:51 05.03.2022
2765 Clear 2 1015 92 10000 1.54 360 23:20 04.03.2022
2766 Clear 2 1015 96 10000 1.03 0 22:39 04.03.2022
2767 Clear 3 1015 89 10000 2.06 10 21:43 04.03.2022
2768 Clear 3 1015 92 10000 1.54 10 20:45 04.03.2022
2769 Clear 3 1015 89 10000 0.51 340 19:38 04.03.2022
2770 Clear 3 1015 86 10000 2.06 30 18:58 04.03.2022
2771 Clear 3 1015 86 10000 2.06 30 18:35 04.03.2022
2772 Clouds 5 1014 86 10000 3.6 120 17:29 04.03.2022
2773 Clouds 7 1014 75 10000 3.09 90 15:58 04.03.2022
2774 Clouds 7 1014 75 10000 4.12 50 15:27 04.03.2022
2775 Clear 9 1014 73 10000 3.6 90 13:36 04.03.2022
2776 Clear 9 1014 49 10000 3.09 140 12:48 04.03.2022
2777 Clear 9 1015 71 10000 2.57 250 11:37 04.03.2022
2778 Clear 9 1015 71 10000 2.57 250 11:37 04.03.2022
2779 Clouds 7 1015 81 10000 2.06 290 10:26 04.03.2022
2780 Clear 6 1015 88 10000 0 0 09:28 04.03.2022
2781 Clouds 2 1015 96 6000 0 0 07:49 04.03.2022
2782 Clouds 0 1014 96 7000 0 0 06:26 04.03.2022
2783 Clouds 0 1014 96 7000 0 0 02:26 04.03.2022
2784 Clouds 0 1014 96 8000 2.06 20 23:41 03.03.2022
2785 Clouds 0 1014 100 8000 1.54 30 22:18 03.03.2022
2786 Clear 0 1014 96 9000 2.06 40 21:36 03.03.2022
2787 Clear 1 1014 92 10000 2.06 30 20:48 03.03.2022
2788 Clear 2 1014 88 10000 1.54 200 19:29 03.03.2022
2789 Clear 2 1013 88 10000 1.03 0 18:26 03.03.2022
2790 Clear 3 1013 86 10000 2.57 300 17:31 03.03.2022
2791 Clear 5 1013 80 10000 4.12 310 16:41 03.03.2022
2792 Clear 6 1012 78 10000 5.66 340 15:44 03.03.2022
2793 Clear 6 1012 75 10000 6.69 310 14:44 03.03.2022
2794 Clouds 6 1012 78 10000 6.69 310 14:26 03.03.2022
2795 Clouds 5 1012 60 10000 7.2 300 12:35 03.03.2022
2796 Clouds 5 1012 79 10000 5.66 300 11:26 03.03.2022
2797 Clouds 5 1013 86 10000 4.12 300 10:38 03.03.2022
2798 Clouds 2 1012 88 10000 4.12 280 08:42 03.03.2022
2799 Clouds 2 1012 86 10000 4.12 300 06:57 03.03.2022
2800 Clouds 2 1012 86 10000 3.6 0 05:37 03.03.2022
2801 Clouds 2 1012 88 10000 5.66 320 00:30 03.03.2022
2802 Clouds 1 1013 92 10000 6.17 330 23:18 02.03.2022
2803 Clouds 2 1014 88 10000 5.14 320 22:42 02.03.2022
2804 Clouds 2 1014 92 10000 3.6 290 21:22 02.03.2022
2805 Clouds 2 1014 92 10000 2.06 310 20:30 02.03.2022
2806 Clouds 2 1015 88 10000 1.54 320 19:43 02.03.2022
2807 Clouds 2 1015 88 10000 3.09 310 19:24 02.03.2022
2808 Clouds 2 1015 88 10000 2.57 280 18:37 02.03.2022
2809 Clouds 2 1015 88 10000 2.57 280 17:45 02.03.2022
2810 Clouds 3 1015 86 10000 3.6 310 16:54 02.03.2022
2811 Clouds 3 1015 86 10000 3.6 290 16:18 02.03.2022
2812 Clouds 3 1016 83 10000 6.17 310 14:39 02.03.2022
2813 Clouds 3 1016 86 10000 6.69 340 13:18 02.03.2022
2814 Clouds 3 1016 89 10000 6.17 310 12:39 02.03.2022
2815 Clouds 3 1018 86 10000 5.66 300 11:28 02.03.2022
2816 Clouds 3 1018 88 10000 5.66 290 10:58 02.03.2022
2817 Clouds 2 1019 88 10000 5.66 280 09:40 02.03.2022
2818 Clouds 2 1019 88 10000 4.63 280 08:45 02.03.2022
2819 Clouds 0 1019 96 7000 4.63 280 07:24 02.03.2022
2820 Clouds 0 1019 92 10000 4.12 330 05:42 02.03.2022
2821 Clouds 0 1021 92 8000 4.63 300 00:51 02.03.2022
2822 Clouds 0 1022 92 10000 3.6 280 23:40 01.03.2022
2823 Clouds 0 1022 92 8000 4.12 290 22:42 01.03.2022
2824 Clouds 0 1023 88 10000 4.12 310 21:55 01.03.2022
2825 Clouds 0 1023 92 10000 3.09 340 20:44 01.03.2022
2826 Clouds 0 1023 88 10000 3.6 340 20:22 01.03.2022
2827 Clouds 0 1023 88 10000 3.6 340 18:59 01.03.2022
2828 Clouds 0 1023 88 10000 3.09 340 18:26 01.03.2022
2829 Clouds 1 1023 86 10000 4.63 330 17:55 01.03.2022
2830 Clouds 1 1023 88 10000 4.63 330 16:39 01.03.2022
2831 Clouds 1 1023 88 10000 6.17 320 15:49 01.03.2022
2832 Clouds 1 1023 88 10000 6.17 320 14:54 01.03.2022
2833 Clouds 1 1023 88 10000 6.17 320 14:33 01.03.2022
2834 Clouds 2 1023 86 10000 4.63 330 13:26 01.03.2022
2835 Clouds 2 1023 86 10000 4.63 320 12:38 01.03.2022
2836 Clouds 2 1023 85 10000 5.14 330 11:44 01.03.2022
2837 Clouds 1 1023 91 10000 4.12 310 09:53 01.03.2022
2838 Clouds 1 1023 92 10000 6.17 330 08:31 01.03.2022
2839 Clouds 1 1023 92 10000 4.63 310 07:32 01.03.2022
2840 Clouds 1 1022 92 10000 6.17 330 03:27 01.03.2022
2841 Clouds 1 1021 92 10000 7.72 350 00:49 01.03.2022
2842 Clouds 1 1020 92 10000 7.2 350 23:47 28.02.2022
2843 Clouds 1 1020 92 10000 8.75 350 22:50 28.02.2022
2844 Snow 1 1021 92 8000 8.23 350 21:48 28.02.2022
2845 Clouds 1 1020 92 7000 10.29 350 20:55 28.02.2022
2846 Snow 1 1020 92 7000 11.32 340 19:51 28.02.2022
2847 Snow 1 1020 92 8000 11.83 350 18:57 28.02.2022
2848 Snow 1 1019 92 2700 11.83 350 17:57 28.02.2022
2849 Snow 1 1019 92 2300 11.83 350 17:23 28.02.2022
2850 Clouds 1 1019 92 6000 11.32 350 16:32 28.02.2022
2851 Clouds 1 1018 92 7000 10.29 350 15:19 28.02.2022
2852 Clouds 1 1018 96 8000 10.8 350 14:29 28.02.2022
2853 Snow 2 1017 92 7000 12.86 360 13:24 28.02.2022
2854 Clouds 1 1016 100 6000 13.38 360 12:31 28.02.2022
2855 Snow 1 1017 96 1300 11.32 360 11:21 28.02.2022
2856 Snow 1 1017 96 1200 10.8 10 10:24 28.02.2022
2857 Snow 1 1017 96 1400 11.83 10 09:53 28.02.2022
2858 Snow 1 1017 96 2400 11.32 10 09:24 28.02.2022
2859 Snow 1 1017 96 2400 11.32 10 09:24 28.02.2022
2860 Snow 2 1017 92 7000 11.32 10 08:22 28.02.2022
2861 Snow 2 1017 92 7000 11.32 10 08:22 28.02.2022
2862 Snow 2 1016 92 10000 10.8 10 06:44 28.02.2022
2863 Snow 2 1017 96 10000 9.26 10 04:31 28.02.2022
2864 Rain 3 1017 96 9000 7.72 20 01:42 28.02.2022
2865 Rain 4 1019 89 10000 10.29 30 22:57 27.02.2022
2866 Rain 4 1019 89 10000 10.29 30 22:32 27.02.2022
2867 Rain 4 1020 89 10000 8.75 40 21:42 27.02.2022
2868 Clouds 5 1021 83 10000 7.2 40 20:51 27.02.2022
2869 Clouds 4 1022 86 10000 6.69 50 20:22 27.02.2022
2870 Clouds 5 1022 83 10000 5.66 50 19:50 27.02.2022
2871 Rain 5 1022 83 10000 5.66 60 19:24 27.02.2022
2872 Clouds 5 1022 83 10000 6.17 70 18:37 27.02.2022
2873 Clouds 5 1023 80 10000 6.69 70 17:53 27.02.2022
2874 Clouds 5 1022 83 10000 9.26 70 16:31 27.02.2022
2875 Clouds 6 1023 80 10000 7.72 50 15:39 27.02.2022
2876 Clouds 7 1024 80 10000 7.2 70 12:43 27.02.2022
2877 Clouds 7 1024 80 10000 8.75 70 12:25 27.02.2022
2878 Clouds 7 1025 80 10000 7.72 50 10:47 27.02.2022
2879 Clouds 6 1025 83 10000 6.69 70 09:58 27.02.2022
2880 Clouds 6 1026 83 10000 5.66 60 09:27 27.02.2022
2881 Clouds 6 1026 86 10000 4.63 70 08:54 27.02.2022
2882 Clouds 5 1025 89 10000 4.63 60 06:42 27.02.2022
2883 Clear 6 1025 86 10000 5.14 50 04:26 27.02.2022
2884 Clear 7 1025 83 10000 3.09 20 00:34 27.02.2022
2885 Clouds 6 1025 86 10000 1.03 280 22:50 26.02.2022
2886 Clear 6 1025 83 10000 0 0 21:34 26.02.2022
2887 Clear 6 1025 80 10000 1.54 130 20:43 26.02.2022
2888 Clouds 7 1024 78 10000 2.06 60 19:58 26.02.2022
2889 Clouds 7 1024 78 10000 2.06 60 19:33 26.02.2022
2890 Clear 7 1024 78 10000 2.57 60 18:40 26.02.2022
2891 Clear 6 1024 89 10000 3.09 110 17:38 26.02.2022
2892 Clear 8 1023 83 10000 4.63 130 16:48 26.02.2022
2893 Clear 9 1022 78 10000 6.17 130 15:45 26.02.2022
2894 Clear 10 1021 75 10000 5.66 130 15:20 26.02.2022
2895 Clear 11 1021 75 10000 5.14 130 14:51 26.02.2022
2896 Clear 11 1021 75 10000 5.66 130 14:24 26.02.2022
2897 Clear 11 1021 50 10000 4.63 150 12:59 26.02.2022
2898 Clear 11 1021 43 10000 3.6 90 11:54 26.02.2022
2899 Clear 11 1021 43 10000 3.09 30 11:27 26.02.2022
2900 Clear 10 1021 73 10000 0.51 0 10:22 26.02.2022
2901 Clear 7 1021 79 10000 2.06 270 08:35 26.02.2022
2902 Clear 4 1020 79 10000 2.57 320 06:40 26.02.2022
2903 Clear 3 1018 86 10000 1.03 0 00:25 26.02.2022
2904 Clear 5 1018 83 10000 1.03 310 22:43 25.02.2022
2905 Clear 6 1018 78 10000 2.57 320 21:33 25.02.2022
2906 Clear 6 1018 78 10000 2.57 320 20:57 25.02.2022
2907 Clear 6 1017 78 10000 1.03 0 20:27 25.02.2022
2908 Clear 7 1017 78 10000 2.06 340 18:18 25.02.2022
2909 Clear 9 1016 71 10000 3.6 320 17:20 25.02.2022
2910 Clear 11 1016 68 10000 5.14 310 16:19 25.02.2022
2911 Clouds 11 1016 69 10000 5.14 300 15:24 25.02.2022
2912 Clouds 11 1016 69 10000 5.14 300 15:24 25.02.2022
2913 Clouds 11 1016 69 10000 6.17 310 14:56 25.02.2022
2914 Clouds 11 1016 69 10000 6.17 310 14:37 25.02.2022
2915 Clouds 11 1016 72 10000 5.14 310 13:30 25.02.2022
2916 Clouds 10 1017 50 10000 6.17 310 12:33 25.02.2022
2917 Clouds 8 1018 57 10000 5.66 320 11:22 25.02.2022
2918 Clouds 8 1018 78 10000 4.12 330 10:24 25.02.2022
2919 Clear 7 1019 80 10000 4.12 330 09:51 25.02.2022
2920 Clear 5 1019 83 10000 3.6 280 08:42 25.02.2022
2921 Clear 4 1019 86 10000 3.09 260 07:35 25.02.2022
2922 Clear 3 1018 86 10000 3.09 280 05:43 25.02.2022
2923 Clear 4 1019 86 10000 3.6 270 02:48 25.02.2022
2924 Clear 6 1020 80 10000 4.12 20 22:48 24.02.2022
2925 Clear 6 1020 78 10000 5.14 30 21:51 24.02.2022
2926 Clear 6 1020 78 10000 3.6 10 21:31 24.02.2022
2927 Clear 7 1021 78 10000 4.12 360 20:47 24.02.2022
2928 Clear 7 1021 80 10000 3.6 360 19:32 24.02.2022
2929 Clear 7 1021 83 10000 4.63 30 18:21 24.02.2022
2930 Clear 7 1021 83 10000 4.63 30 17:58 24.02.2022
2931 Clear 7 1021 83 10000 4.63 30 17:33 24.02.2022
2932 Clear 8 1020 83 10000 4.63 10 16:28 24.02.2022
2933 Clear 8 1020 80 10000 7.2 10 15:44 24.02.2022
2934 Clouds 8 1020 78 10000 8.23 10 14:50 24.02.2022
2935 Clouds 8 1021 83 10000 7.72 10 14:19 24.02.2022
2936 Clouds 8 1021 83 10000 8.75 10 13:39 24.02.2022
2937 Clouds 8 1021 83 10000 8.75 10 13:39 24.02.2022
2938 Clouds 6 1022 86 10000 8.75 10 11:56 24.02.2022
2939 Clouds 6 1022 89 10000 7.72 10 10:34 24.02.2022
2940 Clouds 6 1022 89 10000 6.69 10 08:44 24.02.2022
2941 Clouds 5 1021 92 10000 4.63 10 07:26 24.02.2022
2942 Clouds 5 1020 92 10000 3.09 10 05:43 24.02.2022
2943 Rain 6 1020 100 8000 1.54 340 00:32 24.02.2022
2944 Clouds 6 1020 92 10000 1.03 0 22:25 23.02.2022
2945 Clouds 7 1020 86 10000 3.09 260 20:51 23.02.2022
2946 Clouds 7 1020 89 10000 2.06 0 20:30 23.02.2022
2947 Clouds 8 1020 86 10000 2.57 260 19:36 23.02.2022
2948 Clear 8 1020 83 10000 4.12 310 18:27 23.02.2022
2949 Clear 8 1019 83 10000 5.14 330 16:43 23.02.2022
2950 Clear 10 1018 74 10000 3.6 350 14:33 23.02.2022
2951 Clear 10 1019 75 10000 3.09 340 12:37 23.02.2022
2952 Clouds 9 1019 75 10000 2.57 340 11:23 23.02.2022
2953 Clouds 8 1019 80 10000 3.09 290 10:24 23.02.2022
2954 Clear 7 1018 83 10000 2.06 290 08:56 23.02.2022
2955 Clear 7 1017 86 10000 3.6 280 07:56 23.02.2022
2956 Clouds 7 1015 89 10000 3.09 310 03:29 23.02.2022
2957 Clouds 8 1013 89 10000 2.06 280 00:18 23.02.2022
2958 Rain 8 1013 89 10000 1.54 290 23:34 22.02.2022
2959 Rain 8 1012 86 10000 3.09 310 22:28 22.02.2022
2960 Clouds 9 1012 86 10000 3.6 320 21:48 22.02.2022
2961 Rain 9 1011 86 10000 2.06 230 21:24 22.02.2022
2962 Rain 9 1011 83 10000 2.06 0 20:47 22.02.2022
2963 Clouds 10 1010 83 10000 5.66 360 20:28 22.02.2022
2964 Clouds 11 1009 78 10000 6.17 360 19:34 22.02.2022
2965 Clouds 11 1008 78 10000 5.14 350 18:50 22.02.2022
2966 Clouds 13 1008 81 10000 5.14 10 17:36 22.02.2022
2967 Clouds 14 1006 78 10000 6.69 360 16:58 22.02.2022
2968 Clouds 14 1006 76 10000 6.17 350 16:26 22.02.2022
2969 Clouds 15 1005 79 10000 2.06 0 15:36 22.02.2022
2970 Clouds 16 1004 79 10000 2.57 120 14:37 22.02.2022
2971 Clouds 16 1004 59 10000 2.57 280 11:41 22.02.2022
2972 Clouds 14 1005 67 10000 2.06 230 10:22 22.02.2022
2973 Mist 7 1004 100 3200 1.03 0 07:41 22.02.2022
2974 Mist 7 1004 100 1800 1.54 270 07:23 22.02.2022
2975 Mist 6 1004 100 3800 0 0 02:51 22.02.2022
2976 Mist 6 1006 100 5000 1.54 120 23:48 21.02.2022
2977 Mist 6 1007 100 5000 1.54 100 22:37 21.02.2022
2978 Mist 6 1007 96 5000 2.06 90 21:23 21.02.2022
2979 Clear 6 1008 96 8000 3.09 90 19:36 21.02.2022
2980 Clear 6 1008 96 10000 4.12 90 18:39 21.02.2022
2981 Clear 9 1009 83 10000 5.14 100 16:37 21.02.2022
2982 Clouds 13 1010 78 10000 7.2 100 14:24 21.02.2022
2983 Clouds 13 1010 78 10000 6.69 110 13:54 21.02.2022
2984 Clouds 13 1011 76 10000 5.14 130 12:57 21.02.2022
2985 Clouds 12 1012 58 10000 4.12 140 12:21 21.02.2022
2986 Clouds 10 1014 66 10000 1.54 200 10:31 21.02.2022
2987 Clear 7 1015 89 9000 0.51 0 07:52 21.02.2022
2988 Clear 6 1017 86 10000 5.66 300 00:36 21.02.2022
2989 Clear 7 1016 86 10000 2.57 230 22:37 20.02.2022
2990 Clouds 7 1016 86 10000 1.54 220 21:44 20.02.2022
2991 Clear 7 1016 85 10000 0 0 21:25 20.02.2022
2992 Clear 7 1016 86 10000 1.03 0 20:45 20.02.2022
2993 Clear 7 1016 86 10000 1.54 270 19:51 20.02.2022
2994 Clear 7 1016 86 10000 1.03 310 18:57 20.02.2022
2995 Clear 7 1015 89 10000 2.06 120 18:37 20.02.2022
2996 Clear 8 1015 83 10000 0 0 17:56 20.02.2022
2997 Clear 9 1015 80 10000 0 0 17:24 20.02.2022
2998 Clear 11 1015 76 10000 3.09 150 15:28 20.02.2022
2999 Clear 12 1016 71 10000 4.63 150 13:59 20.02.2022
3000 Clear 12 1016 69 10000 4.63 90 12:47 20.02.2022
3001 Clear 11 1017 69 10000 4.12 90 11:55 20.02.2022
3002 Clear 11 1018 69 10000 4.12 90 10:21 20.02.2022
3003 Clear 11 1018 71 10000 3.6 90 09:35 20.02.2022
3004 Clear 7 1017 83 10000 1.54 310 06:29 20.02.2022
3005 Clear 8 1017 78 10000 2.06 300 00:32 20.02.2022
3006 Clear 8 1017 75 10000 2.57 330 23:33 19.02.2022
3007 Clear 9 1017 72 10000 2.06 340 22:24 19.02.2022
3008 Clear 9 1017 72 10000 2.57 340 21:45 19.02.2022
3009 Clear 8 1017 75 10000 2.06 340 20:26 19.02.2022
3010 Clear 9 1016 72 10000 0 0 19:34 19.02.2022
3011 Clear 11 1016 62 10000 1.54 140 18:40 19.02.2022
3012 Clear 12 1016 58 10000 2.57 230 17:57 19.02.2022
3013 Clear 13 1015 49 10000 2.06 200 16:47 19.02.2022
3014 Clear 15 1015 43 10000 5.66 220 15:59 19.02.2022
3015 Clear 16 1015 27 10000 5.14 210 14:53 19.02.2022
3016 Clear 15 1016 27 10000 4.63 220 13:55 19.02.2022
3017 Clear 13 1017 28 10000 5.66 200 11:42 19.02.2022
3018 Clear 11 1018 37 10000 4.12 190 10:45 19.02.2022
3019 Clear 7 1019 70 10000 0 0 08:54 19.02.2022
3020 Fog 0 1019 100 8000 1.03 350 06:45 19.02.2022
3021 Clear 1 1018 93 10000 0.51 0 23:55 18.02.2022
3022 Clear 2 1018 93 10000 1.03 0 22:24 18.02.2022
3023 Clear 2 1018 93 10000 0 0 21:18 18.02.2022
3024 Clear 1 1017 93 10000 2.06 310 19:56 18.02.2022
3025 Clear 3 1016 87 10000 2.06 10 18:50 18.02.2022
3026 Clear 4 1016 93 10000 0.51 0 18:24 18.02.2022
3027 Clear 5 1015 81 10000 2.06 140 17:55 18.02.2022
3028 Clear 9 1013 61 10000 6.69 20 15:23 18.02.2022
3029 Clouds 10 1011 57 10000 5.14 10 13:56 18.02.2022
3030 Clouds 11 1010 50 10000 5.66 20 13:25 18.02.2022
3031 Clouds 13 1010 35 10000 8.75 310 12:40 18.02.2022
3032 Clouds 11 1010 43 10000 8.75 320 11:40 18.02.2022
3033 Clouds 12 1009 40 10000 9.26 300 10:23 18.02.2022
3034 Clouds 11 1005 54 10000 13.89 270 06:57 18.02.2022
3035 Clear 11 1004 58 10000 10.8 290 05:41 18.02.2022
3036 Clear 11 1003 71 10000 3.09 290 23:34 17.02.2022
3037 Clear 12 1003 66 10000 3.09 290 21:46 17.02.2022
3038 Clear 12 1003 66 10000 3.09 300 21:20 17.02.2022
3039 Rain 13 1003 62 10000 1.54 260 20:39 17.02.2022
3040 Rain 12 1004 62 10000 1.54 320 19:50 17.02.2022
3041 Clouds 12 1004 62 10000 1.54 290 18:52 17.02.2022
3042 Clear 12 1004 58 10000 3.09 320 17:55 17.02.2022
3043 Clear 14 1004 51 10000 4.12 240 16:42 17.02.2022
3044 Clear 15 1005 48 10000 6.17 240 15:38 17.02.2022
3045 Clear 17 1006 48 10000 7.72 230 14:26 17.02.2022
3046 Clear 16 1008 45 10000 8.23 230 12:38 17.02.2022
3047 Clear 14 1009 55 10000 4.63 250 11:23 17.02.2022
3048 Mist 9 1011 81 3500 0 0 08:53 17.02.2022
3049 Mist 5 1013 93 4600 0 0 02:26 17.02.2022
3050 Clouds 5 1014 93 7000 1.54 330 23:21 16.02.2022
3051 Clouds 6 1015 87 9000 2.06 50 21:40 16.02.2022
3052 Clear 6 1015 93 10000 3.09 120 19:47 16.02.2022
3053 Clear 7 1016 81 10000 3.09 100 18:38 16.02.2022
3054 Clear 7 1016 81 10000 3.09 110 17:53 16.02.2022
3055 Clear 11 1016 58 10000 4.63 110 15:39 16.02.2022
3056 Clear 11 1016 58 10000 4.63 110 15:18 16.02.2022
3057 Clear 12 1017 62 10000 5.14 110 12:59 16.02.2022
3058 Clear 11 1018 62 10000 2.57 140 11:58 16.02.2022
3059 Clear 12 1019 62 10000 1.54 0 11:24 16.02.2022
3060 Clear 9 1019 71 10000 1.54 140 10:33 16.02.2022
3061 Mist 2 1020 100 4000 1.03 330 07:21 16.02.2022
3062 Clear 2 1020 93 8000 1.54 10 05:20 16.02.2022
3063 Clear 3 1021 93 10000 1.03 0 23:44 15.02.2022
3064 Clear 4 1021 87 10000 1.54 40 22:28 15.02.2022
3065 Clear 4 1021 87 10000 0 0 21:46 15.02.2022
3066 Clear 4 1021 87 10000 1.03 70 21:27 15.02.2022
3067 Clear 4 1021 93 10000 1.54 70 20:55 15.02.2022
3068 Clear 4 1021 87 10000 3.6 90 19:57 15.02.2022
3069 Clear 5 1021 87 10000 3.6 110 18:52 15.02.2022
3070 Clear 5 1021 93 10000 4.12 100 18:20 15.02.2022
3071 Clear 5 1021 87 10000 4.12 100 17:48 15.02.2022
3072 Clear 7 1020 81 10000 6.17 100 16:32 15.02.2022
3073 Clear 10 1020 66 10000 5.14 100 15:22 15.02.2022
3074 Clear 10 1020 54 10000 4.63 120 13:26 15.02.2022
3075 Clear 10 1021 54 10000 1.54 0 11:57 15.02.2022
3076 Clear 7 1022 66 10000 1.54 0 10:59 15.02.2022
3077 Clear 6 1023 75 10000 0 0 09:28 15.02.2022
3078 Clouds -1 1023 100 7000 1.54 20 06:50 15.02.2022
3079 Clear 1 1022 93 10000 1.03 90 02:36 15.02.2022
3080 Clouds 2 1024 100 10000 2.06 110 22:25 14.02.2022
3081 Clouds 2 1024 100 10000 1.03 0 21:27 14.02.2022
3082 Clouds 1 1024 93 10000 2.57 100 20:24 14.02.2022
3083 Clouds 3 1024 93 10000 1.54 80 19:30 14.02.2022
3084 Clouds 2 1024 93 10000 2.57 120 18:27 14.02.2022
3085 Clouds 3 1024 87 10000 3.6 110 17:43 14.02.2022
3086 Clouds 3 1024 87 10000 3.6 110 17:43 14.02.2022
3087 Clouds 3 1024 87 10000 3.6 110 17:24 14.02.2022
3088 Clouds 5 1024 81 10000 3.6 120 15:58 14.02.2022
3089 Clouds 6 1024 70 10000 3.6 130 13:40 14.02.2022
3090 Clouds 6 1024 70 10000 3.6 130 13:22 14.02.2022
3091 Clouds 6 1024 75 10000 3.09 120 12:32 14.02.2022
3092 Clouds 6 1025 87 10000 3.6 130 11:47 14.02.2022
3093 Clouds 6 1025 81 10000 1.54 200 10:25 14.02.2022
3094 Drizzle 3 1026 100 9000 0 0 08:34 14.02.2022
3095 Mist 2 1026 100 2600 0 0 07:26 14.02.2022
3096 Clouds 4 1027 81 10000 3.6 40 23:37 13.02.2022
3097 Clouds 4 1028 75 10000 1.54 190 22:41 13.02.2022
3098 Clouds 4 1028 75 10000 2.06 40 22:23 13.02.2022
3099 Clouds 4 1028 75 10000 2.06 40 21:27 13.02.2022
3100 Clouds 4 1028 75 10000 5.14 40 20:30 13.02.2022
3101 Clouds 4 1029 75 10000 1.03 0 19:24 13.02.2022
3102 Clouds 4 1029 70 10000 0 0 18:42 13.02.2022
3103 Clouds 4 1029 70 10000 4.12 100 17:52 13.02.2022
3104 Clouds 6 1030 61 10000 5.14 90 15:54 13.02.2022
3105 Clouds 6 1030 61 10000 5.66 100 14:57 13.02.2022
3106 Clouds 7 1030 53 10000 5.66 80 13:42 13.02.2022
3107 Clouds 7 1031 57 10000 6.17 90 12:49 13.02.2022
3108 Clouds 6 1033 61 10000 6.17 70 10:50 13.02.2022
3109 Clouds 6 1033 70 10000 6.17 50 10:27 13.02.2022
3110 Clouds 4 1033 81 10000 5.66 40 08:59 13.02.2022
3111 Clouds 1 1033 86 10000 6.17 30 05:27 13.02.2022
3112 Clear 3 1035 70 10000 3.6 30 00:34 13.02.2022
3113 Clear 4 1035 56 10000 3.09 60 22:58 12.02.2022
3114 Clear 5 1035 56 10000 3.09 60 22:33 12.02.2022
3115 Clear 6 1034 52 10000 2.06 50 21:18 12.02.2022
3116 Clear 6 1034 56 10000 2.06 40 20:25 12.02.2022
3117 Clear 6 1033 65 10000 2.57 20 18:54 12.02.2022
3118 Clear 7 1032 61 10000 2.57 20 18:36 12.02.2022
3119 Clear 7 1032 61 10000 4.12 30 17:55 12.02.2022
3120 Clear 8 1031 57 10000 2.57 360 16:55 12.02.2022
3121 Clear 9 1030 53 10000 4.12 360 16:25 12.02.2022
3122 Clouds 9 1029 53 10000 4.63 10 15:32 12.02.2022
3123 Clouds 10 1029 53 10000 5.66 20 14:30 12.02.2022
3124 Clouds 10 1027 57 10000 4.63 20 12:26 12.02.2022
3125 Clouds 10 1026 62 10000 9.26 310 10:34 12.02.2022
3126 Clear 11 1025 58 10000 6.17 280 09:38 12.02.2022
3127 Clear 9 1024 66 10000 6.17 290 08:48 12.02.2022
3128 Clear 8 1024 66 10000 4.12 290 07:50 12.02.2022
3129 Clouds 3 1022 86 7000 0.51 0 05:31 12.02.2022
3130 Clear 4 1021 87 6000 0 0 02:20 12.02.2022
3131 Clear 4 1021 81 10000 0.51 0 00:31 12.02.2022
3132 Clear 5 1021 75 10000 0 0 22:24 11.02.2022
3133 Clear 5 1021 75 10000 0 0 21:43 11.02.2022
3134 Clear 7 1020 65 10000 1.54 10 20:37 11.02.2022
3135 Clear 7 1020 65 10000 0 0 19:31 11.02.2022
3136 Clear 8 1020 61 10000 1.54 60 18:47 11.02.2022
3137 Clear 13 1019 44 10000 2.06 320 17:27 11.02.2022
3138 Clear 14 1019 38 10000 3.6 270 16:56 11.02.2022
3139 Clear 16 1019 34 10000 6.69 280 15:26 11.02.2022
3140 Clear 17 1019 34 10000 7.2 280 14:38 11.02.2022
3141 Clear 17 1019 34 10000 7.2 280 14:20 11.02.2022
3142 Clear 16 1019 36 10000 6.17 250 13:47 11.02.2022
3143 Clear 17 1019 32 10000 4.63 240 13:28 11.02.2022
3144 Clear 12 1021 50 10000 3.09 260 11:26 11.02.2022
3145 Clear 10 1021 61 10000 2.06 310 09:38 11.02.2022
3146 Clear 8 1022 65 10000 3.09 290 08:36 11.02.2022
3147 Clear 3 1022 80 10000 2.06 310 07:47 11.02.2022
3148 Clear 1 1022 86 10000 1.54 320 06:30 11.02.2022
3149 Clear 2 1022 80 10000 1.03 10 02:24 11.02.2022
3150 Clear 3 1023 75 10000 1.54 50 00:44 11.02.2022
3151 Clear 4 1025 65 10000 2.57 80 22:39 10.02.2022
3152 Clear 4 1025 65 10000 1.54 80 21:43 10.02.2022
3153 Clear 5 1025 56 10000 0.51 0 20:50 10.02.2022
3154 Clear 5 1025 60 10000 1.54 90 19:59 10.02.2022
3155 Clear 6 1025 56 10000 2.06 120 19:23 10.02.2022
3156 Clear 6 1026 56 10000 2.57 90 18:33 10.02.2022
3157 Clear 7 1025 53 10000 3.09 100 17:23 10.02.2022
3158 Clear 7 1025 57 10000 4.12 100 16:43 10.02.2022
3159 Clear 12 1026 43 10000 3.6 90 15:41 10.02.2022
3160 Clear 13 1026 41 10000 3.09 230 15:21 10.02.2022
3161 Clear 13 1026 41 10000 4.12 220 14:35 10.02.2022
3162 Clear 12 1026 43 10000 4.12 210 13:56 10.02.2022
3163 Clear 12 1026 43 10000 3.6 220 13:19 10.02.2022
3164 Clear 12 1027 47 10000 3.6 230 11:53 10.02.2022
3165 Clear 12 1027 47 10000 3.6 230 11:32 10.02.2022
3166 Clear 9 1028 61 10000 3.6 240 10:23 10.02.2022
3167 Clear 8 1028 65 10000 3.09 240 09:44 10.02.2022
3168 Clear 4 1028 81 9000 0 0 08:40 10.02.2022
3169 Clear 0 1027 93 7000 0 0 06:33 10.02.2022
3170 Clear 1 1027 86 10000 0 0 02:43 10.02.2022
3171 Clear 1 1027 93 10000 2.57 260 00:53 10.02.2022
3172 Clear 1 1027 80 10000 0 0 00:30 10.02.2022
3173 Clear 1 1027 80 10000 0.51 0 23:58 09.02.2022
3174 Clear 1 1026 80 10000 1.03 0 22:54 09.02.2022
3175 Clear 2 1026 75 10000 1.54 300 22:30 09.02.2022
3176 Clear 2 1026 80 10000 2.06 270 21:46 09.02.2022
3177 Clear 1 1026 86 10000 1.54 280 21:26 09.02.2022
3178 Clear 2 1028 80 10000 2.06 240 20:42 09.02.2022
3179 Clear 5 1026 65 10000 3.09 360 20:22 09.02.2022
3180 Clear 5 1025 70 10000 3.09 360 19:39 09.02.2022
3181 Clear 4 1025 70 10000 3.6 10 18:31 09.02.2022
3182 Clouds 9 1024 49 10000 3.6 330 16:54 09.02.2022
3183 Clouds 10 1023 46 10000 5.14 330 15:56 09.02.2022
3184 Clouds 10 1023 46 10000 7.2 310 15:22 09.02.2022
3185 Clouds 10 1023 46 10000 7.2 310 15:22 09.02.2022
3186 Clouds 8 1022 49 10000 7.72 320 12:42 09.02.2022
3187 Clouds 6 1022 56 10000 7.72 300 11:23 09.02.2022
3188 Clouds 7 1023 49 10000 6.17 280 10:33 09.02.2022
3189 Clouds 5 1022 60 10000 6.17 250 09:45 09.02.2022
3190 Clear 3 1022 65 10000 4.12 270 09:20 09.02.2022
3191 Clear 2 1022 69 10000 5.14 270 08:43 09.02.2022
3192 Clear -1 1021 74 10000 1.03 0 05:37 09.02.2022
3193 Clear 0 1021 74 10000 1.54 260 03:51 09.02.2022
3194 Clear 1 1020 75 10000 5.14 340 01:33 09.02.2022
3195 Clear 2 1019 69 10000 6.69 340 23:39 08.02.2022
3196 Clear 2 1019 69 10000 5.66 340 22:53 08.02.2022
3197 Clear 2 1019 69 10000 5.66 340 22:22 08.02.2022
3198 Clear 2 1019 69 10000 3.6 330 21:52 08.02.2022
3199 Clear 3 1019 65 10000 3.6 340 21:21 08.02.2022
3200 Clear 3 1019 60 10000 3.6 10 20:55 08.02.2022
3201 Clear 4 1019 56 10000 4.63 10 20:23 08.02.2022
3202 Clear 4 1016 56 10000 7.72 360 18:53 08.02.2022
3203 Clear 4 1016 56 10000 6.17 350 17:50 08.02.2022
3204 Clouds 5 1015 52 10000 8.75 350 16:35 08.02.2022
3205 Clouds 6 1014 52 10000 8.23 350 15:39 08.02.2022
3206 Clouds 6 1012 52 10000 13.38 360 14:56 08.02.2022
3207 Clouds 5 1010 60 10000 16.46 360 13:29 08.02.2022
3208 Clouds 5 1010 65 10000 15.95 360 12:18 08.02.2022
3209 Clouds 4 1009 70 10000 18.01 360 10:39 08.02.2022
3210 Clouds 4 1009 70 10000 15.43 360 09:45 08.02.2022
3211 Clouds 4 1008 70 10000 14.92 360 08:25 08.02.2022
3212 Clouds 4 1006 75 10000 10.8 360 05:41 08.02.2022
3213 Clouds 4 1005 81 10000 9.77 360 04:39 08.02.2022
3214 Rain 3 1006 87 10000 5.14 340 04:21 08.02.2022
3215 Rain 3 1006 87 10000 4.12 310 03:36 08.02.2022
3216 Rain 3 1006 93 10000 5.14 300 03:18 08.02.2022
3217 Rain 4 1006 87 10000 8.23 290 02:59 08.02.2022
3218 Rain 4 1006 87 10000 8.23 290 02:36 08.02.2022
3219 Rain 5 1005 81 10000 6.69 270 02:18 08.02.2022
3220 Clouds 5 1005 81 10000 8.75 270 01:44 08.02.2022
3221 Clouds 5 1005 81 10000 9.26 280 01:24 08.02.2022
3222 Clouds 6 1004 81 10000 12.35 290 00:55 08.02.2022
3223 Clouds 6 1004 81 10000 11.32 280 23:57 07.02.2022
3224 Clouds 7 1004 81 10000 11.32 280 23:39 07.02.2022
3225 Clouds 8 1004 76 10000 4.12 270 23:18 07.02.2022
3226 Clouds 8 1003 76 10000 2.06 240 22:42 07.02.2022
3227 Clouds 8 1003 76 10000 3.6 280 22:18 07.02.2022
3228 Clouds 8 1003 76 10000 2.57 250 21:43 07.02.2022
3229 Clouds 9 1003 71 10000 4.63 340 21:25 07.02.2022
3230 Clouds 9 1003 71 10000 4.63 350 20:41 07.02.2022
3231 Rain 9 1003 71 10000 3.09 340 19:54 07.02.2022
3232 Clear 8 1003 71 10000 1.54 20 19:36 07.02.2022
3233 Clear 8 1003 71 10000 1.54 50 18:18 07.02.2022
3234 Clear 11 1003 58 10000 1.54 230 16:53 07.02.2022
3235 Clear 12 1004 54 10000 2.06 220 15:49 07.02.2022
3236 Clear 12 1004 54 10000 3.09 220 14:56 07.02.2022
3237 Clear 13 1005 47 10000 5.66 220 13:28 07.02.2022
3238 Clear 13 1006 50 10000 6.17 250 12:52 07.02.2022
3239 Clear 12 1006 54 10000 4.63 240 11:58 07.02.2022
3240 Clear 11 1007 62 10000 2.06 250 11:36 07.02.2022
3241 Clear 10 1008 66 10000 1.54 310 10:51 07.02.2022
3242 Clear 10 1009 66 10000 1.54 310 10:31 07.02.2022
3243 Clear 9 1008 71 10000 0.51 0 09:53 07.02.2022
3244 Clear 8 1009 76 10000 2.06 290 09:18 07.02.2022
3245 Clear 7 1009 81 10000 2.06 330 08:38 07.02.2022
3246 Clear 1 1009 93 10000 2.06 10 06:58 07.02.2022
3247 Clear 0 1010 93 10000 1.03 0 06:34 07.02.2022
3248 Clear 0 1013 93 10000 1.03 0 02:59 07.02.2022
3249 Clear 1 1014 93 10000 2.57 110 00:45 07.02.2022
3250 Clear 1 1014 93 10000 2.57 110 00:45 07.02.2022
3251 Clear 3 1016 80 10000 2.06 360 23:47 06.02.2022
3252 Clear 2 1017 80 10000 1.03 0 22:48 06.02.2022
3253 Clear 2 1018 86 10000 2.57 360 21:54 06.02.2022
3254 Clear 2 1018 86 10000 2.57 360 21:35 06.02.2022
3255 Clear 2 1019 86 10000 2.57 20 20:54 06.02.2022
3256 Clear 2 1019 86 10000 2.57 20 20:31 06.02.2022
3257 Clear 3 1019 87 10000 1.03 90 19:37 06.02.2022
3258 Clear 4 1020 75 10000 1.54 90 18:38 06.02.2022
3259 Clear 4 1020 81 10000 3.09 80 17:55 06.02.2022
3260 Clear 5 1020 81 10000 4.63 100 16:56 06.02.2022
3261 Clear 9 1020 32 10000 3.6 100 16:38 06.02.2022
3262 Clear 10 1020 30 10000 4.63 280 15:47 06.02.2022
3263 Clear 10 1020 28 10000 5.14 270 15:26 06.02.2022
3264 Clear 10 1021 35 10000 5.14 240 14:33 06.02.2022
3265 Clouds 10 1021 46 10000 2.06 250 13:25 06.02.2022
3266 Clouds 9 1022 53 10000 4.12 240 12:49 06.02.2022
3267 Clear 8 1023 61 10000 2.57 220 11:23 06.02.2022
3268 Clear 7 1024 65 10000 1.54 280 09:56 06.02.2022
3269 Clear 5 1024 75 10000 2.57 270 08:47 06.02.2022
3270 Clear 2 1023 80 10000 3.6 310 07:36 06.02.2022
3271 Clear 1 1022 86 10000 2.57 280 05:29 06.02.2022
3272 Clear 3 1020 81 10000 3.6 280 02:26 06.02.2022
3273 Clear 5 1019 75 10000 4.12 270 01:32 06.02.2022
3274 Clear 5 1019 75 10000 3.6 270 00:24 06.02.2022
3275 Clear 4 1017 81 10000 2.06 320 22:19 05.02.2022
3276 Clear 5 1017 75 10000 1.54 290 20:52 05.02.2022
3277 Clear 4 1017 81 10000 1.54 320 20:24 05.02.2022
3278 Clear 5 1016 70 10000 0 0 19:45 05.02.2022
3279 Clear 5 1016 65 10000 2.06 120 18:49 05.02.2022
3280 Clear 7 1015 61 10000 0 0 17:37 05.02.2022
3281 Clear 9 1015 49 10000 2.06 310 16:37 05.02.2022
3282 Clear 11 1015 43 10000 4.63 280 15:33 05.02.2022
3283 Clear 11 1017 40 10000 4.63 300 14:40 05.02.2022
3284 Clear 11 1015 35 10000 4.63 240 12:46 05.02.2022
3285 Clear 9 1016 46 10000 5.66 250 11:47 05.02.2022
3286 Clear 7 1017 61 10000 1.54 0 10:46 05.02.2022
3287 Clouds 5 1017 70 9000 2.57 250 09:51 05.02.2022
3288 Clear 4 1017 75 10000 2.06 260 09:23 05.02.2022
3289 Clear 0 1017 86 10000 1.54 320 07:36 05.02.2022
3290 Clear -2 1017 86 10000 2.06 320 06:56 05.02.2022
3291 Clear -1 1017 86 10000 1.54 50 03:22 05.02.2022
3292 Clear -1 1018 86 10000 1.54 30 01:18 05.02.2022
3293 Clear -1 1018 86 10000 1.54 360 00:39 05.02.2022
3294 Clear -1 1018 86 10000 1.54 110 23:33 04.02.2022
3295 Clear -1 1019 86 10000 1.03 0 22:55 04.02.2022
3296 Clear 0 1019 80 10000 2.06 40 21:36 04.02.2022
3297 Clear 0 1019 80 10000 2.06 40 21:18 04.02.2022
3298 Clear 0 1019 80 10000 1.03 0 20:40 04.02.2022
3299 Clear 1 1020 75 10000 1.54 360 19:29 04.02.2022
3300 Clear 4 1019 56 10000 2.57 310 16:56 04.02.2022
3301 Clear 6 1019 45 10000 5.66 290 15:34 04.02.2022
3302 Clear 7 1020 42 10000 6.17 280 14:51 04.02.2022
3303 Clear 6 1020 49 10000 5.14 280 12:43 04.02.2022
3304 Clear 5 1021 52 10000 4.12 270 11:46 04.02.2022
3305 Clear 4 1022 48 10000 4.63 250 10:59 04.02.2022
3306 Clear 4 1022 48 10000 4.12 260 10:22 04.02.2022
3307 Clear 0 1022 64 10000 0 0 08:31 04.02.2022
3308 Clear -1 1021 64 10000 1.54 280 04:45 04.02.2022
3309 Clear 1 1021 60 10000 4.12 360 02:38 04.02.2022
3310 Clear 3 1020 65 10000 2.06 0 23:56 03.02.2022
3311 Clear 3 1020 70 10000 3.09 320 22:51 03.02.2022
3312 Clear 3 1019 65 10000 4.63 360 21:58 03.02.2022
3313 Clear 3 1019 70 10000 3.6 350 21:29 03.02.2022
3314 Clear 4 1019 65 10000 4.12 360 20:22 03.02.2022
3315 Clear 4 1019 65 10000 4.12 360 20:22 03.02.2022
3316 Clear 4 1018 65 10000 3.6 360 19:46 03.02.2022
3317 Clouds 4 1018 70 10000 3.09 340 18:56 03.02.2022
3318 Clouds 4 1018 70 10000 1.54 340 17:59 03.02.2022
3319 Clouds 5 1017 65 10000 2.06 300 16:55 03.02.2022
3320 Clear 6 1016 65 10000 4.63 350 15:28 03.02.2022
3321 Clear 6 1015 61 10000 5.14 350 13:50 03.02.2022
3322 Clear 6 1014 61 10000 4.63 10 12:22 03.02.2022
3323 Clear 2 1012 75 10000 3.09 300 08:56 03.02.2022
3324 Clear 1 1012 80 10000 3.09 280 07:41 03.02.2022
3325 Mist 1 1008 93 4600 0.51 320 00:47 03.02.2022
3326 Mist 1 1008 100 5000 1.54 290 00:22 03.02.2022
3327 Mist 1 1008 100 3800 0 0 22:38 02.02.2022
3328 Mist 1 1007 100 2200 1.54 230 21:45 02.02.2022
3329 Mist 1 1007 100 4500 0 0 21:27 02.02.2022
3330 Mist 1 1007 100 4900 1.54 300 20:20 02.02.2022
3331 Mist 1 1007 100 3900 1.54 280 19:45 02.02.2022
3332 Clouds 1 1007 100 3600 1.03 0 18:55 02.02.2022
3333 Snow 0 1007 100 2800 0 0 18:23 02.02.2022
3334 Snow 1 1007 100 2400 1.54 290 17:20 02.02.2022
3335 Clouds 1 1006 100 3000 1.54 280 16:48 02.02.2022
3336 Snow 1 1006 100 3500 2.06 250 14:21 02.02.2022
3337 Snow 1 1007 93 1400 2.57 250 12:29 02.02.2022
3338 Snow 1 1007 100 7000 2.57 240 11:42 02.02.2022
3339 Snow 2 1007 93 4300 3.6 280 11:23 02.02.2022
3340 Clouds 1 1007 93 10000 3.6 280 07:59 02.02.2022
3341 Rain 2 1008 93 9000 5.14 250 01:37 02.02.2022
3342 Clouds 3 1008 93 10000 3.09 280 22:29 01.02.2022
3343 Clouds 3 1008 93 10000 2.57 280 20:49 01.02.2022
3344 Clouds 3 1008 96 10000 3.09 310 18:55 01.02.2022
3345 Rain 4 1007 100 6000 2.57 280 16:44 01.02.2022
3346 Clouds 6 1006 96 8000 0.51 0 15:30 01.02.2022
3347 Clouds 8 1005 80 10000 5.14 100 12:49 01.02.2022
3348 Clear 9 1006 83 10000 3.6 90 11:48 01.02.2022
3349 Clouds 5 1006 86 10000 2.06 90 08:34 01.02.2022
3350 Clear 0 1008 83 10000 1.03 0 23:54 31.01.2022
3351 Clear 0 1008 83 10000 1.03 0 23:54 31.01.2022
3352 Clear 0 1008 84 10000 1.03 0 23:36 31.01.2022
3353 Clear 0 1008 84 10000 1.03 0 23:36 31.01.2022
3354 Clear 0 1008 78 10000 1.54 20 22:27 31.01.2022
3355 Clear 0 1008 81 10000 2.06 10 21:34 31.01.2022
3356 Clear 1 1009 77 10000 0.51 30 20:34 31.01.2022
3357 Clear 2 1009 73 10000 1.54 30 19:46 31.01.2022
3358 Clear 5 1009 67 10000 2.57 0 18:29 31.01.2022
3359 Clear 4 1008 69 10000 0 0 17:46 31.01.2022
3360 Clear 6 1008 61 10000 3.09 280 16:48 31.01.2022
3361 Clear 8 1008 52 10000 6.17 280 15:44 31.01.2022
3362 Clouds 10 1009 51 10000 8.75 270 14:25 31.01.2022
3363 Clouds 9 1009 40 10000 8.23 270 12:51 31.01.2022
3364 Clouds 9 1010 43 10000 8.75 270 11:59 31.01.2022
3365 Clear 7 1011 49 10000 9.26 270 10:52 31.01.2022
3366 Clear 7 1011 49 10000 8.75 280 10:34 31.01.2022
3367 Clear 6 1011 75 10000 8.23 270 09:27 31.01.2022
3368 Clear 5 1012 75 10000 7.72 260 08:52 31.01.2022
3369 Clear 5 1012 75 10000 7.72 260 08:52 31.01.2022
3370 Clear 4 1012 80 10000 5.14 260 08:20 31.01.2022
3371 Clear 2 1011 79 10000 3.6 220 06:21 31.01.2022
3372 Clear 2 1010 88 10000 3.09 300 03:33 31.01.2022
3373 Clear 4 1008 80 10000 8.75 280 23:19 30.01.2022
3374 Clear 5 1008 77 10000 7.72 280 22:29 30.01.2022
3375 Clear 5 1008 77 10000 8.75 280 21:42 30.01.2022
3376 Clear 5 1008 77 10000 7.72 280 21:19 30.01.2022
3377 Clear 6 1007 75 10000 8.23 280 20:49 30.01.2022
3378 Clear 6 1007 77 10000 5.14 280 20:29 30.01.2022
3379 Clear 5 1007 75 10000 3.6 290 19:52 30.01.2022
3380 Clouds 5 1007 75 10000 3.6 290 18:44 30.01.2022
3381 Clouds 4 1007 60 10000 3.6 320 18:20 30.01.2022
3382 Clouds 4 1007 56 10000 3.09 310 17:27 30.01.2022
3383 Clouds 4 1007 56 10000 3.6 290 16:40 30.01.2022
3384 Clouds 4 1007 56 10000 3.6 290 16:40 30.01.2022
3385 Clouds 5 1008 52 10000 5.14 280 16:22 30.01.2022
3386 Clouds 7 1008 45 10000 4.12 260 15:51 30.01.2022
3387 Clouds 6 1008 49 10000 3.09 280 15:32 30.01.2022
3388 Clouds 6 1008 52 10000 5.14 240 14:46 30.01.2022
3389 Clouds 2 1011 87 10000 2.06 0 12:47 30.01.2022
3390 Clouds 1 1011 93 10000 1.03 0 12:25 30.01.2022
3391 Rain 3 1014 77 10000 5.14 280 10:36 30.01.2022
3392 Clouds 3 1014 79 10000 3.09 240 09:56 30.01.2022
3393 Clear 2 1015 85 10000 1.03 0 08:56 30.01.2022
3394 Clear -1 1015 88 10000 2.57 270 07:29 30.01.2022
3395 Clear -1 1020 92 10000 0 0 01:56 30.01.2022
3396 Clear -1 1021 92 10000 1.03 0 00:34 30.01.2022
3397 Clear 0 1022 88 10000 1.54 310 23:20 29.01.2022
3398 Clear 0 1022 88 10000 1.03 0 21:50 29.01.2022
3399 Clear 1 1022 82 10000 2.06 30 21:24 29.01.2022
3400 Clouds 1 1023 85 10000 1.54 40 20:32 29.01.2022
3401 Clouds 2 1023 82 10000 1.54 20 19:34 29.01.2022
3402 Clear 2 1023 82 10000 2.06 20 18:52 29.01.2022
3403 Clouds 2 1023 79 10000 0 0 18:24 29.01.2022
3404 Clouds 4 1023 75 10000 2.06 120 17:31 29.01.2022
3405 Clouds 5 1022 73 10000 2.57 130 16:25 29.01.2022
3406 Clear 7 1022 69 10000 4.12 130 14:23 29.01.2022
3407 Clear 8 1022 67 10000 4.63 130 13:44 29.01.2022
3408 Clear 7 1022 67 10000 1.03 0 13:24 29.01.2022
3409 Clouds 8 1022 46 10000 2.57 40 11:49 29.01.2022
3410 Clouds 7 1023 49 10000 3.6 0 11:24 29.01.2022
3411 Clear 3 1022 70 10000 4.63 290 08:43 29.01.2022
3412 Clear 1 1021 88 10000 5.14 250 06:55 29.01.2022
3413 Clear 3 1018 80 10000 7.72 280 00:35 29.01.2022
3414 Clear 4 1018 80 10000 8.75 280 23:51 28.01.2022
3415 Clear 4 1018 77 10000 8.23 270 22:50 28.01.2022
3416 Clear 4 1018 80 10000 8.23 260 22:21 28.01.2022
3417 Clear 5 1017 77 10000 8.75 270 21:35 28.01.2022
3418 Clear 5 1017 77 10000 8.75 270 20:29 28.01.2022
3419 Clouds 6 1016 75 10000 7.2 280 19:28 28.01.2022
3420 Clouds 6 1016 78 10000 8.75 280 18:42 28.01.2022
3421 Clouds 8 1015 53 10000 7.72 270 16:45 28.01.2022
3422 Clear 12 1014 37 10000 9.77 290 14:59 28.01.2022
3423 Clear 11 1014 37 10000 7.2 270 13:34 28.01.2022
3424 Clear 10 1015 37 10000 9.26 280 12:27 28.01.2022
3425 Clear 7 1016 42 10000 4.12 260 10:41 28.01.2022
3426 Clear 6 1016 45 10000 5.14 260 09:48 28.01.2022
3427 Clear 3 1016 74 10000 2.06 360 07:43 28.01.2022
3428 Clear 1 1017 77 10000 2.57 330 06:32 28.01.2022
3429 Clear 0 1018 85 10000 2.06 350 03:52 28.01.2022
3430 Clear 1 1019 82 10000 0 0 02:29 28.01.2022
3431 Clear 1 1019 88 10000 0 0 01:57 28.01.2022
3432 Clear 1 1019 88 10000 2.57 330 01:30 28.01.2022
3433 Clear 1 1021 82 10000 1.03 0 22:40 27.01.2022
3434 Clear 2 1021 79 10000 2.06 290 21:41 27.01.2022
3435 Clear 2 1021 79 10000 2.06 290 21:21 27.01.2022
3436 Clear 3 1022 79 10000 1.54 280 19:47 27.01.2022
3437 Clear 4 1022 60 10000 2.57 280 18:22 27.01.2022
3438 Clear 4 1022 60 10000 2.57 260 16:59 27.01.2022
3439 Clear 7 1022 71 10000 7.2 270 14:23 27.01.2022
3440 Clear 7 1023 73 10000 6.17 270 12:53 27.01.2022
3441 Clear 5 1023 56 10000 5.66 260 12:18 27.01.2022
3442 Clear 3 1024 83 10000 5.14 270 09:49 27.01.2022
3443 Clear 1 1023 86 10000 4.63 240 08:40 27.01.2022
3444 Clear 1 1023 86 10000 3.09 260 07:53 27.01.2022
3445 Clear 1 1022 82 10000 2.06 270 03:34 27.01.2022
3446 Clear 1 1022 82 10000 4.12 250 00:24 27.01.2022
3447 Clear 1 1022 86 10000 3.6 250 22:28 26.01.2022
3448 Clouds 1 1022 86 10000 3.6 270 21:44 26.01.2022
3449 Clouds 1 1022 86 10000 5.14 250 20:52 26.01.2022
3450 Clouds 1 1022 86 10000 5.14 250 20:32 26.01.2022
3451 Clear 1 1022 86 10000 5.14 280 19:49 26.01.2022
3452 Clouds 2 1022 74 10000 5.14 280 18:48 26.01.2022
3453 Clouds 1 1022 77 10000 5.14 280 18:24 26.01.2022
3454 Clouds 2 1022 72 10000 5.14 290 17:33 26.01.2022
3455 Clouds 2 1021 74 10000 5.14 290 16:49 26.01.2022
3456 Clouds 2 1021 72 10000 6.17 280 16:22 26.01.2022
3457 Clouds 3 1020 68 10000 6.17 290 14:40 26.01.2022
3458 Clear 2 1021 68 10000 6.69 280 12:20 26.01.2022
3459 Clouds 0 1022 55 10000 6.69 260 10:52 26.01.2022
3460 Clouds 0 1022 55 10000 6.69 260 10:52 26.01.2022
3461 Clouds 0 1022 79 10000 6.17 270 09:52 26.01.2022
3462 Clouds -2 1022 88 10000 4.12 260 08:49 26.01.2022
3463 Clouds -3 1022 79 10000 4.63 290 06:36 26.01.2022
3464 Clear -5 1024 84 10000 4.63 270 00:24 26.01.2022
3465 Clear -4 1024 82 10000 3.09 280 23:41 25.01.2022
3466 Clear -4 1025 79 10000 4.12 270 22:48 25.01.2022
3467 Clear -4 1025 82 10000 3.6 280 22:18 25.01.2022
3468 Clear -4 1025 82 10000 3.09 300 21:27 25.01.2022
3469 Clear -4 1025 82 10000 3.09 290 20:45 25.01.2022
3470 Clear -3 1025 82 10000 3.09 290 19:54 25.01.2022
3471 Clear -3 1025 82 10000 3.09 310 19:28 25.01.2022
3472 Clear -2 1025 77 10000 4.12 290 17:56 25.01.2022
3473 Clear -1 1025 74 10000 4.63 270 17:20 25.01.2022
3474 Clear -1 1025 68 10000 4.63 320 16:34 25.01.2022
3475 Clear 0 1025 60 10000 6.69 320 15:39 25.01.2022
3476 Clear 0 1025 59 10000 6.69 320 15:19 25.01.2022
3477 Clear 0 1025 56 10000 7.2 310 14:51 25.01.2022
3478 Clear 0 1027 43 10000 6.69 320 12:20 25.01.2022
3479 Clear -3 1028 63 10000 5.14 320 09:25 25.01.2022
3480 Clear -4 1029 68 10000 6.17 300 07:52 25.01.2022
3481 Clear -5 1029 88 10000 4.63 290 06:55 25.01.2022
3482 Clear -5 1029 88 10000 4.63 300 05:23 25.01.2022
3483 Clouds -5 1031 84 10000 5.14 310 00:31 25.01.2022
3484 Clear -5 1032 83 10000 4.63 290 23:36 24.01.2022
3485 Clear -5 1032 84 10000 4.63 290 23:18 24.01.2022
3486 Clear -5 1032 83 10000 4.63 270 22:42 24.01.2022
3487 Clear -5 1031 87 10000 4.12 310 21:58 24.01.2022
3488 Clear -5 1031 87 10000 4.12 310 21:32 24.01.2022
3489 Clear -5 1031 85 10000 3.09 300 20:38 24.01.2022
3490 Clear -5 1031 85 10000 3.09 300 20:20 24.01.2022
3491 Clear -4 1031 88 10000 4.12 350 19:38 24.01.2022
3492 Clear -3 1031 85 10000 4.63 350 18:47 24.01.2022
3493 Clouds -2 1030 85 10000 5.66 340 17:24 24.01.2022
3494 Clouds -2 1030 85 10000 6.17 340 16:58 24.01.2022
3495 Clouds -2 1030 85 10000 6.17 340 16:58 24.01.2022
3496 Clouds -2 1030 85 10000 6.17 340 16:58 24.01.2022
3497 Clouds -2 1029 85 10000 7.72 350 16:30 24.01.2022
3498 Clouds -1 1028 85 10000 7.72 360 14:54 24.01.2022
3499 Clouds -2 1028 74 10000 3.6 320 13:39 24.01.2022
3500 Clouds -2 1028 74 10000 5.14 0 12:33 24.01.2022
3501 Clouds -1 1027 69 10000 10.29 360 11:21 24.01.2022
3502 Clouds -2 1027 82 10000 10.8 10 09:50 24.01.2022
3503 Clouds -2 1026 85 10000 11.32 10 09:25 24.01.2022
3504 Clouds -3 1026 88 10000 8.75 10 07:28 24.01.2022
3505 Clear -2 1023 88 10000 9.77 10 01:34 24.01.2022
3506 Clear -2 1022 88 10000 8.75 360 00:47 24.01.2022
3507 Clear -2 1023 88 10000 7.2 10 00:28 24.01.2022
3508 Clouds -2 1023 88 10000 3.09 310 22:46 23.01.2022
3509 Clouds -2 1023 92 10000 1.54 300 21:51 23.01.2022
3510 Clear -3 1023 92 10000 4.12 310 21:27 23.01.2022
3511 Clear -3 1022 92 10000 4.63 280 20:54 23.01.2022
3512 Clear -2 1022 88 10000 4.63 280 19:55 23.01.2022
3513 Clear -1 1022 88 10000 4.12 260 18:52 23.01.2022
3514 Clear -1 1021 85 10000 2.06 280 17:54 23.01.2022
3515 Clouds 0 1021 79 10000 6.17 340 16:52 23.01.2022
3516 Clouds 1 1020 69 10000 6.69 320 15:18 23.01.2022
3517 Clear 1 1020 69 10000 6.69 320 14:33 23.01.2022
3518 Clouds 2 1019 67 10000 6.69 320 13:27 23.01.2022
3519 Clouds 2 1019 67 10000 6.17 340 12:36 23.01.2022
3520 Clouds 2 1019 69 10000 6.69 330 12:18 23.01.2022
3521 Clouds 1 1020 72 10000 7.72 330 11:24 23.01.2022
3522 Clouds 1 1020 74 10000 7.72 330 10:57 23.01.2022
3523 Clear 0 1020 77 10000 8.75 310 10:21 23.01.2022
3524 Clear 0 1020 79 10000 7.2 310 09:22 23.01.2022
3525 Clear -4 1019 88 10000 6.17 340 05:59 23.01.2022
3526 Clear -3 1018 82 10000 5.66 360 02:25 23.01.2022
3527 Clear -3 1017 85 10000 6.69 360 01:35 23.01.2022
3528 Clear -3 1017 85 10000 7.2 360 00:41 23.01.2022
3529 Clear -3 1017 82 10000 6.17 350 23:57 22.01.2022
3530 Clear -3 1017 82 10000 7.2 330 22:47 22.01.2022
3531 Clear -2 1017 82 10000 3.6 330 21:38 22.01.2022
3532 Clear -2 1016 85 10000 3.09 310 20:24 22.01.2022
3533 Clear -3 1016 88 10000 2.57 320 19:27 22.01.2022
3534 Clear -2 1016 85 10000 2.06 350 18:29 22.01.2022
3535 Clear -2 1015 85 10000 2.57 330 17:41 22.01.2022
3536 Clouds -1 1015 79 10000 4.12 330 16:57 22.01.2022
3537 Clouds 0 1014 74 10000 3.09 320 15:55 22.01.2022
3538 Clouds 0 1014 77 10000 2.06 270 15:37 22.01.2022
3539 Clouds 2 1014 66 10000 4.63 310 13:59 22.01.2022
3540 Clouds 3 1014 65 10000 5.14 270 12:55 22.01.2022
3541 Clouds 2 1015 51 10000 6.17 290 12:30 22.01.2022
3542 Clouds 2 1015 51 10000 6.17 270 11:49 22.01.2022
3543 Clear 0 1016 59 10000 5.14 250 10:31 22.01.2022
3544 Clear 1 1016 79 10000 4.63 250 09:59 22.01.2022
3545 Clear -1 1017 85 10000 5.66 280 08:53 22.01.2022
3546 Clear -2 1016 85 10000 3.09 270 08:27 22.01.2022
3547 Clear -3 1016 88 10000 4.12 290 05:20 22.01.2022
3548 Clear -2 1018 88 10000 3.6 260 01:58 22.01.2022
3549 Clear -2 1018 88 10000 2.57 230 23:48 21.01.2022
3550 Clear -1 1018 85 10000 3.09 250 22:41 21.01.2022
3551 Clear 0 1017 79 10000 6.17 290 20:45 21.01.2022
3552 Clear 2 1017 77 10000 4.12 290 18:41 21.01.2022
3553 Clear 2 1017 77 10000 5.14 280 17:45 21.01.2022
3554 Clouds 3 1016 77 10000 4.63 280 15:47 21.01.2022
3555 Clouds 3 1016 89 10000 3.09 330 14:37 21.01.2022
3556 Clouds 4 1017 75 10000 6.17 300 12:40 21.01.2022
3557 Clouds 4 1017 83 10000 8.23 300 11:29 21.01.2022
3558 Clouds 4 1017 86 10000 6.69 280 10:22 21.01.2022
3559 Rain 4 1016 86 10000 7.2 280 08:25 21.01.2022
3560 Rain 4 1016 86 10000 7.2 280 08:25 21.01.2022
3561 Clouds 5 1015 86 10000 4.12 290 07:19 21.01.2022
3562 Clear 3 1014 73 10000 3.09 310 00:59 21.01.2022
3563 Clear 3 1015 73 10000 2.57 290 22:45 20.01.2022
3564 Clear 4 1015 70 10000 2.57 300 21:48 20.01.2022
3565 Clear 4 1015 71 10000 2.57 300 20:56 20.01.2022
3566 Clear 6 1015 42 10000 3.6 290 19:21 20.01.2022
3567 Clear 6 1015 64 10000 5.66 250 18:51 20.01.2022
3568 Clear 6 1015 45 10000 7.2 270 17:31 20.01.2022
3569 Clear 10 1015 34 10000 8.23 270 15:45 20.01.2022
3570 Clear 10 1015 32 10000 5.66 240 15:25 20.01.2022
3571 Clear 10 1016 32 10000 6.69 250 13:42 20.01.2022
3572 Clear 9 1017 36 10000 6.17 270 12:38 20.01.2022
3573 Clear 7 1018 42 10000 5.66 260 11:57 20.01.2022
3574 Clear 6 1019 45 10000 5.14 260 10:47 20.01.2022
3575 Clear 4 1019 74 10000 4.63 280 09:42 20.01.2022
3576 Clear 2 1020 77 10000 2.06 300 08:35 20.01.2022
3577 Clear -2 1021 85 10000 2.57 360 05:38 20.01.2022
3578 Clear -2 1025 88 10000 1.54 10 23:42 19.01.2022
3579 Clear -1 1026 85 10000 1.54 110 22:37 19.01.2022
3580 Clear 0 1027 85 10000 1.54 360 21:24 19.01.2022
3581 Clear 0 1027 85 10000 1.03 0 20:51 19.01.2022
3582 Clear 0 1027 79 10000 1.54 300 19:58 19.01.2022
3583 Snow 1 1027 82 10000 0 0 18:43 19.01.2022
3584 Clear 1 1028 82 10000 2.06 330 17:49 19.01.2022
3585 Clear 2 1028 72 10000 2.57 320 16:57 19.01.2022
3586 Clear 4 1028 58 10000 7.2 310 14:42 19.01.2022
3587 Clear 5 1029 53 10000 5.14 310 12:53 19.01.2022
3588 Clear 4 1029 64 10000 6.17 310 11:42 19.01.2022
3589 Clear 2 1030 51 10000 5.66 310 10:37 19.01.2022
3590 Clear 1 1032 74 10000 4.12 320 09:34 19.01.2022
3591 Clear -2 1030 82 10000 4.12 330 07:18 19.01.2022
3592 Clear -1 1029 85 10000 3.6 290 05:18 19.01.2022
3593 Clouds 0 1027 79 10000 8.75 350 23:20 18.01.2022
3594 Clouds 1 1027 77 10000 6.69 330 22:44 18.01.2022
3595 Clear 0 1025 72 10000 7.2 330 21:20 18.01.2022
3596 Clear 1 1024 72 10000 7.72 340 19:55 18.01.2022
3597 Clear 1 1024 72 10000 7.72 340 19:37 18.01.2022
3598 Clear 2 1024 74 10000 5.14 320 18:54 18.01.2022
3599 Clear 2 1023 74 10000 4.63 320 17:58 18.01.2022
3600 Clouds 3 1023 73 10000 4.63 310 16:58 18.01.2022
3601 Clouds 4 1023 70 10000 8.23 300 15:47 18.01.2022
3602 Clouds 4 1023 70 10000 8.23 300 15:47 18.01.2022
3603 Clouds 4 1023 67 10000 9.26 300 15:22 18.01.2022
3604 Clouds 6 1022 66 10000 10.8 300 12:47 18.01.2022
3605 Clear 4 1022 60 10000 7.72 280 10:47 18.01.2022
3606 Clear 2 1020 79 10000 7.2 300 08:59 18.01.2022
3607 Clouds 0 1020 88 10000 5.66 280 07:51 18.01.2022
3608 Snow 1 1013 96 4000 6.17 340 02:34 18.01.2022
3609 Clouds 6 1009 75 10000 10.8 280 23:39 17.01.2022
3610 Clear 6 1010 78 10000 7.72 270 22:26 17.01.2022
3611 Clear 6 1011 78 10000 8.75 270 21:34 17.01.2022
3612 Clear 5 1011 80 10000 10.8 280 20:24 17.01.2022
3613 Clear 6 1011 75 10000 9.77 280 18:30 17.01.2022
3614 Clouds 6 1011 75 10000 10.29 270 17:44 17.01.2022
3615 Clouds 6 1012 78 10000 11.83 280 16:40 17.01.2022
3616 Clouds 7 1012 78 10000 11.32 280 15:19 17.01.2022
3617 Clouds 7 1012 78 10000 9.26 280 14:55 17.01.2022
3618 Clouds 9 1014 70 10000 14.4 270 13:22 17.01.2022
3619 Clouds 9 1013 65 10000 13.38 280 12:55 17.01.2022
3620 Clear 9 1014 59 10000 14.4 280 11:49 17.01.2022
3621 Clear 5 1016 69 10000 2.57 260 10:21 17.01.2022
3622 Clear 5 1016 69 10000 2.57 260 10:21 17.01.2022
3623 Clear 4 1017 60 10000 2.57 280 09:34 17.01.2022
3624 Clear 1 1018 82 10000 2.57 340 07:24 17.01.2022
3625 Clear -1 1020 88 10000 2.57 360 02:55 17.01.2022
3626 Clear -1 1022 92 10000 1.54 10 00:55 17.01.2022
3627 Clear 0 1023 88 10000 1.54 50 22:22 16.01.2022
3628 Clear -1 1024 92 10000 1.54 30 20:35 16.01.2022
3629 Clear 0 1025 85 10000 1.54 20 18:51 16.01.2022
3630 Clear 0 1025 85 10000 0 0 17:59 16.01.2022
3631 Clear 2 1025 74 10000 1.54 60 16:59 16.01.2022
3632 Clear 4 1025 68 10000 0 0 16:29 16.01.2022
3633 Clear 5 1026 57 10000 3.6 230 14:30 16.01.2022
3634 Clear 5 1026 57 10000 3.6 230 14:30 16.01.2022
3635 Clear 5 1026 45 10000 4.12 230 13:33 16.01.2022
3636 Clear 5 1027 48 10000 3.09 250 12:26 16.01.2022
3637 Clear 5 1027 45 10000 2.57 260 11:38 16.01.2022
3638 Clear 4 1028 48 10000 3.09 30 10:43 16.01.2022
3639 Clear 3 1028 56 10000 3.6 210 09:58 16.01.2022
3640 Clear 4 1028 75 10000 3.6 210 09:38 16.01.2022
3641 Clear 3 1028 77 10000 3.6 230 09:20 16.01.2022
3642 Clear -2 1027 85 10000 3.6 280 07:21 16.01.2022
3643 Clear 0 1025 79 10000 4.12 330 00:36 16.01.2022
3644 Clear 1 1023 77 10000 6.17 340 22:53 15.01.2022
3645 Clear 2 1022 74 10000 6.17 360 21:22 15.01.2022
3646 Clear 2 1022 73 10000 6.69 340 20:45 15.01.2022
3647 Clear 2 1022 77 10000 4.63 340 20:22 15.01.2022
3648 Clear 3 1021 77 10000 5.14 340 19:27 15.01.2022
3649 Clear 3 1021 75 10000 5.66 340 18:20 15.01.2022
3650 Clear 5 1019 73 10000 5.14 320 16:49 15.01.2022
3651 Clear 8 1019 60 10000 9.26 310 14:38 15.01.2022
3652 Clear 8 1019 34 10000 10.8 330 12:40 15.01.2022
3653 Clear 7 1019 49 10000 9.77 310 11:26 15.01.2022
3654 Clear 6 1020 75 10000 7.2 310 09:46 15.01.2022
3655 Clear 3 1016 86 10000 6.17 320 01:58 15.01.2022
3656 Clear 4 1014 86 10000 6.69 290 23:20 14.01.2022
3657 Clear 5 1013 83 10000 8.23 300 21:18 14.01.2022
3658 Clear 5 1013 83 10000 10.29 290 20:25 14.01.2022
3659 Clear 5 1013 83 10000 8.75 290 19:50 14.01.2022
3660 Clear 5 1014 80 10000 8.75 300 18:38 14.01.2022
3661 Clear 4 1014 83 10000 5.66 280 17:36 14.01.2022
3662 Clear 5 1015 80 10000 8.23 290 16:42 14.01.2022
3663 Clear 6 1015 78 10000 10.29 290 15:30 14.01.2022
3664 Clear 7 1016 78 10000 10.29 280 14:25 14.01.2022
3665 Clear 7 1017 75 10000 10.8 280 12:48 14.01.2022
3666 Clear 6 1019 74 10000 11.32 280 11:52 14.01.2022
3667 Clear 4 1021 73 10000 10.8 280 10:30 14.01.2022
3668 Clear 1 1022 74 10000 5.66 260 08:52 14.01.2022
3669 Clear -1 1024 82 10000 8.23 270 07:30 14.01.2022
3670 Clear -3 1027 88 10000 5.66 280 02:20 14.01.2022
3671 Clear -2 1029 88 10000 6.17 260 23:40 13.01.2022
3672 Clear -2 1030 88 10000 5.14 280 21:46 13.01.2022
3673 Clear -3 1030 85 10000 5.14 260 21:27 13.01.2022
3674 Clear -3 1031 88 10000 5.66 280 19:44 13.01.2022
3675 Clear -3 1031 88 10000 6.17 280 19:23 13.01.2022
3676 Clouds -2 1031 88 10000 6.69 280 18:36 13.01.2022
3677 Clouds -1 1032 82 10000 7.2 290 16:48 13.01.2022
3678 Clouds 0 1032 82 10000 8.75 280 15:38 13.01.2022
3679 Clouds 0 1032 82 10000 7.2 290 15:18 13.01.2022
3680 Clouds 0 1032 79 10000 7.2 300 13:22 13.01.2022
3681 Clouds -2 1035 77 10000 5.14 310 10:29 13.01.2022
3682 Clear -3 1035 79 10000 3.6 270 09:22 13.01.2022
3683 Clear -5 1035 82 10000 2.06 0 08:28 13.01.2022
3684 Clear -6 1034 82 10000 3.6 340 07:58 13.01.2022
3685 Clear -6 1034 82 10000 2.06 0 07:18 13.01.2022
3686 Clear -6 1034 79 10000 3.09 280 05:20 13.01.2022
3687 Clear -5 1033 76 10000 3.6 270 03:33 13.01.2022
3688 Clear -5 1032 79 10000 3.09 290 00:56 13.01.2022
3689 Clear -6 1032 84 10000 2.06 240 23:53 12.01.2022
3690 Clear -6 1032 84 10000 2.06 240 23:32 12.01.2022
3691 Clear -6 1032 84 10000 3.6 250 21:58 12.01.2022
3692 Clear -5 1032 79 10000 4.12 270 21:24 12.01.2022
3693 Clear -5 1032 79 10000 3.6 320 20:57 12.01.2022
3694 Clear -4 1031 76 10000 4.63 350 20:19 12.01.2022
3695 Clear -4 1031 76 10000 4.63 320 18:48 12.01.2022
3696 Clear -4 1030 82 10000 1.54 260 17:53 12.01.2022
3697 Clouds -4 1030 79 10000 3.09 320 16:42 12.01.2022
3698 Clouds -2 1029 79 10000 7.2 10 14:49 12.01.2022
3699 Clouds -3 1028 63 10000 8.23 350 13:37 12.01.2022
3700 Clouds -1 1028 74 10000 6.69 350 12:56 12.01.2022
3701 Clouds -3 1028 79 10000 6.17 360 08:55 12.01.2022
3702 Clouds -3 1027 82 10000 6.69 10 07:55 12.01.2022
3703 Clouds -3 1027 82 10000 6.69 10 07:32 12.01.2022
3704 Clouds -2 1025 82 10000 6.69 360 01:34 12.01.2022
3705 Clouds -2 1024 85 10000 4.12 0 23:25 11.01.2022
3706 Clouds -2 1025 85 10000 6.69 20 22:24 11.01.2022
3707 Clouds -2 1024 85 10000 4.63 20 21:28 11.01.2022
3708 Clouds -1 1024 85 10000 4.63 0 20:35 11.01.2022
3709 Clouds -1 1022 85 10000 2.57 0 18:52 11.01.2022
3710 Clouds -1 1022 88 10000 6.17 10 17:46 11.01.2022
3711 Clouds -1 1021 88 10000 3.6 0 16:39 11.01.2022
3712 Clouds -1 1021 88 10000 3.6 0 16:18 11.01.2022
3713 Clouds -1 1021 88 10000 2.57 40 14:44 11.01.2022
3714 Clouds -1 1020 91 10000 6.17 30 14:18 11.01.2022
3715 Clouds 0 1020 91 10000 4.12 10 13:42 11.01.2022
3716 Clouds 0 1019 91 10000 5.14 10 13:24 11.01.2022
3717 Clouds 0 1019 91 10000 4.63 20 12:23 11.01.2022
3718 Clouds 0 1019 88 10000 4.63 50 10:25 11.01.2022
3719 Clouds 0 1017 92 10000 2.57 0 07:35 11.01.2022
3720 Clouds 2 1014 92 10000 2.57 0 02:57 11.01.2022
3721 Clouds 3 1012 96 10000 7.2 80 00:24 11.01.2022
3722 Clouds 3 1010 96 10000 13.38 20 23:38 10.01.2022
3723 Clouds 4 1010 96 10000 10.29 30 22:20 10.01.2022
3724 Clouds 5 1010 96 10000 10.29 30 21:55 10.01.2022
3725 Clouds 5 1010 96 10000 10.29 30 21:32 10.01.2022
3726 Clouds 5 1009 96 10000 10.8 30 20:58 10.01.2022
3727 Clouds 6 1009 92 10000 9.77 20 20:29 10.01.2022
3728 Rain 6 1009 96 10000 11.83 30 19:47 10.01.2022
3729 Rain 6 1008 96 10000 10.29 20 19:22 10.01.2022
3730 Rain 6 1008 96 10000 12.86 30 18:54 10.01.2022
3731 Rain 6 1008 96 10000 12.86 30 18:34 10.01.2022
3732 Clouds 8 1007 92 10000 9.26 40 16:43 10.01.2022
3733 Clouds 8 1006 96 8000 7.72 50 15:55 10.01.2022
3734 Drizzle 9 1006 96 8000 5.66 60 14:39 10.01.2022
3735 Clouds 9 1005 92 10000 4.12 80 12:31 10.01.2022
3736 Clouds 9 1004 92 10000 7.72 40 11:40 10.01.2022
3737 Clouds 9 1004 92 10000 8.23 30 10:45 10.01.2022
3738 Rain 9 1005 92 10000 2.06 0 08:57 10.01.2022
3739 Clouds 8 1004 96 9000 4.12 90 05:51 10.01.2022
3740 Mist 8 1003 100 5000 2.06 90 01:33 10.01.2022
3741 Mist 8 1003 100 3500 2.06 90 00:36 10.01.2022
3742 Mist 8 1003 100 2600 2.06 100 23:54 09.01.2022
3743 Mist 8 1004 100 2400 1.03 90 22:43 09.01.2022
3744 Drizzle 8 1004 100 3400 1.54 120 21:47 09.01.2022
3745 Mist 8 1004 100 3800 0 0 21:25 09.01.2022
3746 Mist 8 1004 100 3800 0 0 21:25 09.01.2022
3747 Drizzle 8 1004 100 3500 0.51 0 20:55 09.01.2022
3748 Drizzle 8 1004 100 3600 1.54 120 20:37 09.01.2022
3749 Mist 8 1004 100 3600 1.54 120 20:18 09.01.2022
3750 Drizzle 8 1004 100 3600 2.06 130 19:37 09.01.2022
3751 Mist 8 1004 100 4200 2.57 120 19:18 09.01.2022
3752 Mist 8 1005 100 5000 3.6 120 18:37 09.01.2022
3753 Clouds 8 1004 100 6000 3.09 120 17:48 09.01.2022
3754 Clouds 9 1004 96 6000 3.6 120 17:26 09.01.2022
3755 Clouds 9 1004 96 7000 4.12 100 16:38 09.01.2022
3756 Mist 9 1004 96 5000 3.09 100 15:38 09.01.2022
3757 Clouds 9 1004 96 8000 3.09 130 14:41 09.01.2022
3758 Clouds 10 1004 96 9000 2.57 110 14:21 09.01.2022
3759 Clouds 10 1004 92 10000 0 0 13:41 09.01.2022
3760 Clouds 9 1006 96 10000 1.03 0 11:56 09.01.2022
3761 Clouds 9 1006 96 10000 0.51 0 11:25 09.01.2022
3762 Clouds 8 1007 100 10000 2.06 150 09:55 09.01.2022
3763 Clouds 8 1007 100 10000 1.54 160 08:56 09.01.2022
3764 Fog 7 1007 100 650 2.06 140 06:21 09.01.2022
3765 Mist 8 1009 100 1600 0 0 01:28 09.01.2022
3766 Mist 8 1009 100 1600 1.54 270 00:37 09.01.2022
3767 Mist 8 1010 100 5000 0 0 23:30 08.01.2022
3768 Mist 8 1010 100 5000 0 0 22:44 08.01.2022
3769 Clouds 8 1011 100 10000 2.57 80 21:27 08.01.2022
3770 Clouds 8 1012 100 10000 3.09 110 20:43 08.01.2022
3771 Clouds 8 1012 100 9000 3.09 90 20:21 08.01.2022
3772 Drizzle 8 1013 100 4000 5.14 90 19:22 08.01.2022
3773 Clouds 8 1013 100 6000 3.6 90 17:25 08.01.2022
3774 Clouds 8 1013 100 9000 4.12 90 16:42 08.01.2022
3775 Drizzle 8 1014 100 2800 4.63 90 14:52 08.01.2022
3776 Mist 8 1014 100 2700 4.63 90 13:56 08.01.2022
3777 Clouds 7 1016 96 7000 3.09 70 11:30 08.01.2022
3778 Clouds 6 1016 96 7000 4.63 50 10:33 08.01.2022
3779 Rain 6 1017 96 8000 2.57 0 09:57 08.01.2022
3780 Rain 6 1018 92 6000 0.51 0 09:30 08.01.2022
3781 Rain 5 1019 96 10000 3.6 70 05:39 08.01.2022
3782 Rain 6 1021 92 10000 6.69 90 00:59 08.01.2022
3783 Rain 6 1021 92 10000 5.14 70 23:30 07.01.2022
3784 Rain 6 1021 92 10000 5.14 60 21:46 07.01.2022
3785 Clouds 6 1022 89 10000 5.66 60 20:26 07.01.2022
3786 Clouds 6 1022 89 10000 5.14 60 19:26 07.01.2022
3787 Clouds 6 1022 89 10000 5.14 70 18:46 07.01.2022
3788 Clouds 6 1022 89 10000 5.14 60 18:18 07.01.2022
3789 Clouds 6 1022 89 10000 5.66 60 17:23 07.01.2022
3790 Clouds 7 1021 86 10000 4.63 80 14:55 07.01.2022
3791 Clouds 7 1021 83 10000 5.14 60 13:52 07.01.2022
3792 Clouds 8 1021 80 10000 3.6 50 12:50 07.01.2022
3793 Clouds 7 1021 86 10000 3.6 290 10:18 07.01.2022
3794 Clear 6 1017 86 10000 5.66 310 02:59 07.01.2022
3795 Clear 6 1017 86 10000 4.63 290 02:21 07.01.2022
3796 Clear 6 1016 89 10000 5.14 300 01:45 07.01.2022
3797 Clear 6 1016 86 10000 5.66 280 01:23 07.01.2022
3798 Clear 7 1015 86 10000 8.23 250 00:29 07.01.2022
3799 Clear 9 1013 89 10000 5.14 270 21:56 06.01.2022
3800 Clear 10 1012 89 10000 3.6 350 20:37 06.01.2022
3801 Clear 11 1011 82 10000 1.54 360 19:54 06.01.2022
3802 Clear 10 1011 88 10000 3.09 10 19:29 06.01.2022
3803 Clear 12 1010 86 10000 2.06 10 17:51 06.01.2022
3804 Clear 13 1009 81 10000 1.03 0 17:19 06.01.2022
3805 Clear 16 1009 74 10000 2.06 220 16:22 06.01.2022
3806 Clear 16 1009 74 10000 1.54 210 15:41 06.01.2022
3807 Clear 17 1008 72 10000 2.06 220 15:20 06.01.2022
3808 Clear 18 1008 73 10000 5.14 230 14:19 06.01.2022
3809 Clear 18 1008 52 10000 6.69 250 12:59 06.01.2022
3810 Clear 17 1008 77 10000 6.69 250 11:58 06.01.2022
3811 Clear 17 1008 59 10000 6.69 260 11:29 06.01.2022
3812 Clear 15 1008 87 10000 1.03 0 09:33 06.01.2022
3813 Clear 12 1007 85 10000 2.57 260 01:57 06.01.2022
3814 Clear 11 1007 86 10000 1.54 330 23:54 05.01.2022
3815 Clear 12 1007 86 10000 2.06 20 23:19 05.01.2022
3816 Clear 11 1007 86 10000 2.57 320 22:40 05.01.2022
3817 Clear 12 1006 86 10000 0 0 21:59 05.01.2022
3818 Clear 12 1006 89 10000 0 0 21:22 05.01.2022
3819 Clear 12 1006 86 10000 2.06 290 20:21 05.01.2022
3820 Clear 12 1006 86 10000 1.54 290 19:27 05.01.2022
3821 Clear 13 1006 83 10000 1.54 160 17:50 05.01.2022
3822 Clear 12 1006 83 10000 0 0 16:56 05.01.2022
3823 Clear 15 1007 76 10000 3.09 230 15:46 05.01.2022
3824 Clear 16 1007 55 10000 4.63 230 14:50 05.01.2022
3825 Clear 17 1007 70 10000 6.69 260 13:33 05.01.2022
3826 Clear 15 1008 58 10000 0 0 11:46 05.01.2022
3827 Clear 9 1008 92 10000 2.06 320 08:20 05.01.2022
3828 Clouds 7 1008 100 8000 2.57 320 06:25 05.01.2022
3829 Clear 8 1009 96 10000 2.57 320 00:59 05.01.2022
3830 Clear 8 1009 96 10000 2.57 360 23:38 04.01.2022
3831 Clear 7 1009 92 10000 0 0 23:18 04.01.2022
3832 Clear 9 1010 83 10000 1.03 100 21:31 04.01.2022
3833 Clear 7 1011 89 10000 1.54 20 19:55 04.01.2022
3834 Clear 9 1012 80 10000 2.06 150 18:19 04.01.2022
3835 Clear 10 1012 78 10000 2.06 90 16:53 04.01.2022
3836 Clear 11 1012 74 10000 1.54 140 16:30 04.01.2022
3837 Clear 14 1013 66 10000 3.09 220 14:54 04.01.2022
3838 Clear 15 1013 59 10000 2.06 190 14:36 04.01.2022
3839 Clear 15 1013 60 10000 3.09 220 13:40 04.01.2022
3840 Clear 13 1014 54 10000 3.09 250 10:52 04.01.2022
3841 Clear 11 1015 78 10000 2.06 230 09:47 04.01.2022
3842 Clear 8 1015 89 10000 1.54 300 08:34 04.01.2022
3843 Clear 9 1012 83 10000 6.17 280 02:52 04.01.2022
3844 Clear 11 1011 80 10000 7.2 280 00:42 04.01.2022
3845 Clear 11 1011 80 10000 4.63 260 23:34 03.01.2022
3846 Clear 11 1011 80 10000 7.2 270 21:52 03.01.2022
3847 Clear 11 1011 80 10000 7.2 270 21:34 03.01.2022
3848 Clear 11 1011 80 10000 3.6 290 20:26 03.01.2022
3849 Clear 12 1011 80 10000 6.17 270 18:54 03.01.2022
3850 Clear 12 1011 78 10000 3.09 280 18:28 03.01.2022
3851 Clear 13 1010 78 10000 3.6 290 16:59 03.01.2022
3852 Clouds 13 1010 76 10000 5.14 290 15:40 03.01.2022
3853 Clear 14 1010 76 10000 6.17 270 14:31 03.01.2022
3854 Clear 14 1010 76 10000 6.17 270 14:31 03.01.2022
3855 Clear 13 1011 62 10000 7.2 270 12:48 03.01.2022
3856 Clear 14 1012 62 10000 2.06 0 11:39 03.01.2022
3857 Clear 11 1013 76 10000 1.03 0 10:37 03.01.2022
3858 Mist 8 1014 100 3800 0.51 0 08:48 03.01.2022
3859 Mist 6 1014 100 5000 1.03 0 07:36 03.01.2022
3860 Clear 5 1020 100 10000 2.06 20 00:29 03.01.2022
3861 Clouds 5 1021 96 10000 1.54 60 23:22 02.01.2022
3862 Clear 5 1021 96 10000 2.06 70 22:55 02.01.2022
3863 Clear 5 1022 96 10000 1.54 100 21:46 02.01.2022
3864 Clear 6 1023 96 10000 2.06 100 20:38 02.01.2022
3865 Clear 6 1023 92 10000 2.06 110 20:18 02.01.2022
3866 Clouds 6 1023 92 10000 2.06 100 19:30 02.01.2022
3867 Clouds 7 1024 92 10000 1.54 120 18:46 02.01.2022
3868 Clouds 7 1024 92 10000 1.54 120 18:46 02.01.2022
3869 Clouds 8 1024 89 10000 1.54 140 17:54 02.01.2022
3870 Clouds 8 1024 89 10000 1.54 140 17:36 02.01.2022
3871 Clouds 8 1024 89 10000 1.54 130 17:18 02.01.2022
3872 Clouds 8 1024 86 10000 3.09 120 16:26 02.01.2022
3873 Clouds 10 1024 83 10000 2.57 140 14:32 02.01.2022
3874 Clouds 10 1024 78 10000 2.57 350 12:50 02.01.2022
3875 Clouds 10 1025 78 10000 3.09 30 11:58 02.01.2022
3876 Clouds 10 1025 75 10000 3.6 10 11:26 02.01.2022
3877 Clouds 10 1025 75 10000 3.6 10 10:46 02.01.2022
3878 Clouds 9 1024 86 10000 3.09 0 08:46 02.01.2022
3879 Clear 9 1021 92 10000 1.54 80 03:49 02.01.2022
3880 Clear 8 1020 96 10000 1.54 340 00:58 02.01.2022
3881 Clouds 10 1020 92 10000 2.57 270 23:39 01.01.2022
3882 Clouds 10 1020 92 10000 2.57 270 23:39 01.01.2022
3883 Clouds 10 1019 92 10000 3.6 280 22:55 01.01.2022
3884 Clouds 11 1019 89 10000 3.6 280 22:21 01.01.2022
3885 Clouds 11 1019 89 10000 4.63 280 21:43 01.01.2022
3886 Clear 11 1019 89 10000 3.09 250 20:53 01.01.2022
3887 Clear 12 1018 86 10000 3.6 270 19:57 01.01.2022
3888 Clouds 12 1018 86 10000 2.06 280 18:58 01.01.2022
3889 Clouds 11 1017 89 10000 3.6 300 17:58 01.01.2022
3890 Clouds 12 1016 86 10000 3.09 250 16:37 01.01.2022
3891 Clouds 12 1016 86 10000 3.09 220 16:19 01.01.2022
3892 Clouds 13 1016 86 10000 4.12 260 15:22 01.01.2022
3893 Clear 14 1015 87 10000 4.12 260 13:46 01.01.2022
3894 Clear 14 1015 84 10000 1.54 270 12:49 01.01.2022
3895 Clouds 12 1016 89 10000 5.66 270 11:51 01.01.2022
3896 Clouds 12 1015 89 10000 3.09 240 11:22 01.01.2022
3897 Clouds 11 1016 89 10000 2.06 220 10:26 01.01.2022
3898 Rain 11 1016 86 10000 2.06 290 09:41 01.01.2022
3899 Clear 11 1016 83 10000 3.09 0 08:25 01.01.2022
3900 Clear 11 1015 86 10000 5.14 260 07:41 01.01.2022
3901 Clear 11 1015 76 10000 6.69 280 06:46 01.01.2022
3902 Clear 10 1015 86 10000 4.63 280 05:26 01.01.2022
3903 Clear 10 1015 89 10000 3.6 260 04:37 01.01.2022
3904 Clear 9 1017 92 10000 3.09 270 00:53 01.01.2022
3905 Clear 8 1018 92 10000 2.57 300 23:22 31.12.2021
3906 Clear 7 1019 92 10000 0 0 21:52 31.12.2021
3907 Clear 7 1020 89 10000 1.54 290 20:33 31.12.2021
3908 Clear 7 1020 89 10000 2.06 270 19:29 31.12.2021
3909 Clear 7 1020 81 10000 2.57 290 18:32 31.12.2021
3910 Clear 8 1020 86 10000 5.14 270 17:38 31.12.2021
3911 Clear 8 1020 89 10000 5.66 270 17:18 31.12.2021
3912 Clear 9 1020 86 10000 5.14 270 16:21 31.12.2021
3913 Clear 9 1020 86 10000 5.66 270 15:53 31.12.2021
3914 Clear 10 1020 83 10000 6.17 270 15:28 31.12.2021
3915 Clear 10 1020 83 10000 6.17 270 15:28 31.12.2021
3916 Clear 10 1019 83 10000 7.72 270 14:43 31.12.2021
3917 Clear 11 1019 80 10000 8.75 280 14:18 31.12.2021
3918 Clear 11 1019 80 10000 8.75 280 13:36 31.12.2021
3919 Clear 11 1020 83 10000 8.75 290 12:44 31.12.2021
3920 Clouds 10 1021 83 10000 8.75 290 11:43 31.12.2021
3921 Clouds 9 1021 89 10000 7.72 270 11:20 31.12.2021
3922 Clouds 8 1022 89 10000 6.69 260 10:32 31.12.2021
3923 Clouds 6 1022 96 10000 4.12 240 09:35 31.12.2021
3924 Clouds 5 1023 96 10000 4.12 260 08:56 31.12.2021
3925 Clouds 4 1023 96 10000 3.09 270 08:25 31.12.2021
3926 Clouds 3 1023 96 10000 5.66 290 07:30 31.12.2021
3927 Clouds 3 1022 92 10000 3.09 280 23:23 30.12.2021
3928 Clouds 3 1022 92 10000 3.09 280 22:33 30.12.2021
3929 Clouds 3 1022 96 10000 2.57 280 21:51 30.12.2021
3930 Clouds 3 1022 96 10000 2.57 280 21:33 30.12.2021
3931 Clouds 3 1022 96 10000 3.09 300 20:44 30.12.2021
3932 Clouds 3 1022 96 10000 3.6 290 20:24 30.12.2021
3933 Clouds 3 1022 96 10000 2.57 270 19:44 30.12.2021
3934 Clouds 3 1021 96 10000 3.6 330 18:29 30.12.2021
3935 Clouds 3 1021 96 10000 2.57 290 17:45 30.12.2021
3936 Clouds 4 1019 96 10000 4.63 330 15:58 30.12.2021
3937 Clouds 4 1019 96 10000 4.63 330 15:39 30.12.2021
3938 Clouds 4 1018 96 10000 3.09 340 14:37 30.12.2021
3939 Clouds 5 1017 93 8000 1.54 0 13:33 30.12.2021
3940 Drizzle 6 1016 100 3400 2.57 220 12:29 30.12.2021
3941 Mist 5 1016 96 4600 4.12 250 10:50 30.12.2021
3942 Clouds 5 1016 93 10000 4.12 290 09:55 30.12.2021
3943 Rain 5 1015 100 10000 3.09 270 08:49 30.12.2021
3944 Rain 4 1013 93 9000 3.09 260 06:51 30.12.2021
3945 Rain 3 1010 93 8000 1.03 0 03:41 30.12.2021
3946 Rain 3 1010 93 9000 2.57 290 02:42 30.12.2021
3947 Rain 7 1009 100 3300 4.63 340 23:42 29.12.2021
3948 Rain 6 1009 100 3000 3.09 250 23:21 29.12.2021
3949 Clouds 8 1009 100 7000 2.57 40 22:18 29.12.2021
3950 Rain 8 1009 100 7000 1.54 70 21:27 29.12.2021
3951 Rain 9 1009 100 5000 2.57 90 20:34 29.12.2021
3952 Rain 8 1009 96 8000 3.09 50 19:48 29.12.2021
3953 Rain 8 1009 100 10000 3.6 60 18:47 29.12.2021
3954 Clouds 7 1008 100 10000 6.17 50 17:54 29.12.2021
3955 Clouds 7 1008 100 10000 6.69 60 17:27 29.12.2021
3956 Clouds 7 1009 96 10000 5.66 50 16:24 29.12.2021
3957 Mist 7 1009 96 5000 2.06 100 15:45 29.12.2021
3958 Clouds 6 1009 96 10000 2.57 100 13:55 29.12.2021
3959 Rain 6 1009 96 10000 4.12 100 12:36 29.12.2021
3960 Rain 5 1010 100 5000 1.54 290 11:27 29.12.2021
3961 Clouds 4 1011 100 7000 1.54 270 09:58 29.12.2021
3962 Clouds 3 1011 100 8000 0 0 07:51 29.12.2021
3963 Rain 2 1012 100 5000 0 0 06:38 29.12.2021
3964 Rain 2 1012 96 7000 0 0 05:59 29.12.2021
3965 Rain 2 1012 96 7000 0 0 05:36 29.12.2021
3966 Clouds 2 1012 100 9000 2.57 50 02:40 29.12.2021
3967 Mist 3 1012 100 5000 1.54 70 00:22 29.12.2021
3968 Clouds 3 1013 100 7000 2.06 50 23:34 28.12.2021
3969 Clouds 3 1013 96 10000 1.54 350 22:42 28.12.2021
3970 Clouds 3 1013 92 10000 2.57 360 22:23 28.12.2021
3971 Clouds 3 1013 92 10000 2.57 360 21:36 28.12.2021
3972 Clouds 3 1013 96 10000 3.09 360 20:35 28.12.2021
3973 Clouds 3 1013 96 10000 3.6 10 18:59 28.12.2021
3974 Clouds 3 1013 93 10000 3.6 10 18:35 28.12.2021
3975 Clouds 4 1013 92 10000 2.06 350 17:57 28.12.2021
3976 Clouds 4 1012 96 10000 2.57 330 16:34 28.12.2021
3977 Clouds 4 1012 95 10000 3.09 10 15:49 28.12.2021
3978 Clouds 4 1012 95 10000 1.54 10 15:20 28.12.2021
3979 Clouds 4 1012 95 10000 3.6 360 14:46 28.12.2021
3980 Clouds 4 1012 95 10000 3.09 350 14:20 28.12.2021
3981 Clouds 5 1012 92 10000 3.09 350 13:42 28.12.2021
3982 Clouds 5 1012 92 10000 2.57 360 13:24 28.12.2021
3983 Clouds 5 1012 92 10000 1.03 0 12:39 28.12.2021
3984 Clouds 5 1012 92 10000 3.09 360 11:27 28.12.2021
3985 Clouds 4 1011 96 10000 5.66 310 07:40 28.12.2021
3986 Clouds 5 1011 92 10000 3.6 290 06:40 28.12.2021
3987 Rain 12 1009 95 10000 0.51 20 23:42 27.12.2021
3988 Rain 12 1010 92 10000 0 0 22:58 27.12.2021
3989 Rain 13 1010 89 10000 2.06 160 21:33 27.12.2021
3990 Clouds 13 1010 92 10000 1.03 0 20:46 27.12.2021
3991 Clouds 11 1010 96 9000 1.03 0 19:57 27.12.2021
3992 Clouds 11 1010 95 9000 1.03 0 19:39 27.12.2021
3993 Clouds 10 1010 96 7000 3.6 100 17:55 27.12.2021
3994 Clouds 10 1010 96 7000 3.6 100 17:55 27.12.2021
3995 Clouds 10 1010 96 7000 3.6 100 17:37 27.12.2021
3996 Clouds 10 1010 100 6000 2.06 150 16:36 27.12.2021
3997 Clouds 11 1010 96 9000 2.06 140 15:51 27.12.2021
3998 Clouds 12 1011 89 10000 3.6 110 14:31 27.12.2021
3999 Clouds 12 1011 92 10000 4.12 120 13:39 27.12.2021
4000 Clouds 12 1012 82 10000 4.63 110 11:53 27.12.2021
4001 Clouds 11 1013 87 9000 3.09 120 10:29 27.12.2021
4002 Clouds 10 1013 93 7000 2.57 120 09:39 27.12.2021
4003 Mist 7 1013 100 4000 0 0 07:35 27.12.2021
4004 Mist 7 1013 100 5000 0 0 06:38 27.12.2021
4005 Clouds 6 1014 100 6000 0 0 01:59 27.12.2021
4006 Mist 6 1014 96 4100 1.03 0 23:57 26.12.2021
4007 Mist 6 1014 96 4100 1.03 0 23:34 26.12.2021
4008 Clouds 6 1014 96 6000 0 0 21:53 26.12.2021
4009 Clouds 6 1014 96 7000 1.54 90 20:42 26.12.2021
4010 Clouds 6 1014 96 6000 1.03 0 19:46 26.12.2021
4011 Clouds 6 1014 96 8000 1.54 100 18:23 26.12.2021
4012 Clear 7 1013 92 10000 3.09 140 15:57 26.12.2021
4013 Rain 8 1012 86 10000 4.63 130 14:27 26.12.2021
4014 Clear 9 1012 84 10000 5.14 120 13:40 26.12.2021
4015 Clear 10 1012 81 10000 4.63 120 13:18 26.12.2021
4016 Clear 9 1012 76 10000 3.09 110 12:27 26.12.2021
4017 Clear 7 1012 81 10000 2.57 120 10:22 26.12.2021
4018 Clear 7 1012 71 10000 3.09 130 09:19 26.12.2021
4019 Clear 6 1012 76 10000 2.06 130 08:40 26.12.2021
4020 Clear 5 1011 81 10000 2.57 10 07:25 26.12.2021
4021 Clear 7 1011 70 10000 3.09 360 00:59 26.12.2021
4022 Clear 8 1011 66 10000 2.57 350 23:51 25.12.2021
4023 Clear 8 1011 66 10000 2.57 320 23:26 25.12.2021
4024 Clear 8 1011 76 10000 3.09 340 22:23 25.12.2021
4025 Clear 10 1011 62 10000 3.6 310 20:48 25.12.2021
4026 Clear 9 1012 61 10000 2.06 350 19:22 25.12.2021
4027 Clear 9 1012 57 10000 2.57 310 18:54 25.12.2021
4028 Clear 9 1012 61 10000 1.54 350 17:29 25.12.2021
4029 Clear 10 1011 53 10000 1.54 310 16:35 25.12.2021
4030 Clear 14 1011 44 10000 3.09 290 14:38 25.12.2021
4031 Clear 12 1011 50 10000 3.6 280 12:48 25.12.2021
4032 Clear 11 1012 50 10000 3.6 290 11:37 25.12.2021
4033 Clear 9 1013 61 10000 2.06 320 09:49 25.12.2021
4034 Clear 7 1012 61 10000 2.06 330 08:19 25.12.2021
4035 Clear 4 1010 75 10000 3.09 330 02:22 25.12.2021
4036 Clear 6 1010 65 10000 2.57 350 00:33 25.12.2021
4037 Clear 5 1010 65 10000 2.06 310 23:38 24.12.2021
4038 Clear 6 1010 60 10000 2.57 340 19:39 24.12.2021
4039 Clear 6 1011 60 10000 3.6 310 19:20 24.12.2021
4040 Clear 5 1010 56 10000 4.12 280 16:50 24.12.2021
4041 Clear 6 1010 52 10000 4.12 280 16:21 24.12.2021
4042 Clear 6 1010 52 10000 4.63 280 15:46 24.12.2021
4043 Clear 8 1010 49 10000 4.12 280 14:46 24.12.2021
4044 Clear 7 1010 55 10000 4.63 270 14:23 24.12.2021
4045 Clear 8 1010 52 10000 6.17 270 13:37 24.12.2021
4046 Clear 7 1011 53 10000 4.12 280 12:48 24.12.2021
4047 Clear 5 1012 52 10000 4.63 260 11:52 24.12.2021
4048 Clear 5 1013 48 10000 4.63 260 11:26 24.12.2021
4049 Clear 5 1014 55 10000 3.6 270 10:50 24.12.2021
4050 Clear 4 1014 56 10000 2.06 330 10:18 24.12.2021
4051 Clear 1 1015 70 10000 2.06 350 08:24 24.12.2021
4052 Clear 0 1016 74 10000 1.54 340 07:48 24.12.2021
4053 Clear -3 1020 83 10000 1.54 100 02:52 24.12.2021
4054 Clear -2 1021 80 10000 1.54 20 00:19 24.12.2021
4055 Clear -1 1022 72 10000 1.03 0 23:22 23.12.2021
4056 Clear -2 1023 73 10000 0 0 22:37 23.12.2021
4057 Clear -2 1023 73 10000 0 0 22:37 23.12.2021
4058 Clear -2 1023 77 10000 2.06 360 22:19 23.12.2021
4059 Clear -2 1024 76 10000 1.03 40 20:59 23.12.2021
4060 Clear -2 1024 78 10000 0.51 30 20:19 23.12.2021
4061 Clear -2 1025 79 10000 0.51 0 18:37 23.12.2021
4062 Clear -2 1025 78 10000 0 0 17:57 23.12.2021
4063 Clear -1 1025 55 10000 1.54 100 16:47 23.12.2021
4064 Clear 0 1026 55 10000 1.54 100 16:24 23.12.2021
4065 Clear 1 1026 50 10000 0 0 15:31 23.12.2021
4066 Clear 2 1026 47 10000 2.57 260 14:52 23.12.2021
4067 Clear 2 1026 48 10000 3.09 250 14:31 23.12.2021
4068 Clear 2 1027 41 10000 2.06 260 12:57 23.12.2021
4069 Clear 1 1028 47 10000 0.51 0 10:53 23.12.2021
4070 Clear 0 1029 69 10000 1.03 0 09:47 23.12.2021
4071 Clear -2 1029 78 10000 1.54 260 08:59 23.12.2021
4072 Clear -5 1028 81 10000 1.54 30 06:58 23.12.2021
4073 Clear -5 1028 87 10000 1.54 0 04:33 23.12.2021
4074 Clear -4 1028 81 10000 1.54 290 23:26 22.12.2021
4075 Clear -3 1028 80 10000 1.54 270 22:47 22.12.2021
4076 Clear -3 1028 81 10000 1.54 250 21:56 22.12.2021
4077 Clear -2 1027 77 10000 1.54 300 21:29 22.12.2021
4078 Clear -2 1027 72 10000 1.03 0 20:47 22.12.2021
4079 Clear -2 1027 74 10000 2.06 320 20:26 22.12.2021
4080 Clear -1 1027 73 10000 2.06 340 19:28 22.12.2021
4081 Clear -1 1027 67 10000 2.57 10 17:42 22.12.2021
4082 Clear 0 1026 65 10000 2.06 320 16:40 22.12.2021
4083 Clear 1 1026 57 10000 3.6 240 15:40 22.12.2021
4084 Clear 3 1026 45 10000 4.12 260 13:33 22.12.2021
4085 Clear 2 1027 38 10000 5.66 250 12:40 22.12.2021
4086 Clear 0 1028 69 10000 2.06 250 10:19 22.12.2021
4087 Clouds 1 1030 74 10000 0.72 239 09:38 22.12.2021
4088 Clear -6 1028 93 10000 2.06 330 07:25 22.12.2021
4089 Clear -5 1027 85 10000 1.54 10 05:43 22.12.2021
4090 Clear -6 1027 88 10000 1.54 300 05:24 22.12.2021
4091 Clear -6 1027 90 10000 1.03 280 04:49 22.12.2021
4092 Clear -5 1027 86 10000 1.54 330 04:26 22.12.2021
4093 Clear -5 1027 90 10000 1.03 0 03:32 22.12.2021
4094 Clear -5 1026 90 10000 0 0 00:47 22.12.2021
4095 Clear -3 1026 82 10000 2.06 330 22:52 21.12.2021
4096 Clear -3 1025 79 10000 4.12 10 22:28 21.12.2021
4097 Clear -3 1025 84 10000 2.06 360 21:44 21.12.2021
4098 Clear -3 1025 81 10000 2.06 340 20:55 21.12.2021
4099 Clear -2 1024 86 10000 2.57 350 20:21 21.12.2021
4100 Clear -2 1024 80 10000 2.06 0 19:41 21.12.2021
4101 Clouds -1 1023 80 10000 1.03 0 18:45 21.12.2021
4102 Clouds -1 1023 83 10000 2.57 290 18:21 21.12.2021
4103 Clouds -1 1023 83 10000 3.09 330 17:41 21.12.2021
4104 Clouds 0 1021 83 10000 2.06 350 15:59 21.12.2021
4105 Snow 0 1021 84 10000 2.06 340 15:20 21.12.2021
4106 Clouds 0 1020 87 10000 3.6 280 13:50 21.12.2021
4107 Clouds 0 1020 87 10000 4.12 10 13:30 21.12.2021
4108 Clouds 2 1019 79 10000 9.26 310 11:36 21.12.2021
4109 Clouds 2 1019 83 10000 8.23 310 10:21 21.12.2021
4110 Clear 2 1018 86 10000 6.69 270 09:19 21.12.2021
4111 Clear 0 1017 95 10000 1.03 0 07:55 21.12.2021
4112 Clear 0 1017 92 10000 4.12 270 07:26 21.12.2021
4113 Clear 0 1016 91 10000 5.14 270 05:31 21.12.2021
4114 Clear 0 1015 96 9000 4.12 330 02:40 21.12.2021
4115 Clear 0 1015 96 10000 4.63 270 23:58 20.12.2021
4116 Clear 1 1015 92 10000 4.12 260 23:24 20.12.2021
4117 Clear 1 1014 92 10000 3.6 250 22:28 20.12.2021
4118 Clear 0 1014 96 10000 3.6 250 21:43 20.12.2021
4119 Clear 0 1014 92 10000 4.12 280 21:23 20.12.2021
4120 Clear 1 1013 88 10000 3.6 310 20:42 20.12.2021
4121 Clear 1 1013 92 10000 4.12 300 19:48 20.12.2021
4122 Clouds 1 1012 92 10000 3.6 290 19:29 20.12.2021
4123 Clouds 1 1012 92 10000 5.14 270 18:53 20.12.2021
4124 Clouds 2 1011 92 10000 2.06 300 17:52 20.12.2021
4125 Clouds 2 1010 92 10000 5.66 360 16:56 20.12.2021
4126 Clouds 2 1010 92 10000 6.17 360 16:36 20.12.2021
4127 Clouds 3 1009 92 10000 5.14 340 15:47 20.12.2021
4128 Clouds 3 1009 92 10000 4.12 360 14:42 20.12.2021
4129 Clouds 5 1008 83 10000 5.14 320 12:51 20.12.2021
4130 Clouds 6 1007 83 10000 6.69 280 11:18 20.12.2021
4131 Clouds 5 1007 83 10000 6.17 280 09:47 20.12.2021
4132 Clouds 5 1007 84 10000 5.14 260 08:57 20.12.2021
4133 Clouds 4 1006 87 10000 4.63 260 08:38 20.12.2021
4134 Clouds 4 1006 90 10000 6.17 280 07:46 20.12.2021
4135 Clouds 5 1005 83 10000 7.72 260 06:40 20.12.2021
4136 Clouds 4 1006 85 10000 3.09 260 03:41 20.12.2021
4137 Clouds 4 1008 86 10000 3.09 230 23:50 19.12.2021
4138 Clear 3 1008 85 10000 0.51 0 22:44 19.12.2021
4139 Clear 3 1009 85 10000 1.54 340 21:49 19.12.2021
4140 Clear 3 1009 85 10000 1.03 0 21:25 19.12.2021
4141 Clear 2 1010 85 10000 2.06 270 20:29 19.12.2021
4142 Clear 2 1010 86 10000 1.03 0 19:45 19.12.2021
4143 Clear 1 1010 89 10000 3.6 320 18:54 19.12.2021
4144 Clear 1 1011 86 10000 3.6 310 18:20 19.12.2021
4145 Clear 1 1011 89 10000 2.57 300 17:45 19.12.2021
4146 Clear 2 1011 86 10000 2.57 260 16:55 19.12.2021
4147 Clear 4 1011 79 10000 4.12 280 15:58 19.12.2021
4148 Clear 5 1012 76 10000 6.17 280 15:25 19.12.2021
4149 Clear 5 1012 75 10000 7.2 280 14:49 19.12.2021
4150 Clear 6 1013 72 10000 8.23 290 13:41 19.12.2021
4151 Clear 6 1014 68 10000 8.23 280 13:20 19.12.2021
4152 Clear 6 1014 68 10000 7.72 280 12:33 19.12.2021
4153 Clouds 6 1016 74 10000 6.69 270 11:39 19.12.2021
4154 Clouds 4 1017 80 10000 6.17 280 10:51 19.12.2021
4155 Clouds 4 1018 82 10000 6.17 270 10:23 19.12.2021
4156 Clouds 1 1019 90 10000 2.57 290 08:55 19.12.2021
4157 Clouds -1 1019 96 10000 0 0 06:54 19.12.2021
4158 Clear -1 1022 100 10000 1.03 0 02:30 19.12.2021
4159 Clear -1 1023 92 10000 3.09 260 00:55 19.12.2021
4160 Clear 1 1023 86 10000 2.06 270 23:21 18.12.2021
4161 Clear 1 1024 82 10000 2.06 270 22:29 18.12.2021
4162 Clear 2 1024 80 10000 2.06 10 21:44 18.12.2021
4163 Clear 2 1024 82 10000 2.57 330 21:26 18.12.2021
4164 Clouds 2 1024 82 10000 2.06 320 20:43 18.12.2021
4165 Clouds 2 1024 82 10000 2.06 320 20:43 18.12.2021
4166 Clouds 2 1023 86 10000 2.57 0 19:40 18.12.2021
4167 Clouds 2 1023 83 10000 4.12 350 18:26 18.12.2021
4168 Clouds 2 1023 86 10000 4.63 360 17:49 18.12.2021
4169 Clouds 3 1023 82 10000 3.09 330 16:50 18.12.2021
4170 Clouds 3 1022 82 10000 4.12 350 16:21 18.12.2021
4171 Clouds 4 1022 79 10000 4.12 350 15:25 18.12.2021
4172 Clouds 4 1022 77 10000 6.17 10 14:19 18.12.2021
4173 Clouds 4 1022 82 10000 5.14 360 11:59 18.12.2021
4174 Clouds 4 1021 82 10000 5.14 360 10:42 18.12.2021
4175 Clouds 4 1021 85 10000 5.14 360 09:32 18.12.2021
4176 Clouds 3 1020 86 10000 2.57 0 08:36 18.12.2021
4177 Clouds 3 1020 88 10000 4.12 350 07:41 18.12.2021
4178 Clouds 1 1018 96 10000 2.57 250 01:47 18.12.2021
4179 Clouds 2 1019 95 10000 4.63 250 23:56 17.12.2021
4180 Clouds 3 1019 95 10000 4.63 260 22:51 17.12.2021
4181 Clouds 3 1018 91 10000 2.57 280 21:50 17.12.2021
4182 Clouds 3 1018 91 10000 3.09 260 20:48 17.12.2021
4183 Clouds 4 1018 91 10000 3.6 260 19:58 17.12.2021
4184 Clouds 4 1018 91 10000 3.09 240 18:40 17.12.2021
4185 Clouds 4 1018 91 10000 3.09 240 18:18 17.12.2021
4186 Clouds 5 1018 87 10000 2.57 300 16:57 17.12.2021
4187 Clouds 5 1018 87 10000 3.09 320 16:28 17.12.2021
4188 Clouds 5 1017 87 10000 3.6 270 15:51 17.12.2021
4189 Clouds 6 1017 83 10000 3.09 300 14:43 17.12.2021
4190 Clouds 6 1018 83 10000 4.63 310 13:55 17.12.2021
4191 Clouds 6 1018 83 10000 5.66 300 12:37 17.12.2021
4192 Clouds 6 1019 83 10000 5.66 320 10:42 17.12.2021
4193 Clouds 5 1019 91 10000 5.66 300 09:47 17.12.2021
4194 Clouds 4 1020 92 10000 4.63 290 08:43 17.12.2021
4195 Clouds 4 1020 91 10000 5.14 300 08:18 17.12.2021
4196 Clouds 4 1020 92 10000 4.12 280 04:57 17.12.2021
4197 Clouds 3 1021 96 8000 6.69 280 00:57 17.12.2021
4198 Clouds 3 1022 92 8000 6.17 280 22:44 16.12.2021
4199 Clouds 3 1022 92 10000 5.66 290 22:22 16.12.2021
4200 Clouds 3 1022 92 9000 5.14 290 21:43 16.12.2021
4201 Clouds 3 1022 92 10000 5.66 290 20:40 16.12.2021
4202 Clouds 3 1022 92 10000 5.14 280 19:52 16.12.2021
4203 Clouds 2 1022 96 10000 5.66 280 18:45 16.12.2021
4204 Clouds 3 1022 92 10000 5.14 280 18:26 16.12.2021
4205 Clouds 3 1022 92 10000 5.66 300 17:36 16.12.2021
4206 Clouds 3 1022 92 10000 7.2 320 16:24 16.12.2021
4207 Clouds 3 1022 92 10000 6.69 340 15:26 16.12.2021
4208 Clouds 3 1022 92 10000 8.75 330 13:45 16.12.2021
4209 Clouds 3 1023 92 8000 5.66 310 11:48 16.12.2021
4210 Rain 3 1023 92 8000 4.63 310 11:18 16.12.2021
4211 Clouds 2 1023 96 8000 4.12 290 10:39 16.12.2021
4212 Rain 2 1024 95 8000 4.12 300 09:39 16.12.2021
4213 Rain 3 1023 92 10000 4.63 330 06:23 16.12.2021
4214 Clouds 4 1023 87 10000 5.14 330 03:19 16.12.2021
4215 Clouds 3 1024 87 10000 5.14 320 23:36 15.12.2021
4216 Clouds 2 1024 86 10000 4.63 320 22:49 15.12.2021
4217 Clouds 2 1024 86 10000 5.66 330 22:19 15.12.2021
4218 Clouds 3 1024 83 10000 4.63 320 21:31 15.12.2021
4219 Clouds 3 1024 86 10000 5.66 310 20:36 15.12.2021
4220 Clouds 3 1023 87 10000 6.17 330 19:53 15.12.2021
4221 Clouds 3 1022 92 10000 5.14 330 18:41 15.12.2021
4222 Rain 3 1022 90 10000 7.2 330 18:18 15.12.2021
4223 Rain 3 1021 83 10000 8.75 340 17:40 15.12.2021
4224 Rain 3 1021 82 10000 7.2 340 16:57 15.12.2021
4225 Clouds 3 1021 81 10000 7.72 330 15:47 15.12.2021
4226 Clouds 3 1021 82 10000 7.72 330 15:29 15.12.2021
4227 Clouds 3 1021 82 10000 6.69 320 14:44 15.12.2021
4228 Clouds 3 1021 86 10000 5.14 310 13:27 15.12.2021
4229 Clouds 4 1022 82 10000 7.2 310 10:58 15.12.2021
4230 Clouds 3 1022 87 10000 6.69 300 09:31 15.12.2021
4231 Clouds 3 1022 87 10000 7.72 310 07:47 15.12.2021
4232 Clouds 2 1022 87 10000 6.17 300 02:40 15.12.2021
4233 Clouds 2 1022 86 10000 5.14 310 23:44 14.12.2021
4234 Clouds 2 1023 86 10000 3.09 310 22:49 14.12.2021
4235 Clouds 2 1023 86 10000 3.09 310 22:49 14.12.2021
4236 Clouds 2 1023 86 10000 3.09 310 22:49 14.12.2021
4237 Clouds 2 1022 86 10000 4.12 330 22:30 14.12.2021
4238 Clouds 3 1022 83 10000 2.06 310 20:57 14.12.2021
4239 Clouds 3 1022 87 10000 4.12 310 19:44 14.12.2021
4240 Clouds 3 1022 87 10000 4.12 310 19:44 14.12.2021
4241 Clouds 3 1022 88 10000 3.09 310 19:20 14.12.2021
4242 Clouds 3 1022 88 10000 3.6 310 18:29 14.12.2021
4243 Clouds 3 1022 91 10000 3.09 310 17:34 14.12.2021
4244 Clouds 3 1021 91 10000 3.09 300 16:43 14.12.2021
4245 Clouds 3 1021 92 10000 3.09 260 15:41 14.12.2021
4246 Clouds 4 1020 92 10000 2.57 0 13:32 14.12.2021
4247 Clouds 4 1021 92 10000 3.09 0 12:27 14.12.2021
4248 Clouds 4 1021 92 10000 2.57 300 11:24 14.12.2021
4249 Clouds 4 1021 92 10000 2.57 0 10:25 14.12.2021
4250 Clouds 4 1021 92 10000 3.09 0 09:53 14.12.2021
4251 Clouds 4 1021 92 8000 2.57 0 08:28 14.12.2021
4252 Drizzle 4 1021 92 7000 3.09 250 07:59 14.12.2021
4253 Clouds 4 1020 92 10000 4.12 260 05:38 14.12.2021
4254 Clouds 5 1019 92 10000 4.63 280 22:59 13.12.2021
4255 Clouds 4 1019 96 10000 4.63 270 21:54 13.12.2021
4256 Clouds 4 1019 96 8000 4.12 300 21:34 13.12.2021
4257 Clouds 4 1020 96 10000 3.6 290 20:45 13.12.2021
4258 Clouds 4 1019 96 10000 4.12 310 19:57 13.12.2021
4259 Clouds 4 1019 95 10000 5.14 300 19:19 13.12.2021
4260 Clouds 4 1019 95 10000 4.63 310 17:26 13.12.2021
4261 Clouds 4 1018 91 10000 4.63 290 15:56 13.12.2021
4262 Clouds 4 1018 91 10000 4.63 300 15:38 13.12.2021
4263 Clouds 4 1017 91 10000 6.17 290 13:47 13.12.2021
4264 Clouds 5 1017 88 10000 4.63 290 13:18 13.12.2021
4265 Clouds 5 1017 87 10000 5.66 290 12:19 13.12.2021
4266 Clouds 5 1018 86 10000 5.66 290 11:35 13.12.2021
4267 Clouds 5 1018 82 10000 5.66 290 10:47 13.12.2021
4268 Clouds 4 1018 86 10000 4.63 290 09:41 13.12.2021
4269 Rain 4 1017 87 10000 5.14 270 07:57 13.12.2021
4270 Clouds 5 1016 88 10000 5.14 280 05:36 13.12.2021
4271 Rain 5 1016 91 10000 6.17 300 03:30 13.12.2021
4272 Clouds 7 1015 95 10000 3.6 280 23:26 12.12.2021
4273 Rain 9 1015 99 7000 3.6 270 21:41 12.12.2021
4274 Clouds 10 1014 91 10000 2.06 60 20:28 12.12.2021
4275 Rain 10 1013 94 10000 1.54 80 18:43 12.12.2021
4276 Mist 10 1013 95 6000 3.09 110 17:45 12.12.2021
4277 Rain 11 1012 91 10000 0 0 16:28 12.12.2021
4278 Clouds 11 1012 91 10000 2.06 130 15:50 12.12.2021
4279 Rain 11 1012 95 10000 1.54 110 15:25 12.12.2021
4280 Rain 12 1011 91 10000 3.6 130 14:36 12.12.2021
4281 Rain 12 1011 95 10000 2.57 130 13:26 12.12.2021
4282 Rain 12 1011 95 10000 3.6 130 12:30 12.12.2021
4283 Rain 12 1011 91 10000 5.14 130 11:44 12.12.2021
4284 Rain 12 1011 92 10000 4.63 110 11:22 12.12.2021
4285 Rain 12 1011 91 10000 2.57 120 10:22 12.12.2021
4286 Rain 12 1011 91 10000 5.14 130 09:38 12.12.2021
4287 Rain 12 1011 91 10000 2.06 0 07:57 12.12.2021
4288 Rain 13 1010 92 10000 3.6 220 06:19 12.12.2021
4289 Clouds 13 1008 89 10000 6.17 110 04:56 12.12.2021
4290 Rain 13 1009 90 10000 7.72 120 03:31 12.12.2021
4291 Clear 12 1010 90 10000 5.14 100 23:44 11.12.2021
4292 Clouds 12 1011 90 10000 5.66 100 22:22 11.12.2021
4293 Clouds 12 1012 90 10000 4.12 110 21:51 11.12.2021
4294 Rain 12 1012 86 10000 5.66 130 20:51 11.12.2021
4295 Clear 12 1011 89 10000 6.69 90 19:23 11.12.2021
4296 Clear 12 1012 86 10000 7.2 120 18:52 11.12.2021
4297 Clouds 12 1012 83 10000 6.17 120 18:19 11.12.2021
4298 Clear 12 1011 86 10000 6.17 120 17:20 11.12.2021
4299 Clouds 13 1011 85 10000 5.14 120 15:52 11.12.2021
4300 Clouds 12 1011 87 10000 4.12 120 15:27 11.12.2021
4301 Clouds 13 1011 84 10000 7.72 120 12:50 11.12.2021
4302 Clouds 13 1011 84 10000 7.72 120 12:50 11.12.2021
4303 Clouds 13 1011 76 10000 5.66 120 11:25 11.12.2021
4304 Clear 12 1012 80 10000 3.6 120 09:45 11.12.2021
4305 Clouds 8 1011 89 10000 3.09 110 07:49 11.12.2021
4306 Clear 8 1010 85 10000 1.03 0 02:20 11.12.2021
4307 Clear 10 1008 82 10000 2.57 210 23:50 10.12.2021
4308 Clear 11 1008 81 10000 4.63 190 23:18 10.12.2021
4309 Clouds 11 1007 86 10000 2.06 130 21:52 10.12.2021
4310 Clouds 11 1007 90 10000 3.6 120 20:57 10.12.2021
4311 Clouds 12 1007 91 10000 3.6 120 19:21 10.12.2021
4312 Rain 12 1007 91 10000 4.12 130 17:59 10.12.2021
4313 Rain 11 1008 99 10000 2.57 90 16:56 10.12.2021
4314 Rain 12 1008 91 10000 2.06 140 16:19 10.12.2021
4315 Rain 13 1008 84 10000 5.66 150 15:39 10.12.2021
4316 Rain 14 1008 84 10000 5.66 150 15:20 10.12.2021
4317 Clouds 15 1007 72 10000 8.23 160 13:51 10.12.2021
4318 Clouds 15 1008 72 10000 7.72 150 13:26 10.12.2021
4319 Clear 15 1008 69 10000 6.69 150 12:34 10.12.2021
4320 Clear 15 1009 68 10000 6.17 140 11:28 10.12.2021
4321 Clear 15 1009 68 10000 6.17 140 11:28 10.12.2021
4322 Clear 14 1010 75 10000 6.69 150 09:54 10.12.2021
4323 Clouds 13 1010 82 10000 4.63 130 08:32 10.12.2021
4324 Clouds 13 1010 81 10000 5.14 150 05:57 10.12.2021
4325 Clouds 12 1010 88 10000 3.6 130 02:48 10.12.2021
4326 Clouds 12 1011 90 10000 5.66 120 23:54 09.12.2021
4327 Clouds 11 1011 90 10000 4.63 130 23:20 09.12.2021
4328 Clouds 11 1012 90 10000 2.57 110 22:24 09.12.2021
4329 Clouds 10 1012 94 10000 2.57 120 21:50 09.12.2021
4330 Clouds 10 1012 90 10000 3.6 120 20:41 09.12.2021
4331 Clouds 10 1012 90 10000 3.6 120 20:41 09.12.2021
4332 Clouds 10 1012 93 10000 3.09 140 20:20 09.12.2021
4333 Clear 9 1012 90 10000 4.12 100 19:21 09.12.2021
4334 Clouds 9 1012 93 10000 4.12 110 18:36 09.12.2021
4335 Clouds 9 1012 93 10000 3.6 100 17:51 09.12.2021
4336 Clear 9 1012 93 10000 2.57 130 17:25 09.12.2021
4337 Clouds 9 1012 89 10000 4.12 100 16:53 09.12.2021
4338 Clouds 10 1012 83 10000 3.09 140 15:32 09.12.2021
4339 Clouds 12 1012 72 10000 3.6 180 14:46 09.12.2021
4340 Clear 12 1012 65 10000 4.12 180 13:19 09.12.2021
4341 Clear 11 1012 66 10000 4.12 160 12:35 09.12.2021
4342 Clear 9 1013 71 10000 2.57 120 10:58 09.12.2021
4343 Clear 6 1014 89 10000 2.06 110 08:49 09.12.2021
4344 Clouds 2 1013 100 7000 1.03 80 06:19 09.12.2021
4345 Clear 2 1012 95 8000 1.54 50 02:58 09.12.2021
4346 Clear 4 1012 89 10000 3.09 330 23:43 08.12.2021
4347 Clouds 4 1012 93 9000 2.57 300 23:21 08.12.2021
4348 Clouds 4 1012 90 10000 3.09 290 22:46 08.12.2021
4349 Clouds 4 1012 93 8000 3.09 260 21:40 08.12.2021
4350 Clouds 4 1011 94 9000 3.09 260 20:59 08.12.2021
4351 Clouds 4 1011 94 10000 2.06 250 19:58 08.12.2021
4352 Clouds 4 1011 91 10000 3.6 270 19:33 08.12.2021
4353 Clouds 4 1011 94 10000 3.6 280 18:31 08.12.2021
4354 Clouds 4 1010 91 10000 4.63 280 17:26 08.12.2021
4355 Clouds 4 1009 87 10000 6.69 290 15:47 08.12.2021
4356 Clouds 4 1009 91 10000 5.14 280 15:26 08.12.2021
4357 Clouds 5 1008 86 10000 6.69 290 14:28 08.12.2021
4358 Clouds 5 1007 86 10000 8.23 280 10:54 08.12.2021
4359 Clouds 5 1007 86 10000 8.23 290 10:28 08.12.2021
4360 Clouds 4 1006 88 10000 6.17 300 08:54 08.12.2021
4361 Clouds 3 1005 91 10000 8.23 320 07:21 08.12.2021
4362 Clouds 5 1002 96 6000 6.69 290 01:40 08.12.2021
4363 Rain 6 1001 92 10000 5.66 290 23:33 07.12.2021
4364 Clouds 8 1001 87 10000 3.09 260 21:26 07.12.2021
4365 Rain 8 1000 95 10000 1.54 0 20:54 07.12.2021
4366 Rain 9 1000 100 5000 3.6 250 19:50 07.12.2021
4367 Rain 11 1000 96 9000 4.63 100 18:39 07.12.2021
4368 Rain 12 1000 96 10000 3.09 80 17:27 07.12.2021
4369 Rain 12 1000 96 10000 3.09 80 17:27 07.12.2021
4370 Rain 12 1000 96 10000 2.57 60 16:57 07.12.2021
4371 Clouds 12 1000 96 10000 1.54 110 16:28 07.12.2021
4372 Clouds 12 1000 96 10000 2.57 110 14:50 07.12.2021
4373 Rain 13 1001 91 10000 4.63 120 13:49 07.12.2021
4374 Rain 13 1001 94 10000 4.63 110 12:46 07.12.2021
4375 Clouds 13 1002 90 10000 5.14 100 11:25 07.12.2021
4376 Clouds 13 1003 94 10000 6.69 120 09:44 07.12.2021
4377 Clouds 13 1003 89 10000 3.6 110 07:55 07.12.2021
4378 Rain 13 1004 90 10000 3.6 110 05:55 07.12.2021
4379 Clear 13 1004 90 10000 4.12 140 05:27 07.12.2021
4380 Rain 12 1007 99 10000 2.57 90 23:45 06.12.2021
4381 Clouds 12 1006 93 10000 3.6 100 22:44 06.12.2021
4382 Clear 12 1006 96 10000 3.09 110 22:18 06.12.2021
4383 Clouds 13 1006 93 10000 3.09 90 21:37 06.12.2021
4384 Clouds 13 1007 93 10000 1.03 0 20:33 06.12.2021
4385 Clear 12 1007 92 10000 1.54 330 19:27 06.12.2021
4386 Clear 13 1007 89 10000 2.57 120 18:57 06.12.2021
4387 Clouds 13 1007 90 10000 3.6 120 17:55 06.12.2021
4388 Clouds 13 1007 90 10000 3.6 120 17:34 06.12.2021
4389 Clouds 13 1007 94 10000 3.09 110 16:21 06.12.2021
4390 Rain 14 1007 90 6000 4.12 160 14:51 06.12.2021
4391 Clouds 17 1006 66 10000 6.69 190 13:36 06.12.2021
4392 Clouds 17 1007 64 10000 5.66 210 12:39 06.12.2021
4393 Clouds 14 1008 79 10000 1.03 0 10:30 06.12.2021
4394 Clouds 12 1008 90 10000 2.06 150 07:41 06.12.2021
4395 Clear 11 1007 94 10000 3.09 160 03:52 06.12.2021
4396 Rain 10 1009 90 10000 0 0 22:28 05.12.2021
4397 Clouds 10 1009 93 10000 2.06 150 21:26 05.12.2021
4398 Clouds 10 1009 94 10000 2.57 130 20:58 05.12.2021
4399 Clouds 10 1009 90 10000 0 0 20:18 05.12.2021
4400 Clouds 10 1010 90 10000 1.03 0 19:26 05.12.2021
4401 Clouds 10 1010 89 10000 0 0 18:37 05.12.2021
4402 Clouds 10 1010 93 10000 0 0 17:53 05.12.2021
4403 Clouds 10 1009 89 10000 1.54 0 17:34 05.12.2021
4404 Clouds 11 1009 85 10000 2.57 160 16:38 05.12.2021
4405 Clouds 11 1009 85 10000 2.57 160 16:19 05.12.2021
4406 Clouds 12 1009 78 10000 1.54 140 14:48 05.12.2021
4407 Clouds 11 1009 78 10000 2.57 190 14:30 05.12.2021
4408 Clouds 12 1009 74 10000 4.12 190 13:36 05.12.2021
4409 Clouds 11 1009 82 10000 4.63 190 12:47 05.12.2021
4410 Clouds 11 1010 76 10000 5.14 200 12:27 05.12.2021
4411 Clouds 11 1010 82 10000 2.57 190 11:46 05.12.2021
4412 Clouds 10 1010 87 10000 2.06 110 10:43 05.12.2021
4413 Clouds 8 1011 88 10000 0 0 09:47 05.12.2021
4414 Clouds 4 1011 100 9000 1.03 0 06:30 05.12.2021
4415 Fog 2 1011 100 1900 0.51 0 01:29 05.12.2021
4416 Clouds 3 1012 100 10000 0 0 23:22 04.12.2021
4417 Clouds 3 1012 93 10000 1.54 350 21:51 04.12.2021
4418 Clouds 3 1012 93 10000 2.06 320 20:47 04.12.2021
4419 Clouds 3 1012 93 10000 3.09 300 19:54 04.12.2021
4420 Clouds 3 1012 93 10000 2.06 300 19:30 04.12.2021
4421 Clouds 3 1011 93 10000 3.09 320 17:53 04.12.2021
4422 Clouds 3 1013 93 10000 3.09 320 17:35 04.12.2021
4423 Clouds 3 1012 93 8000 5.14 300 16:47 04.12.2021
4424 Clouds 3 1012 93 10000 5.14 290 16:28 04.12.2021
4425 Clouds 4 1010 88 10000 4.63 300 13:30 04.12.2021
4426 Rain 4 1010 87 10000 5.14 270 11:41 04.12.2021
4427 Rain 4 1010 87 8000 3.09 300 11:18 04.12.2021
4428 Rain 4 1011 93 5000 6.69 360 09:44 04.12.2021
4429 Rain 4 1011 93 5000 3.6 320 08:35 04.12.2021
4430 Rain 5 1011 93 8000 4.12 0 04:43 04.12.2021
4431 Rain 6 1011 86 6000 5.66 10 03:36 04.12.2021
4432 Clouds 10 1011 76 10000 6.17 360 23:47 03.12.2021
4433 Clouds 11 1010 86 10000 3.6 320 22:53 03.12.2021
4434 Clouds 12 1010 82 10000 1.03 240 21:57 03.12.2021
4435 Clouds 13 1010 79 10000 0 0 21:23 03.12.2021
4436 Clouds 14 1010 77 10000 2.57 230 20:42 03.12.2021
4437 Clouds 14 1009 73 10000 1.03 0 19:28 03.12.2021
4438 Clear 13 1009 72 10000 2.57 300 18:23 03.12.2021
4439 Clear 13 1008 70 10000 1.03 0 17:31 03.12.2021
4440 Clouds 18 1007 55 10000 6.17 240 13:40 03.12.2021
4441 Clear 18 1006 55 10000 6.69 250 12:44 03.12.2021
4442 Clear 17 1007 55 10000 6.69 270 11:23 03.12.2021
4443 Clear 14 1008 71 10000 4.12 290 09:22 03.12.2021
4444 Clear 12 1007 74 10000 4.12 270 08:18 03.12.2021
4445 Clear 9 1007 76 10000 3.09 30 06:44 03.12.2021
4446 Clear 7 1007 76 10000 0 0 00:50 03.12.2021
4447 Clear 7 1007 80 10000 1.54 0 00:21 03.12.2021
4448 Clear 7 1007 80 10000 2.06 80 23:38 02.12.2021
4449 Clear 9 1008 76 10000 2.06 70 21:41 02.12.2021
4450 Clear 9 1008 76 10000 1.54 320 20:46 02.12.2021
4451 Clear 10 1008 74 10000 4.63 220 20:26 02.12.2021
4452 Clear 9 1008 79 10000 1.03 0 19:23 02.12.2021
4453 Clear 11 1008 70 10000 2.06 170 17:21 02.12.2021
4454 Clear 12 1008 65 10000 2.57 270 15:41 02.12.2021
4455 Clear 13 1009 54 10000 5.14 260 14:57 02.12.2021
4456 Clear 13 1008 47 10000 4.63 230 13:44 02.12.2021
4457 Clear 13 1009 47 10000 5.66 270 12:50 02.12.2021
4458 Clear 13 1009 47 10000 4.63 250 11:52 02.12.2021
4459 Clear 9 1011 57 10000 1.54 120 09:27 02.12.2021
4460 Clear 5 1011 83 10000 0 0 08:19 02.12.2021
4461 Clear 2 1012 93 10000 0.51 0 01:58 02.12.2021
4462 Clear 2 1012 87 10000 1.03 0 00:50 02.12.2021
4463 Clear 3 1013 86 10000 0 0 22:33 01.12.2021
4464 Clear 3 1012 83 10000 2.06 10 21:55 01.12.2021
4465 Clear 4 1012 83 10000 1.54 220 20:35 01.12.2021
4466 Clear 3 1012 83 10000 1.03 0 19:47 01.12.2021
4467 Clear 4 1012 79 10000 1.54 360 18:55 01.12.2021
4468 Clear 5 1012 79 10000 0 0 17:32 01.12.2021
4469 Clouds 6 1011 73 10000 2.57 300 16:37 01.12.2021
4470 Clouds 9 1010 64 10000 6.69 280 14:48 01.12.2021
4471 Clouds 10 1009 63 10000 9.77 290 13:38 01.12.2021
4472 Clouds 8 1009 68 10000 9.26 290 11:34 01.12.2021
4473 Clouds 7 1010 66 10000 7.72 290 10:41 01.12.2021
4474 Clouds 4 1010 68 10000 1.54 250 08:53 01.12.2021
4475 Clouds 3 1010 71 10000 1.54 330 08:26 01.12.2021
4476 Clouds 1 1009 69 10000 3.09 270 07:32 01.12.2021
4477 Clear 1 1009 75 10000 2.06 310 04:18 01.12.2021
4478 Clear 1 1010 80 10000 4.12 300 03:32 01.12.2021
4479 Clear 2 1010 75 10000 7.2 280 00:45 01.12.2021
4480 Clear 2 1010 75 10000 8.75 280 23:33 30.11.2021
4481 Clear 2 1010 75 10000 9.77 270 22:39 30.11.2021
4482 Clouds 3 1009 75 10000 10.8 270 20:48 30.11.2021
4483 Clouds 2 1009 80 10000 9.77 270 20:27 30.11.2021
4484 Clouds 2 1009 87 10000 8.75 270 19:47 30.11.2021
4485 Clouds 3 1008 87 10000 8.23 280 18:57 30.11.2021
4486 Clouds 3 1008 87 10000 7.2 270 17:57 30.11.2021
4487 Clouds 3 1006 93 10000 6.69 270 16:25 30.11.2021
4488 Clouds 3 1004 87 10000 5.66 270 14:35 30.11.2021
4489 Rain 3 1002 88 10000 6.17 300 13:48 30.11.2021
4490 Rain 3 1001 85 10000 6.17 320 13:22 30.11.2021
4491 Rain 3 1001 88 10000 8.23 310 12:41 30.11.2021
4492 Rain 3 999 93 10000 10.29 290 11:26 30.11.2021
4493 Rain 4 998 93 10000 8.23 300 10:36 30.11.2021
4494 Rain 8 996 93 5000 5.14 40 08:59 30.11.2021
4495 Rain 8 995 87 10000 7.2 40 08:40 30.11.2021
4496 Rain 8 995 87 10000 7.2 40 08:19 30.11.2021
4497 Rain 6 998 100 8000 1.54 20 06:39 30.11.2021
4498 Clear 4 1001 100 10000 2.06 30 01:51 30.11.2021
4499 Clear 5 1001 100 10000 3.09 10 01:28 30.11.2021
4500 Clear 6 1002 86 10000 1.54 360 23:51 29.11.2021
4501 Clear 6 1002 82 10000 2.57 360 23:19 29.11.2021
4502 Clear 6 1001 86 10000 2.06 340 22:38 29.11.2021
4503 Clear 7 1001 93 10000 2.06 320 21:56 29.11.2021
4504 Clear 7 1000 86 10000 1.03 0 21:20 29.11.2021
4505 Clear 7 1000 86 10000 2.06 330 20:54 29.11.2021
4506 Clear 8 999 89 10000 1.54 310 19:59 29.11.2021
4507 Clouds 8 999 89 9000 1.54 130 19:41 29.11.2021
4508 Clouds 8 999 89 9000 1.54 130 19:21 29.11.2021
4509 Clouds 10 1000 68 10000 6.82 293 18:42 29.11.2021
4510 Rain 10 998 72 10000 7.5 284 17:22 29.11.2021
4511 Rain 10 998 72 10000 7.5 284 16:50 29.11.2021
4512 Rain 12 997 71 10000 7.22 284 16:24 29.11.2021
4513 Rain 13 996 66 10000 7.44 277 14:47 29.11.2021
4514 Clouds 14 995 68 10000 8.64 285 14:23 29.11.2021
4515 Clouds 16 994 63 10000 12.42 272 12:59 29.11.2021
4516 Clouds 20 992 50 10000 13.58 222 12:19 29.11.2021
4517 Clouds 20 992 58 10000 12.22 214 11:28 29.11.2021
4518 Clouds 21 993 60 9000 8.75 220 09:59 29.11.2021
4519 Clouds 15 994 77 10000 2.57 10 07:26 29.11.2021
4520 Clouds 13 995 88 10000 5.14 110 05:51 29.11.2021
4521 Clouds 16 999 72 10000 1.03 0 01:24 29.11.2021
4522 Clouds 15 1000 72 10000 2.57 160 23:54 28.11.2021
4523 Clouds 15 1000 72 10000 2.57 160 23:36 28.11.2021
4524 Clear 14 1002 72 10000 4.12 180 22:18 28.11.2021
4525 Clear 12 1002 82 10000 3.09 120 21:39 28.11.2021
4526 Clear 12 1003 76 10000 2.06 140 20:40 28.11.2021
4527 Clear 14 1003 72 10000 2.57 180 19:44 28.11.2021
4528 Clear 12 1003 82 10000 1.54 70 18:40 28.11.2021
4529 Clear 13 1003 76 10000 1.54 20 17:58 28.11.2021
4530 Clear 14 1003 77 10000 3.09 240 17:34 28.11.2021
4531 Clear 13 1003 76 10000 2.06 230 16:47 28.11.2021
4532 Clear 14 1003 72 10000 2.06 260 16:27 28.11.2021
4533 Clouds 15 1003 67 10000 4.12 240 15:48 28.11.2021
4534 Clouds 15 1003 72 10000 3.09 240 14:55 28.11.2021
4535 Clouds 16 1003 72 10000 3.6 220 13:53 28.11.2021
4536 Clouds 17 1003 63 10000 5.14 230 12:54 28.11.2021
4537 Clouds 16 1002 77 10000 2.06 130 11:29 28.11.2021
4538 Clouds 15 1003 82 10000 0 0 10:23 28.11.2021
4539 Clouds 15 1003 82 10000 2.06 180 09:40 28.11.2021
4540 Clouds 13 1003 94 10000 1.03 0 08:28 28.11.2021
4541 Clear 10 1004 93 10000 2.06 70 00:49 28.11.2021
4542 Clear 10 1005 93 10000 3.6 110 21:46 27.11.2021
4543 Clear 10 1006 87 10000 2.06 50 19:50 27.11.2021
4544 Clear 10 1005 87 10000 2.06 100 18:26 27.11.2021
4545 Clear 15 1005 63 10000 1.54 0 15:59 27.11.2021
4546 Clouds 16 1005 59 10000 3.09 280 14:35 27.11.2021
4547 Clear 16 1005 59 10000 3.6 270 13:21 27.11.2021
4548 Clear 16 1005 59 10000 4.12 280 11:23 27.11.2021
4549 Clear 13 1005 76 10000 2.57 250 09:55 27.11.2021
4550 Clouds 11 1005 82 10000 1.03 0 08:53 27.11.2021
4551 Clouds 10 1004 87 10000 1.54 100 06:58 27.11.2021
4552 Clear 8 1003 93 10000 1.54 60 03:57 27.11.2021
4553 Clouds 11 1003 93 10000 0.51 0 00:23 27.11.2021
4554 Clouds 12 1003 94 9000 3.09 130 22:41 26.11.2021
4555 Clouds 12 1003 94 10000 2.06 150 22:20 26.11.2021
4556 Clouds 12 1003 94 10000 4.12 160 21:23 26.11.2021
4557 Clouds 12 1003 94 10000 3.6 160 20:40 26.11.2021
4558 Rain 12 1004 94 7000 4.63 120 19:55 26.11.2021
4559 Rain 12 1004 82 10000 4.63 140 18:45 26.11.2021
4560 Clouds 12 1005 87 10000 6.17 140 17:27 26.11.2021
4561 Clouds 12 1006 82 10000 6.17 150 16:50 26.11.2021
4562 Rain 12 1007 76 10000 5.66 140 14:57 26.11.2021
4563 Clouds 12 1009 71 10000 3.6 140 13:35 26.11.2021
4564 Clouds 12 1011 58 10000 5.14 180 10:44 26.11.2021
4565 Clear 12 1013 65 10000 4.12 150 09:53 26.11.2021
4566 Clouds 9 1014 74 10000 0 0 08:50 26.11.2021
4567 Clouds 8 1014 80 10000 0 0 08:20 26.11.2021
4568 Clouds 4 1014 87 10000 1.03 0 06:31 26.11.2021
4569 Clear 4 1015 87 10000 2.06 100 05:35 26.11.2021
4570 Clouds 4 1016 93 10000 1.54 10 03:39 26.11.2021
4571 Clouds 6 1018 83 10000 0 0 23:49 25.11.2021
4572 Clouds 7 1018 76 10000 0 0 22:34 25.11.2021
4573 Clouds 7 1019 76 10000 1.03 0 20:45 25.11.2021
4574 Clouds 7 1020 76 10000 1.03 300 19:22 25.11.2021
4575 Clouds 7 1020 79 10000 1.54 300 18:31 25.11.2021
4576 Clouds 7 1020 76 10000 2.57 140 17:28 25.11.2021
4577 Clouds 7 1020 75 10000 3.09 130 16:45 25.11.2021
4578 Clouds 8 1020 72 10000 3.6 120 16:00 25.11.2021
4579 Clouds 10 1021 65 10000 3.6 100 14:31 25.11.2021
4580 Clouds 9 1022 61 10000 1.54 120 12:57 25.11.2021
4581 Clouds 9 1022 61 10000 1.54 0 11:56 25.11.2021
4582 Clear 9 1023 61 10000 1.03 0 10:49 25.11.2021
4583 Clear 3 1024 80 6000 0 0 08:28 25.11.2021
4584 Clear 0 1025 85 10000 1.03 0 03:18 25.11.2021
4585 Clear 1 1025 85 10000 0 0 01:26 25.11.2021
4586 Clear 3 1026 71 10000 2.57 70 22:33 24.11.2021
4587 Clear 3 1026 71 10000 1.54 50 21:48 24.11.2021
4588 Clear 3 1026 71 10000 1.03 0 21:22 24.11.2021
4589 Clear 3 1026 71 10000 2.06 70 20:27 24.11.2021
4590 Clear 3 1026 70 10000 1.03 0 19:40 24.11.2021
4591 Clear 3 1027 73 10000 2.57 80 18:19 24.11.2021
4592 Clear 5 1026 68 10000 3.6 50 16:47 24.11.2021
4593 Clear 9 1026 57 10000 3.09 60 14:58 24.11.2021
4594 Clear 10 1026 57 10000 3.09 50 14:22 24.11.2021
4595 Clouds 9 1026 49 10000 3.09 50 13:35 24.11.2021
4596 Clear 9 1027 53 10000 3.09 70 11:34 24.11.2021
4597 Clear 8 1028 53 10000 3.6 70 10:58 24.11.2021
4598 Clear 8 1028 61 10000 3.6 10 10:36 24.11.2021
4599 Clear 7 1028 75 10000 4.63 10 09:33 24.11.2021
4600 Clear 3 1027 82 10000 3.09 10 07:41 24.11.2021
4601 Clouds 3 1025 87 10000 3.09 350 05:38 24.11.2021
4602 Clear 3 1025 93 10000 3.09 350 03:32 24.11.2021
4603 Clouds 7 1024 87 10000 2.06 350 23:33 23.11.2021
4604 Clouds 7 1024 87 10000 2.06 340 22:39 23.11.2021
4605 Clouds 7 1023 81 10000 2.57 340 21:45 23.11.2021
4606 Clouds 7 1022 87 10000 2.06 10 20:23 23.11.2021
4607 Clouds 8 1022 87 10000 4.12 350 19:33 23.11.2021
4608 Clouds 9 1021 78 10000 3.09 360 18:34 23.11.2021
4609 Clouds 9 1020 78 10000 5.66 10 17:31 23.11.2021
4610 Clouds 9 1019 78 10000 6.17 360 16:35 23.11.2021
4611 Clouds 9 1019 78 10000 5.14 360 15:27 23.11.2021
4612 Clouds 10 1019 78 10000 5.14 360 14:54 23.11.2021
4613 Clouds 10 1018 81 8000 3.6 350 13:20 23.11.2021
4614 Rain 11 1018 80 5000 0 0 10:28 23.11.2021
4615 Mist 10 1018 93 5000 1.03 270 09:47 23.11.2021
4616 Clouds 10 1016 87 7000 2.06 50 07:58 23.11.2021
4617 Clouds 8 1015 93 9000 0.51 0 04:53 23.11.2021
4618 Clear 8 1015 93 10000 1.03 40 03:32 23.11.2021
4619 Clouds 9 1015 80 9000 2.57 80 23:38 22.11.2021
4620 Clear 9 1015 80 10000 1.54 50 22:58 22.11.2021
4621 Clear 9 1015 77 10000 0.51 110 22:30 22.11.2021
4622 Clear 9 1015 80 10000 1.54 120 21:44 22.11.2021
4623 Clouds 9 1015 81 9000 0 0 21:19 22.11.2021
4624 Clear 9 1014 77 10000 1.03 0 20:26 22.11.2021
4625 Clear 9 1014 74 10000 1.54 60 19:20 22.11.2021
4626 Clear 10 1014 77 10000 0 0 18:40 22.11.2021
4627 Clear 11 1014 74 10000 1.54 100 17:46 22.11.2021
4628 Clear 12 1013 73 10000 2.06 130 16:31 22.11.2021
4629 Clear 15 1013 65 10000 2.06 140 15:29 22.11.2021
4630 Clear 17 1013 48 10000 2.06 230 12:48 22.11.2021
4631 Clear 15 1013 62 10000 3.09 260 11:28 22.11.2021
4632 Clear 13 1014 67 10000 4.63 270 10:19 22.11.2021
4633 Clear 11 1014 81 7000 2.57 280 08:42 22.11.2021
4634 Clear 7 1013 89 7000 1.54 320 07:24 22.11.2021
4635 Clear 6 1012 84 7000 1.03 0 00:50 22.11.2021
4636 Clear 7 1013 88 8000 1.03 0 23:19 21.11.2021
4637 Clear 8 1013 84 8000 1.54 70 22:42 21.11.2021
4638 Clear 8 1013 88 9000 2.57 90 20:44 21.11.2021
4639 Clear 9 1013 84 10000 2.06 90 20:26 21.11.2021
4640 Clear 9 1013 80 10000 2.06 110 18:49 21.11.2021
4641 Clear 11 1013 80 10000 2.57 150 17:41 21.11.2021
4642 Clear 11 1013 80 10000 2.57 130 17:19 21.11.2021
4643 Clear 16 1013 55 10000 3.6 200 14:48 21.11.2021
4644 Clear 15 1014 67 10000 4.12 100 13:57 21.11.2021
4645 Clear 15 1014 63 10000 3.09 120 12:55 21.11.2021
4646 Clear 15 1015 58 10000 2.06 210 11:58 21.11.2021
4647 Clear 14 1016 58 10000 1.03 0 11:36 21.11.2021
4648 Clear 12 1017 71 10000 1.54 290 10:19 21.11.2021
4649 Clear 11 1018 74 10000 0 0 09:25 21.11.2021
4650 Clear 7 1018 85 10000 1.03 240 08:31 21.11.2021
4651 Clear 6 1018 85 10000 1.03 0 07:50 21.11.2021
4652 Clear 2 1018 100 10000 0 0 06:23 21.11.2021
4653 Clouds 4 1018 93 10000 0 0 05:37 21.11.2021
4654 Clear 6 1019 85 10000 2.06 240 03:21 21.11.2021
4655 Clear 6 1019 85 10000 1.03 360 02:53 21.11.2021
4656 Clear 6 1019 85 10000 1.54 260 01:24 21.11.2021
4657 Clear 8 1019 78 10000 2.57 230 00:40 21.11.2021
4658 Clear 9 1019 78 10000 3.6 290 21:51 20.11.2021
4659 Clear 10 1018 75 10000 2.57 240 21:30 20.11.2021
4660 Clear 8 1018 78 10000 1.03 300 19:24 20.11.2021
4661 Clear 8 1018 78 10000 1.54 0 18:45 20.11.2021
4662 Clear 8 1017 78 10000 3.09 330 18:19 20.11.2021
4663 Clear 11 1017 72 10000 2.57 300 17:19 20.11.2021
4664 Clear 15 1016 63 10000 4.12 280 14:50 20.11.2021
4665 Clear 15 1016 63 10000 4.63 260 14:28 20.11.2021
4666 Clear 14 1016 66 10000 5.14 270 13:33 20.11.2021
4667 Clouds 13 1017 62 10000 5.66 280 11:24 20.11.2021
4668 Clouds 11 1018 69 10000 6.69 270 09:54 20.11.2021
4669 Clouds 8 1018 78 10000 3.6 280 08:26 20.11.2021
4670 Clear 7 1018 81 10000 4.63 260 05:30 20.11.2021
4671 Clear 7 1018 81 10000 3.6 250 04:51 20.11.2021
4672 Clear 7 1018 76 10000 5.14 260 03:25 20.11.2021
4673 Clear 8 1018 71 10000 5.66 280 00:42 20.11.2021
4674 Clear 8 1019 71 10000 6.69 280 23:44 19.11.2021
4675 Clear 7 1019 76 10000 5.66 270 22:52 19.11.2021
4676 Clear 6 1020 81 10000 0 0 21:22 19.11.2021
4677 Clear 6 1020 81 10000 0.51 0 20:37 19.11.2021
4678 Clear 6 1020 81 10000 0 0 19:56 19.11.2021
4679 Clear 6 1020 81 10000 2.06 330 19:34 19.11.2021
4680 Clear 6 1020 81 10000 1.54 300 18:43 19.11.2021
4681 Clear 7 1020 76 10000 3.6 280 17:39 19.11.2021
4682 Clear 9 1020 66 10000 3.6 270 16:22 19.11.2021
4683 Clouds 11 1021 62 10000 7.2 280 14:19 19.11.2021
4684 Clouds 8 1023 76 10000 5.66 270 10:52 19.11.2021
4685 Clouds 8 1024 76 10000 4.12 280 10:23 19.11.2021
4686 Clouds 7 1024 81 10000 5.66 270 08:32 19.11.2021
4687 Clear 8 1023 81 10000 3.6 250 04:55 19.11.2021
4688 Clear 8 1023 76 10000 3.6 300 03:00 19.11.2021
4689 Clear 8 1023 71 10000 4.12 340 23:53 18.11.2021
4690 Clear 7 1023 76 10000 3.6 330 22:38 18.11.2021
4691 Clear 8 1024 71 10000 5.14 270 20:56 18.11.2021
4692 Clear 7 1024 76 10000 4.12 270 20:34 18.11.2021
4693 Clear 7 1024 76 10000 4.63 260 19:59 18.11.2021
4694 Clear 7 1023 70 10000 0.51 0 19:35 18.11.2021
4695 Clear 8 1023 71 10000 3.09 340 18:35 18.11.2021
4696 Clear 7 1023 76 10000 2.06 320 17:51 18.11.2021
4697 Clear 9 1022 66 10000 1.54 350 16:45 18.11.2021
4698 Clouds 11 1022 54 10000 2.57 290 15:52 18.11.2021
4699 Clouds 11 1022 54 10000 3.6 310 14:18 18.11.2021
4700 Clouds 11 1023 54 10000 4.12 300 12:34 18.11.2021
4701 Clouds 12 1023 50 10000 4.63 290 11:43 18.11.2021
4702 Clouds 11 1023 54 10000 4.12 240 11:25 18.11.2021
4703 Clear 11 1024 54 10000 3.09 230 10:19 18.11.2021
4704 Clouds 6 1024 87 10000 0 0 07:39 18.11.2021
4705 Clouds 5 1023 81 10000 2.06 360 05:59 18.11.2021
4706 Clear 5 1023 87 10000 2.57 10 05:39 18.11.2021
4707 Clouds 7 1023 70 10000 2.57 320 01:24 18.11.2021
4708 Clouds 7 1023 70 10000 2.57 320 01:24 18.11.2021
4709 Clouds 7 1024 76 10000 2.06 280 23:25 17.11.2021
4710 Clouds 7 1024 76 10000 1.54 320 22:34 17.11.2021
4711 Clouds 7 1024 79 10000 2.06 300 21:54 17.11.2021
4712 Clouds 7 1024 76 10000 2.06 300 21:34 17.11.2021
4713 Clouds 7 1024 76 10000 2.57 10 19:22 17.11.2021
4714 Clouds 7 1023 76 10000 3.6 350 17:31 17.11.2021
4715 Clouds 8 1023 73 10000 5.14 360 14:53 17.11.2021
4716 Clouds 9 1023 67 10000 4.12 350 12:42 17.11.2021
4717 Clouds 9 1024 66 10000 3.6 340 11:52 17.11.2021
4718 Clouds 9 1024 70 10000 3.6 360 10:50 17.11.2021
4719 Clouds 8 1025 73 10000 3.6 30 09:27 17.11.2021
4720 Clouds 7 1025 76 10000 2.57 20 07:45 17.11.2021
4721 Clouds 7 1024 76 10000 4.63 50 06:20 17.11.2021
4722 Clouds 7 1025 76 10000 2.06 320 02:42 17.11.2021
4723 Clouds 7 1026 70 10000 5.66 20 23:27 16.11.2021
4724 Clouds 7 1026 70 10000 6.17 20 21:51 16.11.2021
4725 Clouds 7 1027 73 10000 5.66 20 20:19 16.11.2021
4726 Clouds 7 1028 73 10000 3.09 40 18:56 16.11.2021
4727 Clouds 8 1028 73 10000 7.2 40 18:36 16.11.2021
4728 Clouds 8 1028 73 10000 7.2 40 18:36 16.11.2021
4729 Clouds 9 1028 74 10000 5.66 50 17:44 16.11.2021
4730 Clouds 9 1028 77 10000 6.69 50 16:58 16.11.2021
4731 Clouds 10 1028 74 10000 6.69 60 16:18 16.11.2021
4732 Clouds 10 1028 76 10000 5.14 50 15:41 16.11.2021
4733 Clouds 10 1029 79 10000 4.63 10 12:40 16.11.2021
4734 Clouds 9 1030 79 10000 6.17 10 09:49 16.11.2021
4735 Clouds 9 1029 79 10000 7.2 30 08:50 16.11.2021
4736 Clouds 8 1029 79 10000 6.17 20 07:34 16.11.2021
4737 Clouds 7 1028 81 10000 6.69 20 04:45 16.11.2021
4738 Clouds 7 1029 79 10000 5.14 10 23:24 15.11.2021
4739 Clouds 8 1029 78 10000 3.6 10 22:40 15.11.2021
4740 Clouds 8 1029 78 10000 4.63 10 21:55 15.11.2021
4741 Clouds 9 1029 76 10000 5.14 10 21:30 15.11.2021
4742 Clouds 9 1028 76 10000 5.66 10 20:29 15.11.2021
4743 Clouds 10 1028 73 10000 4.63 30 18:53 15.11.2021
4744 Clouds 10 1027 78 10000 4.63 20 16:56 15.11.2021
4745 Clouds 10 1026 76 10000 5.14 30 15:48 15.11.2021
4746 Clouds 10 1026 76 10000 5.14 30 15:48 15.11.2021
4747 Clouds 11 1026 72 10000 5.14 40 15:29 15.11.2021
4748 Clear 13 1026 65 10000 5.14 50 13:49 15.11.2021
4749 Clouds 13 1025 70 10000 3.09 0 12:18 15.11.2021
4750 Clouds 10 1025 78 10000 3.6 360 09:30 15.11.2021
4751 Clouds 9 1025 85 10000 1.54 0 07:59 15.11.2021
4752 Clouds 9 1024 93 10000 3.6 360 06:21 15.11.2021
4753 Clouds 9 1023 84 8000 2.06 310 00:33 15.11.2021
4754 Clouds 9 1023 84 8000 0 0 22:39 14.11.2021
4755 Clear 10 1022 81 10000 1.03 0 20:51 14.11.2021
4756 Clear 11 1022 78 10000 1.54 60 19:18 14.11.2021
4757 Clouds 10 1022 78 10000 2.06 80 18:54 14.11.2021
4758 Clouds 10 1022 81 10000 2.57 30 18:36 14.11.2021
4759 Clouds 10 1022 81 10000 2.57 30 18:18 14.11.2021
4760 Clouds 10 1022 81 10000 2.06 40 17:57 14.11.2021
4761 Clouds 11 1021 78 10000 2.06 50 17:39 14.11.2021
4762 Clouds 11 1021 78 10000 2.06 50 17:21 14.11.2021
4763 Clouds 11 1021 80 10000 2.57 110 16:50 14.11.2021
4764 Clouds 12 1021 80 10000 3.6 120 16:21 14.11.2021
4765 Clouds 13 1021 77 10000 3.6 120 15:51 14.11.2021
4766 Clouds 14 1021 73 10000 3.09 130 15:19 14.11.2021
4767 Clouds 16 1021 63 10000 1.03 0 14:33 14.11.2021
4768 Clouds 15 1021 63 10000 0 0 13:59 14.11.2021
4769 Clouds 14 1021 67 10000 0 0 13:40 14.11.2021
4770 Clouds 14 1021 67 10000 1.03 0 12:45 14.11.2021
4771 Clouds 14 1021 67 10000 0 0 12:18 14.11.2021
4772 Clouds 15 1021 63 10000 2.06 0 10:50 14.11.2021
4773 Clouds 14 1022 72 10000 2.06 210 10:27 14.11.2021
4774 Clouds 13 1022 74 7000 1.03 0 08:57 14.11.2021
4775 Mist 10 1022 81 5000 0 0 07:28 14.11.2021
4776 Clouds 10 1021 81 10000 0 0 01:25 14.11.2021
4777 Clouds 11 1022 75 10000 0 0 22:27 13.11.2021
4778 Clouds 11 1022 75 10000 0 0 22:27 13.11.2021
4779 Clouds 12 1022 69 10000 1.54 140 21:57 13.11.2021
4780 Clouds 12 1022 71 10000 3.09 130 21:27 13.11.2021
4781 Clouds 11 1022 71 10000 1.03 0 19:50 13.11.2021
4782 Clouds 11 1022 74 10000 2.06 80 18:48 13.11.2021
4783 Clouds 12 1022 71 10000 3.09 110 18:26 13.11.2021
4784 Clouds 12 1022 71 10000 3.09 100 16:40 13.11.2021
4785 Clouds 13 1021 68 10000 2.57 130 15:37 13.11.2021
4786 Clouds 13 1022 67 10000 4.12 140 14:33 13.11.2021
4787 Clouds 13 1022 67 10000 4.63 130 13:38 13.11.2021
4788 Clouds 14 1022 67 10000 4.63 120 12:28 13.11.2021
4789 Clouds 14 1023 69 10000 3.6 120 11:38 13.11.2021
4790 Clouds 13 1023 69 10000 4.12 130 10:45 13.11.2021
4791 Clouds 13 1023 69 10000 5.14 110 10:22 13.11.2021
4792 Clouds 12 1023 75 10000 1.54 130 09:38 13.11.2021
4793 Clouds 11 1023 81 10000 0 0 08:56 13.11.2021
4794 Clouds 11 1023 81 10000 0 0 08:31 13.11.2021
4795 Clouds 8 1022 93 10000 0 0 05:59 13.11.2021
4796 Clouds 7 1022 93 10000 1.03 0 04:30 13.11.2021
4797 Clouds 8 1022 93 10000 1.03 20 01:38 13.11.2021
4798 Clouds 7 1023 93 10000 1.03 0 22:58 12.11.2021
4799 Clouds 6 1023 100 10000 1.03 0 21:49 12.11.2021
4800 Clouds 6 1022 93 10000 1.54 20 19:55 12.11.2021
4801 Clouds 6 1022 93 10000 1.54 30 19:28 12.11.2021
4802 Clouds 6 1022 93 10000 2.06 30 18:46 12.11.2021
4803 Clear 10 1022 76 10000 3.09 120 16:39 12.11.2021
4804 Clear 12 1022 71 10000 3.6 130 15:33 12.11.2021
4805 Clear 12 1022 71 10000 3.6 130 15:33 12.11.2021
4806 Clear 13 1023 67 10000 3.6 100 11:58 12.11.2021
4807 Clouds 12 1023 71 10000 2.57 110 10:51 12.11.2021
4808 Clouds 12 1024 71 10000 0 0 09:45 12.11.2021
4809 Mist 7 1024 93 5000 0 0 08:39 12.11.2021
4810 Clear 3 1024 100 10000 0 0 03:18 12.11.2021
4811 Clouds 6 1026 87 10000 0.51 0 23:42 11.11.2021
4812 Clouds 5 1027 93 10000 1.03 340 22:36 11.11.2021
4813 Clouds 4 1027 93 10000 1.54 0 21:27 11.11.2021
4814 Clouds 5 1028 93 10000 1.54 10 20:42 11.11.2021
4815 Clouds 5 1028 93 10000 0 0 19:24 11.11.2021
4816 Clear 7 1029 76 10000 1.54 30 17:44 11.11.2021
4817 Clear 8 1029 76 10000 2.06 70 16:58 11.11.2021
4818 Clear 11 1029 62 10000 4.12 140 14:58 11.11.2021
4819 Clear 11 1029 62 10000 4.12 130 14:29 11.11.2021
4820 Clear 11 1030 58 10000 4.63 120 13:39 11.11.2021
4821 Clear 11 1030 62 10000 3.09 110 12:50 11.11.2021
4822 Clouds 10 1031 62 10000 3.09 130 10:44 11.11.2021
4823 Mist 9 1032 81 5000 0 0 09:36 11.11.2021
4824 Mist 4 1032 93 1900 1.54 280 07:59 11.11.2021
4825 Clouds 0 1033 93 6000 2.06 250 04:45 11.11.2021
4826 Clear 2 1036 81 10000 1.03 0 23:35 10.11.2021
4827 Clear 2 1036 78 10000 0 0 22:24 10.11.2021
4828 Clear 4 1036 72 10000 2.06 90 21:21 10.11.2021
4829 Clear 3 1036 75 10000 3.09 40 20:47 10.11.2021
4830 Clear 4 1036 75 10000 4.12 60 19:47 10.11.2021
4831 Clear 4 1036 75 10000 4.12 60 19:47 10.11.2021
4832 Clear 4 1036 75 10000 2.57 70 19:24 10.11.2021
4833 Clear 6 1036 71 10000 3.6 90 16:34 10.11.2021
4834 Clear 9 1036 58 10000 2.57 90 15:28 10.11.2021
4835 Clear 9 1037 53 10000 5.14 140 13:43 10.11.2021
4836 Clear 10 1037 34 10000 3.6 100 12:50 10.11.2021
4837 Clear 8 1038 46 10000 3.6 40 10:48 10.11.2021
4838 Clear 6 1039 70 10000 1.54 0 08:45 10.11.2021
4839 Clear 4 1038 83 10000 1.54 290 07:44 10.11.2021
4840 Clouds 2 1037 87 10000 1.54 30 06:26 10.11.2021
4841 Clouds 3 1037 87 10000 2.06 320 05:51 10.11.2021
4842 Clear 6 1034 87 10000 6.17 340 23:53 09.11.2021
4843 Clouds 5 1033 93 10000 4.12 250 21:48 09.11.2021
4844 Clouds 5 1032 93 10000 4.63 280 20:32 09.11.2021
4845 Clouds 6 1031 87 10000 2.57 310 19:25 09.11.2021
4846 Rain 8 1028 87 10000 8.75 10 17:37 09.11.2021
4847 Rain 8 1026 93 8000 8.23 10 15:45 09.11.2021
4848 Drizzle 9 1025 93 5000 6.17 10 14:43 09.11.2021
4849 Clouds 10 1023 93 10000 3.6 10 12:53 09.11.2021
4850 Clouds 10 1023 93 10000 3.6 10 12:53 09.11.2021
4851 Drizzle 11 1023 86 8000 2.57 340 11:42 09.11.2021
4852 Drizzle 11 1023 93 8000 2.06 320 10:44 09.11.2021
4853 Clouds 11 1022 87 10000 1.54 0 09:24 09.11.2021
4854 Clouds 11 1022 87 10000 1.03 0 08:25 09.11.2021
4855 Clouds 12 1021 82 10000 3.09 90 05:52 09.11.2021
4856 Clouds 13 1019 83 6000 4.63 360 02:23 09.11.2021
4857 Clouds 13 1020 83 6000 4.63 350 01:45 09.11.2021
4858 Clouds 13 1019 83 6000 3.09 310 23:58 08.11.2021
4859 Clouds 13 1019 83 7000 4.12 310 22:49 08.11.2021
4860 Clouds 14 1018 83 7000 3.09 290 21:55 08.11.2021
4861 Clouds 14 1017 82 8000 3.09 320 20:53 08.11.2021
4862 Fog 13 1016 89 1000 1.03 0 19:49 08.11.2021
4863 Mist 14 1016 89 1100 2.06 210 18:25 08.11.2021
4864 Mist 14 1014 88 1700 3.09 100 16:22 08.11.2021
4865 Mist 16 1014 84 3400 5.14 120 14:58 08.11.2021
4866 Mist 16 1014 84 4400 5.66 120 14:38 08.11.2021
4867 Mist 18 1014 83 5000 5.66 100 13:31 08.11.2021
4868 Clouds 18 1014 79 6000 5.66 120 11:56 08.11.2021
4869 Mist 18 1015 87 5000 2.57 140 10:50 08.11.2021
4870 Mist 16 1015 88 1200 2.06 140 09:39 08.11.2021
4871 Mist 15 1015 89 2000 1.54 90 08:53 08.11.2021
4872 Fog 12 1015 89 250 1.03 0 07:28 08.11.2021
4873 Clouds 12 1016 100 6000 0 0 03:48 08.11.2021
4874 Mist 12 1016 100 5000 0.51 0 03:26 08.11.2021
4875 Mist 11 1017 100 4400 2.06 40 23:45 07.11.2021
4876 Clouds 12 1018 100 9000 1.54 90 21:46 07.11.2021
4877 Clouds 13 1019 89 10000 2.06 120 20:52 07.11.2021
4878 Clouds 13 1019 86 10000 2.57 130 19:25 07.11.2021
4879 Clouds 14 1020 83 10000 3.6 130 17:49 07.11.2021
4880 Clouds 14 1020 81 10000 2.57 130 16:49 07.11.2021
4881 Clouds 15 1021 81 10000 3.6 120 15:44 07.11.2021
4882 Clouds 15 1021 78 10000 3.6 150 14:28 07.11.2021
4883 Clouds 15 1023 78 10000 3.09 160 12:57 07.11.2021
4884 Clouds 15 1023 78 10000 3.09 150 11:42 07.11.2021
4885 Clouds 14 1025 88 10000 3.09 120 09:22 07.11.2021
4886 Clouds 13 1026 88 10000 3.09 110 06:46 07.11.2021
4887 Clouds 13 1026 88 10000 2.06 60 02:32 07.11.2021
4888 Clouds 11 1027 83 6000 1.54 20 22:57 06.11.2021
4889 Clouds 12 1027 83 7000 0.51 0 22:32 06.11.2021
4890 Clouds 13 1027 83 7000 2.06 20 21:28 06.11.2021
4891 Clouds 13 1027 83 9000 1.03 0 20:32 06.11.2021
4892 Clouds 13 1026 83 8000 2.06 60 18:56 06.11.2021
4893 Clouds 16 1025 76 10000 1.03 0 16:38 06.11.2021
4894 Clouds 18 1025 72 10000 4.12 10 14:31 06.11.2021
4895 Clouds 18 1025 72 10000 4.63 340 13:38 06.11.2021
4896 Clouds 18 1024 77 10000 4.12 300 11:25 06.11.2021
4897 Clear 19 1023 68 10000 5.14 300 09:21 06.11.2021
4898 Clear 15 1020 82 10000 1.54 0 04:55 06.11.2021
4899 Mist 14 1019 87 6000 1.03 0 00:58 06.11.2021
4900 Clouds 14 1018 83 8000 0 0 23:33 05.11.2021
4901 Clear 14 1018 83 10000 0 0 22:33 05.11.2021
4902 Clear 14 1018 83 10000 0 0 22:33 05.11.2021
4903 Clouds 15 1017 83 8000 1.03 80 20:42 05.11.2021
4904 Clouds 15 1017 83 8000 0 0 20:19 05.11.2021
4905 Clear 16 1017 79 10000 0 0 18:59 05.11.2021
4906 Clear 16 1017 79 10000 1.54 310 18:38 05.11.2021
4907 Clear 18 1017 75 10000 2.57 120 17:25 05.11.2021
4908 Clear 22 1016 60 10000 4.63 120 14:54 05.11.2021
4909 Clear 22 1016 56 10000 5.14 110 13:33 05.11.2021
4910 Clear 20 1018 64 10000 0.51 0 09:59 05.11.2021
4911 Clear 19 1018 72 10000 0.51 0 08:38 05.11.2021
4912 Clear 13 1017 85 10000 1.03 30 06:50 05.11.2021
4913 Clear 14 1017 94 10000 2.57 90 04:42 05.11.2021
4914 Clear 14 1017 100 10000 2.57 90 02:22 05.11.2021
4915 Clear 13 1018 84 10000 2.57 100 00:30 05.11.2021
4916 Clear 15 1018 84 10000 0.51 0 22:56 04.11.2021
4917 Clear 14 1018 88 10000 1.54 60 22:18 04.11.2021
4918 Clear 14 1018 84 10000 1.54 90 21:29 04.11.2021
4919 Clear 15 1018 81 10000 1.54 120 20:29 04.11.2021
4920 Clear 16 1018 81 10000 2.57 110 19:50 04.11.2021
4921 Clear 17 1017 74 10000 2.57 130 19:28 04.11.2021
4922 Clear 17 1017 74 10000 2.06 120 18:30 04.11.2021
4923 Clear 18 1017 71 10000 2.06 150 17:27 04.11.2021
4924 Clear 20 1017 64 10000 1.03 0 16:23 04.11.2021
4925 Clear 20 1017 64 10000 1.03 0 16:23 04.11.2021
4926 Clear 22 1017 60 10000 3.6 180 14:19 04.11.2021
4927 Clear 20 1018 60 10000 3.6 210 10:52 04.11.2021
4928 Clear 17 1018 82 10000 2.57 170 08:48 04.11.2021
4929 Clear 18 1018 82 10000 2.57 160 08:25 04.11.2021
4930 Clouds 16 1018 86 10000 3.09 120 07:33 04.11.2021
4931 Fog 13 1018 89 800 3.09 90 23:23 03.11.2021
4932 Fog 13 1018 89 550 4.12 90 22:29 03.11.2021
4933 Clouds 13 1018 88 6000 4.12 110 21:37 03.11.2021
4934 Clouds 13 1018 88 8000 4.12 90 20:44 03.11.2021
4935 Clouds 12 1018 88 7000 3.09 100 20:25 03.11.2021
4936 Clouds 13 1018 84 7000 4.12 100 19:37 03.11.2021
4937 Clouds 13 1017 84 9000 3.09 110 18:27 03.11.2021
4938 Clouds 13 1017 84 9000 3.09 110 18:27 03.11.2021
4939 Clouds 13 1017 84 9000 3.09 110 18:27 03.11.2021
4940 Clear 14 1017 81 10000 4.63 100 17:48 03.11.2021
4941 Clear 15 1016 74 10000 3.6 90 16:49 03.11.2021
4942 Clear 17 1016 67 10000 4.12 100 15:49 03.11.2021
4943 Clear 19 1016 63 10000 3.6 120 15:30 03.11.2021
4944 Clear 20 1015 56 10000 2.57 240 13:41 03.11.2021
4945 Clear 17 1015 72 10000 3.09 220 11:35 03.11.2021
4946 Clear 16 1016 77 10000 4.12 250 10:50 03.11.2021
4947 Clear 15 1015 77 10000 3.09 230 09:46 03.11.2021
4948 Clear 15 1015 81 10000 3.09 230 08:53 03.11.2021
4949 Clear 13 1014 81 10000 2.06 290 07:55 03.11.2021
4950 Clouds 12 1014 86 8000 2.57 220 07:32 03.11.2021
4951 Fog 8 1012 100 1800 2.06 280 04:23 03.11.2021
4952 Mist 10 1009 89 3000 1.54 330 00:58 03.11.2021
4953 Clouds 10 1009 89 6000 1.54 10 23:21 02.11.2021
4954 Clouds 11 1009 89 8000 2.06 10 21:57 02.11.2021
4955 Clouds 12 1008 85 10000 2.06 100 20:43 02.11.2021
4956 Clouds 12 1008 89 10000 0.51 100 19:57 02.11.2021
4957 Clouds 12 1007 89 10000 1.54 140 19:27 02.11.2021
4958 Clouds 12 1007 89 10000 2.57 150 18:35 02.11.2021
4959 Clouds 12 1007 89 9000 2.06 130 17:44 02.11.2021
4960 Rain 13 1007 85 7000 1.54 150 16:47 02.11.2021
4961 Rain 13 1007 84 6000 1.54 150 15:50 02.11.2021
4962 Rain 15 1007 74 8000 5.14 230 14:56 02.11.2021
4963 Clouds 16 1007 65 10000 4.63 200 13:29 02.11.2021
4964 Clouds 17 1007 65 10000 6.17 190 12:46 02.11.2021
4965 Clouds 17 1007 65 10000 6.17 190 12:46 02.11.2021
4966 Clouds 16 1008 63 10000 5.66 170 11:39 02.11.2021
4967 Clouds 15 1009 72 10000 4.63 160 10:55 02.11.2021
4968 Clouds 15 1009 72 10000 4.12 180 10:32 02.11.2021
4969 Clouds 15 1009 74 10000 4.12 160 09:44 02.11.2021
4970 Clouds 13 1010 82 6000 3.09 160 07:46 02.11.2021
4971 Clouds 11 1011 100 6000 2.57 130 04:58 02.11.2021
4972 Clouds 11 1011 100 8000 0 0 03:22 02.11.2021
4973 Fog 9 1013 100 1800 1.03 30 23:42 01.11.2021
4974 Mist 10 1013 100 5000 1.03 300 21:46 01.11.2021
4975 Mist 11 1014 89 4700 1.54 290 20:44 01.11.2021
4976 Mist 11 1014 89 5000 1.03 0 19:58 01.11.2021
4977 Mist 11 1014 89 5000 0 0 19:38 01.11.2021
4978 Clouds 12 1014 89 7000 1.54 20 18:23 01.11.2021
4979 Clouds 12 1014 89 9000 1.03 290 17:36 01.11.2021
4980 Clouds 13 1014 78 10000 2.06 110 16:51 01.11.2021
4981 Clouds 13 1014 78 10000 3.09 90 16:20 01.11.2021
4982 Clouds 14 1014 72 10000 2.57 100 15:29 01.11.2021
4983 Clouds 14 1014 72 10000 3.09 110 14:45 01.11.2021
4984 Clouds 15 1014 72 10000 3.09 90 14:23 01.11.2021
4985 Clouds 15 1014 72 10000 3.09 120 13:50 01.11.2021
4986 Clouds 14 1015 78 10000 3.6 100 12:34 01.11.2021
4987 Clouds 14 1015 75 10000 3.09 80 11:27 01.11.2021
4988 Clouds 14 1016 78 10000 3.09 90 09:47 01.11.2021
4989 Clouds 13 1016 88 10000 2.57 100 08:18 01.11.2021
4990 Clouds 12 1016 94 10000 2.57 60 07:40 01.11.2021
4991 Clouds 12 1017 87 10000 1.54 60 03:48 01.11.2021
4992 Clouds 12 1018 87 10000 4.63 40 01:43 01.11.2021
4993 Clouds 12 1019 87 10000 1.03 0 22:42 31.10.2021
4994 Clouds 12 1019 82 10000 4.63 40 20:50 31.10.2021
4995 Clouds 12 1019 82 10000 4.63 40 20:50 31.10.2021
4996 Clouds 12 1020 76 10000 4.12 40 19:22 31.10.2021
4997 Clouds 12 1020 76 10000 3.6 60 18:40 31.10.2021
4998 Clouds 12 1020 76 10000 4.63 50 17:32 31.10.2021
4999 Clouds 13 1021 68 10000 2.06 90 15:50 31.10.2021
5000 Clouds 13 1020 71 10000 3.09 40 14:23 31.10.2021
5001 Clouds 13 1021 68 10000 3.6 20 12:50 31.10.2021
5002 Clouds 13 1021 68 10000 2.06 0 11:41 31.10.2021
5003 Clouds 13 1022 71 10000 2.06 0 10:43 31.10.2021
5004 Clouds 12 1022 82 10000 4.63 40 09:21 31.10.2021
5005 Clouds 12 1023 82 10000 2.06 150 08:19 31.10.2021
5006 Clouds 10 1024 79 10000 2.57 40 00:58 31.10.2021
5007 Clouds 10 1024 79 10000 3.6 30 22:47 30.10.2021
5008 Clouds 11 1025 79 10000 3.09 40 21:35 30.10.2021
5009 Clouds 10 1025 80 10000 2.57 50 20:44 30.10.2021
5010 Clouds 10 1024 75 10000 3.09 40 18:45 30.10.2021
5011 Clouds 13 1024 69 10000 3.09 80 17:25 30.10.2021
5012 Clouds 15 1024 64 10000 5.14 110 14:50 30.10.2021
5013 Clouds 16 1024 62 10000 4.12 110 13:39 30.10.2021
5014 Clouds 16 1024 62 10000 4.12 110 13:21 30.10.2021
5015 Clouds 15 1025 72 10000 4.63 30 11:58 30.10.2021
5016 Clouds 15 1026 72 10000 4.63 60 11:39 30.10.2021
5017 Clouds 13 1026 75 10000 3.6 60 10:32 30.10.2021
5018 Clear 13 1026 76 10000 1.54 80 08:52 30.10.2021
5019 Clouds 10 1025 93 8000 1.54 80 07:19 30.10.2021
5020 Clouds 9 1025 93 10000 3.09 20 05:39 30.10.2021
5021 Clear 10 1025 93 10000 4.12 40 00:45 30.10.2021
5022 Clouds 10 1026 93 10000 2.57 30 22:39 29.10.2021
5023 Clouds 10 1026 93 10000 2.57 30 22:20 29.10.2021
5024 Clouds 12 1026 87 10000 2.57 40 20:45 29.10.2021
5025 Clouds 10 1026 93 10000 3.09 50 19:50 29.10.2021
5026 Clouds 11 1025 87 10000 3.09 90 18:32 29.10.2021
5027 Clear 14 1025 72 10000 4.63 90 16:51 29.10.2021
5028 Clouds 16 1025 63 10000 4.12 100 14:33 29.10.2021
5029 Clouds 16 1026 51 10000 5.14 60 11:43 29.10.2021
5030 Clear 14 1026 67 10000 2.06 250 10:35 29.10.2021
5031 Clear 7 1026 93 8000 0 0 08:19 29.10.2021
5032 Clear 5 1026 100 10000 0 0 00:36 29.10.2021
5033 Clear 5 1027 93 10000 1.03 0 22:58 28.10.2021
5034 Clear 8 1026 81 10000 1.03 0 21:55 28.10.2021
5035 Clear 7 1026 87 10000 3.09 20 20:29 28.10.2021
5036 Clear 8 1026 87 10000 2.57 30 19:46 28.10.2021
5037 Clear 10 1026 71 10000 2.06 50 18:18 28.10.2021
5038 Clear 14 1026 54 10000 2.57 130 16:58 28.10.2021
5039 Clear 15 1026 51 10000 3.6 110 15:20 28.10.2021
5040 Clear 15 1026 51 10000 4.63 130 13:45 28.10.2021
5041 Clouds 15 1027 55 10000 4.63 140 13:21 28.10.2021
5042 Clouds 15 1027 55 10000 4.12 150 12:39 28.10.2021
5043 Clear 13 1027 62 10000 2.06 170 10:54 28.10.2021
5044 Clear 11 1028 66 10000 3.6 350 09:38 28.10.2021
5045 Clear 9 1028 76 10000 1.54 250 08:55 28.10.2021
5046 Clear 8 1027 76 10000 3.09 330 08:28 28.10.2021
5047 Clear 6 1026 87 10000 3.09 330 04:42 28.10.2021
5048 Clear 7 1027 83 10000 2.06 340 23:38 27.10.2021
5049 Clear 7 1027 83 10000 2.06 360 22:30 27.10.2021
5050 Clouds 9 1027 75 10000 1.54 330 21:33 27.10.2021
5051 Clouds 8 1026 79 10000 1.03 350 20:50 27.10.2021
5052 Clouds 9 1026 75 10000 1.54 20 19:52 27.10.2021
5053 Clouds 10 1026 74 10000 1.54 30 19:32 27.10.2021
5054 Clouds 11 1026 72 10000 0 0 18:39 27.10.2021
5055 Clouds 14 1025 66 10000 4.63 130 16:26 27.10.2021
5056 Clouds 16 1025 61 10000 3.6 150 15:30 27.10.2021
5057 Clouds 16 1025 56 10000 2.06 0 14:39 27.10.2021
5058 Clouds 14 1026 54 10000 2.57 70 11:21 27.10.2021
5059 Clouds 14 1026 58 10000 2.57 70 10:58 27.10.2021
5060 Clouds 13 1026 67 10000 2.57 70 09:43 27.10.2021
5061 Clouds 10 1025 71 10000 1.03 0 07:53 27.10.2021
5062 Clouds 11 1025 76 10000 2.57 50 06:38 27.10.2021
5063 Clouds 12 1025 72 10000 2.57 90 01:45 27.10.2021
5064 Clouds 12 1025 72 10000 4.63 90 00:56 27.10.2021
5065 Clouds 12 1025 72 10000 3.09 90 00:24 27.10.2021
5066 Clouds 12 1025 72 10000 3.6 90 23:40 26.10.2021
5067 Clouds 12 1026 72 10000 4.63 100 22:36 26.10.2021
5068 Clouds 11 1026 72 10000 3.09 40 21:52 26.10.2021
5069 Clouds 11 1026 69 10000 3.09 30 20:26 26.10.2021
5070 Clouds 11 1026 69 10000 3.09 40 19:26 26.10.2021
5071 Clouds 10 1026 72 10000 3.09 40 18:40 26.10.2021
5072 Clouds 12 1026 63 10000 3.6 130 16:22 26.10.2021
5073 Clouds 14 1026 62 10000 4.63 90 14:18 26.10.2021
5074 Clouds 10 1028 74 10000 2.06 240 11:33 26.10.2021
5075 Clouds 7 1028 93 10000 1.03 0 09:29 26.10.2021
5076 Clouds 4 1028 93 10000 1.54 230 07:24 26.10.2021
5077 Clear 4 1029 87 10000 1.54 240 03:37 26.10.2021
5078 Clear 6 1030 75 10000 2.06 210 23:49 25.10.2021
5079 Clear 5 1031 75 10000 1.03 0 22:38 25.10.2021
5080 Clear 7 1031 70 10000 4.63 40 21:55 25.10.2021
5081 Clear 7 1031 70 10000 2.06 150 21:25 25.10.2021
5082 Clear 8 1031 66 10000 2.57 110 19:45 25.10.2021
5083 Clear 8 1031 61 10000 2.06 0 19:24 25.10.2021
5084 Clear 8 1031 66 10000 4.12 90 18:50 25.10.2021
5085 Clouds 10 1031 62 10000 5.14 80 17:42 25.10.2021
5086 Clouds 12 1031 50 10000 4.63 80 15:31 25.10.2021
5087 Clear 13 1031 47 10000 3.09 30 13:54 25.10.2021
5088 Clear 12 1033 47 10000 2.57 100 11:58 25.10.2021
5089 Clear 9 1033 57 10000 1.54 0 09:23 25.10.2021
5090 Clear 6 1033 65 10000 3.09 360 07:40 25.10.2021
5091 Clear 5 1032 70 10000 3.09 360 05:24 25.10.2021
5092 Clear 7 1032 69 10000 3.09 30 00:52 25.10.2021
5093 Clear 7 1033 69 10000 3.09 30 00:34 25.10.2021
5094 Clear 7 1033 69 10000 3.09 30 00:34 25.10.2021
5095 Clear 7 1033 69 10000 3.09 30 00:34 25.10.2021
5096 Clear 7 1032 68 10000 4.12 40 23:44 24.10.2021
5097 Clear 6 1032 74 10000 1.03 0 22:39 24.10.2021
5098 Clear 6 1032 74 10000 3.09 360 22:20 24.10.2021
5099 Clear 6 1032 75 10000 2.06 20 21:33 24.10.2021
5100 Clear 7 1031 72 10000 2.06 360 20:42 24.10.2021
5101 Clear 7 1031 72 10000 2.57 10 19:49 24.10.2021
5102 Clear 10 1031 61 10000 2.57 30 18:30 24.10.2021
5103 Clear 11 1030 61 10000 2.57 20 17:46 24.10.2021
5104 Clear 14 1029 54 10000 3.6 360 15:57 24.10.2021
5105 Clear 15 1029 49 10000 5.14 20 15:19 24.10.2021
5106 Clouds 15 1028 44 10000 4.63 40 13:19 24.10.2021
5107 Clear 14 1028 51 10000 5.14 30 12:23 24.10.2021
5108 Clear 13 1028 62 10000 2.06 330 11:34 24.10.2021
5109 Clouds 12 1028 71 10000 2.57 350 10:30 24.10.2021
5110 Clouds 11 1025 87 10000 3.6 10 08:00 24.10.2021
5111 Rain 14 1022 82 10000 6.69 320 01:53 24.10.2021
5112 Clouds 15 1022 80 10000 0.51 0 23:51 23.10.2021
5113 Clouds 15 1022 49 10000 2.06 220 22:40 23.10.2021
5114 Clear 15 1021 73 10000 1.03 90 20:39 23.10.2021
5115 Clear 18 1020 64 10000 3.6 360 19:00 23.10.2021
5116 Clouds 17 1020 63 10000 2.06 350 18:31 23.10.2021
5117 Clear 19 1019 61 10000 2.57 340 17:44 23.10.2021
5118 Clear 21 1018 56 10000 5.14 330 16:38 23.10.2021
5119 Clear 22 1018 53 10000 6.69 260 14:45 23.10.2021
5120 Clear 18 1019 80 10000 2.06 230 09:45 23.10.2021
5121 Clear 13 1017 89 10000 2.57 360 00:28 23.10.2021
5122 Clear 13 1017 89 10000 2.57 10 23:23 22.10.2021
5123 Clear 14 1017 89 10000 2.57 10 20:55 22.10.2021
5124 Clear 16 1017 81 10000 1.03 0 18:57 22.10.2021
5125 Clear 18 1016 75 10000 2.06 90 17:44 22.10.2021
5126 Clear 23 1016 55 10000 3.6 220 15:57 22.10.2021
5127 Clear 23 1016 57 10000 4.12 240 14:30 22.10.2021
5128 Clear 22 1017 46 10000 3.6 230 12:38 22.10.2021
5129 Clear 19 1018 63 10000 3.09 240 10:48 22.10.2021
5130 Clear 17 1018 77 10000 2.06 230 09:56 22.10.2021
5131 Clear 15 1017 82 10000 1.03 0 09:30 22.10.2021
5132 Clear 10 1016 100 7000 0 0 07:25 22.10.2021
5133 Clear 10 1015 96 9000 1.03 0 03:48 22.10.2021
5134 Clear 11 1015 92 10000 1.03 0 00:24 22.10.2021
5135 Clear 10 1015 96 10000 2.06 360 23:40 21.10.2021
5136 Clear 11 1016 92 10000 1.03 0 22:21 21.10.2021
5137 Clear 12 1016 92 10000 2.06 50 20:53 21.10.2021
5138 Clear 13 1016 89 10000 2.06 50 20:19 21.10.2021
5139 Clear 13 1016 89 10000 2.57 60 19:30 21.10.2021
5140 Clear 14 1016 84 10000 3.6 180 18:52 21.10.2021
5141 Clear 14 1016 89 10000 3.09 130 18:22 21.10.2021
5142 Clear 14 1016 89 10000 4.12 120 17:42 21.10.2021
5143 Clear 18 1016 75 10000 3.09 130 16:18 21.10.2021
5144 Clear 20 1016 63 10000 4.63 190 15:21 21.10.2021
5145 Clear 19 1017 61 10000 4.12 180 14:39 21.10.2021
5146 Clear 18 1018 48 10000 4.63 190 13:20 21.10.2021
5147 Clear 17 1020 55 10000 3.6 190 11:27 21.10.2021
5148 Clear 13 1022 76 10000 1.03 0 08:55 21.10.2021
5149 Clear 10 1022 87 10000 1.03 0 07:29 21.10.2021
5150 Clear 9 1023 96 10000 0 0 03:49 21.10.2021
5151 Clear 9 1026 96 10000 1.54 40 23:31 20.10.2021
5152 Clear 10 1026 92 10000 2.06 120 22:18 20.10.2021
5153 Clear 10 1026 92 10000 1.54 100 21:38 20.10.2021
5154 Clear 10 1026 92 10000 2.06 100 20:54 20.10.2021
5155 Clear 10 1026 92 10000 2.06 100 20:33 20.10.2021
5156 Clear 11 1027 89 10000 1.54 130 19:57 20.10.2021
5157 Clear 12 1027 89 10000 2.57 140 18:54 20.10.2021
5158 Clear 13 1027 86 10000 2.57 130 17:50 20.10.2021
5159 Clear 16 1027 79 10000 4.63 130 15:39 20.10.2021
5160 Fog 13 1029 100 550 0 0 10:43 20.10.2021
5161 Clear 13 1030 99 10000 1.26 198 08:53 20.10.2021
5162 Mist 7 1029 100 4200 0 0 03:21 20.10.2021
5163 Rain 8 1029 100 8000 1.54 330 00:47 20.10.2021
5164 Rain 9 1029 95 8000 1.03 0 23:59 19.10.2021
5165 Clouds 11 1029 95 7000 1.54 10 21:43 19.10.2021
5166 Clouds 11 1029 95 8000 1.54 40 20:54 19.10.2021
5167 Clouds 12 1029 96 8000 0 0 20:22 19.10.2021
5168 Rain 12 1029 93 9000 0 0 19:41 19.10.2021
5169 Clouds 13 1028 88 10000 2.06 110 18:53 19.10.2021
5170 Clouds 13 1028 88 10000 2.06 120 17:58 19.10.2021
5171 Clouds 15 1027 72 10000 4.63 120 15:39 19.10.2021
5172 Clouds 15 1027 72 10000 3.6 120 15:19 19.10.2021
5173 Clouds 15 1027 67 10000 4.63 110 14:26 19.10.2021
5174 Clouds 16 1027 55 10000 3.09 280 13:29 19.10.2021
5175 Clouds 16 1028 63 10000 4.63 300 11:32 19.10.2021
5176 Clouds 16 1028 63 10000 4.63 300 11:32 19.10.2021
5177 Clear 15 1028 72 10000 2.57 250 10:19 19.10.2021
5178 Clear 12 1028 87 10000 2.57 240 08:58 19.10.2021
5179 Clear 10 1026 93 10000 1.03 0 06:34 19.10.2021
5180 Clouds 13 1025 82 10000 2.06 270 00:24 19.10.2021
5181 Clouds 13 1025 82 10000 0 0 23:49 18.10.2021
5182 Clouds 12 1025 87 10000 0.51 0 23:19 18.10.2021
5183 Clouds 12 1025 94 10000 0 0 22:51 18.10.2021
5184 Clouds 12 1024 94 10000 1.54 360 21:18 18.10.2021
5185 Rain 12 1024 94 10000 1.54 360 20:41 18.10.2021
5186 Clouds 13 1024 88 10000 1.03 10 19:50 18.10.2021
5187 Clouds 13 1023 82 10000 1.03 110 19:29 18.10.2021
5188 Clouds 13 1023 82 10000 1.03 120 18:52 18.10.2021
5189 Clouds 15 1022 72 10000 4.12 100 15:25 18.10.2021
5190 Clouds 16 1022 59 10000 1.03 0 12:55 18.10.2021
5191 Clouds 16 1023 59 10000 2.06 270 10:42 18.10.2021
5192 Clouds 12 1023 82 10000 2.06 240 09:28 18.10.2021
5193 Clear 11 1022 87 10000 1.03 230 02:30 18.10.2021
5194 Clouds 11 1021 82 10000 1.54 300 23:30 17.10.2021
5195 Clouds 12 1021 76 10000 2.06 290 21:52 17.10.2021
5196 Rain 12 1021 82 10000 3.09 270 21:00 17.10.2021
5197 Rain 12 1021 82 10000 3.09 270 20:36 17.10.2021
5198 Rain 12 1021 82 10000 2.57 280 19:39 17.10.2021
5199 Rain 12 1022 83 10000 3.79 326 18:57 17.10.2021
5200 Clouds 13 1020 76 10000 3.6 290 17:32 17.10.2021
5201 Clouds 13 1019 76 10000 4.63 310 15:19 17.10.2021
5202 Clouds 13 1019 76 10000 5.14 310 14:24 17.10.2021
5203 Clouds 13 1019 76 10000 5.14 320 13:38 17.10.2021
5204 Clouds 12 1019 82 10000 3.09 310 11:55 17.10.2021
5205 Clouds 12 1019 82 10000 3.6 300 10:34 17.10.2021
5206 Clouds 12 1019 82 10000 3.6 300 10:34 17.10.2021
5207 Clouds 11 1018 82 10000 4.12 300 09:30 17.10.2021
5208 Clouds 10 1017 87 10000 3.6 310 07:19 17.10.2021
5209 Clouds 12 1016 87 10000 3.09 230 00:53 17.10.2021
5210 Clouds 12 1015 87 10000 3.6 0 00:22 17.10.2021
5211 Clouds 14 1014 88 10000 2.06 0 21:38 16.10.2021
5212 Clouds 13 1014 94 10000 3.09 270 20:31 16.10.2021
5213 Clouds 13 1014 94 10000 5.14 250 19:45 16.10.2021
5214 Clouds 13 1013 94 10000 3.09 320 19:21 16.10.2021
5215 Clouds 13 1013 94 10000 5.14 270 18:54 16.10.2021
5216 Clouds 13 1013 94 10000 5.14 270 18:36 16.10.2021
5217 Clouds 13 1013 94 10000 5.14 270 18:18 16.10.2021
5218 Clouds 14 1012 100 10000 5.66 260 17:23 16.10.2021
5219 Thunderstorm 16 1011 88 10000 3.6 250 14:52 16.10.2021
5220 Clouds 17 1011 94 10000 2.06 100 11:52 16.10.2021
5221 Rain 16 1011 94 10000 2.06 60 10:36 16.10.2021
5222 Clouds 15 1011 94 10000 3.6 80 07:50 16.10.2021
5223 Clouds 14 1012 94 10000 5.14 60 01:25 16.10.2021
5224 Rain 14 1014 94 10000 2.57 120 23:53 15.10.2021
5225 Clouds 14 1015 88 10000 4.63 80 22:38 15.10.2021
5226 Clouds 14 1015 88 10000 5.14 80 22:18 15.10.2021
5227 Clouds 14 1015 88 10000 5.66 80 21:26 15.10.2021
5228 Clouds 14 1015 94 10000 6.17 90 20:46 15.10.2021
5229 Clouds 15 1015 82 10000 7.2 80 19:26 15.10.2021
5230 Clouds 15 1016 82 10000 7.72 80 18:40 15.10.2021
5231 Clouds 15 1015 82 10000 7.72 70 16:28 15.10.2021
5232 Clouds 15 1016 82 10000 8.75 60 15:36 15.10.2021
5233 Clouds 16 1018 82 10000 9.26 80 12:42 15.10.2021
5234 Clouds 16 1018 82 10000 7.72 90 11:31 15.10.2021
5235 Clouds 16 1018 82 10000 7.72 70 10:43 15.10.2021
5236 Clouds 13 1019 88 10000 4.12 50 08:59 15.10.2021
5237 Clouds 12 1019 87 10000 4.63 40 05:31 15.10.2021
5238 Clouds 13 1019 82 10000 7.2 50 00:48 15.10.2021
5239 Clouds 14 1019 77 10000 7.72 50 00:21 15.10.2021
5240 Clouds 13 1020 82 10000 5.14 70 22:51 14.10.2021
5241 Clouds 13 1020 82 10000 5.14 70 22:51 14.10.2021
5242 Clouds 13 1020 82 10000 5.14 90 21:44 14.10.2021
5243 Clouds 13 1020 82 10000 6.17 90 20:38 14.10.2021
5244 Clouds 13 1020 82 10000 6.17 90 20:18 14.10.2021
5245 Rain 13 1020 76 10000 6.17 90 19:32 14.10.2021
5246 Clouds 14 1019 72 10000 5.66 90 17:26 14.10.2021
5247 Clouds 14 1019 72 10000 5.66 90 16:48 14.10.2021
5248 Clouds 14 1019 77 10000 5.66 100 15:33 14.10.2021
5249 Clouds 14 1020 77 10000 6.69 90 14:41 14.10.2021
5250 Clouds 14 1020 82 10000 6.69 110 13:37 14.10.2021
5251 Clouds 12 1021 87 9000 0 0 11:43 14.10.2021
5252 Mist 11 1021 100 4000 1.54 230 09:55 14.10.2021
5253 Clouds 11 1020 84 10000 2 40 06:54 14.10.2021
5254 Clouds 11 1019 80 10000 1.15 322 00:57 14.10.2021
5255 Rain 11 1018 93 10000 1.54 310 00:22 14.10.2021
5256 Rain 12 1017 82 10000 1.54 60 21:45 13.10.2021
5257 Rain 11 1017 93 10000 1.03 90 21:27 13.10.2021
5258 Clouds 12 1017 82 10000 1.03 0 19:48 13.10.2021
5259 Clouds 12 1016 76 10000 2.06 350 18:49 13.10.2021
5260 Clouds 12 1016 76 10000 2.06 350 18:49 13.10.2021
5261 Clouds 12 1016 76 10000 2.06 350 18:49 13.10.2021
5262 Clouds 12 1015 76 10000 2.57 280 17:49 13.10.2021
5263 Clouds 14 1014 62 10000 6.17 300 15:24 13.10.2021
5264 Clouds 14 1013 58 10000 6.17 290 14:44 13.10.2021
5265 Clouds 14 1012 62 10000 7.2 310 12:54 13.10.2021
5266 Clouds 13 1012 67 10000 7.72 300 11:55 13.10.2021
5267 Clouds 10 1012 81 10000 5.14 280 10:21 13.10.2021
5268 Clouds 9 1010 87 10000 5.66 300 07:56 13.10.2021
5269 Rain 9 1008 93 10000 6.17 310 06:33 13.10.2021
5270 Rain 10 1005 93 6000 8.23 330 02:24 13.10.2021
5271 Rain 12 1005 94 6000 5.14 350 23:55 12.10.2021
5272 Rain 12 1005 94 5000 6.69 340 23:29 12.10.2021
5273 Rain 12 1006 94 6000 6.69 340 22:43 12.10.2021
5274 Rain 12 1007 94 4000 3.6 280 21:19 12.10.2021
5275 Rain 13 1006 94 6000 3.6 330 20:33 12.10.2021
5276 Rain 13 1006 88 8000 3.09 0 19:51 12.10.2021
5277 Rain 13 1006 94 8000 2.06 0 18:27 12.10.2021
5278 Rain 14 1006 88 10000 3.09 360 17:35 12.10.2021
5279 Clouds 14 1007 94 9000 3.6 40 16:36 12.10.2021
5280 Rain 14 1007 94 5000 2.06 70 15:43 12.10.2021
5281 Clouds 14 1008 100 10000 4.12 60 14:25 12.10.2021
5282 Rain 14 1008 100 10000 1.54 300 13:41 12.10.2021
5283 Rain 13 1009 100 3800 2.06 100 11:36 12.10.2021
5284 Thunderstorm 14 1010 88 9000 2.57 80 09:41 12.10.2021
5285 Clouds 14 1010 88 10000 3.09 60 08:35 12.10.2021
5286 Clouds 13 1011 88 10000 3.6 80 06:46 12.10.2021
5287 Clouds 13 1012 88 10000 0.51 0 04:52 12.10.2021
5288 Clouds 13 1012 88 10000 1.03 0 04:28 12.10.2021
5289 Clouds 13 1014 94 10000 2.57 110 23:59 11.10.2021
5290 Clouds 13 1014 94 10000 2.57 110 23:37 11.10.2021
5291 Drizzle 13 1015 94 10000 3.6 100 22:52 11.10.2021
5292 Clouds 14 1015 88 10000 4.12 100 21:32 11.10.2021
5293 Rain 13 1016 94 10000 2.57 110 20:31 11.10.2021
5294 Clouds 13 1016 94 10000 3.09 90 19:36 11.10.2021
5295 Rain 14 1016 82 10000 6.17 100 18:23 11.10.2021
5296 Clouds 15 1016 72 10000 7.2 90 16:41 11.10.2021
5297 Clouds 15 1016 72 10000 6.69 90 16:21 11.10.2021
5298 Clouds 15 1016 72 10000 6.69 90 16:21 11.10.2021
5299 Clouds 15 1017 72 10000 6.69 90 15:45 11.10.2021
5300 Clouds 16 1017 67 10000 6.69 100 14:54 11.10.2021
5301 Clouds 17 1017 63 10000 6.69 100 14:22 11.10.2021
5302 Clouds 17 1018 55 10000 6.69 80 13:35 11.10.2021
5303 Clouds 16 1019 67 10000 7.72 100 11:24 11.10.2021
5304 Clouds 15 1020 67 10000 8.23 80 09:47 11.10.2021
5305 Clouds 13 1020 77 10000 4.63 50 08:40 11.10.2021
5306 Clouds 13 1022 82 10000 4.12 50 01:46 11.10.2021
5307 Clouds 13 1022 76 10000 4.63 50 00:59 11.10.2021
5308 Clouds 13 1022 76 10000 4.63 50 00:40 11.10.2021
5309 Clouds 13 1024 76 10000 5.14 30 22:41 10.10.2021
5310 Clouds 13 1024 76 10000 4.63 40 21:49 10.10.2021
5311 Clouds 13 1024 76 10000 4.63 30 21:19 10.10.2021
5312 Clouds 13 1025 76 10000 4.12 30 20:39 10.10.2021
5313 Clouds 13 1025 76 10000 3.6 40 20:19 10.10.2021
5314 Clouds 13 1025 76 10000 3.6 50 19:44 10.10.2021
5315 Clouds 13 1025 76 10000 3.6 60 19:26 10.10.2021
5316 Clouds 13 1024 76 10000 4.63 40 18:20 10.10.2021
5317 Clouds 14 1025 67 10000 4.63 50 15:49 10.10.2021
5318 Clouds 14 1025 67 10000 5.66 30 14:57 10.10.2021
5319 Clouds 13 1025 71 10000 6.69 20 13:41 10.10.2021
5320 Clouds 13 1025 67 10000 6.69 30 12:43 10.10.2021
5321 Clouds 13 1025 67 10000 8.23 30 11:30 10.10.2021
5322 Clouds 12 1025 71 10000 6.17 20 10:26 10.10.2021
5323 Clouds 11 1025 71 10000 5.66 20 09:18 10.10.2021
5324 Clouds 11 1025 71 10000 5.14 10 08:50 10.10.2021
5325 Clouds 10 1025 71 10000 6.17 20 04:50 10.10.2021
5326 Clouds 10 1025 76 10000 5.66 10 02:19 10.10.2021
5327 Clouds 11 1025 76 10000 4.63 10 00:47 10.10.2021
5328 Clouds 11 1026 76 10000 3.09 30 23:26 09.10.2021
5329 Clouds 11 1025 76 10000 3.09 0 21:55 09.10.2021
5330 Clouds 11 1025 76 10000 2.57 0 21:30 09.10.2021
5331 Clouds 11 1026 76 10000 4.12 40 20:19 09.10.2021
5332 Clouds 11 1026 82 10000 1.54 0 19:41 09.10.2021
5333 Clouds 11 1025 82 10000 2.57 0 18:45 09.10.2021
5334 Clouds 12 1025 76 10000 3.09 220 17:51 09.10.2021
5335 Clouds 12 1024 82 10000 5.66 40 16:20 09.10.2021
5336 Clouds 11 1024 87 10000 2.06 0 13:49 09.10.2021
5337 Clouds 11 1024 87 10000 2.06 0 13:31 09.10.2021
5338 Clouds 11 1023 87 10000 7.72 10 12:23 09.10.2021
5339 Clouds 10 1023 93 10000 7.72 10 10:44 09.10.2021
5340 Clouds 10 1023 93 10000 7.2 10 10:18 09.10.2021
5341 Clouds 10 1022 87 10000 6.69 10 08:33 09.10.2021
5342 Clouds 10 1021 87 10000 7.72 20 07:54 09.10.2021
5343 Clouds 10 1021 87 10000 8.75 10 06:29 09.10.2021
5344 Clouds 9 1021 93 10000 7.72 10 04:31 09.10.2021
5345 Clouds 9 1021 93 10000 7.72 20 02:44 09.10.2021
5346 Rain 10 1021 87 10000 8.23 10 00:23 09.10.2021
5347 Clouds 10 1021 93 10000 8.23 20 23:31 08.10.2021
5348 Rain 10 1022 87 10000 7.72 20 22:42 08.10.2021
5349 Rain 10 1021 93 10000 9.26 20 21:44 08.10.2021
5350 Rain 11 1022 87 10000 10.29 30 19:47 08.10.2021
5351 Rain 11 1023 93 6000 6.69 20 18:23 08.10.2021
5352 Rain 11 1023 93 10000 8.23 20 16:54 08.10.2021
5353 Rain 11 1023 93 10000 7.72 20 16:24 08.10.2021
5354 Clouds 12 1023 87 10000 8.23 30 14:20 08.10.2021
5355 Drizzle 11 1023 93 10000 7.72 30 13:41 08.10.2021
5356 Rain 12 1023 82 10000 7.72 20 11:41 08.10.2021
5357 Rain 12 1023 82 10000 7.2 10 10:42 08.10.2021
5358 Clouds 11 1024 82 10000 6.69 20 09:46 08.10.2021
5359 Clouds 12 1024 82 10000 5.14 30 03:36 08.10.2021
5360 Clouds 12 1024 87 10000 4.63 50 23:22 07.10.2021
5361 Clouds 12 1024 94 10000 8.23 40 21:47 07.10.2021
5362 Clouds 12 1024 87 10000 7.72 30 21:28 07.10.2021
5363 Clouds 12 1024 87 10000 6.17 40 20:28 07.10.2021
5364 Clouds 12 1024 87 10000 6.69 40 19:31 07.10.2021
5365 Clouds 13 1024 88 10000 4.63 40 18:27 07.10.2021
5366 Clouds 13 1023 88 6000 6.17 40 17:27 07.10.2021
5367 Clouds 14 1024 82 10000 5.66 50 15:56 07.10.2021
5368 Clouds 14 1023 82 10000 5.66 30 14:48 07.10.2021
5369 Clouds 14 1023 77 10000 6.17 30 13:43 07.10.2021
5370 Clouds 14 1023 67 10000 6.69 40 12:48 07.10.2021
5371 Clouds 14 1023 72 10000 6.69 50 10:57 07.10.2021
5372 Clouds 14 1023 67 10000 7.2 50 10:22 07.10.2021
5373 Clouds 14 1023 72 10000 7.72 40 09:34 07.10.2021
5374 Clouds 14 1023 72 10000 7.72 40 09:34 07.10.2021
5375 Clouds 14 1022 72 10000 8.75 30 08:52 07.10.2021
5376 Clouds 13 1023 82 10000 6.17 20 07:56 07.10.2021
5377 Clouds 13 1023 82 10000 6.17 20 07:36 07.10.2021
5378 Clouds 13 1023 82 10000 5.14 20 03:54 07.10.2021
5379 Clouds 13 1023 88 10000 4.63 30 00:29 07.10.2021
5380 Clouds 12 1025 94 10000 4.12 30 22:51 06.10.2021
5381 Clouds 13 1025 82 10000 4.12 50 22:23 06.10.2021
5382 Clouds 14 1025 77 10000 3.09 70 20:43 06.10.2021
5383 Clouds 14 1024 77 10000 5.66 40 20:20 06.10.2021
5384 Clouds 14 1025 77 10000 3.6 70 18:42 06.10.2021
5385 Clouds 14 1025 82 10000 4.12 60 16:58 06.10.2021
5386 Clouds 14 1025 82 10000 4.12 60 16:58 06.10.2021
5387 Clouds 14 1024 82 10000 3.6 50 15:31 06.10.2021
5388 Clouds 16 1024 63 10000 5.14 100 14:28 06.10.2021
5389 Clouds 16 1025 77 10000 2.57 100 13:20 06.10.2021
5390 Clouds 16 1025 77 10000 7.2 80 12:43 06.10.2021
5391 Clouds 17 1025 63 10000 4.63 100 12:21 06.10.2021
5392 Clouds 17 1025 59 10000 5.14 60 10:23 06.10.2021
5393 Clouds 15 1025 63 10000 2.06 0 09:39 06.10.2021
5394 Clouds 14 1025 72 10000 2.06 230 08:51 06.10.2021
5395 Clouds 11 1025 82 10000 0 0 07:50 06.10.2021
5396 Clouds 10 1025 81 10000 2.57 330 05:26 06.10.2021
5397 Clear 9 1026 81 10000 1.54 230 01:23 06.10.2021
5398 Clear 11 1026 71 10000 4.63 20 00:18 06.10.2021
5399 Clear 11 1026 71 10000 4.63 10 23:45 05.10.2021
5400 Clouds 12 1026 66 10000 4.63 10 23:27 05.10.2021
5401 Clear 11 1026 71 10000 4.12 30 22:28 05.10.2021
5402 Clear 11 1026 71 10000 3.09 20 21:49 05.10.2021
5403 Clear 11 1027 71 10000 2.57 20 20:42 05.10.2021
5404 Clear 12 1027 66 10000 4.12 40 20:24 05.10.2021
5405 Clear 12 1027 66 10000 4.12 40 19:43 05.10.2021
5406 Clear 13 1026 62 10000 5.14 40 18:54 05.10.2021
5407 Clouds 16 1026 59 10000 6.69 80 16:48 05.10.2021
5408 Clouds 18 1025 42 10000 5.14 80 14:38 05.10.2021
5409 Clouds 18 1025 48 10000 5.66 70 13:35 05.10.2021
5410 Clouds 19 1025 42 10000 5.66 90 12:47 05.10.2021
5411 Clouds 19 1026 42 10000 5.66 80 12:18 05.10.2021
5412 Clouds 17 1025 48 10000 6.69 50 10:59 05.10.2021
5413 Clear 16 1026 55 10000 4.12 40 09:26 05.10.2021
5414 Clear 9 1024 87 10000 2.06 350 04:47 05.10.2021
5415 Clear 12 1025 82 10000 2.06 60 23:53 04.10.2021
5416 Clear 12 1025 82 10000 2.06 60 23:53 04.10.2021
5417 Clear 12 1025 82 10000 4.12 40 22:38 04.10.2021
5418 Clear 12 1024 76 10000 3.09 20 19:59 04.10.2021
5419 Clear 14 1024 72 10000 3.6 110 18:34 04.10.2021
5420 Clouds 18 1024 59 10000 6.69 120 16:24 04.10.2021
5421 Clouds 19 1024 55 10000 6.69 120 15:31 04.10.2021
5422 Clouds 18 1024 59 10000 5.14 130 14:42 04.10.2021
5423 Clouds 18 1024 63 10000 6.69 130 13:57 04.10.2021
5424 Clouds 19 1024 52 10000 4.12 140 13:24 04.10.2021
5425 Clouds 20 1025 45 10000 1.54 0 12:26 04.10.2021
5426 Clouds 18 1025 55 10000 3.09 40 11:30 04.10.2021
5427 Clouds 17 1025 63 10000 4.12 20 09:59 04.10.2021
5428 Clouds 12 1025 93 10000 1.54 280 08:40 04.10.2021
5429 Clouds 9 1025 100 8000 1.54 220 07:26 04.10.2021
5430 Clear 12 1024 87 10000 3.09 10 00:33 04.10.2021
5431 Clear 11 1025 93 10000 3.6 30 22:34 03.10.2021
5432 Clouds 13 1025 88 10000 3.6 30 21:39 03.10.2021
5433 Clouds 13 1025 82 10000 3.09 30 20:59 03.10.2021
5434 Clouds 15 1024 77 10000 3.6 70 19:57 03.10.2021
5435 Clouds 16 1024 67 10000 1.54 0 18:34 03.10.2021
5436 Clouds 18 1023 55 10000 4.63 30 17:48 03.10.2021
5437 Clouds 20 1023 45 10000 5.66 30 16:34 03.10.2021
5438 Clouds 20 1023 42 10000 4.12 130 14:46 03.10.2021
5439 Clouds 20 1023 40 10000 4.12 40 13:58 03.10.2021
5440 Clouds 19 1023 42 10000 3.09 40 13:22 03.10.2021
5441 Clear 20 1024 40 10000 3.6 320 12:29 03.10.2021
5442 Clear 18 1024 45 10000 5.14 10 10:37 03.10.2021
5443 Clear 13 1024 66 10000 4.12 330 08:36 03.10.2021
5444 Clear 10 1024 76 10000 4.63 350 01:30 03.10.2021
5445 Clear 10 1024 81 10000 3.6 350 22:34 02.10.2021
5446 Clear 11 1024 76 10000 3.09 40 20:55 02.10.2021
5447 Clouds 13 1024 71 10000 3.09 40 19:40 02.10.2021
5448 Clouds 14 1024 67 10000 3.09 40 18:51 02.10.2021
5449 Clouds 15 1024 63 10000 3.6 20 17:41 02.10.2021
5450 Clouds 15 1024 63 10000 3.6 30 17:19 02.10.2021
5451 Clouds 14 1024 67 10000 5.66 20 14:49 02.10.2021
5452 Clouds 14 1026 88 10000 2.57 50 15:49 30.09.2021
5453 Rain 14 1025 88 6000 4.63 30 14:46 30.09.2021
5454 Clouds 16 1025 67 10000 4.63 30 12:27 30.09.2021
5455 Clouds 16 1025 67 10000 5.14 30 11:31 30.09.2021
5456 Clouds 16 1025 63 10000 4.12 10 10:40 30.09.2021
5457 Clouds 15 1025 72 10000 5.14 20 08:55 30.09.2021
5458 Clouds 14 1025 77 10000 5.14 30 08:27 30.09.2021
5459 Clear 13 1024 76 10000 4.63 20 05:53 30.09.2021
5460 Clear 13 1025 76 10000 1.54 320 02:59 30.09.2021
5461 Clear 15 1025 72 10000 4.12 30 00:40 30.09.2021
5462 Clear 14 1025 77 10000 4.12 10 23:21 29.09.2021
5463 Clouds 13 1025 82 10000 3.09 20 21:54 29.09.2021
5464 Clouds 13 1025 82 10000 3.09 50 20:42 29.09.2021
5465 Clouds 13 1025 76 10000 3.09 50 20:20 29.09.2021
5466 Clouds 15 1024 72 10000 3.09 70 19:26 29.09.2021
5467 Clouds 16 1024 63 10000 2.06 80 18:18 29.09.2021
5468 Clouds 18 1023 55 10000 5.14 80 16:56 29.09.2021
5469 Clouds 18 1023 59 10000 6.17 90 16:28 29.09.2021
5470 Clouds 18 1023 59 10000 5.66 60 15:35 29.09.2021
5471 Clouds 19 1023 52 10000 5.14 100 14:37 29.09.2021
5472 Clouds 19 1023 55 10000 5.14 80 13:33 29.09.2021
5473 Clouds 19 1023 52 10000 5.66 40 12:38 29.09.2021
5474 Clouds 19 1023 52 10000 4.12 30 11:20 29.09.2021
5475 Clouds 18 1023 55 10000 4.63 20 10:28 29.09.2021
5476 Clear 18 1023 52 10000 5.14 20 09:41 29.09.2021
5477 Clouds 15 1022 67 10000 4.12 30 07:51 29.09.2021
5478 Clouds 14 1022 72 10000 5.66 20 06:27 29.09.2021
5479 Clouds 16 1022 63 10000 4.12 30 23:59 28.09.2021
5480 Clear 16 1022 63 10000 3.09 40 22:25 28.09.2021
5481 Clear 16 1022 63 10000 3.09 30 21:46 28.09.2021
5482 Clouds 16 1022 63 10000 4.12 70 20:48 28.09.2021
5483 Clouds 16 1021 63 10000 3.6 70 19:48 28.09.2021
5484 Clouds 16 1021 63 10000 3.09 60 19:27 28.09.2021
5485 Clouds 17 1021 59 10000 4.12 60 18:40 28.09.2021
5486 Clouds 17 1021 63 10000 4.12 80 16:54 28.09.2021
5487 Clouds 18 1020 59 10000 5.66 100 15:19 28.09.2021
5488 Clouds 18 1020 63 10000 5.14 100 13:25 28.09.2021
5489 Clouds 19 1020 59 10000 6.69 120 12:24 28.09.2021
5490 Clouds 19 1020 59 10000 7.2 110 11:47 28.09.2021
5491 Clouds 19 1020 59 10000 5.66 100 11:26 28.09.2021
5492 Clouds 18 1020 63 10000 5.14 90 10:27 28.09.2021
5493 Clouds 18 1020 63 10000 4.12 90 09:29 28.09.2021
5494 Clouds 18 1020 63 10000 3.09 80 08:43 28.09.2021
5495 Clouds 16 1019 72 10000 2.57 50 07:55 28.09.2021
5496 Clouds 14 1019 82 10000 3.09 30 06:25 28.09.2021
5497 Clouds 16 1019 88 10000 3.09 110 01:31 28.09.2021
5498 Clouds 16 1019 88 10000 3.09 90 00:30 28.09.2021
5499 Clouds 16 1019 88 10000 3.6 100 23:49 27.09.2021
5500 Clouds 17 1019 88 10000 4.63 100 23:24 27.09.2021
5501 Clouds 17 1019 88 10000 4.12 110 22:20 27.09.2021
5502 Clouds 17 1019 88 10000 4.12 110 22:20 27.09.2021
5503 Clouds 17 1019 88 10000 1.54 90 20:54 27.09.2021
5504 Clear 17 1018 88 10000 3.09 110 20:26 27.09.2021
5505 Clear 18 1018 82 10000 3.6 100 19:37 27.09.2021
5506 Clear 18 1018 82 10000 4.63 100 18:52 27.09.2021
5507 Clear 18 1018 82 10000 4.63 100 18:52 27.09.2021
5508 Clouds 21 1017 73 10000 6.17 120 17:37 27.09.2021
5509 Clouds 22 1017 60 10000 6.69 120 16:56 27.09.2021
5510 Clouds 22 1017 60 10000 6.69 120 16:33 27.09.2021
5511 Clear 23 1018 49 10000 6.69 110 15:36 27.09.2021
5512 Clear 24 1018 43 10000 5.14 120 13:44 27.09.2021
5513 Clouds 24 1019 50 10000 5.66 130 12:22 27.09.2021
5514 Clear 23 1019 56 10000 4.63 140 10:48 27.09.2021
5515 Clear 22 1019 64 10000 1.54 170 09:38 27.09.2021
5516 Clouds 15 1019 100 9000 1.03 0 07:44 27.09.2021
5517 Clear 14 1019 100 10000 0 0 03:31 27.09.2021
5518 Clear 17 1020 88 10000 2.06 60 23:42 26.09.2021
5519 Clear 18 1020 88 10000 1.54 50 21:55 26.09.2021
5520 Clear 18 1020 94 10000 2.57 90 21:26 26.09.2021
5521 Clear 18 1020 88 10000 3.6 100 20:25 26.09.2021
5522 Clear 19 1019 82 10000 4.63 100 19:54 26.09.2021
5523 Clear 18 1019 82 10000 4.12 100 19:25 26.09.2021
5524 Clear 18 1019 82 10000 4.12 100 19:25 26.09.2021
5525 Clear 18 1019 82 10000 4.12 100 19:25 26.09.2021
5526 Clear 19 1019 77 10000 4.12 100 18:34 26.09.2021
5527 Clear 23 1019 56 10000 3.6 120 17:37 26.09.2021
5528 Clear 23 1019 56 10000 3.6 120 17:18 26.09.2021
5529 Clear 24 1020 50 10000 5.66 120 16:22 26.09.2021
5530 Clear 24 1020 53 10000 6.69 110 15:22 26.09.2021
5531 Clear 25 1020 47 10000 6.69 110 14:18 26.09.2021
5532 Clear 24 1021 53 10000 6.69 110 13:42 26.09.2021
5533 Clear 25 1021 47 10000 3.6 130 12:26 26.09.2021
5534 Clear 26 1021 41 10000 2.57 160 11:53 26.09.2021
5535 Clear 23 1022 56 10000 1.03 0 10:52 26.09.2021
5536 Clear 21 1022 73 10000 0 0 09:37 26.09.2021
5537 Clear 17 1022 94 10000 1.03 260 08:30 26.09.2021
5538 Clear 15 1022 88 10000 2.06 80 00:28 26.09.2021
5539 Clear 16 1022 82 10000 2.06 80 23:41 25.09.2021
5540 Clear 16 1022 82 10000 2.06 70 22:39 25.09.2021
5541 Clear 16 1022 82 10000 2.06 70 22:18 25.09.2021
5542 Clear 16 1021 77 10000 2.06 90 21:36 25.09.2021
5543 Clear 17 1021 72 10000 2.06 130 20:52 25.09.2021
5544 Clear 17 1021 77 10000 2.06 130 19:33 25.09.2021
5545 Clear 19 1020 63 10000 3.09 130 18:27 25.09.2021
5546 Clear 20 1020 60 10000 4.63 120 17:18 25.09.2021
5547 Clouds 21 1020 52 10000 6.17 120 14:25 25.09.2021
5548 Clouds 22 1020 46 10000 4.63 120 13:54 25.09.2021
5549 Clouds 22 1020 43 10000 2.06 0 12:36 25.09.2021
5550 Clear 20 1020 45 10000 1.54 0 10:36 25.09.2021
5551 Clear 20 1020 45 10000 1.54 210 09:56 25.09.2021
5552 Clear 19 1019 45 10000 1.54 80 08:45 25.09.2021
5553 Clear 17 1018 59 10000 2.06 50 07:46 25.09.2021
5554 Clear 18 1014 48 10000 1.03 0 00:50 25.09.2021
5555 Clear 18 1014 48 10000 1.03 0 00:50 25.09.2021
5556 Clear 17 1012 48 10000 2.06 360 21:57 24.09.2021
5557 Clear 17 1012 51 10000 1.54 10 21:25 24.09.2021
5558 Clear 18 1012 42 10000 1.03 0 20:19 24.09.2021
5559 Clear 20 1011 34 10000 4.12 290 18:36 24.09.2021
5560 Clear 21 1011 32 10000 4.63 260 17:56 24.09.2021
5561 Clear 22 1011 30 10000 3.09 230 17:37 24.09.2021
5562 Clear 22 1011 30 10000 3.09 230 17:19 24.09.2021
5563 Clear 22 1012 28 10000 6.69 250 14:48 24.09.2021
5564 Clear 20 1014 34 10000 6.17 240 13:20 24.09.2021
5565 Clear 20 1014 34 10000 6.17 230 12:41 24.09.2021
5566 Clear 20 1014 37 10000 5.66 230 12:23 24.09.2021
5567 Clear 16 1016 55 10000 4.63 270 10:28 24.09.2021
5568 Rain 12 1017 62 10000 4.12 260 08:57 24.09.2021
5569 Clear 9 1017 87 10000 1.03 0 07:39 24.09.2021
5570 Clear 9 1017 87 10000 1.54 210 06:50 24.09.2021
5571 Clear 8 1017 81 10000 1.54 350 05:21 24.09.2021
5572 Clear 10 1019 76 10000 1.03 10 00:44 24.09.2021
5573 Clear 12 1019 66 10000 1.54 280 22:36 23.09.2021
5574 Clear 12 1019 71 10000 1.54 350 21:56 23.09.2021
5575 Clear 12 1019 66 10000 0 0 20:36 23.09.2021
5576 Clear 12 1019 66 10000 0 0 20:18 23.09.2021
5577 Clear 14 1018 54 10000 2.57 300 18:25 23.09.2021
5578 Clouds 17 1018 45 10000 5.66 320 15:37 23.09.2021
5579 Clouds 17 1018 48 10000 6.17 320 15:18 23.09.2021
5580 Clouds 16 1018 48 10000 6.69 330 13:48 23.09.2021
5581 Clouds 16 1018 51 10000 6.69 320 13:22 23.09.2021
5582 Clouds 16 1018 48 10000 6.17 320 12:53 23.09.2021
5583 Clouds 16 1018 48 10000 5.66 310 12:22 23.09.2021
5584 Clouds 16 1018 51 10000 5.66 350 11:47 23.09.2021
5585 Clear 13 1018 62 10000 6.17 350 10:27 23.09.2021
5586 Clear 13 1018 67 10000 5.66 340 09:52 23.09.2021
5587 Clear 11 1018 76 10000 5.66 340 08:25 23.09.2021
5588 Clear 8 1016 93 10000 5.66 280 04:27 23.09.2021
5589 Clear 11 1016 87 10000 3.09 270 23:35 22.09.2021
5590 Clouds 11 1016 93 10000 4.12 300 22:37 22.09.2021
5591 Clouds 11 1016 87 10000 4.12 280 21:56 22.09.2021
5592 Clouds 11 1016 87 10000 4.12 280 21:34 22.09.2021
5593 Clouds 11 1017 93 10000 4.12 280 20:57 22.09.2021
5594 Rain 12 1016 93 7000 6.17 340 19:33 22.09.2021
5595 Clouds 15 1016 63 10000 4.12 290 18:39 22.09.2021
5596 Clouds 14 1016 63 10000 4.12 290 18:39 22.09.2021
5597 Clouds 15 1016 58 10000 4.12 300 17:48 22.09.2021
5598 Clouds 14 1016 49 10000 0.8 326 16:38 22.09.2021
5599 Clouds 16 1017 55 10000 2.06 250 15:19 22.09.2021
5600 Clouds 16 1017 55 10000 3.09 250 13:48 22.09.2021
5601 Clouds 16 1018 59 10000 2.06 260 11:59 22.09.2021
5602 Clouds 15 1019 63 10000 2.57 250 10:52 22.09.2021
5603 Clouds 14 1019 67 10000 0.51 0 09:25 22.09.2021
5604 Clouds 11 1020 87 10000 0.51 0 08:29 22.09.2021
5605 Clear 10 1020 87 10000 2.57 280 07:19 22.09.2021
5606 Clouds 7 1020 93 9000 2.57 270 05:56 22.09.2021
5607 Clouds 7 1020 93 9000 2.57 270 05:34 22.09.2021
5608 Clear 8 1020 93 10000 1.03 0 03:50 22.09.2021
5609 Clear 10 1022 81 10000 1.03 0 00:22 22.09.2021
5610 Clear 12 1022 71 10000 3.6 360 22:54 21.09.2021
5611 Clear 12 1022 71 10000 3.09 360 21:36 21.09.2021
5612 Clouds 13 1023 55 10000 2.22 348 20:26 21.09.2021
5613 Clear 15 1021 58 10000 2.06 350 19:20 21.09.2021
5614 Clouds 16 1022 52 10000 2.81 0 17:35 21.09.2021
5615 Clouds 18 1021 52 10000 2.57 270 16:34 21.09.2021
5616 Clouds 17 1021 55 10000 3.6 310 15:39 21.09.2021
5617 Clouds 18 1021 52 10000 2.57 330 14:57 21.09.2021
5618 Clouds 17 1021 55 10000 3.09 310 13:56 21.09.2021
5619 Clouds 17 1021 55 10000 3.09 310 13:56 21.09.2021
5620 Clouds 17 1021 55 10000 3.09 310 13:36 21.09.2021
5621 Clouds 17 1021 55 10000 2.57 350 11:45 21.09.2021
5622 Clouds 15 1020 72 10000 3.6 360 09:58 21.09.2021
5623 Clouds 13 1019 82 10000 2.06 350 08:28 21.09.2021
5624 Clouds 13 1018 88 10000 3.6 300 06:41 21.09.2021
5625 Clouds 18 1014 88 10000 9.26 290 23:59 20.09.2021
5626 Clouds 19 1013 88 10000 5.14 260 22:25 20.09.2021
5627 Clouds 19 1012 88 10000 6.69 330 21:38 20.09.2021
5628 Rain 21 1011 88 10000 2.06 230 20:31 20.09.2021
5629 Clouds 21 1010 83 10000 3.6 110 19:30 20.09.2021
5630 Clear 22 1009 68 10000 4.63 120 17:46 20.09.2021
5631 Clear 23 1010 64 10000 5.66 120 16:43 20.09.2021
5632 Clear 24 1010 57 10000 6.17 120 15:49 20.09.2021
5633 Clear 24 1010 56 10000 6.17 120 15:24 20.09.2021
5634 Clear 25 1010 44 10000 5.66 130 14:24 20.09.2021
5635 Clear 25 1011 41 10000 5.66 130 12:35 20.09.2021
5636 Clear 24 1012 46 10000 5.66 140 11:26 20.09.2021
5637 Clear 23 1012 43 10000 3.6 140 10:18 20.09.2021
5638 Clear 23 1012 43 10000 2.06 140 09:36 20.09.2021
5639 Clear 21 1012 52 10000 2.06 110 09:18 20.09.2021
5640 Clear 17 1012 72 10000 0 0 07:45 20.09.2021
5641 Clear 16 1012 72 10000 2.06 360 23:49 19.09.2021
5642 Clear 17 1012 72 10000 0.51 0 22:26 19.09.2021
5643 Clear 18 1012 72 10000 1.54 20 21:43 19.09.2021
5644 Clear 19 1011 72 10000 0 0 20:43 19.09.2021
5645 Clear 20 1011 68 10000 1.54 90 19:31 19.09.2021
5646 Clouds 24 1010 41 10000 2.06 150 18:29 19.09.2021
5647 Clouds 26 1010 36 10000 5.14 270 17:23 19.09.2021
5648 Clear 27 1011 32 10000 5.14 260 15:55 19.09.2021
5649 Clear 27 1011 32 10000 5.14 250 15:30 19.09.2021
5650 Clear 27 1011 32 10000 5.14 250 15:30 19.09.2021
5651 Clear 26 1011 31 10000 5.66 250 14:48 19.09.2021
5652 Clear 26 1012 31 10000 6.17 240 13:24 19.09.2021
5653 Clear 26 1012 31 10000 7.72 250 12:50 19.09.2021
5654 Clear 24 1012 35 10000 7.72 270 11:28 19.09.2021
5655 Clear 23 1012 38 10000 8.23 280 10:47 19.09.2021
5656 Clear 22 1012 49 10000 7.2 270 09:40 19.09.2021
5657 Clear 22 1012 49 10000 7.2 270 09:40 19.09.2021
5658 Clear 19 1012 55 10000 6.69 280 08:31 19.09.2021
5659 Clear 16 1012 67 10000 3.09 310 06:41 19.09.2021
5660 Clear 20 1011 56 10000 3.6 250 23:38 18.09.2021
5661 Clouds 21 1010 52 10000 5.66 280 21:59 18.09.2021
5662 Clouds 22 1010 49 10000 5.66 290 20:52 18.09.2021
5663 Clouds 22 1010 49 10000 7.2 280 20:32 18.09.2021
5664 Clouds 24 1009 43 10000 8.75 290 19:39 18.09.2021
5665 Clouds 24 1009 43 10000 8.75 290 19:20 18.09.2021
5666 Clouds 24 1009 53 10000 4.63 270 18:32 18.09.2021
5667 Clouds 27 1008 47 10000 6.69 280 17:31 18.09.2021
5668 Clear 29 1008 45 10000 7.72 270 16:18 18.09.2021
5669 Clouds 28 1008 47 10000 8.75 280 13:49 18.09.2021
5670 Clouds 27 1008 50 10000 7.72 280 13:29 18.09.2021
5671 Clouds 29 1008 45 10000 6.69 270 12:49 18.09.2021
5672 Clouds 29 1008 45 10000 6.69 270 12:49 18.09.2021
5673 Clear 26 1009 61 10000 6.69 270 11:40 18.09.2021
5674 Clouds 25 1009 73 10000 4.12 260 10:31 18.09.2021
5675 Clouds 23 1009 68 8000 2.57 260 09:27 18.09.2021
5676 Mist 22 1009 88 5000 1.54 170 08:55 18.09.2021
5677 Clear 21 1009 84 10000 1.81 239 02:50 18.09.2021
5678 Rain 21 1010 85 10000 3.1 229 00:41 18.09.2021
5679 Rain 22 1011 82 10000 2.56 189 23:47 17.09.2021
5680 Rain 22 1011 80 10000 2.27 148 22:33 17.09.2021
5681 Rain 22 1010 78 10000 2.57 120 21:55 17.09.2021
5682 Clouds 22 1010 78 10000 2.57 100 20:45 17.09.2021
5683 Clear 23 1010 68 10000 3.6 110 18:54 17.09.2021
5684 Clear 24 1011 64 10000 5.66 130 16:51 17.09.2021
5685 Clear 25 1011 61 10000 6.17 130 16:18 17.09.2021
5686 Clear 27 1013 47 10000 6.69 110 12:36 17.09.2021
5687 Clear 26 1014 47 10000 3.6 160 10:41 17.09.2021
5688 Clear 22 1014 78 10000 2.06 120 08:25 17.09.2021
5689 Clouds 18 1014 100 8000 0 0 06:49 17.09.2021
5690 Clear 18 1017 94 10000 2.57 100 00:49 17.09.2021
5691 Clear 19 1017 94 10000 1.54 90 22:50 16.09.2021
5692 Clear 19 1017 94 10000 2.06 110 22:24 16.09.2021
5693 Clear 20 1017 88 10000 2.06 120 21:39 16.09.2021
5694 Clear 20 1017 83 10000 2.57 130 20:43 16.09.2021
5695 Clear 20 1017 77 10000 3.09 120 19:37 16.09.2021
5696 Clear 22 1016 68 10000 3.6 120 18:19 16.09.2021
5697 Clear 24 1016 60 10000 6.17 110 17:22 16.09.2021
5698 Clear 26 1016 50 10000 7.2 110 14:53 16.09.2021
5699 Clear 26 1017 47 10000 6.17 110 13:48 16.09.2021
5700 Clear 26 1017 47 10000 3.6 110 12:47 16.09.2021
5701 Clear 25 1017 57 10000 2.57 120 12:26 16.09.2021
5702 Clear 24 1018 60 10000 2.06 0 11:24 16.09.2021
5703 Clear 23 1018 64 10000 0.51 0 10:30 16.09.2021
5704 Clear 22 1018 73 10000 0 0 09:39 16.09.2021
5705 Clear 20 1017 82 10000 0 0 08:28 16.09.2021
5706 Clear 16 1017 94 10000 2.57 290 06:58 16.09.2021
5707 Clear 15 1017 94 10000 2.57 290 06:38 16.09.2021
5708 Clear 14 1017 94 10000 0 0 04:18 16.09.2021
5709 Mist 15 1017 100 4700 0.51 0 00:59 16.09.2021
5710 Clouds 16 1017 100 9000 1.03 320 23:31 15.09.2021
5711 Clear 17 1017 94 10000 1.54 340 22:44 15.09.2021
5712 Clear 18 1017 88 10000 2.06 10 21:31 15.09.2021
5713 Rain 18 1017 94 10000 2.06 10 20:51 15.09.2021
5714 Clear 19 1017 82 10000 1.54 10 19:34 15.09.2021
5715 Clouds 21 1016 83 10000 1.54 140 18:57 15.09.2021
5716 Clear 23 1016 73 10000 4.12 130 17:45 15.09.2021
5717 Clear 24 1016 68 10000 5.14 140 16:43 15.09.2021
5718 Clouds 25 1016 61 10000 3.6 140 15:25 15.09.2021
5719 Clouds 24 1016 73 10000 4.63 110 14:43 15.09.2021
5720 Rain 25 1016 57 10000 6.17 120 13:48 15.09.2021
5721 Clouds 25 1017 53 10000 4.63 110 13:28 15.09.2021
5722 Clouds 26 1017 57 10000 4.12 120 12:33 15.09.2021
5723 Rain 26 1017 47 10000 2.57 150 11:51 15.09.2021
5724 Clouds 27 1017 41 10000 3.6 60 10:58 15.09.2021
5725 Clouds 27 1017 41 10000 3.6 60 10:35 15.09.2021
5726 Clear 22 1017 56 10000 2.06 270 08:51 15.09.2021
5727 Clear 19 1017 68 10000 1.54 180 07:27 15.09.2021
5728 Clear 15 1016 72 10000 0 0 02:21 15.09.2021
5729 Clear 18 1016 59 10000 2.06 350 22:26 14.09.2021
5730 Clear 18 1016 59 10000 1.03 360 21:26 14.09.2021
5731 Clear 19 1016 55 10000 1.03 0 20:21 14.09.2021
5732 Clear 21 1015 52 10000 1.54 50 19:23 14.09.2021
5733 Clear 24 1015 50 10000 2.57 100 17:33 14.09.2021
5734 Clear 25 1015 50 10000 3.6 110 16:39 14.09.2021
5735 Clear 25 1015 44 10000 6.69 130 14:52 14.09.2021
5736 Clear 25 1015 44 10000 6.69 130 14:52 14.09.2021
5737 Clear 26 1015 44 10000 5.66 130 14:19 14.09.2021
5738 Clear 27 1015 39 10000 5.66 140 11:47 14.09.2021
5739 Clear 27 1015 36 10000 2.06 0 10:44 14.09.2021
5740 Clear 26 1015 36 10000 3.6 110 09:49 14.09.2021
5741 Clear 20 1015 49 10000 2.06 230 07:53 14.09.2021
5742 Clear 17 1014 63 10000 2.57 230 02:20 14.09.2021
5743 Clear 17 1014 77 10000 0 0 23:27 13.09.2021
5744 Clear 17 1014 72 10000 1.03 330 22:28 13.09.2021
5745 Clear 18 1014 72 10000 0 0 21:55 13.09.2021
5746 Clear 18 1014 72 10000 0 0 21:32 13.09.2021
5747 Clear 19 1013 68 10000 2.06 10 19:35 13.09.2021
5748 Clear 22 1013 60 10000 2.06 130 18:44 13.09.2021
5749 Clear 24 1012 57 10000 5.66 120 17:28 13.09.2021
5750 Clear 25 1012 53 10000 6.17 120 16:49 13.09.2021
5751 Clear 28 1012 21 10000 3.09 350 14:44 13.09.2021
5752 Clear 27 1013 29 10000 5.66 340 11:44 13.09.2021
5753 Clear 27 1013 29 10000 3.6 10 10:40 13.09.2021
5754 Mist 17 1013 77 4500 1.54 270 07:58 13.09.2021
5755 Clear 16 1013 82 10000 1.54 270 00:29 13.09.2021
5756 Clear 16 1013 82 10000 1.03 0 22:42 12.09.2021
5757 Clear 17 1013 82 10000 1.54 270 22:21 12.09.2021
5758 Rain 18 1013 72 10000 2.06 10 20:47 12.09.2021
5759 Rain 20 1012 64 10000 1.54 0 19:58 12.09.2021
5760 Clear 21 1012 60 10000 2.06 70 19:29 12.09.2021
5761 Clear 21 1012 64 10000 2.57 120 18:53 12.09.2021
5762 Clear 25 1012 50 10000 4.63 130 16:58 12.09.2021
5763 Clear 26 1012 50 10000 6.17 120 15:41 12.09.2021
5764 Clouds 28 1012 26 10000 3.09 10 14:37 12.09.2021
5765 Clouds 27 1013 29 10000 3.6 360 12:28 12.09.2021
5766 Clear 26 1014 38 10000 3.6 190 10:19 12.09.2021
5767 Clear 22 1014 46 10000 1.54 250 08:38 12.09.2021
5768 Clear 16 1013 63 10000 1.03 0 04:59 12.09.2021
5769 Clear 18 1014 55 10000 2.06 280 00:46 12.09.2021
5770 Rain 19 1014 52 10000 0 0 22:29 11.09.2021
5771 Rain 18 1015 52 10000 1.54 350 21:38 11.09.2021
5772 Clear 20 1014 52 10000 2.57 40 19:34 11.09.2021
5773 Clear 25 1014 33 10000 4.63 110 17:56 11.09.2021
5774 Clear 26 1014 29 10000 4.63 100 16:41 11.09.2021
5775 Clear 27 1014 24 10000 5.66 360 14:45 11.09.2021
5776 Clear 28 1015 24 10000 3.6 360 13:22 11.09.2021
5777 Clear 26 1015 29 10000 4.12 220 11:35 11.09.2021
5778 Clear 23 1016 38 10000 2.57 240 09:42 11.09.2021
5779 Clear 19 1016 45 10000 2.57 250 08:21 11.09.2021
5780 Clear 17 1016 51 10000 2.06 310 07:34 11.09.2021
5781 Clear 15 1016 67 10000 0.51 0 01:23 11.09.2021
5782 Clear 16 1017 55 10000 1.03 0 22:27 10.09.2021
5783 Clear 16 1017 59 10000 2.06 330 21:56 10.09.2021
5784 Rain 17 1017 55 10000 1.54 310 20:41 10.09.2021
5785 Clear 20 1017 45 10000 1.54 20 18:43 10.09.2021
5786 Clear 23 1017 38 10000 2.06 30 17:33 10.09.2021
5787 Clouds 23 1017 49 10000 4.63 120 15:37 10.09.2021
5788 Clouds 24 1017 38 10000 4.63 80 13:18 10.09.2021
5789 Clouds 20 1018 59 10000 5.66 360 10:21 10.09.2021
5790 Clear 16 1017 67 10000 5.66 350 07:51 10.09.2021
5791 Clear 16 1018 82 10000 2.57 310 04:21 10.09.2021
5792 Clear 16 1019 77 10000 3.09 30 22:33 09.09.2021
5793 Clear 17 1019 72 10000 2.06 20 21:47 09.09.2021
5794 Clouds 17 1019 72 10000 3.09 40 20:47 09.09.2021
5795 Clouds 18 1019 68 10000 3.09 50 20:22 09.09.2021
5796 Clouds 20 1018 60 10000 4.63 90 18:35 09.09.2021
5797 Clouds 23 1019 53 10000 6.69 100 16:41 09.09.2021
5798 Clouds 24 1019 53 10000 7.2 100 16:21 09.09.2021
5799 Clouds 25 1020 50 10000 7.2 110 13:33 09.09.2021
5800 Clouds 24 1020 50 10000 7.72 90 11:50 09.09.2021
5801 Clouds 24 1020 46 10000 7.2 90 10:31 09.09.2021
5802 Clouds 20 1021 56 10000 5.14 40 08:58 09.09.2021
5803 Clear 15 1021 77 10000 5.14 20 06:50 09.09.2021
5804 Clear 15 1021 77 10000 4.63 10 03:44 09.09.2021
5805 Clouds 16 1022 72 10000 4.63 30 22:53 08.09.2021
5806 Clouds 16 1022 72 10000 3.6 40 21:36 08.09.2021
5807 Clouds 17 1023 67 10000 3.6 30 20:19 08.09.2021
5808 Clouds 18 1022 63 10000 3.6 50 19:29 08.09.2021
5809 Clouds 20 1022 56 10000 5.14 70 18:31 08.09.2021
5810 Clouds 20 1022 56 10000 5.14 70 18:30 08.09.2021
5811 Clouds 21 1023 52 10000 6.69 70 17:57 08.09.2021
5812 Clouds 22 1023 49 10000 7.72 100 16:38 08.09.2021
5813 Clouds 24 1023 50 10000 7.72 100 14:30 08.09.2021
5814 Clouds 24 1023 50 10000 7.72 100 14:30 08.09.2021
5815 Clouds 24 1023 50 10000 7.72 100 14:30 08.09.2021
5816 Clouds 24 1023 50 10000 7.72 100 14:30 08.09.2021
5817 Clouds 24 1023 50 10000 7.72 100 14:30 08.09.2021
5818 Clouds 24 1024 43 10000 5.66 80 12:54 08.09.2021
5819 Clouds 23 1024 46 10000 6.69 100 12:27 08.09.2021
5820 Clouds 23 1024 43 10000 7.2 90 11:38 08.09.2021
5821 Clouds 22 1024 49 10000 5.14 50 10:43 08.09.2021
5822 Clouds 22 1024 49 10000 5.14 50 10:24 08.09.2021
5823 Clouds 18 1024 63 10000 4.63 10 08:54 08.09.2021
5824 Clouds 15 1024 72 10000 5.66 20 07:38 08.09.2021
5825 Clear 13 1024 72 10000 4.63 20 05:34 08.09.2021
5826 Clouds 15 1025 67 10000 3.6 20 22:50 07.09.2021
5827 Clouds 16 1025 59 10000 4.12 40 21:59 07.09.2021
5828 Clouds 16 1025 63 10000 3.09 50 19:54 07.09.2021
5829 Clouds 19 1025 52 10000 6.17 70 18:45 07.09.2021
5830 Clouds 19 1025 52 10000 6.17 80 18:18 07.09.2021
5831 Clouds 19 1025 52 10000 6.17 80 18:18 07.09.2021
5832 Clouds 21 1025 49 10000 7.72 80 16:42 07.09.2021
5833 Clouds 21 1025 52 10000 7.72 80 15:37 07.09.2021
5834 Clouds 22 1026 43 10000 7.72 100 14:42 07.09.2021
5835 Clouds 22 1026 46 10000 8.23 90 12:43 07.09.2021
5836 Clouds 22 1026 43 10000 7.72 80 11:45 07.09.2021
5837 Clouds 22 1026 43 10000 7.2 70 10:41 07.09.2021
5838 Clouds 19 1025 52 10000 5.66 20 08:34 07.09.2021
5839 Clouds 16 1025 55 10000 6.17 20 07:44 07.09.2021
5840 Clear 14 1025 62 10000 6.17 30 05:41 07.09.2021
5841 Clear 14 1025 62 10000 4.12 20 02:36 07.09.2021
5842 Clear 13 1026 67 10000 4.63 30 00:46 07.09.2021
5843 Clear 15 1026 63 10000 4.12 50 23:34 06.09.2021
5844 Clear 15 1026 67 10000 4.12 50 22:53 06.09.2021
5845 Clear 16 1025 63 10000 4.63 50 22:33 06.09.2021
5846 Clear 16 1025 63 10000 3.6 40 20:56 06.09.2021
5847 Clear 19 1024 55 10000 5.14 70 19:31 06.09.2021
5848 Clear 19 1024 55 10000 5.14 70 18:48 06.09.2021
5849 Clouds 20 1024 52 10000 5.66 80 18:23 06.09.2021
5850 Clouds 22 1023 49 10000 6.69 90 17:36 06.09.2021
5851 Clouds 22 1023 46 10000 7.72 80 15:52 06.09.2021
5852 Clouds 22 1023 49 10000 7.72 80 13:48 06.09.2021
5853 Clouds 23 1023 40 10000 5.66 60 12:47 06.09.2021
5854 Clouds 22 1023 43 10000 5.66 40 10:45 06.09.2021
5855 Clear 18 1023 52 10000 6.17 10 08:35 06.09.2021
5856 Clear 14 1022 54 10000 3.6 360 04:48 06.09.2021
5857 Clear 18 1021 63 10000 1.54 0 23:35 05.09.2021
5858 Clear 19 1021 63 10000 3.09 0 22:48 05.09.2021
5859 Clear 19 1021 72 10000 7.2 30 21:58 05.09.2021
5860 Clear 19 1020 72 10000 7.72 50 21:31 05.09.2021
5861 Clear 19 1020 72 10000 7.72 50 21:30 05.09.2021
5862 Clouds 20 1020 73 10000 6.69 40 19:56 05.09.2021
5863 Clouds 21 1019 68 10000 7.2 30 18:42 05.09.2021
5864 Clouds 22 1018 60 10000 7.2 80 17:31 05.09.2021
5865 Clouds 22 1018 60 10000 7.2 80 17:30 05.09.2021
5866 Clouds 23 1018 68 10000 0 0 15:27 05.09.2021
5867 Clear 24 1018 50 10000 6.17 140 14:19 05.09.2021
5868 Clear 25 1018 41 10000 5.66 130 12:26 05.09.2021
5869 Clear 24 1018 43 10000 4.63 140 10:48 05.09.2021
5870 Clear 24 1018 41 10000 3.09 140 10:23 05.09.2021
5871 Clear 22 1018 53 10000 1.03 0 09:21 05.09.2021
5872 Clear 16 1018 82 10000 1.54 250 07:43 05.09.2021
5873 Clear 14 1017 88 10000 1.54 330 00:48 05.09.2021
5874 Clear 16 1017 77 10000 1.03 0 00:22 05.09.2021
5875 Clear 15 1017 82 10000 2.06 340 23:32 04.09.2021
5876 Clear 16 1017 77 10000 2.57 20 22:35 04.09.2021
5877 Clear 17 1017 72 10000 2.57 360 21:55 04.09.2021
5878 Clear 19 1016 59 10000 2.57 130 19:41 04.09.2021
5879 Clear 21 1015 52 10000 4.12 130 18:19 04.09.2021
5880 Clear 24 1016 43 10000 6.17 130 15:53 04.09.2021
5881 Clouds 23 1017 43 10000 4.63 130 12:22 04.09.2021
5882 Clear 23 1017 40 10000 2.06 0 11:18 04.09.2021
5883 Clear 20 1017 59 10000 0 0 08:46 04.09.2021
5884 Clear 13 1018 87 10000 0 0 02:32 04.09.2021
5885 Clear 14 1018 82 10000 2.06 20 00:23 04.09.2021
5886 Clear 14 1019 82 10000 2.06 10 23:23 03.09.2021
5887 Clear 15 1019 77 10000 0 0 21:53 03.09.2021
5888 Clear 16 1019 67 10000 1.03 110 21:30 03.09.2021
5889 Rain 17 1019 63 10000 2.57 130 20:35 03.09.2021
5890 Clear 18 1019 59 10000 2.06 140 19:45 03.09.2021
5891 Clear 19 1019 55 10000 4.12 140 18:52 03.09.2021
5892 Clear 21 1019 46 10000 5.66 130 17:32 03.09.2021
5893 Clear 21 1020 46 10000 6.17 110 16:22 03.09.2021
5894 Clear 22 1020 40 10000 6.17 120 14:47 03.09.2021
5895 Clear 21 1022 35 10000 3.09 0 11:47 03.09.2021
5896 Clear 20 1023 34 10000 5.14 40 10:21 03.09.2021
5897 Clear 17 1022 51 10000 2.06 10 08:38 03.09.2021
5898 Clear 16 1022 55 10000 1.54 0 07:34 03.09.2021
5899 Clear 19 1020 48 10000 1.54 0 23:59 02.09.2021
5900 Clear 19 1019 55 10000 2.57 350 22:43 02.09.2021
5901 Clear 20 1019 56 10000 1.54 260 21:18 02.09.2021
5902 Clear 22 1017 49 10000 1.03 0 18:57 02.09.2021
5903 Clouds 23 1016 46 10000 3.09 10 16:57 02.09.2021
5904 Clouds 23 1016 49 10000 4.12 340 15:32 02.09.2021
5905 Clouds 24 1016 38 10000 6.69 320 13:42 02.09.2021
5906 Clouds 24 1016 43 10000 4.12 290 11:46 02.09.2021
5907 Clouds 23 1016 49 10000 4.12 290 11:24 02.09.2021
5908 Clear 20 1016 56 10000 6.17 270 09:20 02.09.2021
5909 Clear 18 1016 63 10000 6.69 270 07:36 02.09.2021
5910 Clear 16 1015 72 10000 4.12 260 06:40 02.09.2021
5911 Clear 16 1014 67 10000 4.12 250 02:38 02.09.2021
5912 Clear 17 1014 63 10000 3.6 230 01:50 02.09.2021
5913 Clear 18 1014 63 10000 3.6 280 23:41 01.09.2021
5914 Clear 18 1014 59 10000 4.12 280 23:23 01.09.2021
5915 Clear 20 1014 52 10000 5.66 290 22:30 01.09.2021
5916 Clear 20 1014 56 10000 6.17 280 21:32 01.09.2021
5917 Clear 24 1012 41 10000 7.2 280 19:37 01.09.2021
5918 Clear 26 1011 31 10000 10.29 280 17:55 01.09.2021
5919 Clear 28 1011 30 10000 9.77 290 16:59 01.09.2021
5920 Clear 28 1011 30 10000 9.77 290 16:36 01.09.2021
5921 Clear 29 1011 28 10000 10.29 270 14:59 01.09.2021
5922 Clear 27 1013 34 10000 9.77 270 11:47 01.09.2021
5923 Clear 25 1014 41 10000 9.77 280 10:23 01.09.2021
5924 Clear 20 1014 59 10000 4.12 260 08:27 01.09.2021
5925 Clear 18 1014 67 10000 1.54 0 06:42 01.09.2021
5926 Clear 17 1014 88 10000 1.03 0 23:32 31.08.2021
5927 Clear 20 1013 77 10000 0.51 0 22:21 31.08.2021
5928 Clear 23 1013 68 10000 4.63 100 19:52 31.08.2021
5929 Clouds 23 1013 68 10000 4.63 90 19:23 31.08.2021
5930 Clear 28 1012 26 10000 4.63 290 17:44 31.08.2021
5931 Clear 29 1012 28 10000 6.17 270 17:25 31.08.2021
5932 Clear 29 1012 26 10000 6.69 260 16:41 31.08.2021
5933 Clear 29 1013 26 10000 5.66 260 15:25 31.08.2021
5934 Clear 28 1014 34 10000 5.66 250 12:19 31.08.2021
5935 Clear 27 1014 32 10000 4.63 310 11:19 31.08.2021
5936 Clear 26 1014 38 10000 4.63 260 10:43 31.08.2021
5937 Clear 26 1015 36 10000 4.63 300 09:41 31.08.2021
5938 Clear 19 1015 68 10000 2.06 270 07:48 31.08.2021
5939 Clouds 15 1014 72 10000 2.57 310 05:56 31.08.2021
5940 Clear 18 1013 55 10000 3.09 310 23:36 30.08.2021
5941 Clear 19 1013 59 10000 3.09 290 22:32 30.08.2021
5942 Clear 19 1013 59 10000 3.6 320 21:35 30.08.2021
5943 Rain 20 1013 56 10000 2.57 330 20:41 30.08.2021
5944 Clear 22 1011 49 10000 3.09 330 19:33 30.08.2021
5945 Clear 25 1011 41 10000 3.6 310 18:58 30.08.2021
5946 Clear 27 1011 36 10000 4.63 300 17:49 30.08.2021
5947 Clear 28 1010 36 10000 5.66 300 16:27 30.08.2021
5948 Clear 28 1010 36 10000 6.69 280 15:40 30.08.2021
5949 Clouds 26 1011 41 10000 5.14 290 13:58 30.08.2021
5950 Clouds 25 1011 47 10000 6.69 270 12:58 30.08.2021
5951 Clear 25 1010 53 10000 7.72 250 10:42 30.08.2021
5952 Clouds 21 1008 88 10000 3.09 260 03:24 30.08.2021
5953 Rain 24 1007 73 10000 2.57 250 21:35 29.08.2021
5954 Rain 25 1006 69 10000 1.03 0 20:46 29.08.2021
5955 Clear 25 1005 88 10000 2.57 160 19:27 29.08.2021
5956 Clouds 27 1005 74 10000 5.14 120 17:58 29.08.2021
5957 Clouds 31 1004 45 10000 2.57 0 15:54 29.08.2021
5958 Clouds 31 1005 48 10000 3.09 340 14:27 29.08.2021
5959 Clouds 31 1005 48 10000 3.09 340 14:27 29.08.2021
5960 Clouds 31 1005 48 10000 3.6 360 13:55 29.08.2021
5961 Clouds 31 1005 48 10000 4.12 320 12:42 29.08.2021
5962 Clouds 30 1005 51 10000 4.12 260 11:53 29.08.2021
5963 Clouds 30 1005 51 10000 4.12 260 11:32 29.08.2021
5964 Clouds 28 1006 61 10000 2.06 220 10:46 29.08.2021
5965 Clouds 28 1006 61 10000 2.06 220 10:27 29.08.2021
5966 Clouds 27 1006 65 10000 3.09 70 09:21 29.08.2021
5967 Clouds 23 1008 88 10000 2.06 30 02:37 29.08.2021
5968 Clouds 24 1009 88 10000 3.6 80 22:25 28.08.2021
5969 Clouds 24 1010 88 10000 3.6 70 20:30 28.08.2021
5970 Clouds 25 1010 78 10000 5.14 90 18:51 28.08.2021
5971 Clouds 26 1010 73 10000 5.66 70 18:21 28.08.2021
5972 Clouds 26 1010 73 10000 5.66 90 17:45 28.08.2021
5973 Clouds 27 1010 74 10000 8.23 120 16:21 28.08.2021
5974 Clouds 28 1010 65 10000 8.75 100 14:42 28.08.2021
5975 Clouds 29 1011 61 10000 8.23 110 13:46 28.08.2021
5976 Clouds 29 1011 70 10000 8.23 130 12:45 28.08.2021
5977 Clouds 28 1011 69 10000 4.63 130 11:57 28.08.2021
5978 Clouds 28 1011 61 10000 3.6 180 10:43 28.08.2021
5979 Clouds 27 1012 74 10000 2.06 0 09:32 28.08.2021
5980 Fog 22 1012 100 300 3.09 280 07:25 28.08.2021
5981 Clouds 22 1011 100 6000 0 0 22:48 27.08.2021
5982 Rain 24 1011 94 9000 1.54 150 21:24 27.08.2021
5983 Rain 24 1010 94 10000 2.57 130 20:33 27.08.2021
5984 Clouds 25 1009 83 10000 2.57 130 18:58 27.08.2021
5985 Clouds 25 1009 83 10000 2.57 130 18:37 27.08.2021
5986 Clouds 26 1009 78 10000 5.14 120 17:21 27.08.2021
5987 Clouds 27 1009 69 10000 6.17 130 15:57 27.08.2021
5988 Clouds 27 1009 65 10000 6.17 110 14:43 27.08.2021
5989 Clouds 27 1009 69 10000 7.2 120 12:54 27.08.2021
5990 Clouds 27 1010 74 10000 3.09 150 11:26 27.08.2021
5991 Clouds 25 1010 78 10000 2.06 170 10:43 27.08.2021
5992 Clouds 25 1010 78 9000 2.06 140 09:37 27.08.2021
5993 Clouds 24 1010 88 7000 1.03 0 08:46 27.08.2021
5994 Mist 19 1010 100 3500 1.54 260 06:47 27.08.2021
5995 Mist 19 1009 100 4700 0 0 04:56 27.08.2021
5996 Rain 18 1010 100 6000 1.03 0 00:35 27.08.2021
5997 Mist 19 1010 100 5000 0 0 22:43 26.08.2021
5998 Clouds 19 1010 100 6000 1.54 320 22:18 26.08.2021
5999 Clouds 19 1010 100 8000 2.06 360 20:35 26.08.2021
6000 Clouds 21 1009 94 8000 1.54 290 18:51 26.08.2021
6001 Clouds 21 1010 94 9000 1.03 0 17:45 26.08.2021
6002 Rain 21 1010 100 10000 2.57 20 16:33 26.08.2021
6003 Thunderstorm 24 1009 78 10000 4.12 120 15:55 26.08.2021
6004 Clouds 29 1010 42 10000 3.6 230 13:48 26.08.2021
6005 Clouds 28 1010 47 10000 4.63 250 12:52 26.08.2021
6006 Clouds 28 1010 47 10000 2.57 0 12:24 26.08.2021
6007 Clouds 26 1011 53 10000 4.63 260 10:18 26.08.2021
6008 Clear 22 1011 78 10000 4.63 270 08:34 26.08.2021
6009 Clear 20 1011 94 6000 2.57 250 03:27 26.08.2021
6010 Clear 21 1011 88 10000 0 0 22:49 25.08.2021
6011 Clear 22 1011 88 10000 0 0 22:30 25.08.2021
6012 Clear 22 1012 88 10000 1.03 0 21:29 25.08.2021
6013 Rain 22 1012 83 10000 0.51 0 20:46 25.08.2021
6014 Rain 23 1012 78 10000 2.06 140 20:26 25.08.2021
6015 Clear 24 1011 73 10000 3.6 130 18:42 25.08.2021
6016 Clear 26 1011 65 10000 5.66 120 17:29 25.08.2021
6017 Clear 27 1012 61 10000 7.2 120 15:43 25.08.2021
6018 Clear 28 1012 54 10000 6.17 130 14:47 25.08.2021
6019 Clouds 27 1012 61 10000 6.17 120 14:18 25.08.2021
6020 Clouds 27 1013 61 10000 5.66 130 12:55 25.08.2021
6021 Clouds 27 1013 57 10000 5.14 140 11:26 25.08.2021
6022 Clouds 27 1013 57 10000 5.14 140 11:26 25.08.2021
6023 Clouds 26 1013 65 10000 2.57 130 10:30 25.08.2021
6024 Clouds 26 1013 65 10000 2.06 0 09:51 25.08.2021
6025 Clear 24 1014 78 8000 1.54 260 08:41 25.08.2021
6026 Clear 20 1013 100 6000 0 0 07:44 25.08.2021
6027 Clouds 18 1013 94 10000 1.03 240 03:28 25.08.2021
6028 Clouds 19 1014 94 10000 1.54 20 23:40 24.08.2021
6029 Rain 21 1014 83 10000 0 0 21:48 24.08.2021
6030 Rain 21 1014 83 10000 0.51 30 20:38 24.08.2021
6031 Clear 23 1014 73 10000 2.57 120 19:44 24.08.2021
6032 Clear 26 1014 57 10000 4.63 130 17:57 24.08.2021
6033 Clear 26 1014 57 10000 5.14 130 17:22 24.08.2021
6034 Clear 27 1014 54 10000 5.14 120 16:38 24.08.2021
6035 Clear 27 1014 57 10000 6.69 140 14:24 24.08.2021
6036 Clear 27 1015 54 10000 5.66 120 12:45 24.08.2021
6037 Clear 27 1015 50 10000 5.66 150 11:25 24.08.2021
6038 Clear 26 1015 53 10000 4.63 140 10:47 24.08.2021
6039 Clear 25 1015 57 10000 4.12 140 10:25 24.08.2021
6040 Clear 23 1015 68 10000 1.03 0 08:39 24.08.2021
6041 Clear 17 1015 94 10000 0 0 06:35 24.08.2021
6042 Clear 16 1015 94 10000 1.54 250 03:49 24.08.2021
6043 Clear 19 1017 88 10000 0 0 23:57 23.08.2021
6044 Clear 19 1017 88 10000 2.06 30 22:50 23.08.2021
6045 Clear 21 1017 78 10000 1.54 60 21:40 23.08.2021
6046 Clear 22 1017 73 10000 3.09 90 20:23 23.08.2021
6047 Clear 24 1016 64 10000 6.17 100 18:39 23.08.2021
6048 Clear 28 1016 44 10000 7.72 120 16:27 23.08.2021
6049 Clear 29 1017 39 10000 7.2 130 13:58 23.08.2021
6050 Clouds 28 1017 47 10000 6.69 140 12:33 23.08.2021
6051 Clear 29 1018 39 10000 5.14 110 10:55 23.08.2021
6052 Clear 29 1018 39 10000 5.14 110 10:36 23.08.2021
6053 Clear 27 1018 54 10000 4.12 90 09:21 23.08.2021
6054 Clear 20 1018 88 10000 2.06 250 07:54 23.08.2021
6055 Clear 17 1018 94 10000 0 0 06:43 23.08.2021
6056 Clear 15 1017 94 10000 1.54 280 04:46 23.08.2021
6057 Clear 19 1018 82 10000 0 0 00:46 23.08.2021
6058 Clear 19 1018 77 10000 1.03 0 22:43 22.08.2021
6059 Clear 20 1018 77 10000 2.57 50 21:35 22.08.2021
6060 Clear 22 1018 73 10000 0 0 20:20 22.08.2021
6061 Clear 25 1017 61 10000 5.14 100 18:37 22.08.2021
6062 Clouds 27 1017 57 10000 7.2 140 16:22 22.08.2021
6063 Clouds 28 1017 47 10000 7.72 120 14:54 22.08.2021
6064 Clouds 29 1017 45 10000 7.72 120 13:59 22.08.2021
6065 Clouds 28 1017 44 10000 7.2 130 13:20 22.08.2021
6066 Clouds 28 1017 44 10000 7.2 130 12:49 22.08.2021
6067 Clouds 29 1017 34 10000 3.09 50 11:53 22.08.2021
6068 Clouds 29 1017 16 10000 3.09 50 11:32 22.08.2021
6069 Clear 27 1017 41 10000 4.63 40 09:21 22.08.2021
6070 Clear 21 1017 77 10000 1.54 240 07:54 22.08.2021
6071 Clear 16 1017 88 10000 1.54 260 04:43 22.08.2021
6072 Clear 17 1017 88 10000 1.54 360 22:38 21.08.2021
6073 Clear 21 1017 68 10000 1.54 30 21:42 21.08.2021
6074 Clear 24 1016 57 10000 3.6 120 18:58 21.08.2021
6075 Clear 24 1016 57 10000 3.6 120 18:39 21.08.2021
6076 Clear 27 1016 44 10000 6.69 120 16:58 21.08.2021
6077 Clear 27 1016 44 10000 6.69 120 16:32 21.08.2021
6078 Clear 27 1016 44 10000 6.69 120 15:39 21.08.2021
6079 Clouds 27 1016 44 10000 6.69 120 15:21 21.08.2021
6080 Clouds 28 1016 44 10000 7.2 130 13:43 21.08.2021
6081 Clouds 29 1016 39 10000 6.17 120 12:39 21.08.2021
6082 Clear 28 1017 36 10000 4.63 30 10:54 21.08.2021
6083 Clear 20 1017 72 8000 1.54 240 07:53 21.08.2021
6084 Clear 17 1017 88 10000 1.54 340 00:44 21.08.2021
6085 Clear 19 1016 77 10000 2.06 20 22:28 20.08.2021
6086 Clear 23 1015 56 10000 3.09 130 19:31 20.08.2021
6087 Clear 26 1015 44 10000 5.66 110 16:57 20.08.2021
6088 Clear 28 1015 36 10000 5.66 110 14:34 20.08.2021
6089 Clear 26 1016 34 10000 3.09 310 11:59 20.08.2021
6090 Clear 27 1016 34 10000 3.6 350 11:29 20.08.2021
6091 Clear 26 1016 36 10000 3.09 30 10:21 20.08.2021
6092 Clear 25 1016 38 10000 3.6 10 09:18 20.08.2021
6093 Clear 23 1016 49 10000 0.51 0 08:36 20.08.2021
6094 Clear 14 1015 88 9000 1.03 260 04:40 20.08.2021
6095 Clear 14 1015 82 10000 2.06 280 04:20 20.08.2021
6096 Clear 17 1015 67 10000 0 0 23:27 19.08.2021
6097 Clear 17 1015 67 10000 1.03 0 22:37 19.08.2021
6098 Clear 19 1014 59 10000 2.57 360 21:49 19.08.2021
6099 Clear 22 1013 49 10000 2.57 360 19:59 19.08.2021
6100 Clouds 26 1013 38 10000 5.14 320 17:37 19.08.2021
6101 Clouds 26 1013 41 10000 5.66 340 16:41 19.08.2021
6102 Clear 27 1013 39 10000 6.17 330 14:25 19.08.2021
6103 Clouds 27 1013 39 10000 4.63 340 12:40 19.08.2021
6104 Clouds 26 1013 41 10000 5.14 350 12:18 19.08.2021
6105 Clouds 24 1014 57 10000 5.66 320 10:47 19.08.2021
6106 Clouds 24 1014 57 10000 5.66 320 10:47 19.08.2021
6107 Clouds 22 1013 68 10000 5.66 320 09:48 19.08.2021
6108 Clouds 22 1013 68 10000 6.17 330 09:26 19.08.2021
6109 Clouds 20 1013 77 10000 2.57 0 08:24 19.08.2021
6110 Rain 21 1011 83 10000 6.69 340 02:53 19.08.2021
6111 Clouds 22 1011 78 10000 5.66 320 01:58 19.08.2021
6112 Clear 20 1010 94 10000 2.06 360 23:21 18.08.2021
6113 Rain 22 1009 94 10000 1.54 30 21:44 18.08.2021
6114 Clear 23 1009 83 10000 0 0 20:39 18.08.2021
6115 Clear 24 1009 83 10000 0 0 20:18 18.08.2021
6116 Clear 26 1009 69 10000 3.6 130 18:57 18.08.2021
6117 Clear 26 1009 69 10000 3.6 130 18:33 18.08.2021
6118 Clear 29 1009 51 10000 5.66 120 16:40 18.08.2021
6119 Clear 29 1009 51 10000 6.17 120 15:39 18.08.2021
6120 Clear 29 1009 51 10000 6.17 120 15:20 18.08.2021
6121 Clear 29 1010 58 10000 3.09 0 12:44 18.08.2021
6122 Clouds 28 1010 61 10000 3.09 160 12:26 18.08.2021
6123 Clouds 27 1011 69 10000 3.09 190 11:22 18.08.2021
6124 Mist 21 1011 100 4000 1.03 290 07:49 18.08.2021
6125 Clouds 20 1010 100 10000 0.51 10 00:45 18.08.2021
6126 Clouds 21 1011 94 10000 0 0 22:31 17.08.2021
6127 Clear 22 1011 88 10000 0 0 21:29 17.08.2021
6128 Clear 22 1011 88 10000 2.06 130 20:45 17.08.2021
6129 Clear 24 1011 73 10000 4.12 120 19:19 17.08.2021
6130 Clear 26 1011 65 10000 5.66 120 17:33 17.08.2021
6131 Clear 27 1011 57 10000 6.17 120 16:40 17.08.2021
6132 Clear 28 1011 51 10000 7.2 120 15:40 17.08.2021
6133 Clear 28 1011 51 10000 7.72 110 14:39 17.08.2021
6134 Clear 29 1012 45 10000 6.69 110 12:35 17.08.2021
6135 Clear 26 1013 65 10000 2.06 0 09:22 17.08.2021
6136 Clear 22 1013 83 10000 0 0 07:54 17.08.2021
6137 Mist 17 1013 94 10000 1.03 270 05:48 17.08.2021
6138 Clear 19 1014 82 10000 2.06 40 23:18 16.08.2021
6139 Clear 19 1014 82 10000 1.54 10 22:46 16.08.2021
6140 Clear 19 1014 82 10000 2.06 20 22:27 16.08.2021
6141 Clear 19 1014 82 10000 2.06 20 21:36 16.08.2021
6142 Clear 21 1015 77 10000 1.03 0 20:49 16.08.2021
6143 Clear 23 1014 68 10000 3.6 130 19:24 16.08.2021
6144 Clear 25 1014 65 10000 5.14 110 18:25 16.08.2021
6145 Clear 26 1014 53 10000 5.66 130 17:51 16.08.2021
6146 Clear 28 1014 51 10000 5.66 120 15:49 16.08.2021
6147 Clear 28 1015 51 10000 6.17 120 14:56 16.08.2021
6148 Clear 28 1015 51 10000 5.66 110 13:38 16.08.2021
6149 Clear 28 1015 47 10000 5.14 110 12:55 16.08.2021
6150 Clear 28 1016 42 10000 4.63 120 10:38 16.08.2021
6151 Clear 26 1016 50 10000 1.03 0 08:49 16.08.2021
6152 Clear 21 1016 68 10000 0 0 07:35 16.08.2021
6153 Clear 18 1015 88 10000 0 0 06:44 16.08.2021
6154 Clear 18 1016 88 10000 1.54 350 02:22 16.08.2021
6155 Clear 20 1017 82 10000 2.06 20 22:49 15.08.2021
6156 Clear 23 1017 68 10000 1.54 130 20:41 15.08.2021
6157 Clear 26 1016 50 10000 3.09 130 18:47 15.08.2021
6158 Clear 27 1016 44 10000 5.14 120 17:56 15.08.2021
6159 Clear 27 1016 44 10000 5.14 120 17:34 15.08.2021
6160 Clear 28 1016 39 10000 6.69 120 16:26 15.08.2021
6161 Clear 28 1017 42 10000 6.17 130 14:48 15.08.2021
6162 Clear 29 1017 37 10000 6.17 110 14:26 15.08.2021
6163 Clear 28 1018 32 10000 4.63 130 11:30 15.08.2021
6164 Clear 26 1018 47 10000 2.06 240 09:26 15.08.2021
6165 Clear 16 1018 94 10000 1.03 260 03:23 15.08.2021
6166 Clear 17 1019 88 10000 2.06 330 00:38 15.08.2021
6167 Clear 19 1020 77 10000 1.03 0 22:18 14.08.2021
6168 Clear 20 1021 77 10000 2.57 30 20:58 14.08.2021
6169 Clear 23 1020 64 10000 3.6 90 19:44 14.08.2021
6170 Clear 25 1020 53 10000 4.63 110 18:40 14.08.2021
6171 Clear 26 1020 50 10000 6.17 130 16:59 14.08.2021
6172 Clear 27 1020 47 10000 6.69 130 15:48 14.08.2021
6173 Clear 27 1021 47 10000 6.69 130 14:25 14.08.2021
6174 Clear 28 1021 39 10000 4.63 130 12:19 14.08.2021
6175 Clear 27 1022 36 10000 4.12 30 10:45 14.08.2021
6176 Clear 23 1022 56 10000 3.6 30 07:40 14.08.2021
6177 Clear 18 1022 77 10000 2.06 290 23:53 13.08.2021
6178 Clear 20 1022 68 10000 2.57 10 22:26 13.08.2021
6179 Clear 22 1022 64 10000 2.06 70 20:31 13.08.2021
6180 Clear 24 1022 53 10000 5.14 90 18:47 13.08.2021
6181 Clear 26 1022 50 10000 5.66 130 17:43 13.08.2021
6182 Clear 27 1022 44 10000 6.69 110 16:24 13.08.2021
6183 Clouds 28 1022 47 10000 5.14 140 12:51 13.08.2021
6184 Clouds 27 1022 39 10000 2.57 20 11:20 13.08.2021
6185 Clouds 26 1022 44 10000 2.57 120 09:40 13.08.2021
6186 Clouds 25 1022 53 10000 1.54 0 08:36 13.08.2021
6187 Clouds 24 1021 57 10000 0.51 0 07:18 13.08.2021
6188 Clear 20 1020 83 10000 0.51 0 04:59 13.08.2021
6189 Clear 23 1020 78 10000 1.54 250 22:56 12.08.2021
6190 Clear 22 1019 83 10000 1.54 20 21:20 12.08.2021
6191 Clear 24 1018 73 10000 2.06 110 20:21 12.08.2021
6192 Clear 25 1018 69 10000 3.6 120 19:42 12.08.2021
6193 Clouds 28 1018 51 10000 6.17 110 17:51 12.08.2021
6194 Clear 28 1017 57 10000 6.17 120 16:28 12.08.2021
6195 Clouds 29 1017 58 10000 6.69 120 14:31 12.08.2021
6196 Clouds 31 1017 45 10000 5.14 110 12:44 12.08.2021
6197 Clear 31 1017 37 10000 5.14 360 10:48 12.08.2021
6198 Clear 25 1016 57 10000 1.54 310 07:54 12.08.2021
6199 Clear 20 1015 83 10000 0.51 0 01:29 12.08.2021
6200 Clear 21 1014 83 10000 2.06 360 22:51 11.08.2021
6201 Clear 25 1013 65 10000 2.57 120 19:36 11.08.2021
6202 Clear 28 1013 57 10000 3.6 120 18:28 11.08.2021
6203 Clouds 29 1013 58 10000 5.66 120 15:38 11.08.2021
6204 Clouds 30 1013 58 10000 6.69 120 15:20 11.08.2021
6205 Clouds 32 1013 33 10000 3.09 0 14:20 11.08.2021
6206 Clouds 31 1013 40 10000 4.12 340 12:30 11.08.2021
6207 Clouds 31 1013 40 10000 4.12 340 12:30 11.08.2021
6208 Clouds 31 1013 40 10000 4.12 340 12:30 11.08.2021
6209 Clouds 31 1013 40 10000 2.57 20 11:46 11.08.2021
6210 Clouds 31 1014 40 10000 4.12 50 11:21 11.08.2021
6211 Clouds 29 1014 45 10000 2.57 360 09:43 11.08.2021
6212 Clouds 25 1014 69 10000 1.03 0 07:23 11.08.2021
6213 Clear 22 1014 83 10000 2.06 330 22:53 10.08.2021
6214 Clear 23 1014 78 10000 2.06 10 22:28 10.08.2021
6215 Clear 24 1014 73 10000 1.03 0 20:57 10.08.2021
6216 Clear 26 1014 65 10000 2.57 120 19:33 10.08.2021
6217 Clear 28 1014 61 10000 4.12 130 18:29 10.08.2021
6218 Clouds 32 1014 43 10000 6.69 120 15:48 10.08.2021
6219 Clouds 33 1014 36 10000 3.6 320 14:41 10.08.2021
6220 Clear 33 1015 38 10000 2.57 210 11:33 10.08.2021
6221 Clear 30 1016 45 10000 1.03 0 09:39 10.08.2021
6222 Clear 20 1016 82 8000 0.51 0 06:24 10.08.2021
6223 Clear 20 1016 77 10000 1.03 0 02:40 10.08.2021
6224 Clear 21 1016 88 10000 1.03 0 23:37 09.08.2021
6225 Clear 22 1017 83 10000 1.54 30 21:54 09.08.2021
6226 Clear 23 1017 78 10000 2.06 30 21:29 09.08.2021
6227 Clear 27 1016 54 10000 3.6 100 18:56 09.08.2021
6228 Clear 29 1016 48 10000 6.69 120 16:57 09.08.2021
6229 Clear 31 1016 35 10000 6.17 110 15:27 09.08.2021
6230 Clear 31 1016 37 10000 6.69 120 13:32 09.08.2021
6231 Clear 31 1016 37 10000 4.63 130 12:40 09.08.2021
6232 Clear 28 1016 51 10000 1.03 0 09:56 09.08.2021
6233 Clear 24 1016 68 10000 1.54 250 08:25 09.08.2021
6234 Clear 20 1016 88 10000 2.06 20 22:40 08.08.2021
6235 Clear 22 1017 73 10000 0 0 21:24 08.08.2021
6236 Clear 22 1017 73 10000 0 0 21:24 08.08.2021
6237 Clear 26 1016 57 10000 5.66 110 18:25 08.08.2021
6238 Clear 27 1015 50 10000 6.69 110 16:39 08.08.2021
6239 Clear 29 1015 42 10000 5.66 120 15:30 08.08.2021
6240 Clear 29 1015 39 10000 4.12 130 12:48 08.08.2021
6241 Clear 28 1016 36 10000 3.09 150 10:43 08.08.2021
6242 Clear 17 1015 77 10000 1.54 290 06:42 08.08.2021
6243 Clear 16 1015 77 10000 1.54 140 05:34 08.08.2021
6244 Clear 19 1013 63 10000 2.06 300 00:28 08.08.2021
6245 Clear 20 1013 60 10000 3.09 360 22:18 07.08.2021
6246 Clear 20 1013 59 10000 3.09 340 21:38 07.08.2021
6247 Clear 27 1011 39 10000 5.14 330 18:42 07.08.2021
6248 Clear 28 1011 36 10000 5.66 350 17:18 07.08.2021
6249 Clear 29 1010 34 10000 6.69 320 15:37 07.08.2021
6250 Clear 29 1010 37 10000 6.69 340 13:54 07.08.2021
6251 Clear 28 1010 39 10000 7.2 330 11:41 07.08.2021
6252 Clear 25 1009 50 10000 6.69 340 09:35 07.08.2021
6253 Clear 20 1005 77 10000 3.09 330 04:56 07.08.2021
6254 Clear 22 1005 79 10000 2.06 280 23:21 06.08.2021
6255 Clouds 24 1004 68 10000 4.12 280 20:39 06.08.2021
6256 Clouds 24 1004 68 10000 3.6 310 20:18 06.08.2021
6257 Clear 25 1004 64 10000 3.6 280 19:45 06.08.2021
6258 Clouds 28 1003 42 10000 7.2 300 17:44 06.08.2021
6259 Clear 30 1002 61 10000 8.23 320 12:25 06.08.2021
6260 Clear 30 1002 72 10000 6.17 260 09:57 06.08.2021
6261 Clear 27 1002 80 10000 1.54 270 08:23 06.08.2021
6262 Clouds 26 1005 93 10000 6.17 120 23:36 05.08.2021
6263 Clouds 26 1005 96 10000 5.14 120 22:33 05.08.2021
6264 Clouds 26 1006 96 10000 6.17 120 20:48 05.08.2021
6265 Clouds 27 1007 93 10000 6.17 120 19:29 05.08.2021
6266 Clouds 28 1007 90 10000 6.17 120 18:25 05.08.2021
6267 Clouds 30 1009 85 10000 8.75 110 15:31 05.08.2021
6268 Clouds 32 1011 84 10000 7.2 120 11:39 05.08.2021
6269 Clouds 28 1012 90 10000 2.06 150 08:51 05.08.2021
6270 Fog 22 1013 100 200 1.03 260 05:35 05.08.2021
6271 Clear 24 1014 100 10000 1.03 20 00:55 05.08.2021
6272 Rain 25 1014 96 10000 1.03 0 21:53 04.08.2021
6273 Clouds 25 1014 96 10000 2.06 140 21:22 04.08.2021
6274 Clouds 27 1014 90 10000 4.12 120 18:56 04.08.2021
6275 Clouds 28 1014 87 10000 5.14 120 16:42 04.08.2021
6276 Clear 31 1014 81 10000 7.2 120 14:44 04.08.2021
6277 Clouds 31 1015 81 10000 5.14 130 11:49 04.08.2021
6278 Clouds 22 1014 96 8000 0 0 04:55 04.08.2021
6279 Clear 26 1014 87 10000 3.09 60 20:41 03.08.2021
6280 Clear 28 1013 82 10000 3.09 110 19:59 03.08.2021
6281 Clear 31 1013 81 10000 5.14 130 17:50 03.08.2021
6282 Clear 33 1013 40 10000 4.63 40 16:27 03.08.2021
6283 Clear 33 1013 61 10000 4.63 360 12:52 03.08.2021
6284 Clear 31 1012 74 10000 3.6 350 10:40 03.08.2021
6285 Clouds 25 1012 87 10000 6.17 280 07:40 03.08.2021
6286 Clear 31 1008 66 10000 6.17 90 17:48 02.08.2021
6287 Clear 33 1008 59 10000 7.2 100 16:38 02.08.2021
6288 Clear 34 1008 60 10000 7.72 100 15:25 02.08.2021
6289 Clear 33 1009 52 10000 5.66 90 11:59 02.08.2021
6290 Clear 35 1009 56 10000 5.66 90 11:34 02.08.2021
6291 Clear 32 1009 64 10000 1.54 0 09:49 02.08.2021
6292 Clear 25 1010 90 10000 3.6 120 22:45 01.08.2021
6293 Clear 30 1010 69 10000 5.66 110 18:19 01.08.2021
6294 Clear 33 1011 55 10000 6.17 110 15:29 01.08.2021
6295 Clear 31 1011 51 10000 3.6 110 11:38 01.08.2021
6296 Clear 29 1011 82 10000 1.03 0 08:51 01.08.2021
6297 Clear 21 1011 96 10000 2.06 30 03:47 01.08.2021
6298 Clouds 23 1011 90 10000 2.06 10 22:52 31.07.2021
6299 Clouds 26 1012 65 10000 3.09 300 20:52 31.07.2021
6300 Clear 29 1009 72 10000 5.66 120 17:28 31.07.2021
6301 Clear 30 1010 68 10000 5.66 120 16:28 31.07.2021
6302 Clear 31 1010 33 10000 6.69 110 12:31 31.07.2021
6303 Clouds 28 1010 85 10000 5.14 130 08:34 31.07.2021
6304 Rain 23 1010 93 10000 1.54 40 00:23 31.07.2021
6305 Clear 25 1010 87 10000 3.6 90 20:28 30.07.2021
6306 Clear 27 1010 65 10000 4.12 120 19:18 30.07.2021
6307 Clear 24 1011 83 10000 2.57 100 22:30 29.07.2021
6308 Clear 32 1013 45 10000 5.66 110 12:34 29.07.2021
6309 Clouds 23 1013 79 10000 1.03 0 05:23 29.07.2021
6310 Clear 23 1014 77 10000 2.57 310 04:28 29.07.2021
6311 Clear 25 1015 78 10000 4.12 100 20:52 28.07.2021
6312 Clear 31 1015 59 10000 5.66 100 17:19 28.07.2021
6313 Clear 33 1017 52 10000 3.09 110 10:54 28.07.2021
6314 Clear 19 1017 93 10000 0 0 03:46 28.07.2021
6315 Clear 23 1018 84 10000 2.06 30 21:37 27.07.2021
6316 Clear 30 1018 52 10000 4.12 120 18:30 27.07.2021
6317 Clear 32 1018 31 10000 5.14 120 14:51 27.07.2021
6318 Clear 31 1019 25 10000 3.6 130 10:44 27.07.2021
6319 Clear 23 1019 80 10000 1.54 270 07:31 27.07.2021
6320 Clear 29 1018 48 10000 5.66 120 15:35 26.07.2021
6321 Clear 30 1018 45 10000 4.12 140 13:43 26.07.2021
6322 Clear 21 1018 84 10000 2.57 50 21:44 25.07.2021
6323 Clear 22 1017 73 10000 3.09 50 20:54 25.07.2021
6324 Clear 28 1017 61 10000 5.66 120 17:45 25.07.2021
6325 Clouds 28 1017 51 10000 6.69 140 14:34 25.07.2021
6326 Clear 24 1017 77 10000 2.06 50 08:21 25.07.2021
6327 Clear 23 1017 77 10000 2.57 20 07:52 25.07.2021
6328 Clear 22 1015 76 10000 3.6 90 20:22 24.07.2021
6329 Clear 24 1015 74 10000 4.63 100 19:36 24.07.2021
6330 Clouds 26 1015 61 10000 4.12 40 09:49 24.07.2021
6331 Clear 26 1014 64 10000 4.63 120 17:35 23.07.2021
6332 Clouds 26 1014 53 10000 5.66 120 14:35 23.07.2021
6333 Clouds 28 1014 49 10000 4.12 360 12:40 23.07.2021
6334 Clear 21 1015 80 10000 4.12 360 22:50 22.07.2021
6335 Clouds 27 1014 60 10000 6.69 330 14:57 22.07.2021
6336 Clear 27 1014 66 10000 8.23 320 11:18 22.07.2021
6337 Clear 22 1014 75 10000 6.69 320 08:26 22.07.2021
6338 Clear 21 1012 82 10000 9.77 350 22:33 21.07.2021
6339 Clear 23 1012 78 10000 5.66 320 21:33 21.07.2021
6340 Clear 28 1010 58 10000 8.23 270 18:45 21.07.2021
6341 Clouds 27 1011 80 10000 6.17 320 09:56 21.07.2021
6342 Clouds 26 1011 80 10000 6.17 330 09:19 21.07.2021
6343 Clear 21 1009 90 10000 6.69 290 04:51 21.07.2021
6344 Clear 27 1008 77 10000 4.12 320 20:29 20.07.2021
6345 Clouds 32 1006 58 10000 6.17 260 16:36 20.07.2021
6346 Clear 33 1006 58 10000 6.17 260 15:27 20.07.2021
6347 Clear 30 1007 76 10000 4.63 250 11:19 20.07.2021
6348 Mist 24 1008 90 5000 3.6 270 07:35 20.07.2021
6349 Clear 21 1007 93 10000 2.06 20 02:55 20.07.2021
6350 Clear 29 1006 70 10000 2.57 130 17:44 19.07.2021
6351 Clear 32 1007 51 10000 4.63 110 12:45 19.07.2021
6352 Clear 26 1006 79 10000 2.57 70 20:59 18.07.2021
6353 Clear 33 1006 51 10000 7.72 90 15:21 18.07.2021
6354 Clear 31 1006 74 10000 5.66 80 10:19 18.07.2021
6355 Clear 24 1007 79 10000 3.09 40 22:29 17.07.2021
6356 Clear 25 1007 65 10000 3.6 50 21:57 17.07.2021
6357 Clear 25 1007 65 10000 3.6 50 21:38 17.07.2021
6358 Clear 32 1007 62 10000 8.75 80 12:34 17.07.2021
6359 Clear 32 1007 65 10000 8.75 90 11:29 17.07.2021
6360 Clear 21 1008 90 10000 1.54 230 04:47 17.07.2021
6361 Clear 33 1010 33 10000 4.63 140 14:24 16.07.2021
6362 Clear 30 1011 42 10000 4.12 140 11:42 16.07.2021
6363 Clouds 21 1012 96 10000 2.57 300 06:59 16.07.2021
6364 Clear 30 1011 35 10000 3.09 150 17:53 15.07.2021
6365 Clear 31 1013 33 10000 5.14 130 13:49 15.07.2021
6366 Clear 27 1014 74 10000 1.54 260 08:44 15.07.2021
6367 Clear 20 1014 89 10000 2.06 280 00:19 15.07.2021
6368 Clouds 29 1014 65 10000 5.14 130 16:48 14.07.2021
6369 Clouds 29 1014 61 10000 4.63 40 11:59 14.07.2021
6370 Clear 21 1013 90 10000 1.54 340 01:18 14.07.2021
6371 Clear 25 1013 83 10000 2.06 150 20:21 13.07.2021
6372 Clear 26 1013 90 10000 2.57 140 19:42 13.07.2021
6373 Clear 27 1013 84 10000 2.57 150 19:21 13.07.2021
6374 Clear 27 1013 69 10000 3.6 140 18:43 13.07.2021
6375 Clear 28 1012 82 10000 4.12 130 18:23 13.07.2021
6376 Clouds 32 1012 63 10000 5.66 90 14:33 13.07.2021
6377 Clear 29 1013 77 10000 1.54 220 09:38 13.07.2021
6378 Clear 21 1013 90 10000 1.03 0 22:45 12.07.2021
6379 Clouds 28 1013 76 10000 0 0 17:28 12.07.2021
6380 Clouds 29 1013 65 10000 6.17 130 14:50 12.07.2021
6381 Clear 21 1013 84 10000 3.09 360 23:23 11.07.2021
6382 Clear 23 1013 82 10000 2.57 50 20:53 11.07.2021
6383 Thunderstorm 26 1013 57 10000 5.66 340 14:29 11.07.2021
6384 Clear 21 1014 84 10000 2.06 270 01:27 11.07.2021
6385 Clear 29 1014 66 10000 5.14 130 17:19 10.07.2021
6386 Clear 23 1015 79 10000 1.03 0 07:52 10.07.2021
6387 Clear 17 1017 93 10000 1.54 260 02:18 10.07.2021
6388 Clear 26 1017 47 10000 3.6 80 19:27 09.07.2021
6389 Clear 28 1019 47 10000 5.14 130 14:50 09.07.2021
6390 Clouds 30 1019 51 10000 3.09 0 12:40 09.07.2021
6391 Clear 21 1020 93 10000 0 0 23:53 08.07.2021
6392 Clear 21 1020 96 10000 1.03 0 22:48 08.07.2021
6393 Clouds 23 1020 90 10000 0 0 19:39 08.07.2021
6394 Clouds 26 1019 87 10000 4.63 130 17:43 08.07.2021
6395 Clouds 24 1019 96 5000 3.09 0 13:32 08.07.2021
6396 Clouds 25 1019 83 10000 1.54 30 12:45 08.07.2021
6397 Clouds 25 1019 87 10000 5.14 350 11:50 08.07.2021
6398 Clouds 26 1018 84 10000 6.17 360 10:30 08.07.2021
6399 Clear 20 1017 93 10000 2.06 310 05:30 08.07.2021
6400 Clear 21 1017 93 10000 1.54 230 02:22 08.07.2021
6401 Clear 21 1017 100 8000 0 0 22:56 07.07.2021
6402 Clear 22 1017 100 9000 0 0 22:19 07.07.2021
6403 Clear 22 1017 96 8000 0 0 21:42 07.07.2021
6404 Clear 22 1017 96 8000 0 0 21:23 07.07.2021
6405 Clouds 24 1016 93 10000 3.6 120 19:57 07.07.2021
6406 Clouds 25 1015 90 10000 4.12 110 19:28 07.07.2021
6407 Clouds 27 1015 83 10000 4.12 140 17:36 07.07.2021
6408 Clouds 29 1014 54 10000 4.63 10 15:45 07.07.2021
6409 Clouds 29 1014 54 10000 4.63 10 15:45 07.07.2021
6410 Clouds 28 1014 61 10000 5.14 20 12:26 07.07.2021
6411 Clouds 24 1013 90 10000 5.66 350 08:36 07.07.2021
6412 Clouds 22 1012 93 10000 5.14 350 06:46 07.07.2021
6413 Clear 21 1012 93 10000 2.57 340 05:47 07.07.2021
6414 Rain 21 1011 96 10000 3.6 320 21:32 06.07.2021
6415 Clouds 22 1010 96 10000 2.57 260 19:30 06.07.2021
6416 Clouds 22 1010 93 9000 2.06 0 18:47 06.07.2021
6417 Rain 25 1009 84 10000 6.17 50 18:28 06.07.2021
6418 Clouds 25 1009 78 10000 5.14 330 13:46 06.07.2021
6419 Clouds 24 1008 78 10000 6.17 320 12:34 06.07.2021
6420 Rain 21 1007 90 10000 5.66 320 09:41 06.07.2021
6421 Rain 21 1007 93 10000 6.17 330 08:33 06.07.2021
6422 Rain 20 1007 93 10000 5.14 280 06:45 06.07.2021
6423 Rain 19 1007 96 8000 4.12 270 01:41 06.07.2021
6424 Clouds 19 1008 96 10000 0.51 0 22:43 05.07.2021
6425 Clouds 22 1007 73 10000 2.57 30 18:52 05.07.2021
6426 Clouds 26 1007 61 10000 2.57 320 15:45 05.07.2021
6427 Clear 21 1007 84 10000 3.09 250 07:21 05.07.2021
6428 Clear 18 1008 93 10000 0 0 05:45 05.07.2021
6429 Clear 18 1007 89 10000 2.57 0 04:40 05.07.2021
6430 Clear 20 1008 82 10000 0 0 23:18 04.07.2021
6431 Clear 26 1007 66 10000 5.66 280 18:52 04.07.2021
6432 Clouds 29 1007 61 10000 6.17 300 16:31 04.07.2021
6433 Clouds 26 1009 71 10000 5.14 330 11:50 04.07.2021
6434 Clear 24 1009 64 10000 5.14 290 09:24 04.07.2021
6435 Clear 19 1009 93 10000 2.06 290 23:33 03.07.2021
6436 Clouds 19 1009 89 10000 2.06 250 22:40 03.07.2021
6437 Clouds 19 1009 89 10000 2.06 250 22:40 03.07.2021
6438 Rain 27 1008 69 10000 6.17 290 14:39 03.07.2021
6439 Clouds 26 1008 53 10000 4.12 280 12:38 03.07.2021
6440 Clear 23 1009 79 10000 6.69 300 09:29 03.07.2021
6441 Clear 22 1009 79 10000 5.66 270 08:46 03.07.2021
6442 Clear 19 1009 88 10000 4.12 280 05:43 03.07.2021
6443 Clouds 29 1008 80 10000 5.14 320 12:52 02.07.2021
6444 Clear 22 1009 87 10000 3.09 300 07:41 02.07.2021
6445 Clouds 18 1008 96 10000 1.54 270 04:49 02.07.2021
6446 Rain 21 1009 87 10000 4.63 280 22:38 01.07.2021
6447 Rain 21 1011 84 10000 12.86 270 21:55 01.07.2021
6448 Rain 24 1009 96 10000 1.03 0 21:20 01.07.2021
6449 Clouds 25 1007 96 10000 4.12 110 19:21 01.07.2021
6450 Clouds 25 1008 90 10000 4.63 120 18:59 01.07.2021
6451 Clouds 26 1008 90 10000 5.14 110 18:33 01.07.2021
6452 Clouds 27 1008 90 10000 6.17 100 17:18 01.07.2021
6453 Clouds 29 1008 87 10000 6.69 110 15:26 01.07.2021
6454 Clouds 29 1009 87 10000 6.69 120 14:23 01.07.2021
6455 Clouds 27 1010 90 10000 6.17 100 10:56 01.07.2021
6456 Clouds 24 1011 96 10000 5.14 110 07:36 01.07.2021
6457 Clear 23 1012 93 10000 1.54 150 23:23 30.06.2021
6458 Clear 22 1012 96 10000 2.57 100 22:20 30.06.2021
6459 Clear 23 1013 90 10000 3.09 110 21:22 30.06.2021
6460 Clear 23 1012 90 10000 3.09 110 20:28 30.06.2021
6461 Clear 25 1012 82 10000 4.12 120 19:19 30.06.2021
6462 Clear 28 1013 54 10000 5.66 130 14:26 30.06.2021
6463 Clear 28 1013 57 10000 6.17 120 13:24 30.06.2021
6464 Clear 25 1014 82 10000 2.06 130 08:19 30.06.2021
6465 Clear 22 1015 93 10000 3.09 110 21:40 29.06.2021
6466 Clear 26 1014 80 10000 3.6 130 18:36 29.06.2021
6467 Clear 27 1014 82 10000 5.14 110 17:43 29.06.2021
6468 Clear 27 1014 82 10000 5.14 110 17:43 29.06.2021
6469 Clear 28 1015 82 10000 4.63 110 16:59 29.06.2021
6470 Clouds 28 1015 82 10000 5.66 120 15:50 29.06.2021
6471 Clouds 28 1015 65 10000 5.66 110 13:59 29.06.2021
6472 Clouds 28 1015 65 10000 5.66 120 13:19 29.06.2021
6473 Clear 20 1016 96 10000 1.54 20 00:41 29.06.2021
6474 Clear 22 1017 96 10000 2.06 60 21:47 28.06.2021
6475 Clear 25 1016 90 10000 2.06 130 19:53 28.06.2021
6476 Clear 27 1017 83 10000 2.06 150 17:29 28.06.2021
6477 Rain 25 1017 90 10000 2.06 140 15:22 28.06.2021
6478 Clouds 28 1017 82 10000 5.14 120 12:59 28.06.2021
6479 Clouds 25 1016 90 10000 0 0 08:59 28.06.2021
6480 Rain 22 1015 96 10000 1.54 290 23:45 27.06.2021
6481 Clear 23 1014 93 10000 0 0 21:51 27.06.2021
6482 Clear 25 1013 90 10000 2.57 110 19:40 27.06.2021
6483 Clouds 27 1012 74 10000 4.63 120 16:51 27.06.2021
6484 Clouds 30 1012 51 10000 0.51 0 13:31 27.06.2021
6485 Clear 24 1012 84 10000 3.09 290 07:38 27.06.2021
6486 Clear 22 1011 93 10000 1.03 0 23:27 26.06.2021
6487 Clear 24 1010 93 10000 0.51 70 21:19 26.06.2021
6488 Clear 24 1010 83 10000 2.06 30 20:40 26.06.2021
6489 Clear 28 1010 61 10000 1.54 150 19:25 26.06.2021
6490 Clear 31 1011 74 10000 2.57 340 15:29 26.06.2021
6491 Clear 28 1011 76 10000 3.09 360 12:28 26.06.2021
6492 Rain 25 1012 73 10000 2.57 320 09:29 26.06.2021
6493 Clouds 21 1012 96 8000 1.03 0 04:35 26.06.2021
6494 Clear 25 1012 84 10000 1.54 20 20:50 25.06.2021
6495 Clear 27 1012 65 10000 1.54 160 19:43 25.06.2021
6496 Clear 30 1011 78 10000 5.14 360 17:52 25.06.2021
6497 Clear 30 1011 74 10000 4.12 360 16:50 25.06.2021
6498 Rain 22 1014 83 2000 11.83 20 14:59 25.06.2021
6499 Clouds 33 1012 74 10000 3.6 340 11:46 25.06.2021
6500 Clear 29 1012 80 10000 4.12 280 08:48 25.06.2021
6501 Clouds 25 1013 90 8000 2.06 270 07:20 25.06.2021
6502 Clear 23 1013 96 9000 1.54 330 03:49 25.06.2021
6503 Clear 23 1014 96 10000 2.57 300 22:20 24.06.2021
6504 Clear 24 1014 92 10000 0 0 21:40 24.06.2021
6505 Clear 25 1015 83 10000 2.57 130 20:40 24.06.2021
6506 Clear 28 1014 70 10000 0 0 18:45 24.06.2021
6507 Clear 31 1014 55 10000 4.12 340 16:19 24.06.2021
6508 Clear 32 1015 67 10000 3.6 340 15:22 24.06.2021
6509 Clear 32 1015 51 10000 4.63 330 14:47 24.06.2021
6510 Clouds 30 1016 76 10000 3.6 360 11:20 24.06.2021
6511 Clear 28 1016 69 10000 2.57 250 09:30 24.06.2021
6512 Clear 26 1016 84 10000 2.06 270 08:22 24.06.2021
6513 Clear 21 1015 100 8000 0 0 02:50 24.06.2021
6514 Clear 21 1016 96 10000 1.54 320 22:36 23.06.2021
6515 Clear 22 1016 93 10000 1.54 20 21:44 23.06.2021
6516 Clear 22 1015 88 10000 1.4 281 20:37 23.06.2021
6517 Clear 26 1015 84 10000 3.09 110 18:34 23.06.2021
6518 Clouds 27 1014 82 10000 4.63 120 17:32 23.06.2021
6519 Clouds 26 1013 69 10000 3.6 130 15:34 23.06.2021
6520 Clouds 26 1013 90 10000 4.12 130 12:51 23.06.2021
6521 Clouds 27 1013 87 10000 3.09 0 11:55 23.06.2021
6522 Clouds 25 1013 87 10000 0.51 0 09:55 23.06.2021
6523 Mist 24 1013 90 5000 1.54 200 08:45 23.06.2021
6524 Mist 21 1013 100 2900 0 0 07:51 23.06.2021
6525 Mist 20 1012 100 3600 0 0 06:43 23.06.2021
6526 Clouds 19 1012 100 10000 1.03 280 03:33 23.06.2021
6527 Clear 20 1012 96 10000 0 0 00:43 23.06.2021
6528 Clear 20 1012 96 10000 0 0 23:55 22.06.2021
6529 Clear 21 1013 93 10000 1.54 20 22:44 22.06.2021
6530 Clouds 22 1013 99 10000 0.84 248 21:56 22.06.2021
6531 Clear 22 1013 93 10000 1.03 0 20:58 22.06.2021
6532 Clear 23 1012 93 10000 2.57 110 19:32 22.06.2021
6533 Clear 24 1012 84 10000 4.12 120 18:53 22.06.2021
6534 Clear 25 1011 87 10000 2.57 100 18:19 22.06.2021
6535 Clouds 25 1011 89 10000 3.09 130 17:21 22.06.2021
6536 Rain 25 1012 93 10000 5.66 110 16:20 22.06.2021
6537 Rain 26 1011 73 10000 6.69 110 14:34 22.06.2021
6538 Clouds 26 1011 65 10000 2.06 170 13:43 22.06.2021
6539 Clouds 26 1012 61 10000 2.06 0 12:31 22.06.2021
6540 Clouds 27 1012 84 10000 2.57 230 10:58 22.06.2021
6541 Clouds 25 1012 73 10000 1.03 0 09:18 22.06.2021
6542 Mist 18 1010 96 3000 0 0 04:43 22.06.2021
6543 Clear 19 1011 96 10000 0 0 00:37 22.06.2021
6544 Rain 19 1012 93 10000 1.54 40 22:59 21.06.2021
6545 Clear 20 1012 94 10000 1.54 340 21:41 21.06.2021
6546 Clear 20 1012 96 10000 4.12 100 20:52 21.06.2021
6547 Clear 21 1011 88 10000 4.12 110 19:56 21.06.2021
6548 Clouds 23 1011 87 10000 2.57 140 19:31 21.06.2021
6549 Clear 25 1011 82 10000 1.54 150 18:22 21.06.2021
6550 Clouds 25 1011 82 10000 3.09 120 16:54 21.06.2021
6551 Clouds 24 1011 73 10000 4.63 120 16:29 21.06.2021
6552 Clouds 24 1011 73 10000 5.66 120 15:56 21.06.2021
6553 Clouds 24 1011 73 10000 5.66 120 15:19 21.06.2021
6554 Clouds 25 1011 84 10000 5.66 110 13:40 21.06.2021
6555 Clouds 25 1011 82 10000 4.12 130 12:55 21.06.2021
6556 Clouds 25 1011 82 10000 4.12 140 12:31 21.06.2021
6557 Clouds 24 1012 69 10000 1.54 140 10:43 21.06.2021
6558 Clouds 24 1011 69 10000 1.03 0 10:22 21.06.2021
6559 Clouds 21 1011 93 8000 2.06 250 08:32 21.06.2021
6560 Clouds 21 1011 93 7000 2.57 250 07:56 21.06.2021
6561 Clouds 17 1011 96 8000 1.03 0 01:20 21.06.2021
6562 Clear 18 1011 100 10000 0 0 23:48 20.06.2021
6563 Clear 18 1011 100 10000 0.51 0 23:28 20.06.2021
6564 Clear 18 1012 100 10000 0 0 22:47 20.06.2021
6565 Clouds 19 1012 96 9000 1.54 310 21:37 20.06.2021
6566 Clouds 20 1011 100 10000 0.51 0 20:22 20.06.2021
6567 Clouds 20 1011 96 10000 1.03 320 19:35 20.06.2021
6568 Clouds 21 1011 90 10000 4.63 30 18:44 20.06.2021
6569 Clouds 23 1010 89 10000 2.57 140 17:35 20.06.2021
6570 Clouds 22 1011 90 10000 1.03 0 16:39 20.06.2021
6571 Rain 22 1010 87 10000 2.06 130 15:36 20.06.2021
6572 Rain 22 1011 93 10000 2.57 140 14:55 20.06.2021
6573 Clouds 22 1011 93 10000 2.57 140 14:36 20.06.2021
6574 Rain 23 1011 87 10000 3.09 30 13:19 20.06.2021
6575 Clouds 23 1011 79 10000 2.06 320 11:48 20.06.2021
6576 Clouds 22 1011 87 10000 3.6 330 10:55 20.06.2021
6577 Clouds 22 1011 87 10000 2.06 270 09:49 20.06.2021
6578 Clouds 21 1012 90 10000 1.54 0 08:57 20.06.2021
6579 Clouds 18 1012 96 10000 1.03 200 00:38 20.06.2021
6580 Clouds 17 1012 96 10000 0 0 23:26 19.06.2021
6581 Clouds 18 1012 93 10000 2.57 30 22:30 19.06.2021
6582 Clouds 18 1012 93 10000 2.57 90 21:44 19.06.2021
6583 Clouds 19 1012 93 10000 3.6 90 20:29 19.06.2021
6584 Rain 19 1012 96 10000 5.66 100 18:47 19.06.2021
6585 Rain 19 1011 96 10000 5.66 110 17:51 19.06.2021
6586 Clouds 19 1011 96 10000 6.17 110 17:19 19.06.2021
6587 Clouds 20 1011 93 10000 5.14 130 15:49 19.06.2021
6588 Clouds 19 1011 94 10000 6.17 120 14:19 19.06.2021
6589 Clouds 20 1011 88 10000 4.12 120 12:45 19.06.2021
6590 Rain 19 1011 96 10000 0 0 11:22 19.06.2021
6591 Rain 19 1011 100 3000 3.09 270 10:37 19.06.2021
6592 Rain 20 1011 90 10000 1.03 0 10:18 19.06.2021
6593 Clouds 19 1011 96 10000 3.09 220 08:36 19.06.2021
6594 Clouds 18 1011 100 8000 2.06 230 07:41 19.06.2021
6595 Rain 18 1010 96 6000 2.57 270 05:44 19.06.2021
6596 Clouds 18 1011 96 10000 3.09 300 00:26 19.06.2021
6597 Clouds 18 1011 93 10000 4.12 330 23:58 18.06.2021
6598 Clouds 18 1011 93 10000 4.12 330 23:58 18.06.2021
6599 Clouds 17 1012 100 10000 1.54 290 23:18 18.06.2021
6600 Rain 17 1012 100 10000 2.06 270 22:41 18.06.2021
6601 Clouds 18 1012 96 10000 1.03 0 21:53 18.06.2021
6602 Clouds 18 1012 96 10000 2.06 270 21:27 18.06.2021
6603 Rain 18 1012 96 10000 3.09 260 20:35 18.06.2021
6604 Clouds 19 1012 100 6000 2.57 320 18:57 18.06.2021
6605 Rain 20 1012 96 8000 3.09 270 18:18 18.06.2021
6606 Rain 21 1011 78 3000 3.09 130 16:52 18.06.2021
6607 Rain 25 1011 65 10000 5.14 300 15:53 18.06.2021
6608 Clouds 25 1011 69 10000 5.66 310 14:51 18.06.2021
6609 Clouds 24 1012 69 10000 3.09 330 13:56 18.06.2021
6610 Clouds 23 1012 68 10000 4.12 320 13:23 18.06.2021
6611 Clouds 24 1012 69 10000 6.17 310 12:43 18.06.2021
6612 Clouds 22 1012 87 10000 3.6 310 11:48 18.06.2021
6613 Clouds 21 1013 92 10000 3.6 310 11:19 18.06.2021
6614 Clouds 20 1013 93 10000 5.14 300 10:42 18.06.2021
6615 Clouds 20 1013 93 10000 3.6 300 10:19 18.06.2021
6616 Rain 20 1013 93 10000 5.14 300 09:23 18.06.2021
6617 Rain 20 1013 96 10000 5.66 300 08:35 18.06.2021
6618 Clouds 19 1013 96 10000 6.17 300 07:41 18.06.2021
6619 Rain 18 1013 100 10000 4.12 260 05:51 18.06.2021
6620 Clouds 20 1014 90 10000 4.12 320 00:36 18.06.2021
6621 Clear 20 1015 89 10000 1.54 270 23:32 17.06.2021
6622 Clear 19 1015 93 10000 1.03 0 22:41 17.06.2021
6623 Clear 19 1016 93 10000 1.54 240 22:22 17.06.2021
6624 Clear 19 1016 96 10000 1.03 290 21:25 17.06.2021
6625 Clear 18 1016 88 10000 2.06 340 20:45 17.06.2021
6626 Clear 20 1015 89 10000 1.54 360 20:19 17.06.2021
6627 Clouds 21 1016 90 10000 0 0 19:32 17.06.2021
6628 Clouds 22 1015 73 10000 6.69 100 17:50 17.06.2021
6629 Clouds 26 1015 72 10000 3.6 0 17:24 17.06.2021
6630 Clouds 25 1015 79 10000 3.09 100 16:57 17.06.2021
6631 Clouds 24 1015 69 10000 4.12 130 16:23 17.06.2021
6632 Clouds 26 1015 78 10000 5.66 340 14:39 17.06.2021
6633 Clouds 24 1015 60 10000 5.66 350 13:54 17.06.2021
6634 Clouds 25 1015 82 10000 6.17 320 12:34 17.06.2021
6635 Clouds 24 1015 79 10000 6.17 350 11:51 17.06.2021
6636 Clouds 22 1015 82 10000 7.2 320 10:45 17.06.2021
6637 Clouds 23 1015 82 10000 7.2 350 10:24 17.06.2021
6638 Clouds 21 1015 84 10000 6.69 310 09:42 17.06.2021
6639 Clouds 21 1015 84 10000 6.69 310 09:42 17.06.2021
6640 Clouds 21 1015 84 10000 6.69 310 09:42 17.06.2021
6641 Clouds 21 1015 87 10000 7.2 300 09:21 17.06.2021
6642 Clouds 19 1014 93 10000 3.6 280 07:56 17.06.2021
6643 Clouds 18 1015 96 10000 3.09 280 06:36 17.06.2021
6644 Clouds 17 1013 96 10000 3.09 280 03:22 17.06.2021
6645 Clouds 17 1013 93 10000 2.57 280 23:42 16.06.2021
6646 Clouds 17 1013 96 10000 2.57 290 23:22 16.06.2021
6647 Clouds 17 1013 96 10000 2.06 320 22:33 16.06.2021
6648 Clouds 17 1013 96 10000 1.03 320 21:45 16.06.2021
6649 Clouds 17 1013 93 10000 2.57 290 21:21 16.06.2021
6650 Clouds 18 1012 96 10000 2.57 330 20:43 16.06.2021
6651 Clouds 18 1012 93 10000 0.51 0 19:54 16.06.2021
6652 Clouds 19 1012 93 10000 0.51 0 19:34 16.06.2021
6653 Clouds 19 1011 93 10000 1.54 310 18:55 16.06.2021
6654 Clouds 19 1011 96 10000 3.09 350 18:28 16.06.2021
6655 Clouds 19 1011 96 7000 4.12 360 17:44 16.06.2021
6656 Clouds 20 1010 93 8000 3.09 350 17:26 16.06.2021
6657 Clouds 22 1010 79 10000 5.14 50 16:44 16.06.2021
6658 Clouds 23 1010 73 10000 4.63 20 15:57 16.06.2021
6659 Clouds 23 1010 73 10000 4.63 20 15:36 16.06.2021
6660 Clouds 23 1010 56 10000 5.14 20 14:49 16.06.2021
6661 Clouds 24 1009 73 10000 6.17 10 14:30 16.06.2021
6662 Clouds 24 1009 73 10000 6.17 10 14:30 16.06.2021
6663 Clouds 23 1009 75